/* DATA DESCRIPTION:
Citation:	Sasaki, Shun (2026): Radiosonde measurements from station Minamitorishima (2025-11) [dataset]. Japan Meteorological Agency, Tokyo, PANGAEA, https://doi.org/10.1594/PANGAEA.992656
Other version:	Sasaki, Shun (2026): BSRN Station-to-archive file for station Minamitorishima (2025-11) [dataset]. ftp://ftp.bsrn.awi.de/mnm/mnm1125.dat.gz
Project(s):	Baseline Surface Radiation Network (BSRN) (URI: https://bsrn.awi.de/)
Coverage:	LATITUDE: 24.288300 * LONGITUDE: 153.983300
	DATE/TIME START: 2025-11-01T00:00:00 * DATE/TIME END: 2025-11-30T23:59:00
	MINIMUM ALTITUDE: 9 m * MAXIMUM ALTITUDE: 33325 m
Event(s):	MNM (Minamitorishima) * LATITUDE: 24.288300 * LONGITUDE: 153.983300 * DATE/TIME: 2010-04-01T00:00:00 * ELEVATION: 7.1 m * STATION INFO: https://hdl.handle.net/10013/epic.44630.d003, update 2022: https://download.pangaea.de/reference/115428/attachments/Minamitorishima.pdf * LOCATION: Minami-Torishima * METHOD/DEVICE: Monitoring station (MONS) * COMMENT: BSRN station no: 8; Surface type: water (ocean); Topography type: flat, rural; Horizon: doi:10.1594/PANGAEA.743879; Station scientist: SASAKI Shun (rrc-jma@met.kishou.go.jp)
Parameter(s):	DATE/TIME (Date/Time) * GEOCODE * PI: Sasaki, Shun (rrc-jma@met.kishou.go.jp)
	ALTITUDE [m] (Altitude) * GEOCODE * PI: Sasaki, Shun (rrc-jma@met.kishou.go.jp)
	Pressure, at given altitude [hPa] (PPPP) * PI: Sasaki, Shun (rrc-jma@met.kishou.go.jp) * METHOD/DEVICE: Radiosonde, Meisei, iMS
	Temperature, air [°C] (TTT) * PI: Sasaki, Shun (rrc-jma@met.kishou.go.jp) * METHOD/DEVICE: Radiosonde, Meisei, iMS
	Dew/frost point [°C] (TdTdTd) * PI: Sasaki, Shun (rrc-jma@met.kishou.go.jp) * METHOD/DEVICE: Radiosonde, Meisei, iMS
	Wind direction [deg] (dd) * PI: Sasaki, Shun (rrc-jma@met.kishou.go.jp) * METHOD/DEVICE: Radiosonde, Meisei, iMS
	Wind speed [m/s] (ff) * PI: Sasaki, Shun (rrc-jma@met.kishou.go.jp) * METHOD/DEVICE: Radiosonde, Meisei, iMS
License:	Baseline Surface Radiation Network License 1.0 (BSRN-1.0) (URI: https://bsrn.awi.de/data/conditions-of-data-release/)
Status:	Curation Level: Enhanced curation (URI: https://wiki.pangaea.de/wiki/Curation_levels)
Size:	26102 data points
*/
Date/Time	Altitude [m]	PPPP [hPa]	TTT [°C]	TdTdTd [°C]	dd [deg]	ff [m/s]
2025-11-01T00:00	11556	231			345	11
2025-11-01T00:01	11939	218			335	14
2025-11-01T00:02	12257	207	-52.1			
2025-11-01T00:02	12345	205			345	17
2025-11-01T00:03	12750	192			348	22
2025-11-01T00:04	13127	181			349	21
2025-11-01T00:04	13162	180	-58.9			
2025-11-01T00:05	13522	170			352	15
2025-11-01T00:06	13926	159			341	16
2025-11-01T00:07	14155	153	-66.8			
2025-11-01T00:07	14217	152			345	15
2025-11-01T00:07	14388	147			334	12
2025-11-01T00:08	14482	145	-68.2			
2025-11-01T00:08	14799	138			322	12
2025-11-01T00:09	15197	129			321	12
2025-11-01T00:10	15232	128	-74.3			
2025-11-01T00:10	15340	125	-74.3		315	11
2025-11-01T11:30	9	1019	28.2	25.6	90	7
2025-11-01T11:30	12	1018	28.4	25.4	87	1
2025-11-01T11:30	80	1010			90	7
2025-11-01T11:31	222	995	26.5	24.0		
2025-11-01T11:31	419	973			92	8
2025-11-01T11:31	472	967	24.4	22.5		
2025-11-01T11:32	568	956	24.0	21.1		
2025-11-01T11:32	775	934			115	8
2025-11-01T11:33	954	915	21.8	17.0		
2025-11-01T11:33	1133	897			133	6
2025-11-01T11:33	1144	895	20.7	16.3		
2025-11-01T11:34	1362	873	19.1	15.6		
2025-11-01T11:34	1479	862			133	8
2025-11-01T11:35	1844	826			118	10
2025-11-01T11:35	1867	823	16.9	13.0		
2025-11-01T11:36	2028	808	16.5	13.6		
2025-11-01T11:36	2105	801	16.8	9.0		
2025-11-01T11:36	2129	798			124	12
2025-11-01T11:36	2185	793	16.6	9.3		
2025-11-01T11:36	2260	786	16.5	6.9		
2025-11-01T11:37	2451	769	15.2	5.4		
2025-11-01T11:37	2499	764			127	11
2025-11-01T11:37	2535	761	15.2	2.0		
2025-11-01T11:38	2713	745	14.6	0.1		
2025-11-01T11:38	2832	735			112	9
2025-11-01T11:39	3101	712			124	9
2025-11-01T11:39	3144	708	12.8	-6.2		
2025-11-01T11:39	3288	696	12.1	-9.6		
2025-11-01T11:39	3383	688			121	8
2025-11-01T11:40	3442	683	11.4	-15.2		
2025-11-01T11:40	3729	660	9.7	-21.7		
2025-11-01T11:40	3741	659			99	5
2025-11-01T11:41	3884	648	8.5	-12.0		
2025-11-01T11:41	4069	634			82	2
2025-11-01T11:42	4179	625	6.5	-16.8		
2025-11-01T11:42	4283	617	6.3	-28.8		
2025-11-01T11:42	4301	616			121	5
2025-11-01T11:43	4573	596			126	6
2025-11-01T11:43	4623	592	3.6	-22.3		
2025-11-01T11:44	4900	572	1.9	-29.0		
2025-11-01T11:44	4958	568			102	6
2025-11-01T11:44	4971	567	1.3	-23.3		
2025-11-01T11:45	5277	546			110	5
2025-11-01T11:45	5374	539	-1.1	-30.1		
2025-11-01T11:46	5651	521	-3.0	-31.5		
2025-11-01T11:46	5671	519			126	7
2025-11-01T11:47	6061	494			108	8
2025-11-01T11:47	6280	481	-7.8	-37.8		
2025-11-01T11:47	6345	477			98	6
2025-11-01T11:48	6719	454			87	8
2025-11-01T11:48	6754	452	-11.4	-39.2		
2025-11-01T11:49	6963	440			84	5
2025-11-01T11:50	7207	426			84	6
2025-11-01T11:50	7374	417	-16.7	-38.7		
2025-11-01T11:50	7439	413	-17.1	-29.6		
2025-11-01T11:50	7475	411			70	7
2025-11-01T11:50	7486	410	-17.6	-27.2		
2025-11-01T11:51	7546	407	-18.1	-21.0		
2025-11-01T11:51	7594	405	-18.1	-21.1		
2025-11-01T11:51	7642	402	-17.8	-24.3		
2025-11-01T11:51	7648	402			80	7
2025-11-01T11:52	7887	389	-18.9	-24.9		
2025-11-01T11:52	7906	388			105	8
2025-11-01T11:52	7986	384	-19.0	-28.0		
2025-11-01T11:52	8034	381	-19.1	-31.4		
2025-11-01T11:52	8115	377			94	7
2025-11-01T11:53	8260	370	-21.0	-31.6		
2025-11-01T11:53	8289	369			80	6
2025-11-01T11:53	8433	361	-20.7	-42.0		
2025-11-01T11:54	8654	351			78	7
2025-11-01T11:54	8834	342			81	8
2025-11-01T11:54	8904	339	-24.2	-47.2		
2025-11-01T11:55	9096	330			80	6
2025-11-01T11:55	9257	323			52	3
2025-11-01T11:56	9408	316			38	3
2025-11-01T11:56	9525	311			41	6
2025-11-01T11:56	9549	310	-29.4	-47.3		
2025-11-01T11:56	9661	305			46	6
2025-11-01T11:56	9693	304	-30.2	-50.5		
2025-11-01T11:57	10047	289			17	9
2025-11-01T11:58	10292	279	-35.2	-48.3		
2025-11-01T11:58	10380	275			359	10
2025-11-01T11:59	10646	265	-38.3	-48.6		
2025-11-01T11:59	10756	261	-39.2	-50.5		
2025-11-01T11:59	10782	260			15	10
2025-11-01T11:59	10837	258	-40.0	-50.1		
2025-11-01T12:00	11188	245			30	11
2025-11-01T12:01	11594	230			20	11
2025-11-01T12:02	11972	217			23	10
2025-11-01T12:03	12111	213	-50.9			
2025-11-01T12:03	12344	205			23	9
2025-11-01T12:04	12738	193			4	11
2025-11-01T12:05	13066	183			357	12
2025-11-01T12:06	13316	176			12	11
2025-11-01T12:06	13580	169			12	5
2025-11-01T12:07	13781	164			31	2
2025-11-01T12:07	13880	161	-63.2			
2025-11-01T12:07	13997	158			51	5
2025-11-01T12:08	14427	147			347	5
2025-11-01T12:09	14757	139	-69.8			
2025-11-01T12:09	14903	136			330	10
2025-11-01T12:10	15276	128	-71.7			
2025-11-01T12:10	15398	125			330	18
2025-11-01T12:11	15826	116	-72.8			
2025-11-01T12:11	15892	115			336	12
2025-11-01T12:12	16201	109	-74.3			
2025-11-01T12:12	16377	106			328	9
2025-11-01T12:13	16805	98			327	9
2025-11-01T12:13	16841	97	-78.9			
2025-11-01T12:13	16960	95	-77.2		349	6
2025-11-01T23:30	9	1018	30.2	26.4	110	7
2025-11-01T23:30	11	1017	29.8	26.0	110	1
2025-11-01T23:30	20	1016	29.4	25.0		
2025-11-01T23:30	41	1014			121	4
2025-11-01T23:30	52	1013	28.2	24.4		
2025-11-01T23:31	166	1000			108	9
2025-11-01T23:31	415	972	24.7	23.0		
2025-11-01T23:32	507	962			112	9
2025-11-01T23:32	656	946	22.8	22.1		
2025-11-01T23:32	758	935	22.4	20.5		
2025-11-01T23:32	798	931	22.4	18.8		
2025-11-01T23:33	848	926			122	10
2025-11-01T23:33	1102	899	21.1	17.3		
2025-11-01T23:34	1180	891			110	11
2025-11-01T23:34	1295	879	20.0	15.6		
2025-11-01T23:35	1507	858			116	10
2025-11-01T23:35	1529	855	19.0	14.3		
2025-11-01T23:35	1698	839	18.5	11.8		
2025-11-01T23:35	1743	834	18.5	9.6		
2025-11-01T23:35	1811	828	17.9	11.5		
2025-11-01T23:36	1845	824			120	10
2025-11-01T23:36	1919	817	17.8	10.2		
2025-11-01T23:36	2026	807	17.3	8.7		
2025-11-01T23:37	2178	793			126	11
2025-11-01T23:37	2199	791	16.5	5.2		
2025-11-01T23:37	2237	787	16.2	7.4		
2025-11-01T23:38	2489	764			120	10
2025-11-01T23:38	2494	764	15.2	2.0		
2025-11-01T23:38	2608	754	14.8	1.3		
2025-11-01T23:38	2724	743	14.1	1.4		
2025-11-01T23:39	2784	738	14.2	-4.5	122	10
2025-11-01T23:39	2852	732	13.9	-1.7		
2025-11-01T23:39	2913	727	13.7	-6.5		
2025-11-01T23:39	3000	719	13.4	-6.2		
2025-11-01T23:39	3046	715			127	9
2025-11-01T23:40	3206	702	12.9	-7.7		
2025-11-01T23:40	3241	699			107	9
2025-11-01T23:40	3288	695	12.0	-2.2		
2025-11-01T23:40	3325	692	12.1	-11.5		
2025-11-01T23:41	3383	687	11.7	-0.5		
2025-11-01T23:41	3480	679			94	11
2025-11-01T23:41	3496	678	10.8	-5.7		
2025-11-01T23:41	3559	673	11.0	-15.5		
2025-11-01T23:42	3757	657	10.1	-20.2		
2025-11-01T23:42	3825	651			88	11
2025-11-01T23:42	3936	643	9.1	-22.2		
2025-11-01T23:43	4153	626			94	10
2025-11-01T23:43	4368	610	5.5	-24.9		
2025-11-01T23:44	4444	604			97	9
2025-11-01T23:44	4460	603	4.8	-23.3		
2025-11-01T23:44	4641	590			104	6
2025-11-01T23:45	4779	580	3.1	-23.6		
2025-11-01T23:45	4913	570			113	6
2025-11-01T23:46	5095	557			93	6
2025-11-01T23:46	5272	545			119	9
2025-11-01T23:47	5598	523			114	10
2025-11-01T23:48	5688	518	-3.6	-29.0		
2025-11-01T23:48	5746	514			123	10
2025-11-01T23:49	6026	496			110	10
2025-11-01T23:50	6371	474			115	11
2025-11-01T23:50	6516	466	-9.7	-36.7		
2025-11-01T23:51	6702	454			93	11
2025-11-01T23:51	6872	444	-12.6	-35.4		
2025-11-01T23:52	7021	436			91	11
2025-11-01T23:52	7037	435	-13.8	-30.1		
2025-11-01T23:52	7092	432	-13.8	-23.7		
2025-11-01T23:52	7177	427	-13.7	-26.5		
2025-11-01T23:52	7225	424			93	7
2025-11-01T23:53	7459	411			107	6
2025-11-01T23:54	7658	400	-17.8	-32.3		
2025-11-01T23:54	7807	392			78	10
2025-11-01T23:54	7813	392	-18.7	-40.4		
2025-11-01T23:55	8100	377	-21.0	-36.7		
2025-11-01T23:55	8146	375	-21.3	-35.4		
2025-11-01T23:55	8164	374			53	11
2025-11-01T23:56	8328	366	-22.6	-36.5		
2025-11-01T23:56	8510	357			42	12
2025-11-01T23:56	8522	356	-24.0	-38.5		
2025-11-01T23:57	8693	348	-23.9	-46.1		
2025-11-01T23:57	8840	341			21	13
2025-11-01T23:57	8923	337	-25.0	-42.5		
2025-11-01T23:58	9237	323	-27.2	-42.5		
2025-11-01T23:58	9244	322			17	14
2025-11-01T23:59	9630	305	-30.7	-49.0		
2025-11-01T23:59	9665	304			32	11
2025-11-02T00:00	10059	287	-33.9	-56.9		
2025-11-02T00:00	10073	287			56	11
2025-11-02T00:01	10464	271			59	13
2025-11-02T00:02	10727	261	-40.0	-59.2		
2025-11-02T00:02	10865	256			68	14
2025-11-02T00:03	11295	240			54	13
2025-11-02T00:04	11616	229	-47.5			
2025-11-02T00:04	11709	225			48	14
2025-11-02T00:05	12105	212	-51.5			
2025-11-02T00:05	12148	211			46	12
2025-11-02T00:06	12508	199			36	12
2025-11-02T00:07	12827	190	-56.4			
2025-11-02T00:07	12936	186			52	13
2025-11-02T00:08	13358	174			41	13
2025-11-02T00:09	13778	163			35	15
2025-11-02T00:10	14199	152			26	17
2025-11-02T00:11	14640	141			22	17
2025-11-02T00:11	14742	138	-72.8			
2025-11-02T00:12	15066	131	-74.3			
2025-11-02T00:12	15113	130			359	19
2025-11-02T00:12	15224	127	-73.5			
2025-11-02T00:12	15404	124			356	25
2025-11-02T00:13	15636	119	-74.7			
2025-11-02T00:13	15766	116			4	18
2025-11-02T00:13	15775	116	-74.0			
2025-11-02T00:13	15898	114	-71.9			
2025-11-02T00:14	15987	112			37	10
2025-11-02T00:14	16444	103			92	10
2025-11-02T00:15	16635	100	-76.9			
2025-11-02T00:15	16844	96	-78.6			
2025-11-02T00:15	16932	95			139	7
2025-11-02T00:16	17102	92			133	4
2025-11-02T00:16	17125	92	-80.0			
2025-11-02T00:16	17248	90			112	5
2025-11-02T00:16	17379	88	-79.5			
2025-11-02T00:16	17431	87			112	3
2025-11-02T00:17	17767	82	-76.2			
2025-11-02T00:17	17874	80			135	4
2025-11-02T00:18	17989	79	-76.7			
2025-11-02T00:18	18031	78			173	1
2025-11-02T00:18	18179	76			27	3
2025-11-02T00:18	18189	76	-75.1			
2025-11-02T00:19	18363	74			78	4
2025-11-02T00:19	18457	73			44	2
2025-11-02T00:19	18540	72			11	3
2025-11-02T00:19	18651	70			57	4
2025-11-02T00:20	18815	68			112	7
2025-11-02T00:20	19021	66	-74.1		92	6
2025-11-02T00:21	19227	64			52	10
2025-11-02T00:21	19512	61	-71.6			
2025-11-02T00:21	19561	60			97	10
2025-11-02T00:22	19758	58	-72.8			
2025-11-02T00:22	19872	57	-71.1			
2025-11-02T00:22	19989	56			85	9
2025-11-02T00:23	20096	55	-69.4			
2025-11-02T00:23	20293	53	-67.8			
2025-11-02T00:23	20408	52			105	14
2025-11-02T00:24	20596	51			117	11
2025-11-02T00:24	20813	49			143	7
2025-11-02T00:25	20970	48			107	5
2025-11-02T00:25	21220	46	-64.3			
2025-11-02T00:26	21311	45			78	10
2025-11-02T00:26	21608	43			75	6
2025-11-02T00:27	21978	40			75	8
2025-11-02T00:28	22223	39			74	6
2025-11-02T00:28	22371	38			67	8
2025-11-02T00:28	22451	37	-61.4			
2025-11-02T00:29	22588	37			95	10
2025-11-02T00:30	23011	34			128	9
2025-11-02T00:30	23066	34	-59.7			
2025-11-02T00:31	23331	33			99	6
2025-11-02T00:31	23608	31	-58.2			
2025-11-02T00:32	23770	30			68	8
2025-11-02T00:32	24135	29			77	13
2025-11-02T00:33	24472	27	-58.4			
2025-11-02T00:33	24565	27			115	9
2025-11-02T00:34	24756	26			125	6
2025-11-02T00:34	24807	26	-58.3			
2025-11-02T00:34	24980	25			77	7
2025-11-02T00:35	25238	24			93	7
2025-11-02T00:36	25675	22			53	7
2025-11-02T00:37	25995	21			71	5
2025-11-02T00:38	26366	20	-55.2			
2025-11-02T00:38	26494	20			73	8
2025-11-02T00:39	26899	19			86	6
2025-11-02T00:39	27185	18			85	6
2025-11-02T00:40	27335	17			87	4
2025-11-02T00:40	27485	17			87	4
2025-11-02T00:41	27797	16	-50.2		357	5
2025-11-02T00:41	28127	15			338	5
2025-11-02T00:42	28215	15			325	2
2025-11-02T00:42	28262	15	-51.0			
2025-11-02T00:42	28345	15			249	3
2025-11-02T00:43	28755	14			344	2
2025-11-02T00:43	28944	14			237	2
2025-11-02T00:43	29140	13			235	7
2025-11-02T00:44	29339	13	-51.4			
2025-11-02T00:44	29497	12			253	5
2025-11-02T00:45	29670	12	-51.1		234	4
2025-11-02T11:30	9	1018	27.8	24.9	90	11
2025-11-02T11:30	12	1017	28.2	24.2	85	1
2025-11-02T11:30	46	1013			80	5
2025-11-02T11:30	70	1011	27.9	23.1		
2025-11-02T11:30	126	1004			93	11
2025-11-02T11:31	183	998	27.2	21.0		
2025-11-02T11:31	331	981			94	15
2025-11-02T11:31	483	965	25.2	19.6		
2025-11-02T11:32	597	952	24.2	19.5		
2025-11-02T11:32	672	944			95	13
2025-11-02T11:32	823	928	22.2	19.7		
2025-11-02T11:33	1027	906			101	13
2025-11-02T11:34	1234	885	19.7	16.9		
2025-11-02T11:34	1374	871			97	12
2025-11-02T11:35	1602	848	17.9	13.8		
2025-11-02T11:35	1700	838			92	12
2025-11-02T11:35	1807	828	16.7	12.8		
2025-11-02T11:35	1858	823	16.8	12.1		
2025-11-02T11:36	2002	809	16.3	14.1		
2025-11-02T11:36	2042	805			88	12
2025-11-02T11:37	2229	788	15.5	12.3		
2025-11-02T11:37	2325	779	15.3	10.1		
2025-11-02T11:37	2366	775	15.7	7.0	94	12
2025-11-02T11:38	2532	760	14.5	7.1		
2025-11-02T11:38	2669	748			94	13
2025-11-02T11:38	2675	747	13.9	5.0		
2025-11-02T11:38	2777	738	13.4	2.0		
2025-11-02T11:39	2904	727	13.0	-2.1		
2025-11-02T11:39	2989	720	12.7	-2.4	93	10
2025-11-02T11:39	3095	711	11.7	-1.8		
2025-11-02T11:40	3212	701	11.5	-12.7		
2025-11-02T11:40	3323	692			108	7
2025-11-02T11:40	3394	686	10.4	-10.4		
2025-11-02T11:40	3490	678	9.3	-5.8		
2025-11-02T11:41	3575	671	8.5	-3.1		
2025-11-02T11:41	3643	666	8.1	-5.4		
2025-11-02T11:41	3685	662			129	9
2025-11-02T11:41	3691	662	7.6	-5.8		
2025-11-02T11:41	3790	654	6.7	-1.5		
2025-11-02T11:42	3906	645	6.8	-9.6		
2025-11-02T11:42	3948	642	7.4	-16.8		
2025-11-02T11:42	4049	634			121	9
2025-11-02T11:42	4125	628	7.0	-22.6		
2025-11-02T11:43	4392	608			101	8
2025-11-02T11:43	4517	598	3.8	-26.3		
2025-11-02T11:44	4631	590			104	8
2025-11-02T11:44	4822	576			108	8
2025-11-02T11:45	4929	569			100	8
2025-11-02T11:45	5067	559			100	8
2025-11-02T11:46	5368	538			116	6
2025-11-02T11:46	5436	534	-1.5	-41.4		
2025-11-02T11:47	5686	517			115	8
2025-11-02T11:48	6037	494			122	9
2025-11-02T11:48	6092	491	-6.7	-35.6		
2025-11-02T11:49	6285	479			120	6
2025-11-02T11:49	6427	470			121	7
2025-11-02T11:50	6719	453	-12.2	-23.3		
2025-11-02T11:50	6786	449			149	5
2025-11-02T11:51	6994	437	-14.3	-24.7		
2025-11-02T11:51	7082	432			146	5
2025-11-02T11:51	7125	429	-15.3	-25.9		
2025-11-02T11:52	7368	416	-16.7	-35.5		
2025-11-02T11:52	7453	411	-17.4	-32.8	134	7
2025-11-02T11:52	7598	403	-17.8	-41.2		
2025-11-02T11:53	7678	399			106	7
2025-11-02T11:53	7745	395	-19.2	-30.3		
2025-11-02T11:53	7862	389			122	10
2025-11-02T11:53	7899	387	-20.3	-31.8		
2025-11-02T11:53	7966	383	-20.6	-34.4		
2025-11-02T11:54	8181	372	-22.5	-34.1		
2025-11-02T11:54	8231	370			147	8
2025-11-02T11:55	8347	364	-23.4	-40.1		
2025-11-02T11:55	8533	355	-24.3	-44.3		
2025-11-02T11:55	8625	351			118	9
2025-11-02T11:55	8739	345	-24.9	-50.9		
2025-11-02T11:56	8933	336			104	10
2025-11-02T11:56	9072	330	-27.1	-59.5		
2025-11-02T11:57	9249	322			83	12
2025-11-02T11:58	9639	304			77	17
2025-11-02T11:58	9687	302	-32.3	-53.7		
2025-11-02T11:58	9849	295	-33.6	-50.8		
2025-11-02T11:59	10032	288	-33.9	-62.3		
2025-11-02T11:59	10046	287			49	14
2025-11-02T12:00	10472	270			50	14
2025-11-02T12:00	10741	260	-39.7	-62.5		
2025-11-02T12:01	10805	257	-39.8	-52.0		
2025-11-02T12:01	10898	254			58	13
2025-11-02T12:01	10906	254	-40.0	-63.9		
2025-11-02T12:02	11313	239			35	11
2025-11-02T12:03	11711	225			34	14
2025-11-02T12:04	12090	212			47	14
2025-11-02T12:04	12135	211	-50.4			
2025-11-02T12:05	12471	200			55	14
2025-11-02T12:06	12871	188			25	15
2025-11-02T12:06	13143	180	-58.6			
2025-11-02T12:07	13307	176			30	15
2025-11-02T12:08	13770	163			14	16
2025-11-02T12:08	13944	158	-64.5			
2025-11-02T12:09	14235	151			26	16
2025-11-02T12:10	14663	141			26	16
2025-11-02T12:10	14696	140	-69.6			
2025-11-02T12:10	14852	136	-70.0			
2025-11-02T12:10	15106	131			19	15
2025-11-02T12:11	15291	126			56	10
2025-11-02T12:11	15470	123			65	11
2025-11-02T12:11	15478	122	-73.9			
2025-11-02T12:12	15792	116			77	7
2025-11-02T12:12	16013	112			58	4
2025-11-02T12:13	16126	109	-78.5			
2025-11-02T12:13	16164	109			351	7
2025-11-02T12:13	16313	106	-78.4		349	9
2025-11-02T23:30	9	1017	30.5	25.8	110	7
2025-11-02T23:30	11	1017	30.0	25.1	110	1
2025-11-02T23:30	42	1013			97	5
2025-11-02T23:30	66	1011	28.4	23.3		
2025-11-02T23:31	170	999			109	8
2025-11-02T23:32	516	961			110	9
2025-11-02T23:32	656	946	22.8	21.3		
2025-11-02T23:32	789	931	22.2	19.2		
2025-11-02T23:33	879	922			117	11
2025-11-02T23:33	1021	907	21.0	17.6		
2025-11-02T23:34	1230	885			129	11
2025-11-02T23:34	1282	880	19.9	15.1		
2025-11-02T23:34	1488	859	19.0	11.1		
2025-11-02T23:35	1572	851			129	10
2025-11-02T23:35	1642	844	18.5	7.3		
2025-11-02T23:35	1837	825	18.4	3.8		
2025-11-02T23:36	1896	819			124	10
2025-11-02T23:36	1993	810	18.5	-3.6		
2025-11-02T23:36	2057	804	17.9	2.6		
2025-11-02T23:36	2122	798	17.4	3.7		
2025-11-02T23:37	2249	786			127	10
2025-11-02T23:37	2390	773	15.7	1.8		
2025-11-02T23:37	2471	765	15.4	1.5		
2025-11-02T23:37	2552	758	14.9	1.1		
2025-11-02T23:38	2620	752			126	10
2025-11-02T23:38	2729	742	14.3	-3.0		
2025-11-02T23:38	2937	724	12.6	-5.9		
2025-11-02T23:39	2977	721			129	11
2025-11-02T23:39	3012	718	13.0	-19.2		
2025-11-02T23:39	3152	706	12.3	-15.4		
2025-11-02T23:39	3221	700	11.8	-12.5		
2025-11-02T23:40	3325	691			124	10
2025-11-02T23:41	3684	662			116	9
2025-11-02T23:41	3875	647	7.8	-19.9		
2025-11-02T23:42	4044	634			116	6
2025-11-02T23:42	4105	629	6.9	-22.7		
2025-11-02T23:43	4415	606	5.1	-23.0	111	9
2025-11-02T23:44	4785	578			118	7
2025-11-02T23:44	4962	566	0.3	-24.1		
2025-11-02T23:44	5091	557			134	5
2025-11-02T23:45	5224	548	-1.5	-26.4		
2025-11-02T23:45	5285	543	-2.0	-24.5		
2025-11-02T23:45	5358	538			107	4
2025-11-02T23:46	5497	529	-2.4	-33.7		
2025-11-02T23:46	5718	514			92	8
2025-11-02T23:46	5776	511	-4.9	-26.2		
2025-11-02T23:47	6026	494	-6.7	-38.4		
2025-11-02T23:47	6074	491			107	6
2025-11-02T23:48	6434	469			114	4
2025-11-02T23:49	6672	455			86	3
2025-11-02T23:49	6727	452	-12.5	-33.2		
2025-11-02T23:49	6842	445			19	2
2025-11-02T23:49	6854	444	-13.5	-28.2		
2025-11-02T23:49	6915	441			327	4
2025-11-02T23:50	7140	428	-15.7	-33.1	323	3
2025-11-02T23:51	7414	412			78	3
2025-11-02T23:51	7524	406	-18.2	-38.6		
2025-11-02T23:51	7597	402	-18.1	-47.0		
2025-11-02T23:52	7754	394			104	2
2025-11-02T23:52	7774	393	-19.6	-38.5		
2025-11-02T23:53	8131	374			79	1
2025-11-02T23:53	8302	366	-24.3	-42.4		
2025-11-02T23:53	8373	362			13	6
2025-11-02T23:54	8526	355	-25.2	-50.0		
2025-11-02T23:54	8658	348	-24.7	-57.8		
2025-11-02T23:54	8732	345			45	8
2025-11-02T23:55	8883	338	-25.9	-61.8		
2025-11-02T23:55	9057	329			73	13
2025-11-02T23:56	9246	321	-27.7	-68.2		
2025-11-02T23:56	9447	312			67	17
2025-11-02T23:57	9848	295			57	16
2025-11-02T23:58	9984	289	-34.4	-64.8		
2025-11-02T23:58	10254	278			50	15
2025-11-02T23:59	10616	264	-39.9	-66.8		
2025-11-02T23:59	10672	262			50	14
2025-11-02T23:59	10720	260	-40.0	-66.9		
2025-11-03T00:00	11080	247			39	13
2025-11-03T00:01	11495	232			55	12
2025-11-03T00:02	11727	224	-47.5			
2025-11-03T00:02	11903	218			45	12
2025-11-03T00:03	12299	205	-52.0			
2025-11-03T00:03	12319	204			42	14
2025-11-03T00:04	12580	196	-54.1			
2025-11-03T00:04	12747	191			24	13
2025-11-03T00:05	13176	179			20	13
2025-11-03T00:06	13615	167			22	13
2025-11-03T00:07	14075	154			24	12
2025-11-03T00:08	14248	150	-67.9			
2025-11-03T00:08	14535	143			26	11
2025-11-03T00:08	14651	140	-70.7			
2025-11-03T00:09	14895	135			57	6
2025-11-03T00:09	14911	134	-70.4			
2025-11-03T00:09	15119	130			54	5
2025-11-03T00:10	15413	123			360	7
2025-11-03T00:11	15675	118			18	10
2025-11-03T00:11	15972	112	-75.9			
2025-11-03T00:12	16059	110			14	14
2025-11-03T00:12	16304	106			18	9
2025-11-03T00:12	16471	103	-76.5			
2025-11-03T00:12	16504	102			23	9
2025-11-03T00:13	16595	101	-75.8			
2025-11-03T00:13	16795	97			94	8
2025-11-03T00:14	17254	90			100	4
2025-11-03T00:14	17278	89	-79.1			
2025-11-03T00:15	17520	85			43	4
2025-11-03T00:15	17631	84	-76.8			
2025-11-03T00:16	17950	79	-76.7			
2025-11-03T00:16	17965	79			115	10
2025-11-03T00:16	18156	77	-76.6			
2025-11-03T00:17	18367	74			146	8
2025-11-03T00:17	18528	72	-74.9			
2025-11-03T00:17	18703	70			117	7
2025-11-03T00:18	18744	69	-73.5			
2025-11-03T00:18	19005	66			101	4
2025-11-03T00:18	19112	65	-70.8			
2025-11-03T00:19	19242	64	-69.5			
2025-11-03T00:19	19358	62			78	10
2025-11-03T00:20	19759	58			86	11
2025-11-03T00:20	19831	58	-72.3			
2025-11-03T00:21	20007	56			98	8
2025-11-03T00:21	20128	55	-68.7			
2025-11-03T00:21	20259	54			84	8
2025-11-03T00:22	20442	52			94	4
2025-11-03T00:22	20533	51	-68.1			
2025-11-03T00:22	20559	51			82	6
2025-11-03T00:22	20690	50	-66.0			
2025-11-03T00:23	20787	49			128	7
2025-11-03T00:23	20963	48			111	6
2025-11-03T00:23	20992	47	-64.8			
2025-11-03T00:24	21133	46			111	10
2025-11-03T00:24	21474	44			123	13
2025-11-03T00:25	21601	43	-64.9			
2025-11-03T00:25	21688	42			138	9
2025-11-03T00:25	21879	41			129	11
2025-11-03T00:26	21941	41	-61.5			
2025-11-03T00:26	22124	39			118	3
2025-11-03T00:26	22273	39			68	5
2025-11-03T00:26	22319	38	-60.4			
2025-11-03T00:27	22500	37			91	6
2025-11-03T00:28	22848	35			128	4
2025-11-03T00:28	22864	35	-58.9			
2025-11-03T00:28	23030	34			113	2
2025-11-03T00:29	23313	33	-58.0			
2025-11-03T00:29	23452	32			79	1
2025-11-03T00:30	23632	31			345	3
2025-11-03T00:30	23969	29			67	6
2025-11-03T00:31	24208	28	-57.0			
2025-11-03T00:31	24341	28			100	6
2025-11-03T00:32	24697	26			112	5
2025-11-03T00:32	24945	25			105	7
2025-11-03T00:33	25227	24			118	11
2025-11-03T00:34	25632	23			129	9
2025-11-03T00:34	25805	22	-56.1			
2025-11-03T00:35	25895	22			140	4
2025-11-03T00:35	26102	21			140	3
2025-11-03T00:35	26223	21			103	3
2025-11-03T00:36	26544	20			159	6
2025-11-03T00:37	26773	19			165	4
2025-11-03T00:37	27084	18			200	4
2025-11-03T00:38	27379	17			113	2
2025-11-03T00:38	27643	17	-55.0			
2025-11-03T00:39	27799	16			118	3
2025-11-03T00:40	28164	15			172	5
2025-11-03T00:40	28555	14			252	3
2025-11-03T00:40	28597	14	-56.7			
2025-11-03T00:41	28782	14			212	6
2025-11-03T00:41	28918	14	-56.9			
2025-11-03T00:42	29159	13			220	9
2025-11-03T00:42	29460	12	-54.2		289	6
2025-11-03T00:43	29725	12			289	5
2025-11-03T00:43	29945	12			252	6
2025-11-03T00:44	30238	11	-49.6			
2025-11-03T00:44	30354	11			255	13
2025-11-03T00:45	30607	10			233	17
2025-11-03T00:45	30932	10	-47.2		249	14
2025-11-03T11:30	9	1017	28.1	24.5	90	9
2025-11-03T11:30	13	1016	28.3	24.3	113	2
2025-11-03T11:30	47	1013			101	6
2025-11-03T11:30	115	1005	27.7	22.6		
2025-11-03T11:30	137	1002			96	9
2025-11-03T11:31	472	965	24.3	21.4		
2025-11-03T11:31	478	964			95	9
2025-11-03T11:32	600	951	23.4	19.1		
2025-11-03T11:32	629	948	24.0	15.2		
2025-11-03T11:32	665	944	23.7	15.2		
2025-11-03T11:32	724	938	23.2	17.2		
2025-11-03T11:32	830	926			102	9
2025-11-03T11:33	941	915	22.2	13.3		
2025-11-03T11:33	1000	909	22.2	11.6		
2025-11-03T11:33	1101	898	21.3	14.0		
2025-11-03T11:33	1183	890			112	9
2025-11-03T11:34	1295	878	20.3	12.0		
2025-11-03T11:34	1454	862	19.7	8.1		
2025-11-03T11:34	1489	859	20.0	6.0		
2025-11-03T11:34	1537	854	19.5	10.0	113	8
2025-11-03T11:35	1629	845	19.1	5.2		
2025-11-03T11:35	1677	840	18.7	8.9		
2025-11-03T11:35	1755	833	18.2	8.2		
2025-11-03T11:35	1875	821			111	9
2025-11-03T11:36	1989	810	17.8	-7.6		
2025-11-03T11:36	2041	805			99	9
2025-11-03T11:36	2194	791	17.4	-13.4		
2025-11-03T11:37	2371	775			103	8
2025-11-03T11:38	2691	746			106	10
2025-11-03T11:38	2718	743	13.7	-13.3		
2025-11-03T11:38	2868	730	13.3	-16.6		
2025-11-03T11:38	2897	728			109	9
2025-11-03T11:39	2999	719	12.7	-18.2		
2025-11-03T11:39	3174	704			116	10
2025-11-03T11:39	3244	698	11.7	-20.2		
2025-11-03T11:40	3528	675			121	9
2025-11-03T11:41	3674	663	9.6	-21.8		
2025-11-03T11:41	3893	646			121	9
2025-11-03T11:42	4202	622	5.4	-22.8		
2025-11-03T11:42	4248	619			114	9
2025-11-03T11:43	4544	596	3.2	-28.0		
2025-11-03T11:43	4594	593			98	7
2025-11-03T11:44	4753	581	2.0	-23.6		
2025-11-03T11:44	4798	578	1.4	-13.9		
2025-11-03T11:44	4901	571	0.6	-16.7		
2025-11-03T11:44	4936	568			80	7
2025-11-03T11:45	5011	563	-0.1	-16.0		
2025-11-03T11:45	5285	544			92	5
2025-11-03T11:46	5509	529	-3.6	-17.9		
2025-11-03T11:46	5527	527			117	4
2025-11-03T11:46	5626	521	-4.6	-19.2		
2025-11-03T11:46	5680	517	-4.6	-27.4		
2025-11-03T11:47	5765	512			89	5
2025-11-03T11:47	6005	496	-6.8	-26.6	97	4
2025-11-03T11:48	6339	475	-9.2	-30.5		
2025-11-03T11:48	6345	475			47	4
2025-11-03T11:49	6505	465	-10.7	-31.7		
2025-11-03T11:49	6561	462	-11.0	-25.6		
2025-11-03T11:49	6605	459			74	2
2025-11-03T11:49	6616	459	-11.1	-27.7		
2025-11-03T11:50	6872	443			78	3
2025-11-03T11:50	7056	433			120	3
2025-11-03T11:51	7275	420	-17.0	-32.0		
2025-11-03T11:51	7337	417			107	3
2025-11-03T11:52	7474	409			125	2
2025-11-03T11:52	7548	405	-19.3	-33.2		
2025-11-03T11:52	7658	399	-20.1	-36.4		
2025-11-03T11:53	7829	390			76	1
2025-11-03T11:53	7996	381	-23.0	-36.5		
2025-11-03T11:53	8031	380	-22.2	-44.0		
2025-11-03T11:53	8066	378	-21.5	-44.2		
2025-11-03T11:54	8181	372			312	1
2025-11-03T11:54	8263	368	-22.9	-47.1		
2025-11-03T11:54	8328	365	-22.2	-59.3		
2025-11-03T11:54	8481	357			93	3
2025-11-03T11:55	8767	343	-24.7	-66.2		
2025-11-03T11:55	8823	341			59	7
2025-11-03T11:56	8903	337	-25.3	-66.6		
2025-11-03T11:56	9139	326			86	9
2025-11-03T11:57	9342	317	-28.6	-68.8		
2025-11-03T11:57	9517	309			79	9
2025-11-03T11:58	9893	293			68	8
2025-11-03T11:59	10272	278			52	8
2025-11-03T12:00	10495	269	-38.3	-60.4		
2025-11-03T12:00	10650	263			45	9
2025-11-03T12:00	10656	263	-39.6	-60.5		
2025-11-03T12:01	10810	257	-40.0	-66.9		
2025-11-03T12:01	11020	249			65	6
2025-11-03T12:02	11368	237			68	6
2025-11-03T12:03	11717	224			36	6
2025-11-03T12:04	12034	214			53	5
2025-11-03T12:05	12382	203			19	7
2025-11-03T12:05	12442	201	-53.4			
2025-11-03T12:06	12711	193			23	6
2025-11-03T12:07	13053	182			18	4
2025-11-03T12:08	13388	173			21	4
2025-11-03T12:09	13724	164			24	4
2025-11-03T12:09	13767	163	-63.8			
2025-11-03T12:10	14073	155			11	8
2025-11-03T12:11	14409	146			11	8
2025-11-03T12:12	14688	140	-69.7			
2025-11-03T12:12	14715	139			22	10
2025-11-03T12:12	14957	133			355	12
2025-11-03T12:13	15083	131	-70.7			
2025-11-03T12:13	15404	124	-72.5			
2025-11-03T12:13	15475	122			67	6
2025-11-03T12:14	15677	118	-74.1			
2025-11-03T12:14	15738	117			86	4
2025-11-03T12:14	15918	113			112	4
2025-11-03T12:15	16069	110			120	1
2025-11-03T12:15	16148	109			345	3
2025-11-03T12:15	16208	108	-76.6			
2025-11-03T12:15	16361	105	-76.7			
2025-11-03T12:15	16403	104			8	6
2025-11-03T12:16	16555	101	-77.4			
2025-11-03T12:16	16866	96			350	6
2025-11-03T12:16	16915	95	-76.8			
2025-11-03T12:17	16986	94			38	4
2025-11-03T12:17	17165	91			76	4
2025-11-03T12:17	17304	89			64	3
2025-11-03T12:18	17455	87			34	4
2025-11-03T12:18	17509	86	-76.6			
2025-11-03T12:18	17664	84			91	2
2025-11-03T12:19	17838	81	-75.1			
2025-11-03T12:19	17961	79			49	4
2025-11-03T12:19	18012	79	-74.1			
2025-11-03T12:20	18186	76			41	5
2025-11-03T12:21	18509	72			92	7
2025-11-03T12:22	18842	68	-73.2		90	8
2025-11-03T12:23	19168	65			74	6
2025-11-03T12:23	19316	63			76	7
2025-11-03T12:23	19325	63	-71.1			
2025-11-03T12:24	19499	61	-68.2			
2025-11-03T12:24	19628	60			125	9
2025-11-03T12:24	19639	60	-66.9			
2025-11-03T12:25	19872	57			133	8
2025-11-03T12:25	20045	56	-66.4			
2025-11-03T12:26	20097	55			132	8
2025-11-03T12:26	20288	54			127	9
2025-11-03T12:27	20470	52			127	14
2025-11-03T12:27	20522	52	-65.6			
2025-11-03T12:28	20799	49			123	7
2025-11-03T12:28	21166	46			112	7
2025-11-03T12:29	21192	46	-63.3			
2025-11-03T12:29	21355	45			117	3
2025-11-03T12:29	21509	44	-61.8		64	4
2025-11-03T12:30	21795	42			68	6
2025-11-03T12:30	21826	42	-62.5			
2025-11-03T12:31	21976	41			89	8
2025-11-03T12:31	22180	39	-61.2			
2025-11-03T12:32	22306	39			108	14
2025-11-03T12:32	22640	37			114	7
2025-11-03T12:33	22885	35			113	7
2025-11-03T12:34	23196	34			116	5
2025-11-03T12:34	23293	33	-57.6			
2025-11-03T12:34	23428	32			124	2
2025-11-03T12:35	23547	32			167	3
2025-11-03T12:35	23853	30	-55.7			
2025-11-03T12:35	23899	30			221	3
2025-11-03T12:36	24248	28			262	1
2025-11-03T12:37	24502	27	-54.4			
2025-11-03T12:37	24691	27			338	2
2025-11-03T12:38	24860	26			148	3
2025-11-03T12:38	25058	25			172	7
2025-11-03T12:39	25451	24			218	3
2025-11-03T12:39	25672	23			351	3
2025-11-03T12:39	25698	23			356	4
2025-11-03T12:40	25728	23			1	4
2025-11-03T12:40	25956	22			54	3
2025-11-03T12:40	26044	21			22	2
2025-11-03T12:40	26135	21			354	3
2025-11-03T12:41	26198	21	-56.5			
2025-11-03T12:42	26608	20			295	2
2025-11-03T12:42	26838	19			276	4
2025-11-03T12:43	27113	18	-53.9			
2025-11-03T12:43	27334	18			269	8
2025-11-03T12:44	27599	17			266	9
2025-11-03T12:44	27794	16			241	8
2025-11-03T12:45	28079	16			241	8
2025-11-03T12:45	28248	15			220	10
2025-11-03T12:45	28290	15	-48.9			
2025-11-03T12:46	28648	14			220	8
2025-11-03T12:46	28878	14			217	10
2025-11-03T12:47	29264	13			241	11
2025-11-03T12:47	29358	13	-54.3			
2025-11-03T12:48	29616	12			231	15
2025-11-03T12:48	29934	12			246	14
2025-11-03T12:49	30273	11	-54.3		231	13
2025-11-03T12:50	30506	11			237	9
2025-11-03T12:51	31015	10			210	8
2025-11-03T12:51	31081	10	-49.2			
2025-11-03T12:52	31496	9			254	8
2025-11-03T12:52	31715	9	-48.6			
2025-11-03T12:52	31788	9			291	11
2025-11-03T12:53	32171	8			267	9
2025-11-03T12:53	32329	8	-49.4			
2025-11-03T12:54	32493	8			263	12
2025-11-03T12:54	32722	8	-47.9		263	15
2025-11-03T23:30	9	1017	29.6	25.8	90	7
2025-11-03T23:30	13	1016	29.6	25.6	94	1
2025-11-03T23:30	73	1009	28.2	24.4		
2025-11-03T23:30	123	1004			98	8
2025-11-03T23:31	481	964			103	9
2025-11-03T23:32	659	944	23.2	21.3		
2025-11-03T23:32	793	930	22.5	19.7		
2025-11-03T23:32	862	923			115	11
2025-11-03T23:33	1236	884			119	10
2025-11-03T23:34	1303	877	19.6	16.8		
2025-11-03T23:34	1503	857	18.3	15.4		
2025-11-03T23:34	1594	848	17.7	15.7		
2025-11-03T23:34	1600	847			116	9
2025-11-03T23:35	1667	841	17.6	13.3		
2025-11-03T23:35	1734	834	17.2	14.8		
2025-11-03T23:35	1832	825	17.3	11.8		
2025-11-03T23:35	1936	815	16.7	12.7		
2025-11-03T23:35	1966	812			126	8
2025-11-03T23:36	2344	777			111	8
2025-11-03T23:37	2498	763	14.6	8.5		
2025-11-03T23:37	2691	745	13.1	8.2		
2025-11-03T23:37	2729	742			98	9
2025-11-03T23:37	2779	738	12.7	6.7		
2025-11-03T23:38	2875	729	12.8	4.7		
2025-11-03T23:38	3112	709			94	9
2025-11-03T23:38	3119	708	10.9	5.0		
2025-11-03T23:39	3254	697	10.2	2.1		
2025-11-03T23:39	3495	677	8.5	0.2	102	9
2025-11-03T23:40	3564	671	8.0	0.7		
2025-11-03T23:40	3809	652	6.3	-1.4		
2025-11-03T23:40	3882	646			105	9
2025-11-03T23:40	3935	642	6.1	-5.5		
2025-11-03T23:41	4259	617	4.3	-6.3		
2025-11-03T23:41	4278	615			114	9
2025-11-03T23:42	4563	594	2.7	-11.6		
2025-11-03T23:42	4665	587			104	9
2025-11-03T23:43	4783	578	1.7	-16.3		
2025-11-03T23:43	4852	573	1.2	-12.6		
2025-11-03T23:43	5038	560			91	8
2025-11-03T23:43	5044	560	0.0	-15.9		
2025-11-03T23:44	5094	556	-0.3	-18.5		
2025-11-03T23:44	5137	553	-0.2	-22.4		
2025-11-03T23:44	5267	544	-0.9	-34.1		
2025-11-03T23:44	5412	535			71	8
2025-11-03T23:45	5613	521	-3.9	-21.5		
2025-11-03T23:45	5670	517	-4.3	-23.4		
2025-11-03T23:45	5792	509			57	6
2025-11-03T23:45	5838	507	-5.5	-25.0		
2025-11-03T23:46	6167	486			50	6
2025-11-03T23:46	6194	484	-8.2	-31.0		
2025-11-03T23:47	6571	461			33	8
2025-11-03T23:48	6814	447	-12.8	-34.8		
2025-11-03T23:48	6937	439			44	7
2025-11-03T23:49	7296	419	-16.3	-45.7		
2025-11-03T23:49	7359	415			51	2
2025-11-03T23:49	7430	412	-15.9	-47.0		
2025-11-03T23:50	7689	398	-17.6	-52.7		
2025-11-03T23:50	7784	393			39	3
2025-11-03T23:50	7885	387	-18.1	-61.9		
2025-11-03T23:51	8055	379			37	3
2025-11-03T23:51	8111	376	-19.6	-62.9		
2025-11-03T23:51	8221	370	-20.1	-52.1	28	4
2025-11-03T23:52	8619	351			26	8
2025-11-03T23:53	8924	336	-25.9	-67.0		
2025-11-03T23:53	9015	332			23	8
2025-11-03T23:54	9144	326	-27.7	-68.2		
2025-11-03T23:54	9189	324			23	9
2025-11-03T23:54	9346	317			26	8
2025-11-03T23:54	9353	317	-28.5	-58.3		
2025-11-03T23:55	9642	304			31	11
2025-11-03T23:55	9848	295	-32.8	-57.1		
2025-11-03T23:55	9855	295			49	6
2025-11-03T23:56	10259	279			87	7
2025-11-03T23:57	10493	269	-37.9	-63.6		
2025-11-03T23:57	10605	265			65	7
2025-11-03T23:57	10724	260	-40.0	-65.3		
2025-11-03T23:58	10774	259			62	8
2025-11-03T23:58	11152	245			82	4
2025-11-03T23:59	11345	238			101	4
2025-11-03T23:59	11582	229			78	5
2025-11-04T00:00	11830	221			64	5
2025-11-04T00:01	12063	213			93	5
2025-11-04T00:01	12129	211	-51.8			
2025-11-04T00:02	12474	200			79	5
2025-11-04T00:02	12631	195			64	3
2025-11-04T00:02	12831	189			39	2
2025-11-04T00:03	13155	179	-59.1			
2025-11-04T00:03	13246	177			70	2
2025-11-04T00:04	13664	165			3	1
2025-11-04T00:05	13711	164	-62.9			
2025-11-04T00:05	14043	155			343	5
2025-11-04T00:06	14281	149			18	5
2025-11-04T00:06	14320	149	-65.9			
2025-11-04T00:06	14484	145			28	5
2025-11-04T00:07	14652	141			43	5
2025-11-04T00:07	14885	135			12	8
2025-11-04T00:07	15121	130	-70.4			
2025-11-04T00:08	15210	128			37	6
2025-11-04T00:08	15342	125	-71.5			
2025-11-04T00:08	15451	123			49	6
2025-11-04T00:09	15792	116			10	5
2025-11-04T00:09	15892	114	-75.4			
2025-11-04T00:09	15978	112			340	8
2025-11-04T00:09	16028	111	-74.8			
2025-11-04T00:10	16124	109	-73.7			
2025-11-04T00:10	16172	109			2	5
2025-11-04T00:10	16276	107	-73.6			
2025-11-04T00:10	16300	106			71	4
2025-11-04T00:10	16388	105	-72.7			
2025-11-04T00:11	16654	100	-74.5			
2025-11-04T00:11	16785	98			87	5
2025-11-04T00:11	16937	95	-75.5			
2025-11-04T00:12	17216	91			121	7
2025-11-04T00:12	17398	88			135	6
2025-11-04T00:12	17431	87	-77.0			
2025-11-04T00:13	17627	84			101	7
2025-11-04T00:13	17893	81	-77.5			
2025-11-04T00:13	17929	80			81	7
2025-11-04T00:14	18328	75			164	9
2025-11-04T00:15	18602	71			166	9
2025-11-04T00:15	18683	70	-76.9			
2025-11-04T00:15	18834	68	-74.3		128	4
2025-11-04T00:16	18894	68			69	2
2025-11-04T00:16	18955	67			52	3
2025-11-04T00:16	19108	65	-70.2			
2025-11-04T00:16	19171	65			105	9
2025-11-04T00:17	19349	63			86	6
2025-11-04T00:17	19467	62	-66.5			
2025-11-04T00:17	19534	61			146	9
2025-11-04T00:18	19719	59			145	8
2025-11-04T00:19	20058	56	-65.9			
2025-11-04T00:19	20077	56			56	6
2025-11-04T00:19	20277	54			99	2
2025-11-04T00:20	20426	53	-66.4			
2025-11-04T00:20	20582	51			38	3
2025-11-04T00:20	20664	51	-64.3			
2025-11-04T00:21	20797	49			65	7
2025-11-04T00:21	20823	49	-63.3			
2025-11-04T00:21	21120	47			16	4
2025-11-04T00:22	21527	44			106	5
2025-11-04T00:23	21568	44	-61.5			
2025-11-04T00:23	21788	42			56	2
2025-11-04T00:24	22118	40			152	3
2025-11-04T00:24	22231	39			141	2
2025-11-04T00:25	22391	38			36	4
2025-11-04T00:25	22505	38			23	4
2025-11-04T00:25	22643	37	-59.9			
2025-11-04T00:26	22744	36			109	3
2025-11-04T00:26	22883	35			95	3
2025-11-04T00:26	23047	34			49	1
2025-11-04T00:27	23379	33			35	3
2025-11-04T00:27	23400	33	-59.5			
2025-11-04T00:28	23695	31			57	7
2025-11-04T00:28	23842	30	-56.1			
2025-11-04T00:29	24057	29			58	8
2025-11-04T00:29	24210	29	-56.2			
2025-11-04T00:30	24343	28			103	7
2025-11-04T00:31	24743	26			141	11
2025-11-04T00:31	24816	26	-55.3			
2025-11-04T00:31	25064	25			137	7
2025-11-04T00:32	25276	24			114	5
2025-11-04T00:32	25406	24	-56.5			
2025-11-04T00:33	25679	23	-55.1			
2025-11-04T00:33	25707	23			167	9
2025-11-04T00:34	25969	22			202	4
2025-11-04T00:34	26117	21			201	4
2025-11-04T00:34	26208	21			241	2
2025-11-04T00:34	26332	21			322	3
2025-11-04T00:35	26426	20			292	2
2025-11-04T00:35	26492	20	-55.6			
2025-11-04T00:35	26521	20			239	3
2025-11-04T00:35	26652	20			256	3
2025-11-04T00:35	26683	19	-55.6			
2025-11-04T00:36	26848	19			319	4
2025-11-04T00:36	26984	19			304	2
2025-11-04T00:37	27489	17	-55.8		276	2
2025-11-04T00:38	27950	16			220	3
2025-11-04T00:38	28075	16	-54.0			
2025-11-04T00:38	28194	15			222	5
2025-11-04T00:39	28411	15			264	3
2025-11-04T00:39	28586	14			231	4
2025-11-04T00:39	28632	14	-54.0			
2025-11-04T00:40	28862	14			237	9
2025-11-04T00:40	29052	13	-51.8			
2025-11-04T00:40	29151	13	-49.8			
2025-11-04T00:40	29199	13			197	7
2025-11-04T00:41	29614	12	-49.7			
2025-11-04T00:41	29771	12			209	13
2025-11-04T00:42	30341	11			210	13
2025-11-04T00:43	30515	11	-53.4			
2025-11-04T00:44	30956	10	-55.8		216	15
2025-11-04T00:44	31147	10	-50.7			
2025-11-04T00:45	31490	9			230	18
2025-11-04T00:45	31730	9	-50.6		235	17
2025-11-04T11:30	9	1015	27.9	25.1	110	6
2025-11-04T11:30	12	1015	28.1	24.9	138	2
2025-11-04T11:30	94	1005			108	7
2025-11-04T11:30	153	999	27.0	23.5		
2025-11-04T11:31	369	975	25.3	21.8		
2025-11-04T11:31	444	966			119	10
2025-11-04T11:32	560	954	25.0	18.0		
2025-11-04T11:32	791	929			112	13
2025-11-04T11:32	814	926	23.5	16.8		
2025-11-04T11:33	1065	900	22.0	15.8		
2025-11-04T11:33	1139	893			111	12
2025-11-04T11:33	1145	892	21.6	15.7		
2025-11-04T11:34	1253	881	21.2	15.1		
2025-11-04T11:34	1449	861	20.4	12.6		
2025-11-04T11:34	1513	855			110	17
2025-11-04T11:35	1884	819			107	16
2025-11-04T11:36	2010	807	15.9	10.9		
2025-11-04T11:36	2238	786			100	16
2025-11-04T11:36	2296	780	15.0	8.7		
2025-11-04T11:37	2563	756	13.6	6.9		
2025-11-04T11:37	2579	754			96	17
2025-11-04T11:38	2861	729	11.5	5.8		
2025-11-04T11:38	2918	725			87	12
2025-11-04T11:39	3093	710	10.4	3.7		
2025-11-04T11:39	3261	695			83	14
2025-11-04T11:40	3451	680	8.4	2.0		
2025-11-04T11:40	3617	666	7.7	-0.3	71	13
2025-11-04T11:41	3742	656	7.1	-3.5		
2025-11-04T11:41	3825	649	6.5	-1.6		
2025-11-04T11:41	3975	638			62	13
2025-11-04T11:42	4301	613	3.4	-2.3		
2025-11-04T11:42	4346	609			51	13
2025-11-04T11:43	4460	601	3.0	-5.9		
2025-11-04T11:43	4549	594	2.7	-6.7		
2025-11-04T11:43	4607	590			56	11
2025-11-04T11:44	4816	575	1.2	-10.0		
2025-11-04T11:44	4929	567	0.9	-15.6		
2025-11-04T11:44	4972	564			53	10
2025-11-04T11:45	5178	549	-0.7	-18.3		
2025-11-04T11:45	5338	538			47	12
2025-11-04T11:46	5550	524	-3.3	-24.3		
2025-11-04T11:46	5665	517	-4.2	-19.2		
2025-11-04T11:46	5717	513			54	9
2025-11-04T11:46	5724	513	-4.4	-23.5		
2025-11-04T11:46	5846	505	-5.4	-18.5		
2025-11-04T11:47	6005	495	-6.5	-18.8		
2025-11-04T11:47	6098	489			72	7
2025-11-04T11:47	6173	484	-7.6	-19.2		
2025-11-04T11:47	6237	480	-7.7	-23.5		
2025-11-04T11:48	6419	469	-9.3	-19.6		
2025-11-04T11:48	6452	467			79	7
2025-11-04T11:48	6622	457	-10.6	-20.5		
2025-11-04T11:49	6763	449	-11.0	-24.1		
2025-11-04T11:49	6838	444			82	7
2025-11-04T11:49	6844	444	-11.3	-29.9		
2025-11-04T11:49	7053	432	-12.7	-33.4		
2025-11-04T11:49	7066	431			71	6
2025-11-04T11:50	7105	429	-12.7	-25.0		
2025-11-04T11:50	7210	423	-13.3	-25.2		
2025-11-04T11:50	7261	420	-13.3	-31.0		
2025-11-04T11:50	7358	415			39	6
2025-11-04T11:50	7364	415	-13.9	-24.3		
2025-11-04T11:51	7503	407	-15.1	-26.3		
2025-11-04T11:51	7594	402			55	7
2025-11-04T11:51	7711	396	-16.7	-29.2		
2025-11-04T11:52	7880	387			33	7
2025-11-04T11:52	7954	383	-18.2	-37.3		
2025-11-04T11:52	8061	378	-18.5	-47.4		
2025-11-04T11:52	8112	375			61	8
2025-11-04T11:53	8382	362			36	9
2025-11-04T11:53	8498	356	-21.6	-46.1		
2025-11-04T11:54	8720	346	-23.0	-59.8		
2025-11-04T11:54	8797	342			31	7
2025-11-04T11:55	9034	331			40	7
2025-11-04T11:55	9116	327	-26.8	-51.3		
2025-11-04T11:55	9224	322			40	6
2025-11-04T11:55	9301	319			27	2
2025-11-04T11:55	9326	318	-27.9	-60.1		
2025-11-04T11:55	9383	315			313	3
2025-11-04T11:56	9506	310	-28.8	-50.9		
2025-11-04T11:56	9513	310			317	3
2025-11-04T11:56	9636	304			306	3
2025-11-04T11:56	9784	298	-31.0	-58.4		
2025-11-04T11:57	9859	295			299	4
2025-11-04T11:57	10091	285			269	7
2025-11-04T11:58	10255	279			241	6
2025-11-04T11:58	10539	268			270	7
2025-11-04T11:59	10701	261	-38.8	-66.0		
2025-11-04T11:59	10759	259			268	6
2025-11-04T11:59	10851	256	-40.0	-65.3		
2025-11-04T12:00	11042	249			277	6
2025-11-04T12:01	11456	234			231	7
2025-11-04T12:01	11860	220			234	9
2025-11-04T12:02	12182	209	-50.7			
2025-11-04T12:02	12236	208			221	8
2025-11-04T12:03	12680	194			237	8
2025-11-04T12:04	13129	181			245	8
2025-11-04T12:04	13204	179	-59.4			
2025-11-04T12:05	13612	167			223	7
2025-11-04T12:06	14075	155			206	5
2025-11-04T12:07	14396	147			254	4
2025-11-04T12:07	14412	147	-68.1			
2025-11-04T12:08	14842	136	-71.0			
2025-11-04T12:08	14874	136			283	5
2025-11-04T12:08	15023	132			302	2
2025-11-04T12:09	15182	129			351	4
2025-11-04T12:09	15200	128	-71.0			
2025-11-04T12:09	15440	123			332	6
2025-11-04T12:10	15886	114			339	10
2025-11-04T12:10	15929	113	-76.4			
2025-11-04T12:11	16340	105	-78.8			
2025-11-04T12:11	16411	104			355	9
2025-11-04T12:11	16447	104	-77.3			
2025-11-04T12:12	16813	97	-78.1			
2025-11-04T12:12	16848	97			356	8
2025-11-04T12:12	17000	94	-76.2		29	7
2025-11-04T23:30	9	1015	28.8	25.6	90	8
2025-11-04T23:30	12	1015	28.5	25.5	112	2
2025-11-04T23:30	41	1011			86	4
2025-11-04T23:30	82	1007	27.3	24.4		
2025-11-04T23:30	142	1000			90	9
2025-11-04T23:31	426	968	24.6	22.1		
2025-11-04T23:31	474	963			103	11
2025-11-04T23:32	777	930			100	10
2025-11-04T23:32	791	929	21.8	18.8		
2025-11-04T23:33	1052	901			103	11
2025-11-04T23:34	1131	893	19.5	17.5		
2025-11-04T23:34	1368	869			104	11
2025-11-04T23:34	1373	868	18.4	16.4		
2025-11-04T23:35	1637	842	16.5	15.4		
2025-11-04T23:35	1717	834			100	11
2025-11-04T23:36	1863	820	16.5	12.7		
2025-11-04T23:36	1891	817	16.8	10.9		
2025-11-04T23:36	1998	807	16.1	11.1		
2025-11-04T23:36	2056	802			101	10
2025-11-04T23:37	2119	796	15.4	9.3		
2025-11-04T23:37	2410	769			104	10
2025-11-04T23:38	2554	756	11.9	8.7		
2025-11-04T23:38	2646	747	11.4	8.6		
2025-11-04T23:38	2755	738			112	11
2025-11-04T23:39	2807	733	11.3	6.6		
2025-11-04T23:39	3000	716	10.3	6.3		
2025-11-04T23:39	3069	711			109	11
2025-11-04T23:40	3154	703	9.7	5.9		
2025-11-04T23:40	3385	684	8.6	4.6		
2025-11-04T23:40	3391	684			119	11
2025-11-04T23:41	3553	670	8.1	3.0		
2025-11-04T23:41	3732	656			119	10
2025-11-04T23:42	3941	639	5.3	1.4		
2025-11-04T23:42	4095	627			120	10
2025-11-04T23:43	4139	624	4.2	0.2		
2025-11-04T23:43	4460	600			118	10
2025-11-04T23:44	4578	591	2.5	-2.4		
2025-11-04T23:44	4790	576			119	9
2025-11-04T23:45	4916	567	0.6	-3.7		
2025-11-04T23:45	5105	554	-0.7	-4.6		
2025-11-04T23:45	5127	552			118	7
2025-11-04T23:46	5459	530			109	8
2025-11-04T23:47	5582	521	-3.4	-7.2		
2025-11-04T23:47	5812	507			73	10
2025-11-04T23:48	6165	484			80	12
2025-11-04T23:48	6178	484	-7.0	-14.1		
2025-11-04T23:49	6305	476	-7.4	-19.0		
2025-11-04T23:49	6358	473	-7.6	-18.0		
2025-11-04T23:49	6523	463			104	11
2025-11-04T23:50	6629	456	-10.1	-15.1		
2025-11-04T23:50	6679	453	-10.0	-17.8		
2025-11-04T23:50	6728	451	-9.7	-23.7		
2025-11-04T23:50	6871	442	-10.2	-32.7		
2025-11-04T23:50	6890	441			109	8
2025-11-04T23:51	7203	424	-12.8	-34.1		
2025-11-04T23:51	7259	420			103	8
2025-11-04T23:51	7296	418	-13.7	-25.6		
2025-11-04T23:52	7333	416	-13.8	-23.4		
2025-11-04T23:52	7573	403	-14.8	-29.3		
2025-11-04T23:52	7627	401			69	9
2025-11-04T23:52	7674	398	-14.3	-41.5		
2025-11-04T23:53	7978	382			69	8
2025-11-04T23:54	8093	377	-17.6	-50.3		
2025-11-04T23:54	8343	364			55	10
2025-11-04T23:55	8495	357	-21.5	-36.7		
2025-11-04T23:55	8554	354	-22.0	-37.2		
2025-11-04T23:55	8701	347			57	10
2025-11-04T23:55	8732	345	-23.7	-36.4		
2025-11-04T23:56	8795	342	-24.1	-40.7		
2025-11-04T23:56	8840	340	-24.4	-40.1		
2025-11-04T23:56	8930	336	-25.1	-44.3		
2025-11-04T23:56	9086	329	-26.4	-44.2	57	9
2025-11-04T23:57	9380	316	-28.7	-52.7		
2025-11-04T23:57	9474	312			92	5
2025-11-04T23:58	9662	303			87	5
2025-11-04T23:58	9890	294			148	3
2025-11-04T23:58	9910	293	-32.7	-58.2		
2025-11-04T23:59	10082	286			136	2
2025-11-04T23:59	10242	279	-35.4	-58.1		
2025-11-04T23:59	10326	276	-36.1	-49.8		
2025-11-05T00:00	10396	273	-36.8	-51.6		
2025-11-05T00:00	10424	272			173	6
2025-11-05T00:00	10473	270	-37.3	-60.6		
2025-11-05T00:00	10724	260			158	7
2025-11-05T00:00	10771	259	-40.0	-63.9		
2025-11-05T00:01	11140	245			197	8
2025-11-05T00:02	11454	234			217	10
2025-11-05T00:03	11883	219			229	15
2025-11-05T00:04	12305	205			234	14
2025-11-05T00:04	12319	205	-52.6			
2025-11-05T00:05	12747	192			246	13
2025-11-05T00:06	13180	179			247	12
2025-11-05T00:07	13585	168	-62.6			
2025-11-05T00:07	13623	167			218	9
2025-11-05T00:08	14076	155			268	5
2025-11-05T00:09	14316	149			244	1
2025-11-05T00:09	14496	144			309	3
2025-11-05T00:09	14573	143	-68.5			
2025-11-05T00:10	14883	135			317	6
2025-11-05T00:10	15183	129			332	6
2025-11-05T00:11	15408	124	-72.0			
2025-11-05T00:11	15583	120			302	2
2025-11-05T00:11	15618	119	-73.6			
2025-11-05T00:12	15840	115			293	4
2025-11-05T00:12	15908	114	-75.3			
2025-11-05T00:13	16340	105			352	7
2025-11-05T00:13	16637	100	-79.2			
2025-11-05T00:13	16654	100			8	8
2025-11-05T00:14	16756	98	-79.3			
2025-11-05T00:14	16942	95			69	6
2025-11-05T00:14	17018	94	-80.1			
2025-11-05T00:14	17195	91	-79.4			
2025-11-05T00:15	17228	90			91	4
2025-11-05T00:15	17452	87			90	3
2025-11-05T00:15	17626	84			56	1
2025-11-05T00:15	17684	83	-78.3			
2025-11-05T00:16	17938	80			164	3
2025-11-05T00:16	17945	79	-79.6			
2025-11-05T00:16	18128	77			147	3
2025-11-05T00:17	18278	75			69	4
2025-11-05T00:17	18412	73	-78.1			
2025-11-05T00:17	18558	71			69	4
2025-11-05T00:17	18585	71	-77.3			
2025-11-05T00:18	18713	69	-76.3			
2025-11-05T00:18	18785	69			353	4
2025-11-05T00:18	18801	68	-74.1			
2025-11-05T00:19	19108	65			354	8
2025-11-05T00:19	19247	63	-71.0			
2025-11-05T00:19	19503	61			89	7
2025-11-05T00:19	19515	61	-69.7			
2025-11-05T00:20	19706	59	-68.8			
2025-11-05T00:20	19923	57			101	7
2025-11-05T00:21	20063	55			57	5
2025-11-05T00:21	20105	55	-66.6			
2025-11-05T00:21	20184	54			41	6
2025-11-05T00:21	20286	53	-66.2			
2025-11-05T00:21	20388	52			67	6
2025-11-05T00:22	20700	50			68	11
2025-11-05T00:22	20774	49	-64.1			
2025-11-05T00:23	20901	48			81	5
2025-11-05T00:23	21043	47			42	4
2025-11-05T00:23	21122	47	-61.7			
2025-11-05T00:24	21439	44			107	4
2025-11-05T00:24	21625	43			93	5
2025-11-05T00:25	21910	41			139	6
2025-11-05T00:25	22045	40			119	1
2025-11-05T00:26	22220	39			28	3
2025-11-05T00:26	22351	38			51	5
2025-11-05T00:26	22514	37	-59.7			
2025-11-05T00:27	22617	37			35	6
2025-11-05T00:27	22913	35			75	4
2025-11-05T00:28	23096	34	-58.5			
2025-11-05T00:28	23247	33			47	5
2025-11-05T00:29	23403	32	-55.6			
2025-11-05T00:29	23582	31			76	9
2025-11-05T00:30	23826	30			82	6
2025-11-05T00:30	24017	29			82	10
2025-11-05T00:31	24262	28	-56.9		108	10
2025-11-05T11:30	9	1014	27.4	24.9	100	7
2025-11-05T11:30	12	1014	27.6	24.5	114	2
2025-11-05T11:30	42	1011			98	4
2025-11-05T11:30	90	1005	27.1	23.1		
2025-11-05T11:30	99	1004			101	8
2025-11-05T11:31	420	968			110	8
2025-11-05T11:32	578	951	22.6	21.2		
2025-11-05T11:32	765	931	21.8	18.6	115	11
2025-11-05T11:33	825	924	21.9	17.9		
2025-11-05T11:33	1069	899	20.8	16.4		
2025-11-05T11:33	1123	893			117	13
2025-11-05T11:34	1481	857			125	11
2025-11-05T11:34	1511	854	18.4	14.3		
2025-11-05T11:35	1841	822			127	11
2025-11-05T11:36	1958	810	14.7	12.7		
2025-11-05T11:36	2107	796	14.0	12.2		
2025-11-05T11:36	2195	788			130	14
2025-11-05T11:37	2266	781	13.2	11.3		
2025-11-05T11:37	2543	756			125	15
2025-11-05T11:37	2549	755	11.8	9.4		
2025-11-05T11:37	2591	752	12.4	8.9		
2025-11-05T11:38	2754	737	11.4	8.3		
2025-11-05T11:38	2905	724			127	12
2025-11-05T11:38	2923	722	10.6	8.0		
2025-11-05T11:39	3256	694			127	11
2025-11-05T11:39	3303	690	8.6	5.5		
2025-11-05T11:40	3474	676	7.8	4.6		
2025-11-05T11:40	3600	666			118	13
2025-11-05T11:41	3745	654	6.3	2.6		
2025-11-05T11:41	3857	645	5.6	2.1		
2025-11-05T11:41	3952	637			114	11
2025-11-05T11:42	4085	627	4.0	1.7		
2025-11-05T11:42	4276	613	3.1	0.5		
2025-11-05T11:42	4293	611			96	10
2025-11-05T11:43	4417	602	3.2	-0.6		
2025-11-05T11:43	4638	586			100	10
2025-11-05T11:44	4702	581	1.5	-1.9		
2025-11-05T11:44	4993	560			87	9
2025-11-05T11:45	5359	535			90	11
2025-11-05T11:45	5371	535	-1.6	-5.8		
2025-11-05T11:46	5494	526	-2.3	-6.3		
2025-11-05T11:46	5726	511			95	11
2025-11-05T11:47	5818	505	-4.3	-8.4		
2025-11-05T11:47	5922	499	-4.2	-9.0		
2025-11-05T11:47	6095	488			81	12
2025-11-05T11:48	6164	484	-5.2	-12.6		
2025-11-05T11:48	6405	469	-6.6	-14.6		
2025-11-05T11:48	6464	466			76	11
2025-11-05T11:49	6689	452			83	9
2025-11-05T11:49	6737	450	-9.3	-16.3		
2025-11-05T11:49	6861	442	-9.7	-20.8		
2025-11-05T11:50	6942	438	-10.1	-21.4		
2025-11-05T11:50	7036	433	-10.7	-25.3		
2025-11-05T11:50	7060	431			76	9
2025-11-05T11:50	7114	428	-11.2	-28.3		
2025-11-05T11:50	7228	422	-12.1	-26.5		
2025-11-05T11:51	7252	420			65	8
2025-11-05T11:51	7332	416	-12.9	-31.7		
2025-11-05T11:51	7407	412	-13.6	-29.9		
2025-11-05T11:51	7464	409	-14.1	-23.5		
2025-11-05T11:52	7629	400			85	9
2025-11-05T11:52	7673	398	-15.5	-26.1		
2025-11-05T11:52	7762	393	-16.1	-29.7		
2025-11-05T11:52	7894	386	-17.0	-23.3		
2025-11-05T11:52	7926	385			107	4
2025-11-05T11:53	8092	376	-18.5	-22.0		
2025-11-05T11:53	8222	370			117	2
2025-11-05T11:53	8325	365	-19.9	-25.5		
2025-11-05T11:54	8410	360			190	3
2025-11-05T11:54	8592	352	-22.1	-27.6		
2025-11-05T11:54	8680	347	-22.6	-30.4		
2025-11-05T11:54	8743	344	-23.0	-29.9		
2025-11-05T11:55	8787	342			190	2
2025-11-05T11:55	8813	341	-23.5	-28.2		
2025-11-05T11:55	8892	338	-24.0	-30.1		
2025-11-05T11:55	9010	332			216	5
2025-11-05T11:55	9124	327	-25.8	-29.5		
2025-11-05T11:56	9267	321			221	5
2025-11-05T11:56	9287	320	-27.2	-30.3		
2025-11-05T11:56	9371	316	-27.6	-35.5		
2025-11-05T11:56	9410	314	-27.5	-42.3		
2025-11-05T11:57	9649	304			241	7
2025-11-05T11:57	9751	300	-30.3	-44.0		
2025-11-05T11:57	9889	294	-31.5	-43.4		
2025-11-05T11:57	9929	292			261	12
2025-11-05T11:58	10064	287	-32.7	-44.1		
2025-11-05T11:58	10242	279	-34.2	-45.5		
2025-11-05T11:58	10327	276			244	12
2025-11-05T11:59	10432	272	-36.0	-42.9		
2025-11-05T11:59	10503	269	-36.6	-41.7		
2025-11-05T11:59	10656	263	-37.9	-43.8		
2025-11-05T11:59	10722	261			251	13
2025-11-05T12:00	10735	260	-38.6	-47.4		
2025-11-05T12:00	10902	254	-40.0	-47.4		
2025-11-05T12:00	11132	246			240	15
2025-11-05T12:01	11563	230			236	12
2025-11-05T12:02	11981	216			248	17
2025-11-05T12:03	12335	205			243	16
2025-11-05T12:04	12436	202	-53.4			
2025-11-05T12:04	12767	191			241	15
2025-11-05T12:05	13234	178			249	17
2025-11-05T12:06	13729	164			252	19
2025-11-05T12:07	14045	156	-66.3			
2025-11-05T12:07	14211	151			252	14
2025-11-05T12:08	14330	149	-67.9			
2025-11-05T12:08	14489	145			282	11
2025-11-05T12:08	14505	144	-67.9			
2025-11-05T12:08	14782	138	-69.5			
2025-11-05T12:09	14980	133			297	9
2025-11-05T12:10	15298	126	-71.9			
2025-11-05T12:10	15412	124			334	9
2025-11-05T12:10	15577	120	-73.3			
2025-11-05T12:10	15686	118			342	9
2025-11-05T12:10	15703	118	-72.8			
2025-11-05T12:11	15930	113			330	5
2025-11-05T12:11	16056	111	-75.2			
2025-11-05T12:11	16199	108			323	8
2025-11-05T12:12	16654	100	-76.5			
2025-11-05T12:12	16669	100	-76.6			
2025-11-05T12:12	16684	99			352	6
2025-11-05T12:13	17002	94			40	4
2025-11-05T12:13	17134	92	-78.8			
2025-11-05T12:14	17428	87	-78.6			
2025-11-05T12:14	17456	87			45	4
2025-11-05T12:14	17615	85	-78.8			
2025-11-05T12:15	17832	81			35	5
2025-11-05T12:15	18006	79			13	1
2025-11-05T12:15	18098	78	-78.0		146	1
2025-11-05T23:30	9	1015	27.9	24.9	110	8
2025-11-05T23:30	12	1014	27.5	24.2	110	2
2025-11-05T23:30	24	1013			100	5
2025-11-05T23:30	32	1012	27.1	22.5		
2025-11-05T23:30	62	1009			110	10
2025-11-05T23:31	176	996	26.3	21.3		
2025-11-05T23:31	413	969			122	13
2025-11-05T23:31	520	958	24.3	19.2		
2025-11-05T23:32	665	942	22.9	20.1		
2025-11-05T23:32	763	931			132	14
2025-11-05T23:33	952	911	21.1	17.9		
2025-11-05T23:33	1106	895			135	14
2025-11-05T23:34	1318	874	18.6	17.4		
2025-11-05T23:34	1441	861			134	10
2025-11-05T23:35	1563	849	17.1	15.6		
2025-11-05T23:35	1640	842	17.5	14.6		
2025-11-05T23:35	1799	826			150	8
2025-11-05T23:35	1843	822	16.3	12.7		
2025-11-05T23:36	1975	809	15.8	11.4		
2025-11-05T23:36	2075	800	15.3	9.2		
2025-11-05T23:36	2176	790			163	8
2025-11-05T23:37	2302	779	13.9	10.1		
2025-11-05T23:37	2557	756			167	11
2025-11-05T23:38	2697	743	11.6	8.6		
2025-11-05T23:38	2897	725	10.4	6.9		
2025-11-05T23:38	2934	722			165	11
2025-11-05T23:39	3065	711	9.4	5.9		
2025-11-05T23:39	3307	691			171	10
2025-11-05T23:39	3386	684	7.9	4.7		
2025-11-05T23:40	3645	663	6.3	3.8		
2025-11-05T23:40	3676	660			180	10
2025-11-05T23:40	3757	654	5.8	3.5		
2025-11-05T23:41	3893	643	5.0	2.9		
2025-11-05T23:41	4047	631	3.8	2.3	179	8
2025-11-05T23:41	4150	623	3.3	1.8		
2025-11-05T23:42	4410	604			171	6
2025-11-05T23:43	4620	588	0.7	-0.3		
2025-11-05T23:43	4787	576			171	6
2025-11-05T23:43	4879	569	-0.4	-1.8		
2025-11-05T23:44	4986	562	-0.4	-2.6		
2025-11-05T23:44	5186	548			185	8
2025-11-05T23:45	5529	525	-2.6	-5.1		
2025-11-05T23:45	5574	522			172	9
2025-11-05T23:46	5924	499			165	7
2025-11-05T23:46	6071	490	-6.0	-8.0		
2025-11-05T23:47	6151	485			145	6
2025-11-05T23:47	6433	468	-8.2	-9.8		
2025-11-05T23:48	6543	461			159	8
2025-11-05T23:48	6679	453	-9.5	-11.3		
2025-11-05T23:49	6934	439			158	7
2025-11-05T23:49	7000	435	-11.6	-13.9		
2025-11-05T23:49	7162	426	-12.3	-14.4		
2025-11-05T23:50	7338	416			143	8
2025-11-05T23:50	7398	413	-14.1	-16.1		
2025-11-05T23:50	7564	404	-14.7	-18.0		
2025-11-05T23:50	7610	401			143	6
2025-11-05T23:50	7657	399	-15.3	-17.7		
2025-11-05T23:51	7856	388	-16.8	-19.3		
2025-11-05T23:51	8006	381			131	6
2025-11-05T23:51	8051	378	-18.1	-21.6		
2025-11-05T23:52	8158	373	-18.7	-21.6		
2025-11-05T23:52	8247	368			150	4
2025-11-05T23:52	8299	366	-19.3	-25.7		
2025-11-05T23:52	8359	363			149	3
2025-11-05T23:53	8487	357			198	4
2025-11-05T23:53	8548	354	-21.0	-27.7		
2025-11-05T23:53	8773	343	-22.9	-31.6		
2025-11-05T23:53	8842	340			180	4
2025-11-05T23:54	8935	336	-24.3	-33.6		
2025-11-05T23:54	8985	333	-24.6	-35.4		
2025-11-05T23:54	9056	330			220	3
2025-11-05T23:54	9092	328	-25.3	-32.9		
2025-11-05T23:54	9196	324			255	4
2025-11-05T23:55	9366	316	-27.6	-35.1		
2025-11-05T23:55	9449	313			231	4
2025-11-05T23:55	9581	307			234	3
2025-11-05T23:56	9742	300	-30.8	-39.8		
2025-11-05T23:56	9824	297			263	3
2025-11-05T23:56	9985	290	-32.6	-36.7		
2025-11-05T23:56	10018	289			203	4
2025-11-05T23:57	10155	283			202	4
2025-11-05T23:57	10310	277			192	7
2025-11-05T23:58	10704	261			209	7
2025-11-05T23:58	10922	253	-39.8	-43.0		
2025-11-05T23:59	10955	252	-40.0	-43.5	235	7
2025-11-05T23:59	11300	240			266	10
2025-11-06T00:00	11689	226			239	12
2025-11-06T00:01	11992	216	-49.2		242	15
2025-11-06T00:01	12104	212			231	16
2025-11-06T00:02	12251	207			239	19
2025-11-06T00:03	12642	195			244	20
2025-11-06T00:04	12954	186	-58.0			
2025-11-06T00:04	13047	183			244	18
2025-11-06T00:05	13441	172			245	16
2025-11-06T00:05	13632	167	-63.7			
2025-11-06T00:06	13850	161			273	15
2025-11-06T00:07	14303	149			290	12
2025-11-06T00:07	14462	145	-68.4			
2025-11-06T00:08	14629	141	-68.0			
2025-11-06T00:08	14654	141			308	9
2025-11-06T00:08	14976	133			307	5
2025-11-06T00:09	15193	129			341	8
2025-11-06T00:09	15238	128	-71.0			
2025-11-06T00:09	15494	122	-72.4			
2025-11-06T00:10	15701	118			353	10
2025-11-06T00:10	15760	117	-73.3			
2025-11-06T00:10	15928	113	-73.9			
2025-11-06T00:10	15952	113			326	7
2025-11-06T00:11	16253	107	-75.6			
2025-11-06T00:11	16330	106			337	12
2025-11-06T00:11	16567	102	-76.6			
2025-11-06T00:12	16724	99			33	3
2025-11-06T00:12	16927	95			340	4
2025-11-06T00:13	17201	91			351	3
2025-11-06T00:13	17258	90	-76.8			
2025-11-06T00:14	17669	84			130	3
2025-11-06T00:14	17852	81	-78.2			
2025-11-06T00:14	17965	80	-76.3			
2025-11-06T00:15	18132	77			271	2
2025-11-06T00:15	18324	75	-77.3			
2025-11-06T00:15	18354	74			359	6
2025-11-06T00:15	18362	74			1	6
2025-11-06T00:16	18603	71			76	3
2025-11-06T00:16	18626	71	-75.0			
2025-11-06T00:16	18730	70			134	5
2025-11-06T00:17	18919	68			138	5
2025-11-06T00:17	19129	65			92	2
2025-11-06T00:17	19258	64			341	3
2025-11-06T00:18	19397	62	-73.7			
2025-11-06T00:18	19502	61			352	7
2025-11-06T00:19	19645	60	-72.6			
2025-11-06T00:19	19870	57			43	7
2025-11-06T00:19	19921	57	-70.9			
2025-11-06T00:20	20017	56			47	6
2025-11-06T00:20	20049	56	-69.9			
2025-11-06T00:20	20178	55			21	8
2025-11-06T00:21	20483	52	-65.4			
2025-11-06T00:21	20564	51			56	12
2025-11-06T00:22	20924	48	-65.3			
2025-11-06T00:22	20936	48			55	7
2025-11-06T00:23	21169	46	-63.6			
2025-11-06T00:23	21315	45			87	8
2025-11-06T00:24	21536	44	-62.5			
2025-11-06T00:24	21712	42			118	6
2025-11-06T00:25	22041	40			101	3
2025-11-06T00:25	22292	39			100	2
2025-11-06T00:26	22644	37	-58.7			
2025-11-06T00:26	22696	36			73	2
2025-11-06T00:27	22871	35	-58.7		99	4
2025-11-06T00:27	23090	34			65	3
2025-11-06T00:28	23219	33			50	4
2025-11-06T00:29	23604	31			86	6
2025-11-06T00:29	23646	31	-59.8			
2025-11-06T00:29	23810	30			107	9
2025-11-06T00:29	23955	30	-57.5			
2025-11-06T00:30	23979	30			109	2
2025-11-06T00:30	24148	29			45	3
2025-11-06T00:30	24308	28			95	3
2025-11-06T00:31	24397	28			150	4
2025-11-06T00:31	24585	27			187	3
2025-11-06T00:31	24706	26			205	6
2025-11-06T00:31	24756	26	-54.4			
2025-11-06T00:32	24955	25	-53.3		196	12
2025-11-06T00:32	25136	25			186	5
2025-11-06T00:33	25348	24			267	1
2025-11-06T00:33	25569	23			278	3
2025-11-06T00:34	25767	22			229	4
2025-11-06T00:34	25881	22			260	3
2025-11-06T00:34	26001	22			318	4
2025-11-06T00:35	26306	21			351	4
2025-11-06T00:35	26338	20	-53.3		357	5
2025-11-06T00:35	26370	20			4	5
2025-11-06T00:36	26629	20			7	5
2025-11-06T00:36	26798	19	-51.9			
2025-11-06T00:37	26903	19			28	6
2025-11-06T00:37	27223	18			46	3
2025-11-06T00:38	27599	17			167	4
2025-11-06T00:39	27827	16			193	4
2025-11-06T00:39	28033	16			190	4
2025-11-06T00:39	28159	15			201	3
2025-11-06T00:40	28331	15			157	3
2025-11-06T00:40	28413	15			174	2
2025-11-06T00:40	28458	15	-52.0			
2025-11-06T00:41	28867	14	-50.4		244	3
2025-11-06T00:41	29060	13	-47.8			
2025-11-06T00:42	29108	13			277	7
2025-11-06T00:42	29236	13	-48.8		280	8
2025-11-06T11:30	9	1012	28.0	24.4	150	7
2025-11-06T11:30	12	1012	28.3	24.5	134	2
2025-11-06T11:30	69	1005			143	10
2025-11-06T11:30	101	1002	28.0	22.9		
2025-11-06T11:31	429	965			149	12
2025-11-06T11:32	728	933	22.3	19.8		
2025-11-06T11:32	796	926			160	12
2025-11-06T11:33	1177	886			164	12
2025-11-06T11:33	1228	881	19.1	15.8		
2025-11-06T11:34	1523	851	17.5	12.0		
2025-11-06T11:34	1547	849			151	12
2025-11-06T11:34	1584	845	17.4	10.5		
2025-11-06T11:35	1644	839	16.8	13.3		
2025-11-06T11:35	1816	822	16.3	10.8		
2025-11-06T11:35	1865	818	16.3	10.8		
2025-11-06T11:35	1914	813	16.8	9.2	152	9
2025-11-06T11:35	1957	809	17.2	4.8		
2025-11-06T11:35	1994	806	17.5	1.9		
2025-11-06T11:36	2085	797	16.9	6.1		
2025-11-06T11:36	2206	786			138	7
2025-11-06T11:36	2255	781	15.9	4.6		
2025-11-06T11:36	2303	777	15.6	5.8		
2025-11-06T11:36	2346	773	15.1	9.5		
2025-11-06T11:37	2509	759	14.5	7.8		
2025-11-06T11:37	2569	753			169	7
2025-11-06T11:37	2732	739	13.0	6.4		
2025-11-06T11:38	2877	726	12.3	4.5		
2025-11-06T11:38	2932	721			175	9
2025-11-06T11:38	2999	716	11.5	5.6		
2025-11-06T11:39	3301	690			183	10
2025-11-06T11:39	3313	689	9.6	4.0		
2025-11-06T11:39	3394	683	9.1	3.5		
2025-11-06T11:40	3676	660			179	12
2025-11-06T11:40	3714	657	7.0	2.5		
2025-11-06T11:41	3942	639	5.3	0.7		
2025-11-06T11:41	4000	634	5.6	-5.7		
2025-11-06T11:41	4052	630	5.0	-0.2		
2025-11-06T11:41	4058	629			182	13
2025-11-06T11:41	4174	620	4.4	-3.1		
2025-11-06T11:42	4422	602	2.5	-1.7		
2025-11-06T11:42	4446	600			181	14
2025-11-06T11:43	4741	578	0.6	-3.0		
2025-11-06T11:43	4820	573	0.3	-4.7		
2025-11-06T11:43	4846	571			186	14
2025-11-06T11:43	4905	567	-0.2	-6.8		
2025-11-06T11:43	4963	563	-0.6	-5.6		
2025-11-06T11:44	5094	553	-1.0	-9.1		
2025-11-06T11:44	5185	547	-1.6	-7.1		
2025-11-06T11:44	5237	543			189	14
2025-11-06T11:44	5244	543	-1.9	-7.4		
2025-11-06T11:44	5297	539	-2.2	-5.9		
2025-11-06T11:45	5482	527	-3.7	-6.8		
2025-11-06T11:45	5556	522	-3.7	-10.5		
2025-11-06T11:45	5638	517			193	12
2025-11-06T11:45	5678	514	-4.3	-7.4		
2025-11-06T11:46	5984	495	-5.5	-10.5		
2025-11-06T11:46	6045	491			195	13
2025-11-06T11:46	6112	487	-6.3	-10.7		
2025-11-06T11:46	6206	481	-6.6	-12.1		
2025-11-06T11:47	6447	466			196	12
2025-11-06T11:47	6587	458	-9.2	-10.7		
2025-11-06T11:48	6850	442			191	12
2025-11-06T11:48	6986	435	-11.5	-13.5		
2025-11-06T11:49	7254	420			198	12
2025-11-06T11:49	7395	412	-13.5	-17.0		
2025-11-06T11:50	7621	400			204	10
2025-11-06T11:50	7628	400	-13.9	-19.4		
2025-11-06T11:51	7933	384	-16.5	-20.5		
2025-11-06T11:51	8035	379			193	9
2025-11-06T11:51	8143	373	-17.9	-21.6		
2025-11-06T11:52	8441	359			207	11
2025-11-06T11:52	8659	348			200	12
2025-11-06T11:53	9067	329			207	11
2025-11-06T11:54	9217	323	-25.6	-29.0		
2025-11-06T11:54	9347	317			207	9
2025-11-06T11:55	9643	304			222	8
2025-11-06T11:56	10049	287			241	10
2025-11-06T11:56	10091	286	-32.2	-35.4		
2025-11-06T11:57	10464	271			241	8
2025-11-06T11:58	10750	260			232	9
2025-11-06T11:58	11004	250	-39.9	-43.7		
2025-11-06T11:58	11014	250	-40.0	-43.8		
2025-11-06T11:59	11153	245			238	14
2025-11-06T11:59	11484	233			249	14
2025-11-06T12:00	11869	220			252	14
2025-11-06T12:01	12075	213			253	19
2025-11-06T12:02	12367	204	-52.4			
2025-11-06T12:02	12456	201			261	20
2025-11-06T12:03	12839	189			267	22
2025-11-06T12:04	13187	179			266	22
2025-11-06T12:05	13566	169			266	26
2025-11-06T12:05	13756	163	-64.0			
2025-11-06T12:05	13779	163			267	25
2025-11-06T12:06	13981	158	-64.3			
2025-11-06T12:06	14060	156			290	18
2025-11-06T12:06	14217	152			305	15
2025-11-06T12:06	14319	149	-64.0			
2025-11-06T12:07	14442	146			313	14
2025-11-06T12:07	14753	139			320	11
2025-11-06T12:07	14811	138	-68.0		320	10
2025-11-06T23:30	9	1011	28.9	25.3	190	8
2025-11-06T23:30	13	1010	28.7	24.7	169	4
2025-11-06T23:30	64	1005			176	13
2025-11-06T23:31	185	991	27.2	23.0		
2025-11-06T23:31	415	966			179	15
2025-11-06T23:32	645	941	23.0	20.9		
2025-11-06T23:32	789	925			180	16
2025-11-06T23:32	792	925	22.0	19.0		
2025-11-06T23:32	852	919	22.3	17.4		
2025-11-06T23:33	974	906	21.5	15.8		
2025-11-06T23:33	1090	894	20.9	14.6	192	16
2025-11-06T23:33	1201	882	20.4	14.3		
2025-11-06T23:33	1264	876	20.1	13.6		
2025-11-06T23:34	1315	871	19.7	13.9		
2025-11-06T23:34	1432	859	19.5	10.8		
2025-11-06T23:34	1470	855			185	10
2025-11-06T23:34	1593	843	18.7	14.2		
2025-11-06T23:35	1813	822	17.6	12.9		
2025-11-06T23:35	1850	818			204	11
2025-11-06T23:35	1968	807	16.9	11.0		
2025-11-06T23:36	2132	792	16.5	9.0		
2025-11-06T23:36	2228	783			210	14
2025-11-06T23:36	2401	767	15.9	4.6		
2025-11-06T23:37	2613	748			212	13
2025-11-06T23:37	2690	741	13.2	4.9		
2025-11-06T23:38	2886	724	11.8	5.9		
2025-11-06T23:38	2993	715			211	15
2025-11-06T23:38	3170	699	10.6	3.2		
2025-11-06T23:39	3259	692	10.4	3.4		
2025-11-06T23:39	3372	683			212	18
2025-11-06T23:39	3511	671	9.1	2.7		
2025-11-06T23:40	3671	659	8.9	-0.2		
2025-11-06T23:40	3755	652			213	20
2025-11-06T23:40	3883	642	7.5	-1.0		
2025-11-06T23:41	4137	623			209	19
2025-11-06T23:42	4402	603	3.2	-2.3		
2025-11-06T23:42	4513	594			211	18
2025-11-06T23:43	4706	580	0.8	-1.6		
2025-11-06T23:43	4893	567			212	17
2025-11-06T23:44	5134	550	-1.4	-3.0		
2025-11-06T23:44	5285	540			211	17
2025-11-06T23:44	5324	537	-1.6	-4.9		
2025-11-06T23:45	5519	524	-3.0	-7.0		
2025-11-06T23:45	5677	514	-3.7	-7.1	207	18
2025-11-06T23:46	6069	489			219	16
2025-11-06T23:46	6253	477	-7.5	-8.4		
2025-11-06T23:47	6461	465			219	14
2025-11-06T23:48	6666	453	-10.0	-11.3		
2025-11-06T23:48	6854	442			211	18
2025-11-06T23:48	6892	440	-10.6	-13.2		
2025-11-06T23:49	7111	427	-11.4	-15.1		
2025-11-06T23:49	7239	420			214	17
2025-11-06T23:50	7443	409	-13.2	-17.0		
2025-11-06T23:50	7623	400			217	16
2025-11-06T23:50	7761	392	-15.1	-19.0		
2025-11-06T23:51	7945	383			222	17
2025-11-06T23:51	8111	375	-17.8	-20.9		
2025-11-06T23:52	8330	364			241	17
2025-11-06T23:52	8536	354	-20.4	-23.7		
2025-11-06T23:53	8719	345			237	14
2025-11-06T23:54	9112	327	-24.7	-28.1	230	13
2025-11-06T23:55	9505	310			234	14
2025-11-06T23:55	9605	306	-28.7	-30.6		
2025-11-06T23:56	9883	294			234	12
2025-11-06T23:56	10170	282	-32.8	-34.8		
2025-11-06T23:57	10272	278			245	13
2025-11-06T23:57	10467	271	-35.1	-39.7		
2025-11-06T23:58	10649	263			243	15
2025-11-06T23:58	10722	261	-37.3	-41.8		
2025-11-06T23:59	11038	249			242	15
2025-11-06T23:59	11045	249	-40.0	-43.5		
2025-11-07T00:00	11442	235			261	13
2025-11-07T00:01	11861	220			266	14
2025-11-07T00:01	12038	215	-48.8			
2025-11-07T00:02	12259	207			270	14
2025-11-07T00:03	12635	196			284	14
2025-11-07T00:04	13030	184			285	20
2025-11-07T00:04	13291	176	-59.3			
2025-11-07T00:05	13426	173			292	28
2025-11-07T00:05	13611	168	-60.6			
2025-11-07T00:06	13803	163			285	24
2025-11-07T00:06	13946	159	-62.7			
2025-11-07T00:06	14084	155			292	19
2025-11-07T00:07	14479	146			300	12
2025-11-07T00:08	14683	141	-67.8			
2025-11-07T00:08	14818	138			290	6
2025-11-07T00:09	15128	131			244	6
2025-11-07T00:09	15174	130	-71.1			
2025-11-07T00:10	15614	120			221	8
2025-11-07T00:11	15895	114			221	8
2025-11-07T00:11	16125	110	-78.5			
2025-11-07T00:11	16267	107			288	8
2025-11-07T00:12	16572	102	-80.3			
2025-11-07T00:12	16589	101			289	7
2025-11-07T00:12	16717	99			279	4
2025-11-07T00:13	16850	97			209	4
2025-11-07T00:13	17001	94	-79.3			
2025-11-07T00:13	17164	92			234	4
2025-11-07T00:14	17436	87	-80.2			
2025-11-07T00:14	17493	86			145	3
2025-11-07T00:14	17744	83			66	3
2025-11-07T00:15	17963	80			95	9
2025-11-07T00:16	18236	76			139	8
2025-11-07T00:16	18264	75	-78.1			
2025-11-07T00:16	18480	73			128	5
2025-11-07T00:16	18647	71			125	7
2025-11-07T00:17	18813	69			100	6
2025-11-07T00:17	19108	65			125	10
2025-11-07T00:18	19284	63	-72.1			
2025-11-07T00:18	19572	60			143	6
2025-11-07T00:19	19753	58	-68.3			
2025-11-07T00:19	19952	57			173	4
2025-11-07T00:20	20050	56	-68.4			
2025-11-07T00:20	20112	55			177	3
2025-11-07T00:20	20269	54			130	4
2025-11-07T00:21	20462	52	-68.4			
2025-11-07T00:21	20577	51			100	4
2025-11-07T00:21	20627	51	-66.6			
2025-11-07T00:21	20683	50			50	4
2025-11-07T00:22	20973	48			83	6
2025-11-07T00:22	21150	46	-65.4			
2025-11-07T00:23	21289	45			83	11
2025-11-07T00:24	21665	43			121	15
2025-11-07T00:24	21903	41			133	12
2025-11-07T00:25	21977	41	-61.2			
2025-11-07T00:25	22166	39			136	13
2025-11-07T00:26	22489	37			168	9
2025-11-07T00:27	22888	35			138	11
2025-11-07T00:28	23203	33			150	10
2025-11-07T00:28	23241	33	-57.9			
2025-11-07T00:29	23595	31			151	2
2025-11-07T00:29	23864	30			159	8
2025-11-07T00:29	23880	30	-56.1			
2025-11-07T00:30	24165	29	-53.7			
2025-11-07T00:30	24188	29			170	2
2025-11-07T00:31	24441	27			242	2
2025-11-07T00:31	24537	27	-51.9			
2025-11-07T00:31	24586	27			49	3
2025-11-07T00:32	24830	26			77	4
2025-11-07T00:33	25165	25			344	2
2025-11-07T00:33	25192	24	-52.1			
2025-11-07T00:33	25356	24			309	3
2025-11-07T00:33	25521	23			349	6
2025-11-07T00:34	25773	22			7	3
2025-11-07T00:35	26009	22			1	3
2025-11-07T00:35	26221	21			10	3
2025-11-07T00:36	26444	20			282	4
2025-11-07T00:36	26607	20	-53.1			
2025-11-07T00:37	26873	19			294	2
2025-11-07T00:37	27049	18			182	3
2025-11-07T00:37	27083	18	-52.9			
2025-11-07T00:37	27261	18			209	5
2025-11-07T00:38	27521	17			209	3
2025-11-07T00:38	27676	17	-51.3			
2025-11-07T00:38	27718	17			184	3
2025-11-07T00:39	28041	16			259	3
2025-11-07T00:40	28299	15	-48.6		255	4
2025-11-07T00:40	28567	15			221	7
2025-11-07T00:41	28846	14			238	9
2025-11-07T00:42	29236	13	-46.2			
2025-11-07T00:42	29288	13			249	9
2025-11-07T00:43	29656	12			255	10
2025-11-07T00:44	30162	11			287	11
2025-11-07T00:45	30457	11	-46.8			
2025-11-07T00:45	30640	11			282	13
2025-11-07T00:46	31154	10			268	13
2025-11-07T00:46	31221	10	-49.0			
2025-11-07T00:47	31572	9			248	13
2025-11-07T00:47	31868	9	-45.8			
2025-11-07T00:48	31996	9	-45.7		241	21
2025-11-07T11:30	9	1011	25.2	24.5	210	4
2025-11-07T11:30	13	1010	25.3	24.1	221	1
2025-11-07T11:30	82	1003	26.0	23.1		
2025-11-07T11:30	88	1002			218	6
2025-11-07T11:31	223	987	25.2	21.7		
2025-11-07T11:31	338	974	26.5	18.6		
2025-11-07T11:31	432	964			225	11
2025-11-07T11:32	739	931	24.3	17.5		
2025-11-07T11:32	779	926			224	11
2025-11-07T11:33	1024	901	23.1	15.4		
2025-11-07T11:33	1119	891			219	9
2025-11-07T11:34	1252	878	21.9	14.5		
2025-11-07T11:34	1426	860			245	9
2025-11-07T11:34	1432	860	21.3	13.7		
2025-11-07T11:35	1782	826	19.3	10.3		
2025-11-07T11:35	1794	824			251	6
2025-11-07T11:36	1987	806	17.8	9.2		
2025-11-07T11:36	2098	796			259	4
2025-11-07T11:37	2377	770	15.3	6.8		
2025-11-07T11:37	2469	762			282	4
2025-11-07T11:37	2537	756	14.7	6.5		
2025-11-07T11:38	2797	733			270	7
2025-11-07T11:39	3170	701			287	9
2025-11-07T11:39	3258	694	10.3	2.9		
2025-11-07T11:40	3553	669			279	8
2025-11-07T11:40	3771	652	6.2	1.9		
2025-11-07T11:41	3938	639			301	7
2025-11-07T11:42	4259	614			292	8
2025-11-07T11:42	4487	597			276	11
2025-11-07T11:43	4613	587	0.5	-0.9		
2025-11-07T11:43	4711	580	0.6	-1.5		
2025-11-07T11:43	4852	570			282	13
2025-11-07T11:44	5214	545			273	13
2025-11-07T11:45	5345	536	-3.3	-4.9		
2025-11-07T11:45	5435	530	-3.9	-6.5		
2025-11-07T11:45	5572	521			284	14
2025-11-07T11:45	5583	520	-3.1	-8.7		
2025-11-07T11:46	5700	513	-4.0	-9.2		
2025-11-07T11:46	5864	502	-5.2	-8.8		
2025-11-07T11:46	5888	501			275	13
2025-11-07T11:47	6067	489	-5.7	-8.0		
2025-11-07T11:47	6273	477			239	13
2025-11-07T11:48	6675	453			241	15
2025-11-07T11:49	7085	429			237	16
2025-11-07T11:50	7428	410	-13.2	-15.6		
2025-11-07T11:50	7499	406			232	14
2025-11-07T11:51	7903	385			235	17
2025-11-07T11:52	8296	366			240	15
2025-11-07T11:52	8336	364	-18.9	-21.8		
2025-11-07T11:53	8699	346			244	15
2025-11-07T11:54	9080	329			241	13
2025-11-07T11:55	9431	313	-26.4	-29.9		
2025-11-07T11:55	9443	313			249	12
2025-11-07T11:56	9813	297			257	14
2025-11-07T11:57	10178	282			258	14
2025-11-07T11:57	10222	281	-32.6	-36.4		
2025-11-07T11:58	10558	267			261	14
2025-11-07T11:59	10959	252			261	14
2025-11-07T12:00	11122	246	-40.0	-44.8		
2025-11-07T12:00	11359	238			254	14
2025-11-07T12:01	11722	225			255	15
2025-11-07T12:02	12063	214			254	16
2025-11-07T12:03	12423	203			254	17
2025-11-07T12:04	12601	197	-53.3			
2025-11-07T12:04	12792	191			256	19
2025-11-07T12:05	13174	180			254	18
2025-11-07T12:06	13590	169			256	19
2025-11-07T12:06	13698	166	-63.5			
2025-11-07T12:07	13985	158			257	17
2025-11-07T12:08	14215	152	-67.0			
2025-11-07T12:08	14308	150			264	13
2025-11-07T12:08	14477	146	-67.1			
2025-11-07T12:08	14555	144			243	10
2025-11-07T12:09	14674	141	-68.1			
2025-11-07T12:09	14822	138			231	14
2025-11-07T12:09	14936	135	-68.9			
2025-11-07T12:10	15223	129			253	14
2025-11-07T12:10	15654	119			276	15
2025-11-07T12:11	15886	115	-76.0			
2025-11-07T12:11	16148	110			282	16
2025-11-07T12:12	16341	106	-79.1			
2025-11-07T12:12	16449	104	-77.4		280	14
2025-11-07T12:12	16643	101	-77.4			
2025-11-07T12:13	16766	98			295	8
2025-11-07T12:13	16820	98	-76.9			
2025-11-07T12:13	16924	96			290	3
2025-11-07T12:13	17036	94			231	3
2025-11-07T12:14	17256	90			224	6
2025-11-07T12:14	17556	86			193	6
2025-11-07T12:15	17598	85	-78.1			
2025-11-07T12:15	17737	83			158	10
2025-11-07T12:15	17972	80	-78.6		175	12
2025-11-07T12:16	18225	76			183	8
2025-11-07T12:17	18435	74			156	12
2025-11-07T12:17	18450	73	-75.6		150	13
2025-11-07T12:17	18455	73	-74.9		123	12
2025-11-07T23:30	9	1013	27.5	25.9	210	4
2025-11-07T23:30	12	1013	27.4	25.2	156	1
2025-11-07T23:30	43	1010			201	4
2025-11-07T23:30	86	1005	27.3	24.0		
2025-11-07T23:31	368	973			219	7
2025-11-07T23:31	413	968	24.5	22.0		
2025-11-07T23:32	496	959	24.1	21.2		
2025-11-07T23:32	705	936			233	7
2025-11-07T23:32	751	931	22.6	17.7		
2025-11-07T23:33	876	918	22.0	17.4		
2025-11-07T23:33	1062	899	20.7	16.9	226	7
2025-11-07T23:34	1317	873	18.8	16.2		
2025-11-07T23:34	1413	863	18.4	15.3		
2025-11-07T23:34	1420	862			222	7
2025-11-07T23:35	1622	842	17.2	13.3		
2025-11-07T23:35	1792	826			224	9
2025-11-07T23:36	1968	809	15.0	12.9		
2025-11-07T23:36	2186	788			230	9
2025-11-07T23:37	2365	772	13.1	10.6		
2025-11-07T23:37	2583	752			242	11
2025-11-07T23:37	2629	748	11.5	9.4		
2025-11-07T23:38	2938	721	10.1	7.7		
2025-11-07T23:38	2969	718			244	10
2025-11-07T23:38	3063	710	9.4	7.5		
2025-11-07T23:39	3296	690	8.5	5.8		
2025-11-07T23:39	3330	687			250	11
2025-11-07T23:40	3653	661			242	9
2025-11-07T23:40	3763	652	5.9	3.6		
2025-11-07T23:41	4000	634			226	7
2025-11-07T23:41	4011	633	4.6	1.6		
2025-11-07T23:42	4360	606			230	7
2025-11-07T23:42	4379	605	2.1	-0.2		
2025-11-07T23:43	4729	579			232	8
2025-11-07T23:44	5088	554			231	6
2025-11-07T23:45	5330	537	-4.9	-6.7		
2025-11-07T23:45	5385	533	-5.2	-9.8		
2025-11-07T23:45	5458	528			216	10
2025-11-07T23:45	5602	519	-6.6	-10.5		
2025-11-07T23:46	5634	516	-6.4	-10.1		
2025-11-07T23:46	5691	513			206	9
2025-11-07T23:46	5749	509	-6.8	-10.0		
2025-11-07T23:46	5824	504	-7.1	-9.8		
2025-11-07T23:46	5879	500	-6.5	-9.5		
2025-11-07T23:47	6054	489			216	13
2025-11-07T23:47	6223	479	-8.6	-12.4		
2025-11-07T23:48	6384	469			225	15
2025-11-07T23:49	6685	451	-10.3	-12.5		
2025-11-07T23:49	6733	448			252	16
2025-11-07T23:50	7104	427			252	16
2025-11-07T23:51	7495	406			252	17
2025-11-07T23:52	7908	384			260	19
2025-11-07T23:52	8159	371	-19.1	-21.4		
2025-11-07T23:53	8324	363			268	18
2025-11-07T23:54	8744	343			273	14
2025-11-07T23:54	8897	336	-24.1	-26.6		
2025-11-07T23:55	9159	324			284	13
2025-11-07T23:56	9562	307			281	12
2025-11-07T23:57	9963	290			287	13
2025-11-07T23:58	10318	276			300	15
2025-11-07T23:58	10350	274	-34.3	-37.6		
2025-11-07T23:58	10604	264			291	18
2025-11-07T23:59	11015	249			284	22
2025-11-07T23:59	11034	248	-40.0	-43.4		
2025-11-08T00:00	11402	235			272	18
2025-11-08T00:01	11809	221			275	21
2025-11-08T00:02	12067	213	-49.3			
2025-11-08T00:02	12208	208			278	20
2025-11-08T00:03	12514	199			286	21
2025-11-08T00:04	12917	187			295	26
2025-11-08T00:04	13106	181	-57.5			
2025-11-08T00:05	13330	175			294	30
2025-11-08T00:06	13748	164			297	33
2025-11-08T00:07	14163	153			297	29
2025-11-08T00:07	14259	150	-65.8			
2025-11-08T00:08	14577	143			296	28
2025-11-08T00:08	14687	140	-68.4			
2025-11-08T00:09	15008	133			303	31
2025-11-08T00:10	15493	122			310	27
2025-11-08T00:10	15624	120	-75.0			
2025-11-08T00:11	15901	114			308	20
2025-11-08T00:11	15911	114	-74.9			
2025-11-08T00:11	16156	109	-75.2			
2025-11-08T00:11	16270	107			301	7
2025-11-08T00:12	16833	97			300	10
2025-11-08T00:13	17032	94	-81.3			
2025-11-08T00:13	17112	92			249	7
2025-11-08T00:13	17388	88			227	14
2025-11-08T00:14	17451	87	-82.1			
2025-11-08T00:14	17631	84	-80.3			
2025-11-08T00:14	17761	82			247	12
2025-11-08T00:15	17908	80	-78.3			
2025-11-08T00:15	18004	79			267	8
2025-11-08T00:15	18170	76			298	6
2025-11-08T00:15	18220	76	-77.0			
2025-11-08T00:15	18375	74	-77.5			
2025-11-08T00:16	18383	74			350	4
2025-11-08T00:16	18537	72			50	2
2025-11-08T00:16	18734	69	-74.5			
2025-11-08T00:17	18887	68	-72.9			
2025-11-08T00:17	18982	66			107	2
2025-11-08T00:17	19045	66	-71.8			
2025-11-08T00:17	19257	63			173	4
2025-11-08T00:18	19305	63	-71.5			
2025-11-08T00:18	19372	62			164	2
2025-11-08T00:18	19487	61			133	4
2025-11-08T00:18	19553	60	-69.1			
2025-11-08T00:19	19809	58	-67.6			
2025-11-08T00:19	19850	57			171	11
2025-11-08T00:20	20263	54			190	10
2025-11-08T00:20	20438	52			209	6
2025-11-08T00:21	20575	51	-65.6			
2025-11-08T00:21	20734	50			240	9
2025-11-08T00:21	20822	49	-65.1			
2025-11-08T00:22	20948	48			279	3
2025-11-08T00:22	21064	47	-64.9			
2025-11-08T00:22	21090	47			296	1
2025-11-08T00:22	21222	46			235	3
2025-11-08T00:23	21355	45	-63.4			
2025-11-08T00:23	21607	43			131	3
2025-11-08T00:24	21783	42			144	8
2025-11-08T00:24	21857	41	-62.3			
2025-11-08T00:25	22183	39			176	9
2025-11-08T00:25	22425	38	-59.3			
2025-11-08T00:26	22594	37			171	9
2025-11-08T00:26	22924	35			154	5
2025-11-08T00:27	23088	34			134	5
2025-11-08T00:27	23316	33			192	4
2025-11-08T00:27	23351	33	-60.7			
2025-11-08T00:28	23626	31			204	9
2025-11-08T00:29	23934	30	-60.3			
2025-11-08T00:29	23976	29			273	6
2025-11-08T00:29	24193	28	-59.5		271	5
2025-11-08T00:30	24371	28			210	5
2025-11-08T00:30	24605	27			226	8
2025-11-08T00:30	24631	27	-57.1			
2025-11-08T00:31	24872	26			269	5
2025-11-08T00:31	25024	25	-57.2			
2025-11-08T00:31	25074	25			282	7
2025-11-08T00:32	25283	24	-57.2			
2025-11-08T00:32	25443	23			349	4
2025-11-08T00:32	25496	23	-57.1			
2025-11-08T00:33	25637	23	-55.7			
2025-11-08T00:33	25834	22			320	6
2025-11-08T00:34	26118	21	-57.6		344	9
2025-11-08T11:30	9	1016	24.6	23.9	40	7
2025-11-08T11:30	15	1015	24.7	23.1	8	1
2025-11-08T11:30	76	1008	24.3	21.6		
2025-11-08T11:30	112	1004			31	9
2025-11-08T11:31	302	982	22.4	20.1		
2025-11-08T11:31	382	973	22.5	19.3		
2025-11-08T11:31	445	966			37	9
2025-11-08T11:32	527	957	21.6	18.8		
2025-11-08T11:32	708	937	20.7	18.6		
2025-11-08T11:32	798	928			55	4
2025-11-08T11:33	980	908	19.0	17.7		
2025-11-08T11:33	1012	905			38	3
2025-11-08T11:33	1202	885			7	4
2025-11-08T11:33	1221	883	17.9	16.8		
2025-11-08T11:34	1494	856	16.4	14.8		
2025-11-08T11:34	1529	852			39	3
2025-11-08T11:35	1690	836	15.8	13.8		
2025-11-08T11:35	1873	818			349	4
2025-11-08T11:36	2023	804	13.7	12.6		
2025-11-08T11:36	2212	786			16	3
2025-11-08T11:36	2307	778	12.0	10.9		
2025-11-08T11:37	2530	757			320	3
2025-11-08T11:37	2646	747	9.8	8.4		
2025-11-08T11:38	2800	733	8.9	7.3		
2025-11-08T11:38	2935	721			277	5
2025-11-08T11:38	2976	717	7.9	5.9		
2025-11-08T11:38	3010	715	8.8	7.1		
2025-11-08T11:39	3343	686			272	9
2025-11-08T11:39	3377	683	5.9	4.1		
2025-11-08T11:40	3639	662	5.7	4.2		
2025-11-08T11:40	3746	653			291	8
2025-11-08T11:41	4138	622			336	6
2025-11-08T11:42	4525	593			354	7
2025-11-08T11:42	4539	592	1.2	-0.3		
2025-11-08T11:43	4945	563	-2.5	-4.1		
2025-11-08T11:43	4952	563			323	9
2025-11-08T11:43	5062	555	-3.8	-6.0		
2025-11-08T11:44	5195	545	-5.2	-9.3		
2025-11-08T11:44	5351	535	-6.6	-12.5	308	15
2025-11-08T11:44	5492	525	-7.3	-13.9		
2025-11-08T11:45	5583	519	-7.8	-16.7		
2025-11-08T11:45	5640	515	-7.3	-14.4		
2025-11-08T11:45	5723	510	-7.2	-13.2		
2025-11-08T11:45	5736	509			305	14
2025-11-08T11:45	5827	503	-8.2	-19.1		
2025-11-08T11:45	5925	497	-8.3	-17.9		
2025-11-08T11:46	6126	484			305	18
2025-11-08T11:46	6146	483	-9.2	-17.3		
2025-11-08T11:46	6224	478	-9.0	-17.5		
2025-11-08T11:47	6425	466	-10.1	-18.8		
2025-11-08T11:47	6517	460			297	18
2025-11-08T11:47	6564	457	-10.4	-17.5		
2025-11-08T11:48	6763	446	-11.9	-17.1		
2025-11-08T11:48	6791	444			291	16
2025-11-08T11:48	6914	437	-12.6	-16.8		
2025-11-08T11:48	7136	424	-13.9	-15.5		
2025-11-08T11:49	7180	422			311	8
2025-11-08T11:49	7260	418	-14.0	-15.0		
2025-11-08T11:49	7333	414			311	4
2025-11-08T11:49	7348	413	-14.4	-15.5		
2025-11-08T11:49	7508	404			265	3
2025-11-08T11:49	7602	399	-15.9	-17.6		
2025-11-08T11:50	7653	396			243	2
2025-11-08T11:50	7789	389			157	3
2025-11-08T11:50	7811	388	-16.8	-19.0		
2025-11-08T11:50	7958	381	-18.0	-20.6		
2025-11-08T11:50	7965	380			149	3
2025-11-08T11:51	8083	374	-18.4	-20.9		
2025-11-08T11:51	8118	373			112	4
2025-11-08T11:51	8208	368			138	2
2025-11-08T11:51	8291	364	-19.8	-22.4		
2025-11-08T11:52	8454	356	-20.6	-23.3		
2025-11-08T11:52	8591	349			120	2
2025-11-08T11:52	8739	342			188	3
2025-11-08T11:53	8982	331	-25.2	-28.3	201	3
2025-11-08T11:53	9129	325			221	7
2025-11-08T11:54	9353	315	-28.0	-31.3		
2025-11-08T11:54	9466	310			238	9
2025-11-08T11:54	9502	308	-28.9	-32.9		
2025-11-08T11:55	9903	291			260	18
2025-11-08T11:56	10219	279			264	23
2025-11-08T11:56	10256	277	-34.7	-39.0		
2025-11-08T11:57	10661	261			266	25
2025-11-08T11:57	10709	259	-38.7	-42.1		
2025-11-08T11:57	10874	253	-40.0	-47.4		
2025-11-08T11:57	10917	252			270	32
2025-11-08T11:58	11324	237			278	30
2025-11-08T11:59	11684	224			276	30
2025-11-08T12:00	12063	212			279	32
2025-11-08T12:01	12428	200			286	33
2025-11-08T12:01	12540	197	-54.2			
2025-11-08T12:02	12831	188			295	34
2025-11-08T12:03	13212	177	-58.2			
2025-11-08T12:03	13264	176			297	34
2025-11-08T12:04	13694	164			298	35
2025-11-08T12:05	14005	156	-63.1			
2025-11-08T12:05	14133	153			300	35
2025-11-08T12:06	14592	142			299	34
2025-11-08T12:07	15010	132			308	32
2025-11-08T12:07	15163	129	-71.3			
2025-11-08T12:08	15401	124			311	31
2025-11-08T12:09	15698	117	-74.5			
2025-11-08T12:09	15758	116			326	26
2025-11-08T12:09	16046	111			326	21
2025-11-08T12:10	16072	110	-75.9			
2025-11-08T12:10	16333	105			322	15
2025-11-08T12:10	16436	103	-78.5			
2025-11-08T12:11	16753	98			302	16
2025-11-08T12:12	17002	93	-82.6			
2025-11-08T12:12	17132	91			298	22
2025-11-08T12:12	17187	90	-83.1			
2025-11-08T12:13	17408	87	-79.4			
2025-11-08T12:13	17457	86			286	14
2025-11-08T12:13	17500	86	-77.8			
2025-11-08T12:13	17759	82	-79.4			
2025-11-08T12:13	17805	81			272	11
2025-11-08T12:14	17905	80	-76.1			
2025-11-08T12:14	18005	78			224	7
2025-11-08T12:14	18031	78	-76.9		226	7
2025-11-08T23:30	9	1015	26.6	24.3	50	8
2025-11-08T23:30	12	1014	26.2	23.5	77	1
2025-11-08T23:30	23	1013	25.8	22.1		
2025-11-08T23:30	50	1010	26.2	21.9		
2025-11-08T23:30	61	1009			56	12
2025-11-08T23:31	394	971			56	13
2025-11-08T23:32	627	945	21.1	19.2		
2025-11-08T23:32	746	932			71	8
2025-11-08T23:33	1066	899	18.9	17.4		
2025-11-08T23:33	1094	896			96	5
2025-11-08T23:34	1202	884	18.8	16.8		
2025-11-08T23:34	1409	863	17.5	15.8		
2025-11-08T23:34	1414	863			117	6
2025-11-08T23:35	1618	842	16.1	14.6		
2025-11-08T23:35	1685	836	16.1	14.3		
2025-11-08T23:35	1763	828			161	3
2025-11-08T23:35	1869	818	15.4	13.6		
2025-11-08T23:36	1910	814			197	4
2025-11-08T23:36	2127	793			187	5
2025-11-08T23:37	2423	766	12.3	10.5		
2025-11-08T23:37	2448	764			213	6
2025-11-08T23:37	2575	752	12.8	8.7		
2025-11-08T23:38	2711	740			225	9
2025-11-08T23:38	2740	738	11.8	6.7		
2025-11-08T23:38	2869	726	11.5	6.6		
2025-11-08T23:39	3051	710			210	8
2025-11-08T23:39	3267	692	8.6	4.0		
2025-11-08T23:40	3412	680			199	9
2025-11-08T23:40	3430	679	7.8	2.7		
2025-11-08T23:40	3513	672	7.5	0.7		
2025-11-08T23:41	3730	654	5.8	-0.1		
2025-11-08T23:41	3772	651			175	7
2025-11-08T23:41	4006	632	3.6	-0.1		
2025-11-08T23:42	4060	628			171	8
2025-11-08T23:42	4148	621	2.7	-0.9		
2025-11-08T23:42	4218	616	2.5	-1.5		
2025-11-08T23:42	4315	609			203	2
2025-11-08T23:43	4489	596	1.0	-2.1		
2025-11-08T23:43	4531	593			275	4
2025-11-08T23:44	4754	576	-0.2	-8.6		
2025-11-08T23:44	4895	566			300	10
2025-11-08T23:44	4973	561	-1.5	-19.0		
2025-11-08T23:45	5247	542			293	10
2025-11-08T23:46	5452	528	-6.1	-20.9		
2025-11-08T23:46	5588	519			294	12
2025-11-08T23:46	5654	514	-7.9	-22.5		
2025-11-08T23:46	5676	513	-7.3	-27.6		
2025-11-08T23:46	5710	511	-6.0	-37.9		
2025-11-08T23:47	5923	497			280	14
2025-11-08T23:47	5987	493	-6.8	-48.7		
2025-11-08T23:48	6218	478	-7.4	-55.0		
2025-11-08T23:48	6278	475			278	8
2025-11-08T23:49	6607	455	-10.7	-57.1		
2025-11-08T23:49	6637	453			301	6
2025-11-08T23:50	6894	438	-13.0	-58.6		
2025-11-08T23:50	6994	432			316	13
2025-11-08T23:50	7176	422	-15.1	-54.4		
2025-11-08T23:51	7329	414			300	21
2025-11-08T23:51	7476	406	-15.8	-60.4		
2025-11-08T23:52	7538	402	-14.6	-59.6	297	20
2025-11-08T23:52	7771	390	-15.8	-60.4		
2025-11-08T23:53	7873	385			294	18
2025-11-08T23:53	8066	375	-17.7	-61.6		
2025-11-08T23:54	8208	368			285	17
2025-11-08T23:54	8551	351			289	16
2025-11-08T23:55	8867	337			301	16
2025-11-08T23:56	9219	321			302	19
2025-11-08T23:57	9266	318	-28.4	-68.6		
2025-11-08T23:57	9579	305			305	18
2025-11-08T23:58	9900	291	-34.0	-64.5		
2025-11-08T23:58	9950	289			298	18
2025-11-08T23:59	10311	274			302	18
2025-11-09T00:00	10678	260			313	20
2025-11-09T00:00	10720	259	-40.0	-68.9		
2025-11-09T00:01	11046	246			316	20
2025-11-09T00:02	11420	233			323	26
2025-11-09T00:03	11789	220			329	31
2025-11-09T00:04	11886	217	-48.3			
2025-11-09T00:04	12153	209			330	33
2025-11-09T00:05	12536	197			330	33
2025-11-09T00:06	12916	185	-55.2			
2025-11-09T00:06	12923	185			327	32
2025-11-09T00:07	13302	174			325	32
2025-11-09T00:08	13690	164			326	32
2025-11-09T00:09	13922	158	-61.9			
2025-11-09T00:09	14076	154			335	34
2025-11-09T00:10	14474	144			342	38
2025-11-09T00:11	14617	141	-67.2			
2025-11-09T00:11	14697	139			345	38
2025-11-09T00:11	14913	134			344	32
2025-11-09T00:12	15312	125			346	22
2025-11-09T00:13	15569	120	-73.2			
2025-11-09T00:13	15649	118			336	18
2025-11-09T00:14	15872	114			322	18
2025-11-09T00:14	15902	113	-74.8			
2025-11-09T00:14	16071	110	-75.6			
2025-11-09T00:14	16164	108			305	11
2025-11-09T00:15	16622	100	-79.7			
2025-11-09T00:15	16630	100			275	11
2025-11-09T00:15	16661	99	-80.0			
2025-11-09T00:16	17011	93			283	14
2025-11-09T00:16	17041	93	-81.6			
2025-11-09T00:17	17362	88			310	19
2025-11-09T00:18	17594	84			309	17
2025-11-09T00:18	17736	82	-81.1			
2025-11-09T00:19	17868	80			289	10
2025-11-09T00:19	17985	79	-78.0			
2025-11-09T00:20	18215	75			276	13
2025-11-09T00:20	18398	73	-78.6			
2025-11-09T00:21	18565	71			295	12
2025-11-09T00:21	18636	70	-75.1			
2025-11-09T00:22	18819	68	-72.6			
2025-11-09T00:22	18921	67			309	9
2025-11-09T00:23	19203	64	-70.4			
2025-11-09T00:23	19252	63			328	5
2025-11-09T00:23	19422	61			10	2
2025-11-09T00:24	19531	60			112	3
2025-11-09T00:24	19721	58	-70.3			
2025-11-09T00:24	19730	58			136	1
2025-11-09T00:25	19963	56	-69.2			
2025-11-09T00:25	19994	56			163	3
2025-11-09T00:25	20157	54			197	5
2025-11-09T00:25	20220	54	-68.4			
2025-11-09T00:26	20290	53			175	3
2025-11-09T00:26	20334	53	-67.9			
2025-11-09T00:26	20487	51	-65.9		164	10
2025-11-09T00:27	20788	49			196	9
2025-11-09T00:27	20961	47	-64.7			
2025-11-09T00:27	21031	47			235	6
2025-11-09T00:28	21224	45	-64.2		229	7
2025-11-09T00:29	21572	43			297	6
2025-11-09T00:29	21717	42			360	4
2025-11-09T00:29	21731	42			5	4
2025-11-09T00:29	21810	41	-62.0			
2025-11-09T00:30	21882	41			65	3
2025-11-09T00:30	22102	39			200	4
2025-11-09T00:31	22421	37	-60.2			
2025-11-09T00:31	22473	37			235	4
2025-11-09T00:32	22892	35	-57.3			
2025-11-09T00:32	22911	35			182	7
2025-11-09T00:33	23286	33			179	5
2025-11-09T00:33	23521	31			187	7
2025-11-09T00:34	23680	31	-58.9			
2025-11-09T00:34	23849	30			206	10
2025-11-09T00:35	24127	29			272	7
2025-11-09T00:35	24333	28			301	6
2025-11-09T00:35	24474	27			321	5
2025-11-09T00:36	24637	26			316	5
2025-11-09T00:36	24734	26	-56.8			
2025-11-09T00:37	25036	25			334	8
2025-11-09T00:37	25268	24	-56.7			
2025-11-09T00:38	25514	23			312	10
2025-11-09T00:38	25766	22	-58.2			
2025-11-09T00:39	25910	22			336	7
2025-11-09T00:39	26213	21			297	7
2025-11-09T00:40	26308	20	-55.6			
2025-11-09T00:40	26664	19			296	7
2025-11-09T00:40	26697	19	-53.3			
2025-11-09T00:41	26974	18	-52.0		278	8
2025-11-09T00:42	27303	17	-50.5			
2025-11-09T00:42	27456	17			244	8
2025-11-09T00:43	27847	16			247	7
2025-11-09T00:43	27972	16	-52.5			
2025-11-09T00:44	28269	15			219	9
2025-11-09T00:44	28538	14	-50.2			
2025-11-09T00:45	28723	14			218	12
2025-11-09T00:46	29209	13			214	14
2025-11-09T00:46	29315	13	-49.8			
2025-11-09T00:46	29470	12			216	18
2025-11-09T00:47	29577	12	-48.0			
2025-11-09T00:47	30028	11			239	17
2025-11-09T00:48	30261	11	-46.1			
2025-11-09T00:48	30383	11	-46.5		243	19
2025-11-09T11:30	9	1013	25.1	23.9	80	5
2025-11-09T11:30	12	1013	25.3	23.4	87	2
2025-11-09T11:30	56	1008	25.1	22.2		
2025-11-09T11:30	62	1007			103	7
2025-11-09T11:31	339	976			116	5
2025-11-09T11:31	405	969	22.5	20.8		
2025-11-09T11:31	501	958	21.9	20.0		
2025-11-09T11:32	543	954			88	3
2025-11-09T11:32	597	948	21.8	19.0		
2025-11-09T11:32	766	929			42	4
2025-11-09T11:32	795	926	21.4	18.4		
2025-11-09T11:33	976	907	20.4	17.4		
2025-11-09T11:33	1101	894			32	4
2025-11-09T11:34	1265	877			83	4
2025-11-09T11:34	1276	876	19.3	15.4		
2025-11-09T11:34	1450	859	18.2	15.5		
2025-11-09T11:35	1554	848			55	4
2025-11-09T11:35	1727	831			36	4
2025-11-09T11:35	1744	830	15.8	14.0		
2025-11-09T11:35	1846	820	15.6	12.7		
2025-11-09T11:36	1957	809			54	6
2025-11-09T11:36	2137	792	13.8	11.1		
2025-11-09T11:37	2299	777			56	3
2025-11-09T11:37	2501	759	11.5	8.4		
2025-11-09T11:37	2558	754			43	2
2025-11-09T11:38	2685	742	10.3	7.2		
2025-11-09T11:38	2783	733	10.1	7.2		
2025-11-09T11:38	2887	724			251	2
2025-11-09T11:39	3081	708			243	3
2025-11-09T11:39	3099	706	7.5	6.4		
2025-11-09T11:39	3144	702	7.8	6.4		
2025-11-09T11:39	3211	697	7.2	3.8		
2025-11-09T11:39	3217	696			277	6
2025-11-09T11:40	3244	694	8.5	3.5		
2025-11-09T11:40	3363	684			286	7
2025-11-09T11:40	3455	676	7.3	2.2		
2025-11-09T11:40	3492	673			270	7
2025-11-09T11:41	3636	662	6.9	-3.6		
2025-11-09T11:41	3679	658	7.0	-8.6		
2025-11-09T11:41	3816	647			305	7
2025-11-09T11:41	3822	647	6.0	-7.6		
2025-11-09T11:42	4050	629			303	10
2025-11-09T11:42	4123	624	3.7	-13.1		
2025-11-09T11:43	4399	603			301	10
2025-11-09T11:44	4593	588	-0.4	-20.1		
2025-11-09T11:44	4732	578			284	8
2025-11-09T11:44	4770	575	-1.8	-19.7		
2025-11-09T11:44	4857	569	-2.4	-19.8		
2025-11-09T11:44	4915	565	-1.9	-28.5		
2025-11-09T11:45	5039	556			278	12
2025-11-09T11:45	5095	552	-2.5	-33.7		
2025-11-09T11:45	5221	543	-2.9	-37.4		
2025-11-09T11:46	5303	538	-2.9	-39.6		
2025-11-09T11:46	5367	533	-2.4	-42.0		
2025-11-09T11:46	5418	530			300	11
2025-11-09T11:46	5658	514	-4.0	-43.1		
2025-11-09T11:47	5788	506			290	16
2025-11-09T11:47	5977	494	-6.1	-44.6		
2025-11-09T11:48	6160	482			302	5
2025-11-09T11:49	6440	465			326	10
2025-11-09T11:49	6481	463	-8.4	-55.7		
2025-11-09T11:50	6793	444			313	18
2025-11-09T11:50	6882	439	-10.0	-56.7		
2025-11-09T11:51	7160	424			314	20
2025-11-09T11:51	7197	422	-12.4	-58.2		
2025-11-09T11:52	7537	403			310	18
2025-11-09T11:52	7603	400	-14.5	-59.6		
2025-11-09T11:53	7930	383			312	15
2025-11-09T11:54	8318	364			322	19
2025-11-09T11:54	8376	361	-20.8	-63.7		
2025-11-09T11:54	8650	347	-22.7	-59.6		
2025-11-09T11:55	8727	344			326	21
2025-11-09T11:55	8984	332			329	23
2025-11-09T11:56	9386	314			323	25
2025-11-09T11:57	9649	302	-31.6	-51.6		
2025-11-09T11:57	9827	295			325	25
2025-11-09T11:58	10018	287	-34.2	-54.5		
2025-11-09T11:58	10248	278			328	25
2025-11-09T11:59	10462	269	-37.8	-51.7		
2025-11-09T11:59	10627	263	-39.3	-50.6		
2025-11-09T11:59	10677	261			331	29
2025-11-09T11:59	10726	259	-38.9	-56.4		
2025-11-09T12:00	10860	254	-40.0	-55.3		
2025-11-09T12:00	11097	245			329	30
2025-11-09T12:01	11236	240	-42.5			
2025-11-09T12:01	11515	231			317	29
2025-11-09T12:02	11934	216			318	31
2025-11-09T12:03	12066	212	-48.2			
2025-11-09T12:03	12349	203			319	31
2025-11-09T12:04	12587	196	-51.5			
2025-11-09T12:04	12777	190			324	32
2025-11-09T12:05	13211	178			328	33
2025-11-09T12:06	13661	165			325	29
2025-11-09T12:07	14016	156	-62.9			
2025-11-09T12:07	14070	155			324	28
2025-11-09T12:08	14557	143			331	24
2025-11-09T12:08	14622	141	-66.8			
2025-11-09T12:09	14809	137	-68.3		330	20
2025-11-09T23:30	9	1013	27.7	24.6	220	3
2025-11-09T23:30	12	1012	27.2	23.9	195	2
2025-11-09T23:30	31	1010			251	3
2025-11-09T23:31	170	994	25.7	22.0		
2025-11-09T23:31	191	992			209	3
2025-11-09T23:31	366	973			206	5
2025-11-09T23:32	495	958	23.1	20.4		
2025-11-09T23:32	689	937			241	5
2025-11-09T23:33	859	919			238	4
2025-11-09T23:33	1007	903	19.3	17.4	216	4
2025-11-09T23:34	1173	886	18.9	16.3		
2025-11-09T23:34	1200	883			190	5
2025-11-09T23:34	1428	860	18.8	13.9		
2025-11-09T23:34	1433	859			130	6
2025-11-09T23:35	1689	834			151	4
2025-11-09T23:35	1716	832	16.7	13.2		
2025-11-09T23:36	1798	824			202	3
2025-11-09T23:36	1819	821	16.9	11.8		
2025-11-09T23:36	1946	809			193	2
2025-11-09T23:36	2006	804	15.9	9.8		
2025-11-09T23:36	2045	800			205	3
2025-11-09T23:37	2200	786	14.9	8.2		
2025-11-09T23:37	2394	768			191	3
2025-11-09T23:37	2417	766	13.2	8.9		
2025-11-09T23:38	2521	756	12.6	7.7		
2025-11-09T23:38	2600	749			184	5
2025-11-09T23:38	2725	738	11.9	6.4		
2025-11-09T23:39	2807	731			235	4
2025-11-09T23:39	2868	726	11.8	4.5		
2025-11-09T23:39	2967	717			275	4
2025-11-09T23:39	3048	710	11.1	1.6		
2025-11-09T23:39	3091	706			270	3
2025-11-09T23:40	3276	691	9.2	-0.7		
2025-11-09T23:40	3309	688			311	3
2025-11-09T23:40	3368	683	8.6	-2.4		
2025-11-09T23:41	3528	670	7.1	-1.1	281	3
2025-11-09T23:41	3645	661			277	2
2025-11-09T23:42	3979	634			271	3
2025-11-09T23:43	4140	622	2.0	-0.3		
2025-11-09T23:43	4191	618			257	4
2025-11-09T23:43	4381	604			250	5
2025-11-09T23:44	4453	598	-0.2	-1.3		
2025-11-09T23:44	4513	594			293	5
2025-11-09T23:44	4751	576	-1.2	-2.6		
2025-11-09T23:45	4779	574			284	10
2025-11-09T23:45	4968	561	-1.7	-3.1		
2025-11-09T23:45	5049	555	0.1	-3.8		
2025-11-09T23:45	5065	554			300	12
2025-11-09T23:46	5103	552	1.6	-8.2		
2025-11-09T23:46	5228	543	1.2	-14.9		
2025-11-09T23:46	5233	543			315	12
2025-11-09T23:47	5561	521			319	10
2025-11-09T23:47	5661	514	-2.2	-26.2		
2025-11-09T23:48	5812	505	-2.4	-37.1		
2025-11-09T23:48	5840	503			338	12
2025-11-09T23:49	6098	487			321	12
2025-11-09T23:49	6324	473	-5.8	-39.5		
2025-11-09T23:50	6429	467			316	8
2025-11-09T23:50	6704	450	-8.9	-33.2		
2025-11-09T23:51	6772	446			336	13
2025-11-09T23:51	7087	428	-12.1	-24.8		
2025-11-09T23:52	7104	427			326	15
2025-11-09T23:53	7442	409			324	15
2025-11-09T23:53	7470	407	-15.8	-25.5		
2025-11-09T23:53	7589	401	-16.0	-36.1		
2025-11-09T23:53	7612	400			329	14
2025-11-09T23:54	7939	383	-18.1	-56.4		
2025-11-09T23:54	7957	382			327	12
2025-11-09T23:55	8306	364			331	13
2025-11-09T23:55	8455	357	-22.1	-45.5		
2025-11-09T23:56	8664	347			333	16
2025-11-09T23:56	8766	342	-24.3	-48.2		
2025-11-09T23:57	9026	330			329	18
2025-11-09T23:58	9308	317	-28.9	-45.3		
2025-11-09T23:58	9406	313			324	17
2025-11-09T23:59	9598	305	-31.6	-45.1		
2025-11-09T23:59	9625	304			321	18
2025-11-10T00:00	10010	287			316	17
2025-11-10T00:00	10151	281	-36.7	-46.9		
2025-11-10T00:01	10368	273	-37.6	-54.7		
2025-11-10T00:01	10393	272			324	19
2025-11-10T00:01	10450	270	-37.1	-51.9		
2025-11-10T00:01	10600	264	-37.9	-56.2		
2025-11-10T00:01	10681	261			324	26
2025-11-10T00:02	10863	254	-40.0	-57.3		
2025-11-10T00:02	11088	246			327	28
2025-11-10T00:03	11488	231			330	29
2025-11-10T00:04	11902	217			330	29
2025-11-10T00:05	12304	204			330	27
2025-11-10T00:06	12697	192			324	23
2025-11-10T00:07	12870	187	-55.2			
2025-11-10T00:07	13078	181			322	22
2025-11-10T00:08	13200	178	-57.1			
2025-11-10T00:08	13466	170			323	23
2025-11-10T00:09	13863	160			320	22
2025-11-10T00:10	14234	150			321	23
2025-11-10T00:11	14648	140			330	23
2025-11-10T00:12	15089	130			326	19
2025-11-10T00:12	15210	128	-72.5			
2025-11-10T00:13	15526	121			324	19
2025-11-10T00:14	15954	112			336	14
2025-11-10T00:15	16262	106	-79.6			
2025-11-10T00:15	16429	103			333	10
2025-11-10T00:16	16678	99	-82.3			
2025-11-10T00:16	16872	96			312	11
2025-11-10T00:17	17237	89			293	13
2025-11-10T00:17	17309	88	-82.0			
2025-11-10T00:18	17681	83			308	17
2025-11-10T00:18	17792	81	-82.4			
2025-11-10T00:19	17961	79	-81.0			
2025-11-10T00:19	18098	77			287	10
2025-11-10T00:19	18264	74	-80.2			
2025-11-10T00:20	18407	73	-75.7			
2025-11-10T00:20	18522	71			274	8
2025-11-10T00:20	18535	71	-75.2			
2025-11-10T00:20	18635	70	-75.1			
2025-11-10T00:20	18701	69			244	8
2025-11-10T00:20	18722	69	-74.2			
2025-11-10T00:21	19131	64			270	9
2025-11-10T00:22	19284	62	-75.6			
2025-11-10T00:22	19400	61	-71.7			
2025-11-10T00:22	19547	60	-70.4		310	10
2025-11-10T00:23	19659	59	-68.6			
2025-11-10T00:23	19759	58			337	5
2025-11-10T00:23	19973	56			16	2
2025-11-10T00:24	20238	53			167	4
2025-11-10T00:24	20249	53	-67.8			
2025-11-10T00:25	20443	51			184	8
2025-11-10T00:25	20634	50			188	2
2025-11-10T00:25	20732	49			245	3
2025-11-10T00:26	20930	47	-68.1			
2025-11-10T00:26	21070	46			239	8
2025-11-10T00:27	21296	45			269	6
2025-11-10T00:27	21407	44	-66.9			
2025-11-10T00:27	21493	43			232	3
2025-11-10T00:27	21602	42			210	3
2025-11-10T00:28	21679	42	-64.2			
2025-11-10T00:28	21734	42			277	3
2025-11-10T00:28	21887	41			353	3
2025-11-10T00:28	21965	40			74	3
2025-11-10T00:29	22055	39	-61.2			
2025-11-10T00:29	22104	39			124	6
2025-11-10T00:30	22511	37			175	10
2025-11-10T00:30	22682	36	-62.4			
2025-11-10T00:30	22789	35			187	6
2025-11-10T00:31	23096	33			160	4
2025-11-10T00:31	23303	32			138	1
2025-11-10T00:32	23657	30			181	3
2025-11-10T00:32	23786	30	-60.4			
2025-11-10T00:33	23911	29			244	5
2025-11-10T00:33	24154	28			321	9
2025-11-10T00:33	24178	28	-55.0			
2025-11-10T00:34	24551	26			7	9
2025-11-10T00:35	24822	25			350	8
2025-11-10T00:35	24975	25			62	5
2025-11-10T00:35	25000	25	-56.7			
2025-11-10T00:36	25210	24			173	3
2025-11-10T00:36	25236	24	-54.8			
2025-11-10T00:36	25374	23			248	5
2025-11-10T00:37	25569	23			264	6
2025-11-10T00:37	25744	22			206	5
2025-11-10T00:37	25804	22	-54.1			
2025-11-10T00:37	25864	22			240	5
2025-11-10T00:38	26010	21			281	6
2025-11-10T00:38	26230	20			253	7
2025-11-10T00:39	26526	19			267	8
2025-11-10T00:39	26558	19	-52.6			
2025-11-10T00:39	26795	19			248	12
2025-11-10T00:40	27083	18	-51.1			
2025-11-10T00:40	27156	18			273	13
2025-11-10T00:40	27266	17	-51.0			
2025-11-10T00:41	27459	17			274	12
2025-11-10T00:41	27498	17	-49.8			
2025-11-10T00:42	27941	16			275	14
2025-11-10T00:43	28280	15	-53.4			
2025-11-10T00:43	28410	15			270	14
2025-11-10T00:43	28502	14	-52.1			
2025-11-10T00:44	28782	14			249	14
2025-11-10T00:45	29277	13	-49.6		243	16
2025-11-10T00:46	29810	12			235	18
2025-11-10T00:46	30210	11	-50.5			
2025-11-10T00:47	30333	11			224	22
2025-11-10T00:48	30770	10	-51.1			
2025-11-10T00:48	30839	10			226	23
2025-11-10T00:49	31301	9	-52.4		237	22
2025-11-10T00:49	31503	9	-51.9		238	25
2025-11-10T11:30	9	1011	26.7	23.4	210	4
2025-11-10T11:30	13	1011	27.2	23.2	203	2
2025-11-10T11:30	33	1008			221	4
2025-11-10T11:30	46	1007	27.7	22.2		
2025-11-10T11:30	82	1003			213	7
2025-11-10T11:31	411	966			209	6
2025-11-10T11:31	500	957	23.5	20.8		
2025-11-10T11:32	634	942			222	7
2025-11-10T11:32	732	931	21.9	18.1		
2025-11-10T11:33	856	918	21.7	15.8		
2025-11-10T11:33	959	908			231	7
2025-11-10T11:33	1066	897	20.7	13.9		
2025-11-10T11:33	1150	888	20.3	12.5		
2025-11-10T11:34	1223	880	20.1	10.8		
2025-11-10T11:34	1297	873			238	7
2025-11-10T11:34	1347	868	19.2	10.2		
2025-11-10T11:35	1594	843	17.3	10.7		
2025-11-10T11:35	1634	839			245	8
2025-11-10T11:35	1684	834	16.9	8.6		
2025-11-10T11:36	1848	818	15.7	11.3		
2025-11-10T11:36	1973	806			239	6
2025-11-10T11:36	2075	797	14.2	12.4		
2025-11-10T11:37	2285	777			236	7
2025-11-10T11:37	2430	764	13.1	8.6		
2025-11-10T11:38	2546	753	13.4	6.0		
2025-11-10T11:38	2619	747			253	7
2025-11-10T11:38	2807	730	11.5	6.0		
2025-11-10T11:39	2963	717			234	7
2025-11-10T11:39	3160	700	8.9	3.3		
2025-11-10T11:40	3288	689			251	5
2025-11-10T11:40	3345	684	8.7	-6.7		
2025-11-10T11:40	3487	673	8.3	-14.0		
2025-11-10T11:40	3532	669			287	6
2025-11-10T11:41	3560	667	7.6	-6.2		
2025-11-10T11:41	3593	664	7.5	-5.6		
2025-11-10T11:41	3649	660	7.6	-15.9		
2025-11-10T11:41	3867	642			273	6
2025-11-10T11:42	3925	638	6.4	-15.6		
2025-11-10T11:42	4065	627			254	6
2025-11-10T11:42	4106	624	4.8	-1.4		
2025-11-10T11:42	4135	622	4.4	0.4		
2025-11-10T11:42	4205	617	4.4	-2.9	250	5
2025-11-10T11:43	4394	602	3.7	-1.5		
2025-11-10T11:43	4434	599			287	3
2025-11-10T11:43	4469	597	3.8	-6.8		
2025-11-10T11:43	4497	595	3.8	-9.2		
2025-11-10T11:43	4538	592			308	4
2025-11-10T11:43	4555	591	5.1	-23.0		
2025-11-10T11:44	4630	585	5.4	-33.7		
2025-11-10T11:44	4700	580	5.9	-31.0		
2025-11-10T11:44	4706	580			313	6
2025-11-10T11:44	4889	567	5.4	-47.0		
2025-11-10T11:45	4967	562			258	5
2025-11-10T11:45	5196	546			281	4
2025-11-10T11:45	5208	545	3.0	-42.1		
2025-11-10T11:46	5350	536	2.0	-32.0		
2025-11-10T11:46	5437	530			322	5
2025-11-10T11:46	5511	525	0.9	-17.9		
2025-11-10T11:46	5589	520			289	5
2025-11-10T11:47	5795	507	-0.8	-20.4		
2025-11-10T11:47	5885	501			298	5
2025-11-10T11:48	6070	489			299	7
2025-11-10T11:48	6105	487	-3.5	-25.1		
2025-11-10T11:48	6298	476			302	10
2025-11-10T11:49	6453	466			311	13
2025-11-10T11:49	6499	464	-5.9	-33.8		
2025-11-10T11:50	6799	446			306	11
2025-11-10T11:50	6978	436	-10.4	-27.1		
2025-11-10T11:51	7148	426			299	13
2025-11-10T11:51	7177	425	-11.7	-30.2		
2025-11-10T11:52	7493	407			294	9
2025-11-10T11:52	7504	407	-13.8	-35.6		
2025-11-10T11:53	7846	389			310	11
2025-11-10T11:54	8211	370			317	12
2025-11-10T11:55	8571	353			300	11
2025-11-10T11:55	8620	350	-22.4	-49.0		
2025-11-10T11:56	8936	336			298	14
2025-11-10T11:56	9125	327	-25.2	-54.0		
2025-11-10T11:57	9290	320			303	14
2025-11-10T11:58	9596	306	-28.9	-60.8		
2025-11-10T11:58	9659	304			311	14
2025-11-10T11:59	10037	288			312	16
2025-11-10T12:00	10436	272			314	17
2025-11-10T12:00	10624	265	-37.1	-66.8		
2025-11-10T12:01	10813	257			315	20
2025-11-10T12:01	11025	250	-40.0	-66.9		
2025-11-10T12:02	11182	244			323	24
2025-11-10T12:03	11550	231			328	26
2025-11-10T12:04	11913	219			333	30
2025-11-10T12:05	12291	206			333	29
2025-11-10T12:05	12437	202	-52.2			
2025-11-10T12:06	12679	194			336	26
2025-11-10T12:07	13066	183			324	19
2025-11-10T12:08	13446	172			306	17
2025-11-10T12:08	13553	169	-59.4			
2025-11-10T12:09	13850	162			294	18
2025-11-10T12:09	13960	159	-62.2			
2025-11-10T12:10	14234	152			285	15
2025-11-10T12:11	14618	142			282	14
2025-11-10T12:11	14650	142	-67.9			
2025-11-10T12:12	15032	133			296	13
2025-11-10T12:13	15440	124			305	13
2025-11-10T12:14	15793	117	-77.2			
2025-11-10T12:14	15834	116			317	13
2025-11-10T12:14	15982	113	-76.8			
2025-11-10T12:15	16170	109			295	7
2025-11-10T12:15	16338	106	-79.2			
2025-11-10T12:16	16561	102			277	15
2025-11-10T12:17	16939	95			291	20
2025-11-10T12:17	17129	92	-83.5			
2025-11-10T12:18	17269	90			314	19
2025-11-10T12:19	17639	84			324	16
2025-11-10T12:19	17844	81	-83.8			
2025-11-10T12:19	17904	80	-83.5		337	15
2025-11-10T23:30	9	1013	28.6	26.0	220	5
2025-11-10T23:30	12	1012	29.1	26.5	185	1
2025-11-10T23:30	28	1011	28.6	25.2		
2025-11-10T23:30	36	1010			198	4
2025-11-10T23:30	52	1008	27.7	24.1		
2025-11-10T23:30	95	1003			212	7
2025-11-10T23:31	391	970			231	8
2025-11-10T23:32	594	948			230	8
2025-11-10T23:32	600	947	22.9	21.2		
2025-11-10T23:33	791	927	21.8	19.7		
2025-11-10T23:33	908	914			245	7
2025-11-10T23:33	1068	898			255	7
2025-11-10T23:34	1171	887	19.7	17.5		
2025-11-10T23:35	1409	863			255	6
2025-11-10T23:35	1573	847			248	7
2025-11-10T23:35	1630	841	17.2	15.0		
2025-11-10T23:35	1701	834			249	6
2025-11-10T23:36	1904	814			261	8
2025-11-10T23:36	1936	811	15.4	13.1		
2025-11-10T23:37	2142	792			269	6
2025-11-10T23:37	2385	769	13.9	9.9		
2025-11-10T23:38	2466	762			254	7
2025-11-10T23:38	2605	749			264	7
2025-11-10T23:38	2684	742	11.9	7.4		
2025-11-10T23:39	2748	737	11.8	5.9		
2025-11-10T23:39	2782	734	11.5	6.2		
2025-11-10T23:39	2826	730			287	6
2025-11-10T23:39	2888	724	11.3	4.5		
2025-11-10T23:39	2927	721	11.0	6.1		
2025-11-10T23:39	2978	717	11.6	0.4		
2025-11-10T23:39	3007	714			281	4
2025-11-10T23:40	3100	706	10.7	1.0		
2025-11-10T23:40	3262	693	9.2	7.2		
2025-11-10T23:40	3355	685	8.9	4.7		
2025-11-10T23:40	3368	684			325	4
2025-11-10T23:41	3417	680	8.7	3.5		
2025-11-10T23:41	3454	677	8.9	-1.2		
2025-11-10T23:41	3508	672	8.6	-5.6		
2025-11-10T23:41	3544	669	8.7	-8.8		
2025-11-10T23:41	3573	667			327	4
2025-11-10T23:41	3602	665	8.3	-4.2		
2025-11-10T23:41	3693	657			327	2
2025-11-10T23:41	3705	657	7.5	0.9		
2025-11-10T23:42	3811	648	7.3	-3.3		
2025-11-10T23:42	3895	642	7.2	-3.7		
2025-11-10T23:42	3901	641			14	2
2025-11-10T23:42	3991	634			38	3
2025-11-10T23:42	4054	629	6.8	-4.0		
2025-11-10T23:43	4122	624	6.7	-3.0		
2025-11-10T23:43	4156	622	6.5	-3.4		
2025-11-10T23:43	4190	619	6.2	-5.2		
2025-11-10T23:43	4258	614	5.6	1.7		
2025-11-10T23:43	4331	608			9	3
2025-11-10T23:43	4391	604	4.6	1.1		
2025-11-10T23:43	4424	602	4.5	-0.9		
2025-11-10T23:44	4446	600			355	3
2025-11-10T23:44	4451	599	5.3	-4.0		
2025-11-10T23:44	4484	597	5.3	-2.3		
2025-11-10T23:44	4527	594	5.6	-6.9		
2025-11-10T23:44	4564	591			30	4
2025-11-10T23:44	4602	589	5.0	-6.0		
2025-11-10T23:44	4655	585	5.0	-11.6		
2025-11-10T23:44	4758	577			335	4
2025-11-10T23:45	4947	564	2.7	-13.2		
2025-11-10T23:45	4980	562			313	3
2025-11-10T23:46	5116	553			294	4
2025-11-10T23:46	5180	548	0.9	-16.5		
2025-11-10T23:46	5332	538			313	2
2025-11-10T23:47	5454	530	-1.3	-20.9		
2025-11-10T23:47	5543	524			295	4
2025-11-10T23:47	5627	518	-2.3	-21.7		
2025-11-10T23:48	5860	503	-3.8	-26.7		
2025-11-10T23:48	5877	502			291	8
2025-11-10T23:48	5941	498	-4.1	-29.4		
2025-11-10T23:49	6145	485			293	11
2025-11-10T23:49	6151	485	-5.1	-37.2		
2025-11-10T23:49	6206	482	-4.4	-43.4		
2025-11-10T23:50	6489	464	-6.3	-48.4		
2025-11-10T23:50	6495	464			268	10
2025-11-10T23:50	6744	450	-7.6	-45.6		
2025-11-10T23:50	6782	447			288	12
2025-11-10T23:51	7133	427			293	13
2025-11-10T23:52	7495	408			291	12
2025-11-10T23:53	7838	390	-15.9	-47.0		
2025-11-10T23:53	7862	388			292	12
2025-11-10T23:54	8226	370			285	13
2025-11-10T23:55	8257	368	-18.7	-44.9		
2025-11-10T23:55	8325	365	-19.3	-35.7		
2025-11-10T23:55	8541	355	-21.2	-33.6		
2025-11-10T23:55	8589	352			286	12
2025-11-10T23:56	8830	341	-22.9	-38.8		
2025-11-10T23:56	8965	335			276	7
2025-11-10T23:57	9132	327			292	6
2025-11-10T23:57	9288	320			282	9
2025-11-10T23:57	9294	320	-26.7	-34.9		
2025-11-10T23:58	9686	303			290	12
2025-11-10T23:59	9994	290	-33.2	-37.7		
2025-11-10T23:59	10091	286			299	15
2025-11-10T23:59	10098	286	-33.3	-42.5		
2025-11-11T00:00	10236	280	-34.3	-45.0		
2025-11-11T00:00	10430	272	-35.4	-47.8		
2025-11-11T00:00	10506	269			307	19
2025-11-11T00:01	10782	259	-38.5	-49.3		
2025-11-11T00:01	10912	254	-39.0	-52.7	315	22
2025-11-11T00:02	11023	250	-40.0	-52.5		
2025-11-11T00:02	11319	239			321	22
2025-11-11T00:03	11763	224			321	22
2025-11-11T00:04	12217	209			330	27
2025-11-11T00:04	12248	208	-51.3			
2025-11-11T00:05	12525	199			329	26
2025-11-11T00:05	12671	195	-53.9			
2025-11-11T00:06	12940	187	-55.6		326	18
2025-11-11T00:07	13194	179	-56.4			
2025-11-11T00:07	13336	175			317	17
2025-11-11T00:08	13727	165			305	15
2025-11-11T00:09	14118	155			300	15
2025-11-11T00:10	14473	146	-67.0			
2025-11-11T00:10	14549	144			297	15
2025-11-11T00:11	14823	138	-69.9			
2025-11-11T00:11	14954	135			306	17
2025-11-11T00:11	15088	132	-71.1			
2025-11-11T00:11	15206	129			298	12
2025-11-11T00:12	15403	125	-72.8			
2025-11-11T00:12	15684	119			334	10
2025-11-11T00:13	16134	110	-78.8			
2025-11-11T00:13	16142	110			346	9
2025-11-11T00:14	16436	104			307	6
2025-11-11T00:15	16874	96	-82.7			
2025-11-11T00:15	16923	95			311	15
2025-11-11T00:15	17166	91	-83.6			
2025-11-11T00:16	17244	90			335	21
2025-11-11T00:16	17370	88	-82.0			
2025-11-11T00:16	17700	83			345	3
2025-11-11T00:17	17741	82	-81.6			
2025-11-11T00:17	17923	80	-80.2			
2025-11-11T00:17	17961	79			32	2
2025-11-11T00:18	18206	76			266	3
2025-11-11T00:18	18409	73	-83.4			
2025-11-11T00:18	18439	73			267	7
2025-11-11T00:19	18660	70			280	9
2025-11-11T00:19	18840	68			283	6
2025-11-11T00:19	18947	66	-80.7			
2025-11-11T00:19	19044	65			316	10
2025-11-11T00:20	19269	63	-74.3			
2025-11-11T00:20	19287	63			326	4
2025-11-11T00:20	19485	61			13	1
2025-11-11T00:21	19602	59			231	3
2025-11-11T00:21	19783	58	-72.7			
2025-11-11T00:21	19896	56			289	8
2025-11-11T00:22	19937	56	-71.6			
2025-11-11T00:22	20144	54			343	7
2025-11-11T00:22	20225	53	-67.4			
2025-11-11T00:23	20384	52			22	5
2025-11-11T00:23	20502	51	-66.3			
2025-11-11T00:23	20694	49	-65.4			
2025-11-11T00:24	20782	49			71	8
2025-11-11T00:24	21035	47			55	5
2025-11-11T00:25	21165	46			78	3
2025-11-11T00:25	21288	45			140	5
2025-11-11T00:25	21496	43	-64.4		131	5
2025-11-11T00:26	21611	43			107	4
2025-11-11T00:26	21890	41	-63.7			
2025-11-11T00:26	21937	40			196	5
2025-11-11T00:27	22107	39			212	2
2025-11-11T00:27	22249	38			137	3
2025-11-11T00:27	22380	38	-63.0			
2025-11-11T00:28	22497	37			136	11
2025-11-11T00:28	22714	36			169	4
2025-11-11T00:28	22823	35	-61.5		237	2
2025-11-11T00:29	22928	34			306	3
2025-11-11T00:29	23094	33			277	2
2025-11-11T00:29	23247	33			193	3
2025-11-11T00:30	23404	32	-58.3			
2025-11-11T00:30	23605	31			178	4
2025-11-11T00:31	23790	30	-59.5			
2025-11-11T00:31	24024	29			219	6
2025-11-11T00:31	24071	29	-57.7			
2025-11-11T00:32	24388	27	-53.2			
2025-11-11T00:32	24462	27			272	6
2025-11-11T00:33	24657	26			289	8
2025-11-11T00:34	25010	25			288	8
2025-11-11T00:34	25167	24	-55.0			
2025-11-11T00:34	25219	24			259	4
2025-11-11T00:34	25381	23			189	5
2025-11-11T00:35	25466	23	-54.8			
2025-11-11T00:35	25548	23			217	6
2025-11-11T00:35	25634	22	-53.6			
2025-11-11T00:35	25752	22			271	8
2025-11-11T00:36	26018	21			285	8
2025-11-11T00:36	26202	21			257	7
2025-11-11T00:37	26363	20	-53.9			
2025-11-11T00:37	26427	20			268	7
2025-11-11T00:37	26625	19			238	8
2025-11-11T00:38	27001	18			292	8
2025-11-11T00:39	27447	17			260	9
2025-11-11T00:39	27721	16	-53.1			
2025-11-11T00:40	27795	16			260	8
2025-11-11T00:40	28083	15			228	10
2025-11-11T00:41	28567	14			225	16
2025-11-11T00:42	29045	13			220	21
2025-11-11T00:42	29097	13	-51.1			
2025-11-11T00:43	29503	12			221	21
2025-11-11T00:44	29994	11			224	22
2025-11-11T00:45	30465	11			237	24
2025-11-11T00:46	30964	10	-52.1		236	25
2025-11-11T11:30	9	1013	27.3	24.2	70	2
2025-11-11T11:30	12	1013	27.4	23.9	0	0
2025-11-11T11:30	38	1010			95	3
2025-11-11T11:30	89	1004	27.1	22.7		
2025-11-11T11:31	225	989			68	3
2025-11-11T11:31	489	959			74	3
2025-11-11T11:32	501	958	23.3	20.6		
2025-11-11T11:32	607	946	23.1	19.3		
2025-11-11T11:32	640	943			52	1
2025-11-11T11:33	864	919			236	3
2025-11-11T11:33	1041	900	19.9	18.4		
2025-11-11T11:33	1049	899			217	2
2025-11-11T11:33	1114	893	19.3	17.8		
2025-11-11T11:34	1229	881	20.0	15.2		
2025-11-11T11:34	1240	880			278	3
2025-11-11T11:34	1335	870	19.2	14.7		
2025-11-11T11:35	1513	852	18.4	15.1		
2025-11-11T11:35	1575	846			268	3
2025-11-11T11:35	1649	839			283	3
2025-11-11T11:35	1741	830	17.4	10.3		
2025-11-11T11:36	1856	819			262	2
2025-11-11T11:36	1914	813	16.2	10.9		
2025-11-11T11:36	1978	807			276	3
2025-11-11T11:36	1995	806	16.5	7.2		
2025-11-11T11:36	2036	802	15.9	10.2		
2025-11-11T11:36	2110	795	16.0	6.7		
2025-11-11T11:36	2139	792			262	4
2025-11-11T11:36	2155	791	15.7	-0.9		
2025-11-11T11:37	2200	786	15.4	2.9		
2025-11-11T11:37	2244	782	15.1	11.7		
2025-11-11T11:37	2298	777	14.8	10.2		
2025-11-11T11:37	2331	774	14.6	8.8		
2025-11-11T11:37	2385	769			238	4
2025-11-11T11:37	2391	769	14.1	10.3		
2025-11-11T11:37	2506	759			224	2
2025-11-11T11:38	2528	757	13.6	9.3		
2025-11-11T11:38	2566	753	13.5	6.8		
2025-11-11T11:38	2599	750	13.9	2.2		
2025-11-11T11:38	2722	739	13.2	-4.5		
2025-11-11T11:38	2783	734	13.1	-8.1		
2025-11-11T11:38	2789	734			282	2
2025-11-11T11:39	2921	722	12.3	-6.2		
2025-11-11T11:39	2943	720			282	3
2025-11-11T11:39	3019	714	11.7	-7.2		
2025-11-11T11:39	3094	707	11.3	-4.4		
2025-11-11T11:39	3126	705			281	4
2025-11-11T11:39	3132	704	11.1	-5.0		
2025-11-11T11:39	3175	700	10.9	-4.4		
2025-11-11T11:40	3224	696	11.0	-11.8		
2025-11-11T11:40	3230	696			270	4
2025-11-11T11:40	3317	689	10.2	-3.5		
2025-11-11T11:40	3370	684			272	6
2025-11-11T11:40	3391	683	9.6	-5.5		
2025-11-11T11:40	3459	677	8.9	2.2		
2025-11-11T11:41	3511	673			268	3
2025-11-11T11:41	3516	672	8.7	0.7		
2025-11-11T11:41	3615	664	8.1	6.2		
2025-11-11T11:41	3674	660	8.2	4.8		
2025-11-11T11:41	3777	651	7.8	2.9		
2025-11-11T11:42	3821	648	7.8	3.3		
2025-11-11T11:42	3832	647			234	2
2025-11-11T11:42	3975	636	7.2	0.2		
2025-11-11T11:42	4089	627			267	2
2025-11-11T11:42	4121	625	6.2	-1.5		
2025-11-11T11:43	4367	606	4.0	-1.2		
2025-11-11T11:43	4404	603			291	2
2025-11-11T11:43	4414	603	3.9	-3.6		
2025-11-11T11:44	4462	599	3.8	-6.8		
2025-11-11T11:44	4611	588	3.8	-12.2		
2025-11-11T11:44	4718	581	3.5	-20.0		
2025-11-11T11:44	4723	580			280	2
2025-11-11T11:45	4925	566	2.5	-21.6		
2025-11-11T11:45	5005	560			256	2
2025-11-11T11:45	5086	555			232	3
2025-11-11T11:46	5359	536			251	4
2025-11-11T11:46	5419	532	-2.0	-19.4		
2025-11-11T11:47	5588	521			279	7
2025-11-11T11:47	5655	517	-2.9	-30.3		
2025-11-11T11:48	5853	504			275	11
2025-11-11T11:48	5997	495	-4.2	-43.2		
2025-11-11T11:48	6092	489			271	8
2025-11-11T11:49	6321	475	-4.9	-43.7		
2025-11-11T11:49	6439	468			257	10
2025-11-11T11:50	6757	449			251	9
2025-11-11T11:51	6912	440	-9.7	-50.7		
2025-11-11T11:51	7040	433			268	9
2025-11-11T11:52	7322	417	-12.8	-49.3		
2025-11-11T11:52	7386	413			273	10
2025-11-11T11:52	7498	407	-13.6	-39.8		
2025-11-11T11:53	7719	395	-15.0	-38.1		
2025-11-11T11:53	7750	394			282	13
2025-11-11T11:53	7781	392	-14.6	-33.2		
2025-11-11T11:53	7856	388	-14.7	-46.1		
2025-11-11T11:54	7982	382	-15.6	-30.8		
2025-11-11T11:54	8122	375			286	16
2025-11-11T11:54	8285	367	-18.0	-30.4		
2025-11-11T11:55	8498	357			281	18
2025-11-11T11:55	8544	354	-19.7	-31.3		
2025-11-11T11:56	8707	347	-20.3	-32.4		
2025-11-11T11:56	8882	338			286	18
2025-11-11T11:57	9184	325	-23.9	-35.1		
2025-11-11T11:57	9259	321	-24.1	-39.4		
2025-11-11T11:57	9273	321			302	21
2025-11-11T11:58	9696	303			303	19
2025-11-11T11:59	10110	285			309	18
2025-11-11T11:59	10275	279	-33.1	-46.1		
2025-11-11T12:00	10539	269			313	21
2025-11-11T12:00	10619	265	-36.2	-49.2		
2025-11-11T12:01	10932	254			315	23
2025-11-11T12:01	11066	249	-40.0	-50.4		
2025-11-11T12:02	11335	239			322	23
2025-11-11T12:03	11745	225			324	23
2025-11-11T12:04	12145	212			327	27
2025-11-11T12:05	12560	199			330	31
2025-11-11T12:06	12773	192	-54.6			
2025-11-11T12:06	12805	191			334	29
2025-11-11T12:06	12919	188	-54.6			
2025-11-11T12:06	13131	182			334	22
2025-11-11T12:07	13546	170			331	20
2025-11-11T12:08	13727	165	-60.4			
2025-11-11T12:08	13938	160			333	20
2025-11-11T12:09	14393	148			343	20
2025-11-11T12:09	14408	148	-66.1			
2025-11-11T12:10	14860	137			349	19
2025-11-11T12:11	15233	129			1	12
2025-11-11T12:11	15393	125	-73.1			
2025-11-11T12:12	15563	122			328	8
2025-11-11T12:12	15882	115			295	7
2025-11-11T12:13	16377	106			305	12
2025-11-11T12:13	16504	103	-82.2			
2025-11-11T12:14	16775	98			315	21
2025-11-11T12:14	16885	96	-84.0			
2025-11-11T12:15	17153	92	-83.0			
2025-11-11T12:15	17160	92			326	26
2025-11-11T12:16	17458	87	-82.3			
2025-11-11T12:16	17595	85			331	10
2025-11-11T12:16	17715	83			280	5
2025-11-11T12:16	17824	81	-83.2			
2025-11-11T12:17	17877	81			274	9
2025-11-11T12:17	17912	80	-82.1			
2025-11-11T12:17	18035	78			279	5
2025-11-11T12:17	18225	76	-82.8			
2025-11-11T12:18	18328	74			325	6
2025-11-11T12:18	18581	71	-80.5			
2025-11-11T12:18	18683	70	-77.7			
2025-11-11T12:18	18769	69			46	8
2025-11-11T12:19	18874	68	-76.5			
2025-11-11T12:19	18945	67			98	6
2025-11-11T12:19	19059	65	-76.4			
2025-11-11T12:19	19123	65			108	5
2025-11-11T12:19	19185	64	-74.9			
2025-11-11T12:20	19436	61			242	3
2025-11-11T12:20	19582	60			297	1
2025-11-11T12:21	19661	59	-71.8			
2025-11-11T12:21	19825	57	-69.0			
2025-11-11T12:21	19876	57			95	5
2025-11-11T12:22	20123	55	-70.3			
2025-11-11T12:22	20167	54			170	7
2025-11-11T12:22	20332	53			178	8
2025-11-11T12:22	20346	53	-68.9			
2025-11-11T12:23	20627	50	-68.6			
2025-11-11T12:23	20757	49			233	8
2025-11-11T12:24	20857	48	-66.7			
2025-11-11T12:24	20996	47			263	4
2025-11-11T12:24	21178	46	-64.7			
2025-11-11T12:24	21221	46			272	5
2025-11-11T12:25	21410	44			332	7
2025-11-11T12:26	21728	42			340	10
2025-11-11T12:26	21834	41	-61.1			
2025-11-11T12:26	21956	40			354	7
2025-11-11T12:26	22083	40			324	3
2025-11-11T12:27	22191	39			260	3
2025-11-11T12:27	22323	38	-59.0			
2025-11-11T12:27	22387	38			299	5
2025-11-11T12:27	22540	37	-59.3			
2025-11-11T12:28	22573	37			360	6
2025-11-11T12:28	22591	37			4	6
2025-11-11T12:28	22870	35			42	6
2025-11-11T12:29	23145	33			73	1
2025-11-11T12:29	23257	33	-59.7			
2025-11-11T12:29	23335	32			314	3
2025-11-11T12:30	23532	31			324	5
2025-11-11T12:30	23843	30			48	3
2025-11-11T12:31	23949	29			15	2
2025-11-11T12:31	24034	29	-56.8			
2025-11-11T12:32	24412	27			359	3
2025-11-11T12:32	24650	26			126	4
2025-11-11T12:33	24970	25			200	3
2025-11-11T12:33	25018	25	-58.3			
2025-11-11T12:33	25097	25			199	1
2025-11-11T12:34	25335	24			190	2
2025-11-11T12:34	25417	23	-56.4			
2025-11-11T12:34	25552	23			195	9
2025-11-11T12:35	25781	22			229	4
2025-11-11T12:35	25930	22			206	5
2025-11-11T12:35	25991	21	-53.3			
2025-11-11T12:36	26205	21			236	7
2025-11-11T12:36	26428	20	-52.3			
2025-11-11T12:37	26658	19			273	9
2025-11-11T12:37	26864	19			274	6
2025-11-11T12:38	27040	18			261	6
2025-11-11T12:39	27487	17			270	10
2025-11-11T12:39	27642	17	-51.9			
2025-11-11T12:39	27837	16			228	11
2025-11-11T12:40	28218	15	-50.6			
2025-11-11T12:40	28349	15			249	14
2025-11-11T12:41	28804	14			236	12
2025-11-11T12:42	29140	13	-51.3			
2025-11-11T12:42	29291	13			243	13
2025-11-11T12:43	29819	12			239	16
2025-11-11T12:44	30329	11			266	15
2025-11-11T12:46	30818	10			260	14
2025-11-11T12:46	30885	10	-54.1			
2025-11-11T12:46	31280	9	-53.7			
2025-11-11T12:47	31349	9			275	15
2025-11-11T12:47	31450	9	-54.5		273	14
2025-11-11T23:30	9	1014	28.7	25.7	220	4
2025-11-11T23:30	12	1014	28.2	25.2	239	1
2025-11-11T23:30	45	1010			251	4
2025-11-11T23:30	73	1007	27.1	24.0		
2025-11-11T23:31	303	981			234	6
2025-11-11T23:31	481	962	23.1	22.1		
2025-11-11T23:32	643	944			257	7
2025-11-11T23:33	864	920			246	5
2025-11-11T23:33	891	917	20.4	19.1		
2025-11-11T23:33	1005	905			238	5
2025-11-11T23:33	1016	904	20.1	18.6		
2025-11-11T23:33	1145	891			255	5
2025-11-11T23:34	1419	863			220	3
2025-11-11T23:34	1449	860	17.8	16.3		
2025-11-11T23:35	1585	846			252	3
2025-11-11T23:35	1827	823	15.3	14.3		
2025-11-11T23:35	1860	820			223	4
2025-11-11T23:35	1877	818	15.1	13.1		
2025-11-11T23:36	1938	812	15.1	13.5		
2025-11-11T23:36	2003	806	14.9	12.6		
2025-11-11T23:36	2095	797	15.8	6.8		
2025-11-11T23:36	2134	794			244	4
2025-11-11T23:36	2145	793	16.0	2.4		
2025-11-11T23:37	2229	785			258	4
2025-11-11T23:37	2316	777	14.8	1.7		
2025-11-11T23:37	2369	772			233	4
2025-11-11T23:37	2416	768	14.0	3.2		
2025-11-11T23:37	2478	762	14.0	-2.0		
2025-11-11T23:37	2530	757	14.0	-8.6		
2025-11-11T23:38	2587	752	13.7	-6.5		
2025-11-11T23:38	2609	750			253	3
2025-11-11T23:38	2626	749	13.4	-7.3		
2025-11-11T23:38	2665	745	13.1	0.5		
2025-11-11T23:38	2714	741	12.7	-5.3		
2025-11-11T23:38	2797	734			225	2
2025-11-11T23:38	2808	733	12.0	1.3		
2025-11-11T23:39	2891	725	12.1	-5.9		
2025-11-11T23:39	3036	713	11.7	-4.9		
2025-11-11T23:39	3080	709	11.6	-4.5		
2025-11-11T23:39	3124	706	11.4	-10.2	307	2
2025-11-11T23:39	3195	700	10.8	-4.4		
2025-11-11T23:40	3233	696	10.6	2.4		
2025-11-11T23:40	3260	694	10.3	-1.1		
2025-11-11T23:40	3287	692	10.6	-5.0		
2025-11-11T23:40	3325	689	10.6	-7.2		
2025-11-11T23:40	3381	684	10.4	-12.3		
2025-11-11T23:40	3454	678			324	2
2025-11-11T23:40	3465	677	9.8	-4.6		
2025-11-11T23:41	3636	663	8.4	-5.8		
2025-11-11T23:41	3798	650	7.4	-6.7		
2025-11-11T23:41	3811	649			267	3
2025-11-11T23:41	3876	644	7.0	-4.1		
2025-11-11T23:42	3951	638			279	4
2025-11-11T23:42	3968	637	6.8	-8.4		
2025-11-11T23:42	4184	621	5.1	-5.9		
2025-11-11T23:42	4246	616			240	3
2025-11-11T23:43	4308	611	4.5	-10.4		
2025-11-11T23:43	4376	606			239	2
2025-11-11T23:43	4455	600	3.8	-14.0		
2025-11-11T23:43	4567	592	3.6	-15.6		
2025-11-11T23:44	4609	589			306	4
2025-11-11T23:44	4744	579			282	5
2025-11-11T23:44	4927	566			301	7
2025-11-11T23:45	4983	562	0.6	-17.2		
2025-11-11T23:45	5167	549	-0.6	-20.8		
2025-11-11T23:45	5252	544	-0.1	-27.1		
2025-11-11T23:45	5269	542			275	9
2025-11-11T23:46	5355	537	-0.3	-30.7		
2025-11-11T23:46	5500	527	-1.3	-28.1		
2025-11-11T23:46	5538	525	-1.6	-20.1		
2025-11-11T23:46	5571	522			292	9
2025-11-11T23:46	5588	521	-1.9	-20.8		
2025-11-11T23:47	5702	514	-3.0	-14.7		
2025-11-11T23:47	5911	500			292	11
2025-11-11T23:47	5916	500	-5.0	-9.1		
2025-11-11T23:48	6072	490	-4.5	-14.1		
2025-11-11T23:48	6231	480			291	13
2025-11-11T23:49	6484	465	-6.8	-15.5		
2025-11-11T23:49	6557	461			282	12
2025-11-11T23:50	6745	450			276	11
2025-11-11T23:50	6828	445	-8.8	-17.8		
2025-11-11T23:50	6923	440	-8.9	-19.2		
2025-11-11T23:50	6946	438			288	16
2025-11-11T23:51	7117	429	-9.9	-21.0		
2025-11-11T23:51	7274	420			284	14
2025-11-11T23:52	7527	406	-13.2	-21.4		
2025-11-11T23:52	7642	400			289	15
2025-11-11T23:53	7871	388	-16.0	-22.8		
2025-11-11T23:53	8007	381			299	16
2025-11-11T23:54	8069	378	-16.9	-24.9		
2025-11-11T23:54	8390	362			303	18
2025-11-11T23:54	8403	362	-19.9	-25.7		
2025-11-11T23:55	8471	358	-19.8	-28.0		
2025-11-11T23:55	8755	345			296	15
2025-11-11T23:55	8774	344	-22.0	-29.8		
2025-11-11T23:56	9125	328			300	15
2025-11-11T23:56	9157	326	-24.6	-32.5		
2025-11-11T23:57	9517	311			296	17
2025-11-11T23:58	9750	301	-29.8	-36.5		
2025-11-11T23:58	9902	294			294	17
2025-11-11T23:59	10297	278			294	17
2025-11-12T00:00	10378	275	-35.6	-38.6		
2025-11-12T00:00	10531	269			309	19
2025-11-12T00:00	10556	268	-36.4	-42.5		
2025-11-12T00:00	10706	262			313	22
2025-11-12T00:01	10953	253	-40.0	-42.9		
2025-11-12T00:01	11110	247			320	26
2025-11-12T00:02	11496	233			319	29
2025-11-12T00:03	11853	221	-47.5			
2025-11-12T00:03	11879	220			327	30
2025-11-12T00:04	12074	214	-48.1		326	27
2025-11-12T00:05	12438	202			326	27
2025-11-12T00:06	12764	192			323	23
2025-11-12T00:07	13166	181			320	18
2025-11-12T00:07	13490	172	-58.8			
2025-11-12T00:08	13580	169			330	20
2025-11-12T00:09	13997	158			338	23
2025-11-12T00:09	14205	153	-64.5			
2025-11-12T00:09	14254	152			344	26
2025-11-12T00:10	14669	142			346	24
2025-11-12T00:11	15135	131			334	13
2025-11-12T00:12	15319	127	-73.6			
2025-11-12T00:12	15596	121			306	12
2025-11-12T00:13	16050	112			297	16
2025-11-12T00:13	16164	110	-80.1			
2025-11-12T00:14	16523	103			324	22
2025-11-12T00:15	16677	100	-83.5			
2025-11-12T00:15	16913	96	-84.0		335	24
2025-11-12T00:16	17162	92			333	15
2025-11-12T00:16	17211	91	-83.3			
2025-11-12T00:16	17357	88	-82.9			
2025-11-12T00:16	17502	86			329	9
2025-11-12T00:17	17682	83			306	7
2025-11-12T00:17	17697	83	-82.0			
2025-11-12T00:17	17854	81	-81.9			
2025-11-12T00:17	17987	79	-80.1			
2025-11-12T00:18	18067	78			339	9
2025-11-12T00:18	18186	76	-79.5			
2025-11-12T00:19	18486	72			17	12
2025-11-12T00:19	18745	69			72	5
2025-11-12T00:19	18777	69	-79.6			
2025-11-12T00:19	18893	67			85	2
2025-11-12T00:20	19028	66	-80.7			
2025-11-12T00:20	19142	64	-78.4			
2025-11-12T00:20	19158	64			338	3
2025-11-12T00:20	19231	63			359	4
2025-11-12T00:20	19238	63			1	4
2025-11-12T00:20	19347	62	-77.6			
2025-11-12T00:21	19462	61			356	3
2025-11-12T00:21	19502	61	-73.5			
2025-11-12T00:21	19578	60			73	3
2025-11-12T00:21	19607	59	-72.0			
2025-11-12T00:22	19873	57			235	5
2025-11-12T00:22	19916	56	-70.9			
2025-11-12T00:22	20139	54	-70.8			
2025-11-12T00:23	20284	53			302	5
2025-11-12T00:23	20447	52	-68.0			
2025-11-12T00:23	20538	51			360	6
2025-11-12T00:23	20552	51			5	6
2025-11-12T00:24	20698	50			38	7
2025-11-12T00:24	20957	47			80	7
2025-11-12T00:24	21074	47	-65.8			
2025-11-12T00:25	21339	45			116	8
2025-11-12T00:26	21607	43			118	8
2025-11-12T00:26	21621	43	-65.3			
2025-11-12T00:26	21840	41			153	6
2025-11-12T00:27	22160	39			141	6
2025-11-12T00:27	22174	39	-65.6			
2025-11-12T00:27	22271	38			143	2
2025-11-12T00:28	22368	38			25	3
2025-11-12T00:28	22552	37			354	3
2025-11-12T00:28	22671	36	-60.1			
2025-11-12T00:29	22742	35			275	3
2025-11-12T00:29	22869	35	-55.5			
2025-11-12T00:29	22999	34			14	6
2025-11-12T00:30	23225	33			17	2
2025-11-12T00:30	23344	32			147	3
2025-11-12T00:31	23629	31			177	9
2025-11-12T00:31	24035	29			220	1
2025-11-12T00:32	24214	28			207	3
2025-11-12T00:32	24282	28	-55.2			
2025-11-12T00:32	24393	27			289	3
2025-11-12T00:32	24489	27			253	2
2025-11-12T00:33	24537	27	-53.7			
2025-11-12T00:33	24584	27			208	5
2025-11-12T00:33	24911	25			173	5
2025-11-12T00:34	25171	24	-55.3			
2025-11-12T00:34	25356	24			251	6
2025-11-12T00:35	25496	23	-55.5			
2025-11-12T00:35	25634	23			277	5
2025-11-12T00:35	25720	22			252	3
2025-11-12T00:35	25809	22			206	3
2025-11-12T00:36	26043	21			258	5
2025-11-12T00:36	26293	20			219	6
2025-11-12T00:37	26398	20	-53.3			
2025-11-12T00:37	26489	20			258	4
2025-11-12T00:37	26621	19			280	3
2025-11-12T00:38	26790	19			218	4
2025-11-12T00:38	26931	18	-53.6			
2025-11-12T00:39	27218	18			220	9
2025-11-12T00:39	27631	17			269	5
2025-11-12T00:40	27867	16			225	9
2025-11-12T00:40	28032	16	-53.2			
2025-11-12T00:41	28373	15			241	9
2025-11-12T00:42	28692	14	-53.1			
2025-11-12T00:42	28739	14			220	11
2025-11-12T00:42	29020	13	-53.1			
2025-11-12T00:43	29217	13			233	14
2025-11-12T00:43	29525	12	-53.7			
2025-11-12T00:44	29681	12			220	15
2025-11-12T00:45	30179	11			230	16
2025-11-12T00:46	30535	11	-56.2			
2025-11-12T00:46	30717	10			224	17
2025-11-12T00:47	30974	10	-56.5			
2025-11-12T00:47	31239	9			236	20
2025-11-12T00:47	31318	9	-54.9		241	20
2025-11-12T11:30	9	1014	27.0	23.1	20	4
2025-11-12T11:30	12	1013	27.0	22.8	20	1
2025-11-12T11:30	79	1006			17	4
2025-11-12T11:30	93	1004	26.7	21.7		
2025-11-12T11:31	354	975			19	6
2025-11-12T11:32	686	938			13	6
2025-11-12T11:32	703	936	20.8	19.3		
2025-11-12T11:33	833	923	21.0	17.2		
2025-11-12T11:33	918	914	20.7	14.6		
2025-11-12T11:33	1009	904	21.2	7.4		
2025-11-12T11:33	1027	902			359	5
2025-11-12T11:33	1061	899	21.6	2.3		
2025-11-12T11:34	1165	888	20.9	2.7		
2025-11-12T11:34	1188	885			338	3
2025-11-12T11:34	1277	876	20.6	1.5		
2025-11-12T11:34	1344	870			326	5
2025-11-12T11:35	1504	854	18.1	11.4		
2025-11-12T11:35	1557	848			306	4
2025-11-12T11:35	1581	846	19.0	-0.4		
2025-11-12T11:35	1790	825	17.4	2.6		
2025-11-12T11:35	1847	820	16.8	4.5		
2025-11-12T11:36	1891	816	16.2	10.5		
2025-11-12T11:36	1929	812			332	4
2025-11-12T11:36	2055	800			304	3
2025-11-12T11:36	2109	795	15.0	9.8		
2025-11-12T11:36	2156	791			267	3
2025-11-12T11:36	2221	785	14.5	9.1		
2025-11-12T11:37	2285	779	14.1	8.5		
2025-11-12T11:37	2296	778			261	4
2025-11-12T11:37	2360	772	14.0	6.1		
2025-11-12T11:37	2447	764	13.8	3.3		
2025-11-12T11:37	2532	756	14.2	-0.7		
2025-11-12T11:38	2589	751	14.2	-2.3	249	3
2025-11-12T11:38	2698	742	14.0	-4.7	236	1
2025-11-12T11:38	2825	731	13.0	-2.5		
2025-11-12T11:39	2931	721	12.7	-7.9		
2025-11-12T11:39	3042	712	12.1	-6.3		
2025-11-12T11:39	3048	711			222	1
2025-11-12T11:39	3237	695	10.7	-3.8		
2025-11-12T11:40	3396	682			194	2
2025-11-12T11:40	3413	681	9.9	-6.9		
2025-11-12T11:40	3466	676	9.6	-4.7		
2025-11-12T11:41	3752	653			245	2
2025-11-12T11:41	3958	637	6.3	-10.4		
2025-11-12T11:42	4116	625			279	2
2025-11-12T11:42	4243	616	4.4	-12.1		
2025-11-12T11:42	4340	608	3.9	-10.9		
2025-11-12T11:43	4377	606			274	2
2025-11-12T11:43	4636	587	2.9	-16.8		
2025-11-12T11:44	4733	580			263	2
2025-11-12T11:44	4751	578	2.5	-16.6		
2025-11-12T11:44	4932	565	1.5	-5.9		
2025-11-12T11:45	5074	556			298	3
2025-11-12T11:45	5138	551	1.1	-7.7		
2025-11-12T11:45	5375	535			283	8
2025-11-12T11:46	5668	516			301	8
2025-11-12T11:47	5783	508	-3.7	-9.7		
2025-11-12T11:47	6014	494			286	7
2025-11-12T11:48	6157	485	-5.2	-12.4		
2025-11-12T11:48	6282	477			277	12
2025-11-12T11:48	6333	474	-6.2	-13.3		
2025-11-12T11:49	6632	456			284	15
2025-11-12T11:49	6786	447	-9.4	-14.6		
2025-11-12T11:50	6955	437	-9.7	-16.8		
2025-11-12T11:50	6984	436			299	15
2025-11-12T11:50	7001	435	-9.7	-18.4		
2025-11-12T11:50	7099	429	-9.9	-23.5		
2025-11-12T11:51	7332	416			307	15
2025-11-12T11:51	7338	416	-11.2	-24.7		
2025-11-12T11:51	7427	411	-12.1	-21.6		
2025-11-12T11:51	7486	408	-12.4	-23.0		
2025-11-12T11:52	7546	405	-12.8	-21.1		
2025-11-12T11:52	7693	397			310	17
2025-11-12T11:52	7853	389	-14.9	-25.2		
2025-11-12T11:53	7979	382	-15.6	-29.3	310	19
2025-11-12T11:53	8069	378	-16.2	-28.8		
2025-11-12T11:53	8149	374	-16.5	-37.8		
2025-11-12T11:53	8229	370	-17.1	-32.1		
2025-11-12T11:54	8341	364	-18.1	-29.8		
2025-11-12T11:54	8374	363			302	18
2025-11-12T11:55	8770	344			302	16
2025-11-12T11:55	8777	344	-21.9	-30.4		
2025-11-12T11:55	8905	338	-22.8	-33.8		
2025-11-12T11:56	9163	326	-24.7	-34.2		
2025-11-12T11:56	9177	325			303	20
2025-11-12T11:56	9238	323	-25.3	-35.8		
2025-11-12T11:56	9423	314	-27.0	-33.7		
2025-11-12T11:57	9497	311	-27.6	-32.2		
2025-11-12T11:57	9584	307			300	19
2025-11-12T11:58	9967	291	-31.8	-34.5		
2025-11-12T11:58	9987	290			305	20
2025-11-12T11:58	10121	285	-33.0	-35.3		
2025-11-12T11:58	10256	280	-33.7	-38.8		
2025-11-12T11:59	10392	274			310	23
2025-11-12T12:00	10808	258			311	22
2025-11-12T12:00	10897	255	-39.5	-42.5		
2025-11-12T12:00	10951	253	-40.0	-43.1		
2025-11-12T12:01	11213	243			318	23
2025-11-12T12:02	11597	230			323	29
2025-11-12T12:02	11823	222	-46.3			
2025-11-12T12:03	11974	217	-46.8			
2025-11-12T12:03	11994	216			321	27
2025-11-12T12:03	12279	207			321	24
2025-11-12T12:04	12639	196			321	26
2025-11-12T12:05	13045	184			324	24
2025-11-12T12:06	13456	173			328	24
2025-11-12T12:07	13622	168	-60.4			
2025-11-12T12:07	13889	161			336	27
2025-11-12T12:08	14293	151			335	26
2025-11-12T12:09	14622	143			338	29
2025-11-12T12:10	15085	132			329	19
2025-11-12T12:11	15325	127	-73.7			
2025-11-12T12:11	15481	123			315	17
2025-11-12T12:12	15955	114			312	22
2025-11-12T12:13	16237	108	-80.5			
2025-11-12T12:13	16359	106			323	26
2025-11-12T12:13	16584	102	-81.5			
2025-11-12T12:13	16661	100			331	21
2025-11-12T12:14	16739	99	-80.6			
2025-11-12T12:14	16888	96			334	20
2025-11-12T12:14	16896	96	-80.3			
2025-11-12T12:14	17035	94	-79.3			
2025-11-12T12:15	17187	91			320	8
2025-11-12T12:15	17457	87			310	5
2025-11-12T12:16	17680	84	-82.3			
2025-11-12T12:16	17756	83			333	11
2025-11-12T12:16	17883	81	-80.6			
2025-11-12T12:16	18038	78			328	6
2025-11-12T12:17	18154	77	-80.4			
2025-11-12T12:17	18280	75			2	5
2025-11-12T12:17	18343	74			34	2
2025-11-12T12:17	18414	73			133	3
2025-11-12T12:17	18492	72	-80.5			
2025-11-12T12:18	18538	72			154	7
2025-11-12T12:18	18550	72	-80.1		155	3
2025-11-12T23:30	9	1015	27.6	24.9	50	3
2025-11-12T23:30	12	1014	27.1	24.4	66	1
2025-11-12T23:30	66	1008			59	8
2025-11-12T23:30	108	1003	26.0	22.5		
2025-11-12T23:31	372	974			69	7
2025-11-12T23:31	411	969	23.5	20.6		
2025-11-12T23:32	483	962	23.3	19.9		
2025-11-12T23:32	616	947			77	5
2025-11-12T23:32	676	940	21.9	19.6		
2025-11-12T23:33	886	918			93	4
2025-11-12T23:33	983	908	19.9	17.5		
2025-11-12T23:33	1035	902	19.6	17.2		
2025-11-12T23:33	1144	891	18.7	18.0		
2025-11-12T23:33	1160	889			88	5
2025-11-12T23:34	1276	878			73	2
2025-11-12T23:34	1411	864			113	3
2025-11-12T23:35	1562	849			159	2
2025-11-12T23:35	1578	847	15.0	12.9		
2025-11-12T23:35	1754	830	14.4	10.2		
2025-11-12T23:35	1781	827			341	3
2025-11-12T23:36	1850	820	15.1	9.0		
2025-11-12T23:36	1882	817	16.9	9.6		
2025-11-12T23:36	1960	810			324	3
2025-11-12T23:36	2101	796			351	5
2025-11-12T23:36	2129	794	15.2	9.8		
2025-11-12T23:37	2312	777	13.8	8.6		
2025-11-12T23:37	2441	765			318	4
2025-11-12T23:38	2516	758	13.1	6.9		
2025-11-12T23:38	2755	737	12.0	4.5		
2025-11-12T23:38	2796	733			310	3
2025-11-12T23:39	3020	714	11.0	-0.8		
2025-11-12T23:39	3070	710	10.5	1.3		
2025-11-12T23:39	3076	709			293	5
2025-11-12T23:39	3132	704	10.5	-5.5		
2025-11-12T23:39	3200	699	9.9	2.5		
2025-11-12T23:40	3280	692	9.7	1.6		
2025-11-12T23:40	3322	689	9.4	3.6		
2025-11-12T23:40	3394	683	9.2	-0.4		
2025-11-12T23:40	3441	679			266	5
2025-11-12T23:40	3470	676	8.8	-1.1		
2025-11-12T23:40	3536	671	8.1	1.3		
2025-11-12T23:41	3736	655	7.0	-1.2		
2025-11-12T23:41	3783	651	7.2	-4.9		
2025-11-12T23:41	3794	651			254	4
2025-11-12T23:41	3913	641	6.6	-9.3		
2025-11-12T23:42	3966	637			278	5
2025-11-12T23:42	4055	630	6.0	-8.0		
2025-11-12T23:42	4288	613			253	6
2025-11-12T23:43	4340	609	4.2	-8.9		
2025-11-12T23:43	4483	598	3.5	-10.9		
2025-11-12T23:43	4528	595	3.4	-2.1		
2025-11-12T23:43	4630	587			285	9
2025-11-12T23:44	4703	582	2.6	-1.6		
2025-11-12T23:44	4971	563			277	9
2025-11-12T23:45	5156	550	0.0	-5.0		
2025-11-12T23:45	5309	540			276	10
2025-11-12T23:46	5398	534	-1.8	-7.3		
2025-11-12T23:46	5482	528	-2.3	-9.4		
2025-11-12T23:46	5665	516			292	11
2025-11-12T23:47	5967	497	-5.7	-9.6		
2025-11-12T23:47	6023	493			302	12
2025-11-12T23:48	6306	476	-7.3	-12.9		
2025-11-12T23:48	6394	470			290	10
2025-11-12T23:49	6571	460	-9.0	-15.2		
2025-11-12T23:49	6594	458			276	8
2025-11-12T23:50	6785	447	-10.3	-16.0		
2025-11-12T23:50	6857	443			260	3
2025-11-12T23:50	6910	440	-10.5	-19.2		
2025-11-12T23:50	7044	432			271	8
2025-11-12T23:50	7056	432	-11.1	-19.3		
2025-11-12T23:51	7286	419	-12.8	-18.6		
2025-11-12T23:51	7378	414			294	8
2025-11-12T23:52	7559	404			294	9
2025-11-12T23:52	7720	396	-15.8	-21.8		
2025-11-12T23:53	7912	386			303	9
2025-11-12T23:53	8012	381	-17.5	-25.2		
2025-11-12T23:53	8170	373			297	7
2025-11-12T23:54	8534	355			290	5
2025-11-12T23:55	8693	347	-23.3	-30.0		
2025-11-12T23:55	8743	345			291	6
2025-11-12T23:55	8819	341	-23.9	-33.7		
2025-11-12T23:56	9121	327	-25.8	-35.7		
2025-11-12T23:56	9127	327			319	13
2025-11-12T23:56	9272	321	-26.5	-34.2		
2025-11-12T23:57	9352	317	-26.5	-36.1		
2025-11-12T23:57	9378	316			318	15
2025-11-12T23:58	9720	301	-29.9	-38.3		
2025-11-12T23:58	9757	300			320	17
2025-11-12T23:58	9836	296	-30.8	-45.6		
2025-11-12T23:58	9916	293	-31.6	-42.6		
2025-11-12T23:58	9983	290	-32.1	-38.9		
2025-11-12T23:59	10129	284			316	19
2025-11-12T23:59	10257	279	-33.9	-42.9		
2025-11-12T23:59	10383	274	-34.8	-47.6		
2025-11-13T00:00	10496	270	-35.6	-48.3		
2025-11-13T00:00	10508	269			315	22
2025-11-13T00:00	10612	265	-36.6	-55.1		
2025-11-13T00:01	10880	255			320	22
2025-11-13T00:01	11016	250	-40.0	-60.8		
2025-11-13T00:02	11257	242			322	24
2025-11-13T00:02	11540	232			324	26
2025-11-13T00:03	11739	225	-45.6			
2025-11-13T00:03	11817	222			326	29
2025-11-13T00:04	12236	209			329	26
2025-11-13T00:05	12648	196			330	26
2025-11-13T00:06	13039	184			331	28
2025-11-13T00:07	13267	178	-57.4			
2025-11-13T00:07	13441	173			332	24
2025-11-13T00:08	13854	162			341	21
2025-11-13T00:09	14202	153	-64.3			
2025-11-13T00:09	14269	151			340	21
2025-11-13T00:10	14741	140			333	16
2025-11-13T00:11	15201	129			335	20
2025-11-13T00:12	15693	119			337	21
2025-11-13T00:12	15808	117	-77.9			
2025-11-13T00:13	16117	110			328	22
2025-11-13T00:13	16262	108	-81.1			
2025-11-13T00:14	16558	102			343	27
2025-11-13T00:14	16709	99	-82.2			
2025-11-13T00:15	16870	96			344	19
2025-11-13T00:15	17050	93			4	7
2025-11-13T00:15	17186	91			338	4
2025-11-13T00:15	17246	90	-81.4			
2025-11-13T00:16	17348	89			268	4
2025-11-13T00:16	17535	86	-82.1		294	8
2025-11-13T00:17	17799	82			331	8
2025-11-13T00:17	17807	82	-81.9			
2025-11-13T00:17	17963	79			326	2
2025-11-13T00:17	18064	78	-81.5			
2025-11-13T00:17	18189	76			263	3
2025-11-13T00:17	18203	76	-78.6			
2025-11-13T00:18	18535	72	-79.2			
2025-11-13T00:18	18623	71			358	9
2025-11-13T00:19	18870	68	-77.1			
2025-11-13T00:19	18990	66	-76.8			
2025-11-13T00:19	19024	66			84	5
2025-11-13T00:20	19116	65	-75.7			
2025-11-13T00:20	19312	63	-75.6		75	5
2025-11-13T00:20	19480	61			25	5
2025-11-13T00:21	19625	59	-74.5			
2025-11-13T00:21	19736	58			60	6
2025-11-13T00:21	19856	57	-70.6			
2025-11-13T00:21	19900	57			140	6
2025-11-13T00:22	20133	54	-69.9			
2025-11-13T00:22	20156	54			189	6
2025-11-13T00:22	20257	53	-67.1			
2025-11-13T00:23	20368	52			263	5
2025-11-13T00:23	20511	51	-66.1			
2025-11-13T00:23	20558	51			289	2
2025-11-13T00:24	20880	48			342	4
2025-11-13T00:24	20918	48			358	2
2025-11-13T00:24	21022	47			132	3
2025-11-13T00:24	21137	46			108	3
2025-11-13T00:25	21478	44			84	4
2025-11-13T00:25	21506	43	-64.5			
2025-11-13T00:26	21662	42			121	4
2025-11-13T00:26	21810	41			182	4
2025-11-13T00:26	21887	41	-64.1			
2025-11-13T00:26	21929	41			174	2
2025-11-13T00:27	22335	38			335	3
2025-11-13T00:27	22367	38	-63.7			
2025-11-13T00:28	22519	37			353	5
2025-11-13T00:28	22601	36	-60.2			
2025-11-13T00:28	22811	35			50	5
2025-11-13T00:29	22935	34			111	1
2025-11-13T00:29	23196	33	-59.7			
2025-11-13T00:29	23330	32			184	4
2025-11-13T00:30	23446	32			151	3
2025-11-13T00:30	23546	31			105	4
2025-11-13T00:31	23773	30	-56.9		126	8
2025-11-13T00:31	24013	29			163	7
2025-11-13T00:31	24206	28	-57.0		194	3
2025-11-13T00:32	24296	28			147	1
2025-11-13T00:32	24629	26			117	4
2025-11-13T00:33	24983	25	-53.9			
2025-11-13T00:33	25058	25			152	7
2025-11-13T00:34	25434	23	-53.7			
2025-11-13T00:34	25516	23			149	6
2025-11-13T00:35	25693	22			152	9
2025-11-13T00:35	25774	22	-51.1			
2025-11-13T00:35	25899	22			161	5
2025-11-13T00:36	26206	21			167	6
2025-11-13T00:36	26402	20			162	4
2025-11-13T00:37	26495	20			131	2
2025-11-13T00:37	26592	19			37	3
2025-11-13T00:37	26727	19			24	3
2025-11-13T00:37	26797	19	-52.7			
2025-11-13T00:38	27077	18			14	1
2025-11-13T00:38	27330	17			22	3
2025-11-13T00:39	27520	17			0	0
2025-11-13T00:39	27677	16	-52.6		189	2
2025-11-13T11:52	9	1014	26.7	24.7	80	4
2025-11-13T11:52	12	1014	26.9	24.4	95	1
2025-11-13T11:52	56	1009			75	4
2025-11-13T11:52	77	1007	26.8	23.5		
2025-11-13T11:53	399	971			79	6
2025-11-13T11:53	411	969	23.7	21.8		
2025-11-13T11:54	572	952	23.1	19.1		
2025-11-13T11:54	758	932			79	6
2025-11-13T11:55	1109	895			86	6
2025-11-13T11:56	1294	876	18.3	17.1		
2025-11-13T11:56	1478	857			110	5
2025-11-13T11:57	1645	841			108	5
2025-11-13T11:57	1692	836	16.1	15.1		
2025-11-13T11:57	1885	817	14.8	13.7		
2025-11-13T11:58	1995	807			121	3
2025-11-13T11:58	2053	801	14.0	11.9		
2025-11-13T11:58	2150	792	14.5	11.3		
2025-11-13T11:59	2329	776			142	1
2025-11-13T11:59	2364	773	13.5	10.5		
2025-11-13T11:59	2606	751	13.2	7.4		
2025-11-13T12:00	2675	745			123	1
2025-11-13T12:00	2686	744	13.0	4.4		
2025-11-13T12:00	2980	718	11.4	5.7	335	3
2025-11-13T12:01	3152	704	10.8	4.9		
2025-11-13T12:01	3199	700			328	5
2025-11-13T12:02	3480	676	8.4	3.6		
2025-11-13T12:02	3504	675			308	6
2025-11-13T12:02	3550	671	8.1	3.2		
2025-11-13T12:02	3677	660	7.3	1.6		
2025-11-13T12:03	3746	655			308	8
2025-11-13T12:03	3769	653	7.4	-0.6		
2025-11-13T12:03	3985	636	6.2	-0.3		
2025-11-13T12:04	4068	630			319	7
2025-11-13T12:04	4218	618	5.1	-1.8		
2025-11-13T12:04	4398	605			315	7
2025-11-13T12:05	4700	583			306	6
2025-11-13T12:05	4742	580	2.2	-4.3		
2025-11-13T12:06	4849	572	2.1	-5.3		
2025-11-13T12:06	4969	564			274	6
2025-11-13T12:06	5028	560	1.1	-7.9		
2025-11-13T12:07	5129	553	0.3	-6.8		
2025-11-13T12:07	5322	540			278	7
2025-11-13T12:08	5675	516			304	9
2025-11-13T12:08	5748	511	-3.3	-10.0		
2025-11-13T12:09	6028	494			316	9
2025-11-13T12:09	6090	490	-5.5	-12.5		
2025-11-13T12:10	6376	472			310	9
2025-11-13T12:10	6448	468	-8.4	-13.6		
2025-11-13T12:11	6550	462	-8.7	-15.3		
2025-11-13T12:11	6580	460			296	8
2025-11-13T12:11	6622	457	-8.4	-17.5		
2025-11-13T12:11	6816	446			283	8
2025-11-13T12:12	6906	441	-9.3	-21.3		
2025-11-13T12:12	7016	435			278	7
2025-11-13T12:12	7251	422	-11.2	-24.7		
2025-11-13T12:13	7385	414			248	8
2025-11-13T12:13	7453	411	-12.5	-28.1		
2025-11-13T12:14	7767	394			252	7
2025-11-13T12:14	7983	383	-16.2	-30.5		
2025-11-13T12:14	8015	381			272	5
2025-11-13T12:15	8253	369			281	6
2025-11-13T12:16	8498	357			302	6
2025-11-13T12:16	8726	347			319	8
2025-11-13T12:17	8816	342	-24.1	-32.2		
2025-11-13T12:17	8882	339			327	9
2025-11-13T12:18	9253	322			327	12
2025-11-13T12:18	9259	322	-28.2	-35.4		
2025-11-13T12:18	9345	318	-28.6	-38.0		
2025-11-13T12:18	9444	314			333	14
2025-11-13T12:19	9561	309			333	16
2025-11-13T12:19	9628	306	-29.2	-48.3		
2025-11-13T12:20	9934	293			316	17
2025-11-13T12:21	10301	278			305	17
2025-11-13T12:21	10585	267	-36.8	-55.2		
2025-11-13T12:22	10693	263			317	17
2025-11-13T12:22	11020	251	-40.0	-55.7		
2025-11-13T12:22	11027	250	-40.0	-56.2		
2025-11-13T12:23	11096	248			318	20
2025-11-13T12:24	11518	233			325	23
2025-11-13T12:25	11939	219			323	24
2025-11-13T12:26	12353	205			329	26
2025-11-13T12:27	12765	193			329	24
2025-11-13T12:27	13135	182	-56.1			
2025-11-13T12:28	13210	180			324	20
2025-11-13T12:29	13660	167			328	20
2025-11-13T12:30	14135	155			329	19
2025-11-13T12:30	14427	148	-66.3			
2025-11-13T12:31	14643	142			329	14
2025-11-13T12:31	14835	138	-69.6			
2025-11-13T12:31	15037	133	-70.0			
2025-11-13T12:32	15148	131			325	12
2025-11-13T12:32	15573	122			337	15
2025-11-13T12:33	16075	112			352	19
2025-11-13T12:33	16110	111	-78.3			
2025-11-13T12:34	16587	102			2	18
2025-11-13T12:35	16689	100	-81.6			
2025-11-13T12:35	16715	100	-81.8			
2025-11-13T12:35	16840	97			5	15
2025-11-13T12:35	16873	97	-82.2			
2025-11-13T12:35	17102	93			353	4
2025-11-13T12:36	17281	90			274	6
2025-11-13T12:36	17327	89	-82.8			
2025-11-13T12:37	17436	88			277	14
2025-11-13T12:37	17466	87	-84.2		298	14
2025-11-13T23:30	9	1014	28.7	25.5	200	5
2025-11-13T23:30	11	1014	28.6	25.0	191	1
2025-11-13T23:30	39	1011			209	3
2025-11-13T23:30	66	1008	27.4	22.8		
2025-11-13T23:31	217	991			194	6
2025-11-13T23:32	519	958	23.4	20.4		
2025-11-13T23:32	559	953			206	6
2025-11-13T23:32	680	940	22.4	19.2		
2025-11-13T23:32	810	926	22.2	17.6		
2025-11-13T23:33	910	916			202	6
2025-11-13T23:33	940	913	21.4	15.9		
2025-11-13T23:33	1085	897	20.0	18.1		
2025-11-13T23:34	1199	886	19.7	16.4		
2025-11-13T23:34	1255	880			192	5
2025-11-13T23:34	1311	874	19.4	16.3		
2025-11-13T23:34	1391	866	19.4	15.1		
2025-11-13T23:35	1522	853	19.3	12.6		
2025-11-13T23:35	1596	846			202	4
2025-11-13T23:35	1695	836	18.7	12.0		
2025-11-13T23:35	1719	834			191	3
2025-11-13T23:35	1835	823			160	4
2025-11-13T23:36	1876	819	17.8	10.4		
2025-11-13T23:36	2015	806	17.2	10.3		
2025-11-13T23:36	2184	790			161	5
2025-11-13T23:37	2250	784	15.9	6.9		
2025-11-13T23:37	2464	765	14.6	7.4		
2025-11-13T23:37	2527	759			172	5
2025-11-13T23:38	2567	755	14.4	6.5		
2025-11-13T23:38	2729	741	13.5	7.5		
2025-11-13T23:38	2830	732			161	4
2025-11-13T23:39	3013	716	12.2	4.4		
2025-11-13T23:39	3184	702			213	1
2025-11-13T23:39	3190	701	11.0	3.1		
2025-11-13T23:40	3312	691	11.5	-0.3		
2025-11-13T23:40	3535	673			6	3
2025-11-13T23:41	3777	654			307	1
2025-11-13T23:41	3898	644	7.1	-0.8		
2025-11-13T23:42	4072	630	6.2	-2.2		
2025-11-13T23:42	4137	626			287	1
2025-11-13T23:42	4291	614	4.9	-3.9		
2025-11-13T23:43	4469	601	3.7	-4.3		
2025-11-13T23:43	4474	600			237	1
2025-11-13T23:44	4703	584	3.1	-9.9		
2025-11-13T23:44	4820	575			354	1
2025-11-13T23:45	5116	555	0.9	-14.0		
2025-11-13T23:45	5140	553			325	3
2025-11-13T23:46	5458	531	-1.2	-16.2		
2025-11-13T23:46	5475	530			342	8
2025-11-13T23:46	5668	518			305	3
2025-11-13T23:47	5842	506			313	5
2025-11-13T23:47	5900	503	-4.6	-20.4		
2025-11-13T23:48	6081	491	-6.1	-19.1	267	5
2025-11-13T23:48	6221	482	-7.3	-18.9		
2025-11-13T23:48	6314	477	-7.8	-24.0		
2025-11-13T23:48	6326	476			299	6
2025-11-13T23:49	6484	466	-8.5	-25.5		
2025-11-13T23:49	6552	462	-8.4	-25.4		
2025-11-13T23:49	6621	458	-7.5	-31.2		
2025-11-13T23:49	6627	458			292	9
2025-11-13T23:49	6741	451	-7.3	-32.8		
2025-11-13T23:50	6856	445			258	7
2025-11-13T23:50	7032	435			261	5
2025-11-13T23:51	7193	426	-10.2	-34.3		
2025-11-13T23:51	7393	415			277	5
2025-11-13T23:52	7539	407			265	5
2025-11-13T23:52	7681	399			303	7
2025-11-13T23:52	7767	395	-14.9	-35.8		
2025-11-13T23:53	7986	383			328	5
2025-11-13T23:54	8192	373	-18.4	-40.9		
2025-11-13T23:54	8301	368			307	8
2025-11-13T23:54	8367	364	-19.6	-44.5		
2025-11-13T23:55	8660	350			302	10
2025-11-13T23:56	8903	339			301	10
2025-11-13T23:56	9004	334	-25.1	-45.6		
2025-11-13T23:56	9260	322			307	12
2025-11-13T23:57	9475	313	-29.1	-46.5		
2025-11-13T23:57	9632	306	-30.2	-45.1		
2025-11-13T23:57	9638	306			296	13
2025-11-13T23:58	9751	301	-31.0	-49.8		
2025-11-13T23:58	9968	292			310	11
2025-11-13T23:59	10037	289	-33.0	-55.2		
2025-11-13T23:59	10233	281			330	7
2025-11-13T23:59	10253	280	-34.2	-57.1		
2025-11-14T00:00	10539	269			320	9
2025-11-14T00:01	10930	254	-40.0	-62.7	317	12
2025-11-14T00:02	11319	240			316	11
2025-11-14T00:02	11468	235	-43.4			
2025-11-14T00:03	11707	227			318	16
2025-11-14T00:04	12067	215	-48.0			
2025-11-14T00:04	12124	213			309	17
2025-11-14T00:05	12544	200			315	17
2025-11-14T00:06	12967	187			317	17
2025-11-14T00:06	13044	185	-55.6			
2025-11-14T00:07	13380	175			322	13
2025-11-14T00:08	13811	163			333	12
2025-11-14T00:08	14080	156	-63.0			
2025-11-14T00:08	14094	156			326	10
2025-11-14T00:09	14519	146			323	9
2025-11-14T00:10	14837	138	-69.9			
2025-11-14T00:10	14940	136			328	9
2025-11-14T00:11	15129	131			331	8
2025-11-14T00:12	15559	122			360	9
2025-11-14T00:12	15605	121	-74.7			
2025-11-14T00:13	15989	113			336	8
2025-11-14T00:13	16298	107			326	9
2025-11-14T00:14	16470	104	-80.9			
2025-11-14T00:14	16740	99			343	7
2025-11-14T00:15	17017	94	-83.3			
2025-11-14T00:15	17058	94			298	7
2025-11-14T00:15	17169	92	-82.8			
2025-11-14T00:16	17527	86			353	14
2025-11-14T00:16	17633	84	-83.5			
2025-11-14T00:17	17817	82			21	9
2025-11-14T00:17	17833	82	-82.3			
2025-11-14T00:17	18138	77			113	1
2025-11-14T00:17	18217	76	-83.3			
2025-11-14T00:18	18251	76			10	3
2025-11-14T00:18	18398	74	-81.7			
2025-11-14T00:18	18517	72			27	7
2025-11-14T00:18	18609	71			12	3
2025-11-14T00:18	18627	71	-79.7			
2025-11-14T00:19	18695	70			300	3
2025-11-14T00:19	18747	69	-78.9			
2025-11-14T00:19	18788	69			331	3
2025-11-14T00:19	18946	67			45	5
2025-11-14T00:20	19131	65	-76.5			
2025-11-14T00:20	19267	63			66	10
2025-11-14T00:20	19339	62	-74.8			
2025-11-14T00:21	19578	60	-75.0		91	8
2025-11-14T00:21	19765	58			54	5
2025-11-14T00:22	20001	56	-72.0			
2025-11-14T00:22	20045	55			64	9
2025-11-14T00:22	20098	55	-69.3			
2025-11-14T00:22	20232	54			109	6
2025-11-14T00:22	20287	53	-68.1			
2025-11-14T00:23	20542	51			184	5
2025-11-14T00:23	20659	50	-68.4			
2025-11-14T00:24	20720	49			177	2
2025-11-14T00:24	20917	48	-64.4		72	2
2025-11-14T00:25	21252	45	-62.5		98	6
2025-11-14T00:26	21558	43			114	4
2025-11-14T00:26	21760	42			62	4
2025-11-14T00:26	21889	41	-64.6			
2025-11-14T00:27	21964	40			88	2
2025-11-14T00:27	22104	39			43	3
2025-11-14T00:28	22407	38			89	5
2025-11-14T00:28	22558	37			66	6
2025-11-14T00:28	22645	36	-60.5			
2025-11-14T00:28	22696	36			37	8
2025-11-14T00:29	22803	35	-60.2			
2025-11-14T00:29	23111	34			95	10
2025-11-14T00:30	23318	32			102	5
2025-11-14T00:30	23435	32	-59.5			
2025-11-14T00:30	23553	31			98	6
2025-11-14T00:31	23781	30	-55.9			
2025-11-14T00:31	23929	29			134	12
2025-11-14T00:32	24195	28	-55.8			
2025-11-14T00:32	24264	28			158	4
2025-11-14T00:32	24428	27			194	2
2025-11-14T00:33	24595	27			63	3
2025-11-14T00:33	24814	26			101	3
2025-11-14T00:34	24992	25			83	3
2025-11-14T00:34	25096	25	-53.3			
2025-11-14T00:34	25176	24			128	3
2025-11-14T00:35	25422	23			89	5
2025-11-14T00:35	25616	23			70	3
2025-11-14T00:36	25819	22			131	4
2025-11-14T00:36	25970	21	-52.9			
2025-11-14T00:36	26060	21			140	8
2025-11-14T00:37	26308	20			148	8
2025-11-14T00:38	26667	19	-53.6			
2025-11-14T00:38	26699	19			143	8
2025-11-14T00:38	26940	18			117	5
2025-11-14T00:39	27264	18			173	9
2025-11-14T00:39	27526	17			164	8
2025-11-14T00:40	27568	17	-51.6			
2025-11-14T00:40	27670	16	-52.0		142	5
2025-11-14T11:30	9	1014	27.0	24.8	230	4
2025-11-14T11:30	12	1013	27.2	24.7	231	1
2025-11-14T11:30	39	1010			250	4
2025-11-14T11:30	83	1005			227	5
2025-11-14T11:30	105	1003	27.2	23.7		
2025-11-14T11:31	427	967	24.4	21.9		
2025-11-14T11:31	433	966			252	6
2025-11-14T11:32	799	927			253	8
2025-11-14T11:33	1143	891			248	6
2025-11-14T11:33	1154	889	20.4	16.6		
2025-11-14T11:34	1493	855			247	5
2025-11-14T11:35	1635	841	18.3	14.0		
2025-11-14T11:35	1850	820			255	6
2025-11-14T11:36	1988	807	17.2	10.6		
2025-11-14T11:36	2053	801	17.0	9.2		
2025-11-14T11:36	2189	788	16.0	10.7		
2025-11-14T11:36	2207	787			276	5
2025-11-14T11:37	2319	776	15.5	8.5		
2025-11-14T11:37	2390	770	15.9	6.1		
2025-11-14T11:37	2413	768			278	5
2025-11-14T11:37	2478	762	16.1	5.4		
2025-11-14T11:37	2573	753	16.2	-0.5		
2025-11-14T11:38	2649	747	16.0	-2.5		
2025-11-14T11:38	2744	738			230	5
2025-11-14T11:38	2815	732	14.9	0.3		
2025-11-14T11:38	2893	725	14.0	4.6		
2025-11-14T11:39	3038	713			233	2
2025-11-14T11:39	3262	694	11.8	2.5		
2025-11-14T11:39	3311	690			199	3
2025-11-14T11:40	3423	681			179	2
2025-11-14T11:40	3470	677	11.0	0.1		
2025-11-14T11:41	3770	653			213	2
2025-11-14T11:41	3934	640	8.1	-1.7		
2025-11-14T11:41	3999	635			216	3
2025-11-14T11:42	4108	627	7.1	-3.7		
2025-11-14T11:42	4200	620			201	4
2025-11-14T11:42	4338	610	6.1	-8.2		
2025-11-14T11:43	4482	599			201	3
2025-11-14T11:43	4619	589			205	4
2025-11-14T11:43	4712	582	4.5	-13.8		
2025-11-14T11:44	4820	575			170	3
2025-11-14T11:44	4903	569	3.0	-12.1		
2025-11-14T11:44	4962	565	2.7	-10.6		
2025-11-14T11:44	5040	559			200	3
2025-11-14T11:44	5189	549	1.5	-16.0		
2025-11-14T11:45	5272	543			229	4
2025-11-14T11:46	5645	518			260	5
2025-11-14T11:46	5763	511	-3.8	-15.7		
2025-11-14T11:47	5960	498	-4.8	-19.0		
2025-11-14T11:47	6017	495			295	5
2025-11-14T11:47	6217	482	-6.7	-18.4		
2025-11-14T11:47	6261	479			305	7
2025-11-14T11:48	6530	463			294	5
2025-11-14T11:48	6537	463	-8.5	-21.2		
2025-11-14T11:48	6588	460	-7.8	-30.7		
2025-11-14T11:49	6761	450	-8.4	-31.2		
2025-11-14T11:49	6786	448			266	5
2025-11-14T11:49	6954	439			268	5
2025-11-14T11:49	7053	433	-9.5	-36.6		
2025-11-14T11:50	7245	422	-10.6	-38.6		
2025-11-14T11:50	7309	419			251	10
2025-11-14T11:51	7687	399			241	10
2025-11-14T11:51	7736	396	-14.6	-40.6		
2025-11-14T11:52	7943	385	-15.9	-42.7		
2025-11-14T11:52	8054	380			252	11
2025-11-14T11:53	8414	362			249	10
2025-11-14T11:54	8768	345			253	10
2025-11-14T11:54	8858	341	-24.4	-47.4		
2025-11-14T11:55	8956	336			261	9
2025-11-14T11:55	9115	329	-25.9	-53.0		
2025-11-14T11:56	9294	321	-26.9	-53.8		
2025-11-14T11:56	9326	319			258	10
2025-11-14T11:57	9721	302			256	11
2025-11-14T11:57	9887	295	-32.2	-55.5		
2025-11-14T11:58	10122	285			235	11
2025-11-14T11:58	10422	273	-35.0	-65.3		
2025-11-14T11:59	10532	269			262	12
2025-11-14T12:00	10953	253			290	11
2025-11-14T12:00	11089	248	-40.0	-65.3		
2025-11-14T12:01	11383	238			304	14
2025-11-14T12:02	11826	223			303	14
2025-11-14T12:02	12185	211	-48.9			
2025-11-14T12:03	12255	209			313	14
2025-11-14T12:03	12612	197	-52.3			
2025-11-14T12:04	12668	196			307	15
2025-11-14T12:05	13087	183	-55.5		304	16
2025-11-14T12:06	13525	171			311	15
2025-11-14T12:06	13903	161			310	14
2025-11-14T12:07	13951	160	-62.3			
2025-11-14T12:07	14234	152			282	5
2025-11-14T12:07	14402	148	-64.8			
2025-11-14T12:08	14435	148			251	5
2025-11-14T12:08	14849	138			278	6
2025-11-14T12:09	15317	127			278	7
2025-11-14T12:10	15420	125	-73.2			
2025-11-14T12:10	15576	122			290	3
2025-11-14T12:10	15745	118			323	3
2025-11-14T12:11	16022	113			341	4
2025-11-14T12:11	16077	112	-76.6			
2025-11-14T12:12	16337	107			341	4
2025-11-14T12:12	16564	103	-79.8			
2025-11-14T12:13	16793	98			293	3
2025-11-14T12:13	17071	94			314	3
2025-11-14T12:13	17234	91	-84.1			
2025-11-14T12:14	17299	90			350	9
2025-11-14T12:14	17485	87			19	7
2025-11-14T12:14	17552	86	-84.5			
2025-11-14T12:14	17701	84			120	7
2025-11-14T12:15	17889	81	-84.9			
2025-11-14T12:15	17955	80			158	6
2025-11-14T12:15	18037	79	-82.9		181	4
2025-11-14T23:30	9	1016	27.8	25.2	230	4
2025-11-14T23:30	11	1016	27.4	24.5	200	2
2025-11-14T23:30	63	1010			220	6
2025-11-14T23:30	79	1008	27.1	23.1		
2025-11-14T23:31	415	970			235	6
2025-11-14T23:32	682	941	22.3	20.8		
2025-11-14T23:32	760	933	22.4	19.9		
2025-11-14T23:32	778	931			233	4
2025-11-14T23:33	1119	895			266	3
2025-11-14T23:33	1141	893	19.8	18.1		
2025-11-14T23:34	1214	885	19.9	17.1		
2025-11-14T23:34	1271	880			283	4
2025-11-14T23:34	1317	875	19.5	15.2		
2025-11-14T23:35	1621	844			260	5
2025-11-14T23:35	1738	833	18.6	12.1		
2025-11-14T23:36	1983	810			253	5
2025-11-14T23:36	2135	795	16.5	9.2		
2025-11-14T23:36	2221	787	16.1	9.1		
2025-11-14T23:37	2331	777			277	5
2025-11-14T23:37	2430	768	15.0	8.3		
2025-11-14T23:37	2559	756	14.4	7.0		
2025-11-14T23:38	2685	745	13.9	5.0		
2025-11-14T23:38	2696	744			280	6
2025-11-14T23:38	2814	734	13.0	4.2		
2025-11-14T23:38	2912	725			285	6
2025-11-14T23:38	2930	724	13.0	-2.1		
2025-11-14T23:39	2992	719	12.8	-0.5		
2025-11-14T23:39	3054	713	12.5	-0.7		
2025-11-14T23:39	3140	706	11.6	3.6		
2025-11-14T23:39	3171	703			276	5
2025-11-14T23:39	3284	694	11.4	0.8	272	7
2025-11-14T23:40	3489	677	11.0	-6.4		
2025-11-14T23:40	3529	674	10.7	-4.5		
2025-11-14T23:40	3603	668	10.4	-7.3		
2025-11-14T23:40	3614	667			247	8
2025-11-14T23:41	3688	661	9.8	-5.7		
2025-11-14T23:41	3757	656	9.5	-9.6		
2025-11-14T23:41	3832	650	8.9	-5.0		
2025-11-14T23:41	3961	640			250	8
2025-11-14T23:42	4118	628	7.1	-4.3		
2025-11-14T23:42	4314	613			242	7
2025-11-14T23:42	4325	612	6.3	-9.6		
2025-11-14T23:43	4398	607	5.7	-8.2		
2025-11-14T23:43	4461	602	5.2	-6.7		
2025-11-14T23:43	4611	591			228	10
2025-11-14T23:43	4656	588	4.0	-9.0		
2025-11-14T23:44	4775	579			220	7
2025-11-14T23:44	4866	573	3.3	-15.9		
2025-11-14T23:45	5075	558			254	5
2025-11-14T23:45	5151	553	1.8	-17.2		
2025-11-14T23:45	5214	548			243	3
2025-11-14T23:45	5348	539			249	5
2025-11-14T23:46	5556	526			252	4
2025-11-14T23:46	5574	524	-2.0	-19.0		
2025-11-14T23:47	5776	511			297	5
2025-11-14T23:47	6053	494	-5.5	-22.4		
2025-11-14T23:48	6137	488			267	7
2025-11-14T23:48	6287	479			238	6
2025-11-14T23:49	6480	467	-8.7	-26.1		
2025-11-14T23:49	6486	467			249	9
2025-11-14T23:49	6640	458	-9.5	-28.9		
2025-11-14T23:49	6735	452			238	9
2025-11-14T23:49	6787	449	-9.7	-33.0		
2025-11-14T23:50	7083	432			251	10
2025-11-14T23:51	7268	422	-12.9	-37.3		
2025-11-14T23:51	7448	412			272	12
2025-11-14T23:52	7732	397	-15.7	-37.2		
2025-11-14T23:52	7814	392			269	15
2025-11-14T23:53	8144	376	-18.8	-40.4		
2025-11-14T23:53	8196	373			255	13
2025-11-14T23:54	8482	359	-21.4	-43.3		
2025-11-14T23:54	8530	356			250	12
2025-11-14T23:55	8761	345	-23.5	-45.0		
2025-11-14T23:55	8895	339			270	12
2025-11-14T23:56	9268	322			279	12
2025-11-14T23:56	9301	321	-28.2	-44.7		
2025-11-14T23:57	9452	314	-29.2	-35.4		
2025-11-14T23:57	9512	311			281	12
2025-11-14T23:57	9538	310	-29.2	-32.8		
2025-11-14T23:57	9657	305			288	10
2025-11-14T23:57	9759	301	-29.9	-39.7		
2025-11-14T23:58	9958	292	-31.6	-41.2		
2025-11-14T23:58	10027	290	-32.1	-45.6		
2025-11-14T23:58	10069	288			284	12
2025-11-14T23:58	10172	284	-33.3	-44.4		
2025-11-14T23:59	10281	279	-34.0	-45.6		
2025-11-14T23:59	10349	277	-34.5	-48.4		
2025-11-14T23:59	10478	272			285	10
2025-11-15T00:00	10614	266	-36.8	-46.2		
2025-11-15T00:00	10654	265			288	16
2025-11-15T00:00	10860	257	-38.6	-50.0		
2025-11-15T00:01	11007	251	-39.8	-52.3		
2025-11-15T00:01	11027	251	-40.0	-52.2		
2025-11-15T00:01	11047	250			294	14
2025-11-15T00:02	11436	236			300	17
2025-11-15T00:03	11838	222	-45.9			
2025-11-15T00:03	11845	222			299	16
2025-11-15T00:04	12268	208			286	16
2025-11-15T00:05	12685	195	-52.3			
2025-11-15T00:05	12692	195			297	16
2025-11-15T00:05	13032	185			294	13
2025-11-15T00:06	13443	173			291	12
2025-11-15T00:07	13859	162			285	11
2025-11-15T00:08	13997	159	-62.2			
2025-11-15T00:08	14294	151			291	12
2025-11-15T00:09	14711	141			268	10
2025-11-15T00:10	15116	132			258	8
2025-11-15T00:10	15148	131	-71.8			
2025-11-15T00:11	15361	126			272	9
2025-11-15T00:11	15710	119	-74.6			
2025-11-15T00:12	15727	119			265	6
2025-11-15T00:12	16193	110	-77.7			
2025-11-15T00:12	16201	109			258	6
2025-11-15T00:13	16339	107	-77.9			
2025-11-15T00:13	16586	102			251	6
2025-11-15T00:14	16826	98			228	7
2025-11-15T00:14	17128	93			250	5
2025-11-15T00:15	17378	89			276	4
2025-11-15T00:15	17454	87			235	2
2025-11-15T00:15	17512	86	-87.2			
2025-11-15T00:15	17521	86			175	4
2025-11-15T00:15	17659	84			182	8
2025-11-15T00:16	17724	83	-84.4			
2025-11-15T00:16	17823	82	-81.2			
2025-11-15T00:16	17880	81			241	2
2025-11-15T00:16	18118	78			219	3
2025-11-15T00:16	18126	77	-80.4			
2025-11-15T00:17	18365	74			227	3
2025-11-15T00:17	18481	73	-80.4			
2025-11-15T00:17	18491	73			193	1
2025-11-15T00:18	18567	72			130	4
2025-11-15T00:18	18787	69	-78.4			
2025-11-15T00:18	18884	68			157	4
2025-11-15T00:19	19073	66	-78.1			
2025-11-15T00:19	19201	64			175	7
2025-11-15T00:19	19270	63	-77.7			
2025-11-15T00:19	19308	63			205	2
2025-11-15T00:19	19384	62			352	3
2025-11-15T00:20	19587	60	-75.7			
2025-11-15T00:20	19744	58			88	9
2025-11-15T00:20	19804	58	-75.6			
2025-11-15T00:21	19950	56			100	7
2025-11-15T00:21	20012	56	-71.6			
2025-11-15T00:21	20227	54	-69.3		110	10
2025-11-15T00:22	20398	52	-68.7			
2025-11-15T00:22	20523	51			144	15
2025-11-15T00:23	20837	49			137	3
2025-11-15T00:23	20963	48	-64.9			
2025-11-15T00:23	21017	47			125	3
2025-11-15T00:24	21137	46			81	3
2025-11-15T00:24	21434	44	-63.8			
2025-11-15T00:25	21545	43			74	6
2025-11-15T00:25	21793	42	-65.1			
2025-11-15T00:25	21849	41			68	4
2025-11-15T00:26	22034	40			89	4
2025-11-15T00:26	22220	39			62	6
2025-11-15T00:26	22282	38	-62.6			
2025-11-15T00:27	22632	36			79	6
2025-11-15T00:27	22716	36	-61.8			
2025-11-15T00:28	22837	35	-60.1			
2025-11-15T00:28	22966	34			79	6
2025-11-15T00:29	23397	32			134	8
2025-11-15T00:29	23594	31			128	5
2025-11-15T00:30	23884	30			148	8
2025-11-15T00:30	23987	29	-59.1			
2025-11-15T00:31	24095	29			78	8
2025-11-15T00:31	24435	27	-58.1		105	11
2025-11-15T00:32	24746	26			118	4
2025-11-15T00:32	24770	26	-58.7		112	4
2025-11-15T11:30	9	1017	27.1	24.4	280	2
2025-11-15T11:30	12	1016	27.2	24.1	190	1
2025-11-15T11:30	42	1013			287	3
2025-11-15T11:30	83	1008	27.1	23.1		
2025-11-15T11:31	222	993	26.0	22.3		
2025-11-15T11:31	274	987	26.2	21.6		
2025-11-15T11:31	332	980			310	4
2025-11-15T11:31	482	964			296	4
2025-11-15T11:32	698	941	22.7	20.2		
2025-11-15T11:32	796	930			299	4
2025-11-15T11:33	874	922	21.6	18.4		
2025-11-15T11:33	1090	899	20.4	17.0		
2025-11-15T11:33	1155	892			301	4
2025-11-15T11:34	1323	875	19.3	15.0		
2025-11-15T11:34	1357	872			317	4
2025-11-15T11:34	1399	867	19.2	13.8		
2025-11-15T11:34	1494	858	18.4	14.9		
2025-11-15T11:34	1537	854	18.1	15.5		
2025-11-15T11:35	1592	848	18.5	13.8		
2025-11-15T11:35	1723	835			326	4
2025-11-15T11:35	1729	835	17.7	15.9		
2025-11-15T11:35	1915	817			304	5
2025-11-15T11:36	2025	806	16.4	15.1		
2025-11-15T11:36	2259	784	15.5	14.0		
2025-11-15T11:36	2276	783			326	4
2025-11-15T11:37	2358	775	15.9	11.7		
2025-11-15T11:37	2539	759			327	3
2025-11-15T11:38	2678	747	14.1	9.9		
2025-11-15T11:38	2792	737			300	3
2025-11-15T11:38	2832	733	13.7	7.5		
2025-11-15T11:38	2960	722	13.3	4.2		
2025-11-15T11:38	2966	721			7	3
2025-11-15T11:39	3163	705	11.7	4.2		
2025-11-15T11:39	3231	699	11.4	4.6		
2025-11-15T11:39	3237	699			344	2
2025-11-15T11:40	3479	679			334	3
2025-11-15T11:40	3608	668	8.7	1.1		
2025-11-15T11:40	3707	660	8.0	0.0		
2025-11-15T11:41	3833	650			290	4
2025-11-15T11:41	3948	641	6.1	-0.6		
2025-11-15T11:41	4011	636	6.3	-2.3		
2025-11-15T11:41	4058	633	6.2	-3.5		
2025-11-15T11:42	4098	629	6.2	-5.2		
2025-11-15T11:42	4167	624	5.7	-4.5		
2025-11-15T11:42	4178	623			295	8
2025-11-15T11:42	4370	609	4.7	-6.8		
2025-11-15T11:43	4532	597			290	10
2025-11-15T11:43	4618	591	3.1	-8.0		
2025-11-15T11:43	4698	585	2.8	-8.5		
2025-11-15T11:44	4898	570			245	8
2025-11-15T11:44	4928	568	2.6	-15.5		
2025-11-15T11:44	5039	561	3.1	-18.3		
2025-11-15T11:44	5070	558			246	6
2025-11-15T11:45	5425	534			263	9
2025-11-15T11:46	5782	511			273	10
2025-11-15T11:47	5925	502			276	9
2025-11-15T11:47	5931	501	-5.4	-21.9		
2025-11-15T11:47	5985	498	-4.5	-28.8		
2025-11-15T11:47	6192	485			256	9
2025-11-15T11:48	6248	481	-6.0	-30.9		
2025-11-15T11:48	6555	463			268	9
2025-11-15T11:49	6755	451	-9.2	-40.3		
2025-11-15T11:49	6802	448			277	9
2025-11-15T11:50	6994	437			281	8
2025-11-15T11:50	7182	426			277	9
2025-11-15T11:50	7220	424	-12.6	-37.1		
2025-11-15T11:51	7324	419	-13.0	-41.7		
2025-11-15T11:51	7430	413			275	9
2025-11-15T11:51	7560	406	-13.8	-41.1		
2025-11-15T11:51	7616	403			267	9
2025-11-15T11:52	7800	393	-15.7	-36.5		
2025-11-15T11:52	7867	390			276	7
2025-11-15T11:52	7922	387	-16.5	-40.2		
2025-11-15T11:53	8244	370			290	4
2025-11-15T11:53	8294	368	-19.9	-44.8		
2025-11-15T11:54	8538	356	-21.4	-58.7		
2025-11-15T11:54	8610	353			317	8
2025-11-15T11:54	8796	344			306	8
2025-11-15T11:55	8969	336			316	6
2025-11-15T11:56	9326	319	-28.4	-51.5		
2025-11-15T11:56	9353	318			289	5
2025-11-15T11:57	9641	306	-30.6	-50.8		
2025-11-15T11:57	9744	301			300	7
2025-11-15T11:57	9896	295			287	6
2025-11-15T11:58	10083	287			322	9
2025-11-15T11:58	10155	284	-35.0	-51.5		
2025-11-15T11:58	10284	279			325	6
2025-11-15T11:58	10290	279	-36.1	-50.2		
2025-11-15T11:59	10589	267	-37.6	-55.9		
2025-11-15T11:59	10680	263			309	16
2025-11-15T12:00	10821	258	-39.3	-60.2		
2025-11-15T12:00	10940	254	-40.0	-60.0		
2025-11-15T12:00	10997	251			307	21
2025-11-15T12:01	11386	237			299	19
2025-11-15T12:02	11617	229	-43.8			
2025-11-15T12:02	11630	229			288	18
2025-11-15T12:02	11849	222	-44.2		289	14
2025-11-15T12:03	12094	214			285	13
2025-11-15T12:03	12269	208			284	15
2025-11-15T12:04	12653	196			279	13
2025-11-15T12:05	13041	185			279	14
2025-11-15T12:06	13247	179	-56.5			
2025-11-15T12:06	13441	173			291	14
2025-11-15T12:07	13880	162			292	15
2025-11-15T12:08	14315	151			281	12
2025-11-15T12:09	14717	141	-67.7			
2025-11-15T12:09	14806	139			282	11
2025-11-15T12:10	15276	128			278	10
2025-11-15T12:11	15647	120			288	9
2025-11-15T12:12	15962	114			263	9
2025-11-15T12:12	15971	114	-75.8			
2025-11-15T12:13	16347	107			268	9
2025-11-15T12:13	16696	100	-81.7			
2025-11-15T12:14	16839	98			261	11
2025-11-15T12:14	17101	93			263	8
2025-11-15T12:15	17320	90	-84.7			
2025-11-15T12:15	17354	89			223	11
2025-11-15T12:15	17385	89	-83.2			
2025-11-15T12:15	17423	88	-81.6			
2025-11-15T12:15	17444	88			259	10
2025-11-15T12:16	17467	87			283	7
2025-11-15T12:16	17476	87	-83.0		281	7
2025-11-15T23:30	9	1019	26.8	23.3	50	9
2025-11-15T23:30	12	1019	26.4	22.9	80	2
2025-11-15T23:30	51	1014	26.4	20.5	54	11
2025-11-15T23:31	356	980			54	14
2025-11-15T23:32	613	951	21.5	18.7		
2025-11-15T23:32	678	944			59	15
2025-11-15T23:33	923	918			67	13
2025-11-15T23:33	1059	903	18.7	17.5		
2025-11-15T23:34	1257	883			67	8
2025-11-15T23:34	1274	881	18.2	16.5		
2025-11-15T23:34	1370	871	18.0	16.0		
2025-11-15T23:34	1462	862			31	5
2025-11-15T23:35	1485	859	17.6	15.2		
2025-11-15T23:35	1531	855	18.2	15.3		
2025-11-15T23:35	1579	850			357	6
2025-11-15T23:35	1613	847	18.2	14.9		
2025-11-15T23:35	1795	829			4	6
2025-11-15T23:36	2038	806	15.1	13.3		
2025-11-15T23:36	2108	799	15.3	12.6		
2025-11-15T23:36	2148	795			342	4
2025-11-15T23:37	2324	779			304	3
2025-11-15T23:37	2399	772	13.9	10.1		
2025-11-15T23:38	2565	757			331	3
2025-11-15T23:38	2570	756	12.7	10.4		
2025-11-15T23:38	2782	738	11.8	9.4		
2025-11-15T23:38	2850	732			319	3
2025-11-15T23:39	2924	725	10.9	8.1		
2025-11-15T23:39	3097	710	9.7	6.6		
2025-11-15T23:39	3216	700			14	2
2025-11-15T23:40	3334	690			78	3
2025-11-15T23:40	3450	681	7.0	5.9		
2025-11-15T23:40	3519	675	7.3	4.8		
2025-11-15T23:40	3542	673			168	3
2025-11-15T23:40	3559	672	8.3	3.7		
2025-11-15T23:41	3645	665			191	5
2025-11-15T23:41	3737	657	8.4	2.4		
2025-11-15T23:41	3827	650			169	3
2025-11-15T23:41	3902	644	7.6	1.4		
2025-11-15T23:42	4001	637			161	1
2025-11-15T23:42	4287	615	5.0	0.0		
2025-11-15T23:43	4377	608			20	2
2025-11-15T23:43	4551	595	3.2	-1.4		
2025-11-15T23:44	4761	580			6	6
2025-11-15T23:44	4918	569	0.3	-2.9		
2025-11-15T23:44	4937	567			350	4
2025-11-15T23:44	5073	558	-0.1	-7.2		
2025-11-15T23:45	5183	550	-0.5	-9.4		
2025-11-15T23:45	5306	542			302	6
2025-11-15T23:45	5412	535	-2.6	-10.6		
2025-11-15T23:46	5543	526	-3.3	-16.6		
2025-11-15T23:46	5554	525			294	9
2025-11-15T23:46	5610	522	-3.2	-23.6		
2025-11-15T23:46	5659	518			294	12
2025-11-15T23:46	5697	516	-3.7	-25.9		
2025-11-15T23:46	5768	511	-4.5	-9.5		
2025-11-15T23:47	5807	509	-4.8	-9.8		
2025-11-15T23:47	5829	507			293	7
2025-11-15T23:47	5846	506	-4.7	-17.2		
2025-11-15T23:47	5879	504	-4.6	-28.1		
2025-11-15T23:48	6104	490			283	8
2025-11-15T23:48	6231	482	-7.3	-34.9		
2025-11-15T23:48	6251	481			278	10
2025-11-15T23:49	6430	470	-8.1	-39.5		
2025-11-15T23:49	6578	461			296	10
2025-11-15T23:50	6796	448			288	11
2025-11-15T23:50	6808	447	-10.4	-42.9		
2025-11-15T23:50	7038	434	-12.4	-46.5		
2025-11-15T23:51	7131	429			301	10
2025-11-15T23:51	7311	419			278	10
2025-11-15T23:51	7432	412	-15.1	-44.8		
2025-11-15T23:52	7654	400			306	14
2025-11-15T23:52	7676	399	-15.8	-43.9		
2025-11-15T23:53	7975	383	-17.4	-61.4		
2025-11-15T23:53	8005	382			297	13
2025-11-15T23:54	8368	364			303	12
2025-11-15T23:55	8755	345	-24.0	-60.5		
2025-11-15T23:55	8762	345			290	12
2025-11-15T23:56	8908	338	-24.8	-57.9		
2025-11-15T23:56	9049	331			307	7
2025-11-15T23:56	9153	327	-26.0	-54.6		
2025-11-15T23:57	9332	319			303	6
2025-11-15T23:57	9602	307	-29.2	-55.5		
2025-11-15T23:57	9632	305			291	4
2025-11-15T23:57	9656	304	-29.6	-46.4		
2025-11-15T23:58	9710	302	-30.2	-40.0		
2025-11-15T23:58	9777	299			298	3
2025-11-15T23:58	9845	296	-31.4	-42.7		
2025-11-15T23:58	9902	294	-31.8	-38.0		
2025-11-15T23:58	9971	291			245	4
2025-11-15T23:58	10028	289	-32.9	-39.8		
2025-11-15T23:59	10094	286	-32.9	-48.3		
2025-11-15T23:59	10153	284			285	7
2025-11-15T23:59	10377	275			272	7
2025-11-16T00:00	10461	272	-36.1	-58.6		
2025-11-16T00:00	10761	260			294	8
2025-11-16T00:01	10902	255	-40.0	-61.7		
2025-11-16T00:01	10986	252			308	12
2025-11-16T00:02	11333	239			285	10
2025-11-16T00:03	11702	226			280	8
2025-11-16T00:04	12083	213			270	9
2025-11-16T00:05	12288	207	-51.8			
2025-11-16T00:05	12471	201			281	11
2025-11-16T00:06	12720	193			283	11
2025-11-16T00:07	13112	182			281	17
2025-11-16T00:07	13143	181	-57.2			
2025-11-16T00:08	13475	172			294	21
2025-11-16T00:08	13585	169	-60.0			
2025-11-16T00:09	13823	162			300	21
2025-11-16T00:09	14014	157	-63.2			
2025-11-16T00:09	14084	156			301	19
2025-11-16T00:10	14167	154	-62.5			
2025-11-16T00:10	14452	147			297	18
2025-11-16T00:11	14852	137			300	18
2025-11-16T00:12	15294	127			296	16
2025-11-16T00:13	15774	117			291	14
2025-11-16T00:14	16057	112	-77.4			
2025-11-16T00:14	16259	108			276	11
2025-11-16T00:15	16678	100	-82.0			
2025-11-16T00:15	16696	100	-82.0		264	12
2025-11-16T00:16	16822	98	-79.0			
2025-11-16T00:16	16963	95			296	13
2025-11-16T00:17	17376	88			314	11
2025-11-16T00:18	17668	84			291	2
2025-11-16T00:18	17801	82			262	2
2025-11-16T00:18	17833	81	-86.5			
2025-11-16T00:18	17954	80			199	3
2025-11-16T00:18	18028	78	-86.9			
2025-11-16T00:19	18046	78			236	3
2025-11-16T00:19	18115	77	-83.4			
2025-11-16T00:19	18164	77			279	4
2025-11-16T00:19	18241	76	-79.3			
2025-11-16T00:19	18309	75	-77.5			
2025-11-16T00:20	18503	72			342	5
2025-11-16T00:20	18602	71			27	3
2025-11-16T00:20	18691	70			105	5
2025-11-16T00:21	18776	69	-76.0			
2025-11-16T00:21	18910	67			148	8
2025-11-16T00:22	19137	65	-76.0			
2025-11-16T00:22	19236	64			210	6
2025-11-16T00:22	19290	63	-74.0			
2025-11-16T00:22	19404	62	-72.7			
2025-11-16T00:22	19471	61			327	5
2025-11-16T00:23	19759	58	-72.5			
2025-11-16T00:23	19839	57			25	8
2025-11-16T00:24	20039	55	-72.1			
2025-11-16T00:24	20048	55			59	6
2025-11-16T00:25	20303	53	-67.8		65	11
2025-11-16T00:25	20464	52	-67.3			
2025-11-16T00:25	20524	51			88	14
2025-11-16T00:26	20800	49	-68.1			
2025-11-16T00:26	20912	48			109	8
2025-11-16T00:27	21098	46	-67.3			
2025-11-16T00:27	21248	45			134	6
2025-11-16T00:28	21622	43			112	6
2025-11-16T00:28	21750	42	-64.9			
2025-11-16T00:29	21781	42			131	3
2025-11-16T00:29	21945	40			60	4
2025-11-16T00:30	22212	39			62	5
2025-11-16T00:30	22486	37	-61.2			
2025-11-16T00:31	22574	37			75	5
2025-11-16T00:31	22710	36			68	4
2025-11-16T00:31	22944	34			41	8
2025-11-16T00:32	23239	33			112	7
2025-11-16T00:32	23373	32	-59.0			
2025-11-16T00:33	23571	31			140	4
2025-11-16T00:34	23951	29			172	2
2025-11-16T00:34	24100	29			358	2
2025-11-16T00:34	24304	28	-56.3			
2025-11-16T00:35	24469	27			67	10
2025-11-16T00:35	24492	27	-55.3			
2025-11-16T00:36	24932	25			100	7
2025-11-16T00:37	25353	24			88	6
2025-11-16T00:37	25544	23			79	3
2025-11-16T00:37	25688	22			26	4
2025-11-16T00:38	25744	22	-54.4			
2025-11-16T00:38	26168	21			28	5
2025-11-16T00:39	26229	21	-52.5			
2025-11-16T00:39	26356	20			47	4
2025-11-16T00:39	26619	19			360	2
2025-11-16T00:40	26826	19			345	4
2025-11-16T00:40	27004	18	-49.2			
2025-11-16T00:40	27039	18			319	4
2025-11-16T00:41	27222	18			199	2
2025-11-16T00:41	27371	17			236	2
2025-11-16T00:41	27526	17	-49.9			
2025-11-16T00:42	27682	16			322	3
2025-11-16T00:42	27845	16			0	0
2025-11-16T00:42	27927	16			139	3
2025-11-16T00:43	28135	15			158	3
2025-11-16T00:43	28271	15			195	5
2025-11-16T00:44	28618	14	-52.9			
2025-11-16T00:44	28665	14			194	6
2025-11-16T00:45	29092	13	-51.8			
2025-11-16T00:45	29140	13			169	5
2025-11-16T00:45	29184	13	-51.4		160	4
2025-11-16T11:30	9	1019	26.4	22.3	50	9
2025-11-16T11:30	13	1019	26.5	21.5	92	1
2025-11-16T11:30	36	1016			58	5
2025-11-16T11:30	66	1013			49	13
2025-11-16T11:30	137	1005	25.4	19.5		
2025-11-16T11:31	350	981			56	15
2025-11-16T11:32	686	943			63	14
2025-11-16T11:32	714	940	19.8	17.8		
2025-11-16T11:33	818	929	19.4	16.8		
2025-11-16T11:33	1006	909			72	13
2025-11-16T11:34	1251	883	16.0	14.4		
2025-11-16T11:34	1292	879			78	11
2025-11-16T11:34	1358	872	15.9	13.6		
2025-11-16T11:35	1629	845	14.0	12.2		
2025-11-16T11:35	1641	844			83	8
2025-11-16T11:35	1718	836	14.1	10.5		
2025-11-16T11:36	1777	830	14.8	7.4		
2025-11-16T11:36	1800	828	16.0	-0.7		
2025-11-16T11:36	1818	826	16.8	-13.9		
2025-11-16T11:36	1848	823	16.7	-10.1		
2025-11-16T11:36	1901	818	16.5	9.2		
2025-11-16T11:36	1931	815	16.4	8.1		
2025-11-16T11:36	1971	811	17.4	2.6		
2025-11-16T11:36	1995	809			89	4
2025-11-16T11:37	2112	798	16.5	6.9		
2025-11-16T11:37	2118	798			59	3
2025-11-16T11:37	2235	787	16.1	3.8		
2025-11-16T11:37	2247	785			347	3
2025-11-16T11:37	2300	781	16.3	-0.9		
2025-11-16T11:37	2437	768	15.1	6.4		
2025-11-16T11:38	2516	761	14.5	6.6		
2025-11-16T11:38	2565	756			299	5
2025-11-16T11:38	2625	751	13.6	6.9		
2025-11-16T11:38	2794	736	13.1	-2.4		
2025-11-16T11:39	2849	731	13.1	-6.5		
2025-11-16T11:39	2916	726			332	5
2025-11-16T11:39	3070	712			340	5
2025-11-16T11:40	3231	699	9.9	-5.2		
2025-11-16T11:40	3304	693	9.3	-3.0		
2025-11-16T11:40	3362	688			317	5
2025-11-16T11:41	3533	674	8.4	-7.0		
2025-11-16T11:41	3567	671			297	5
2025-11-16T11:41	3673	662	7.5	-2.8		
2025-11-16T11:41	3740	657			287	7
2025-11-16T11:42	3976	638	5.7	-4.5		
2025-11-16T11:42	4039	633	5.9	-7.3		
2025-11-16T11:42	4056	632			286	9
2025-11-16T11:42	4147	625	4.9	-1.1		
2025-11-16T11:43	4402	606			270	7
2025-11-16T11:43	4463	601	2.2	-0.9		
2025-11-16T11:43	4523	597	2.1	-2.0		
2025-11-16T11:44	4603	591	2.1	-4.6		
2025-11-16T11:44	4621	589			251	9
2025-11-16T11:44	4844	573	-0.1	-8.5		
2025-11-16T11:45	4956	565	-0.8	-11.0		
2025-11-16T11:45	4974	564			267	10
2025-11-16T11:45	5034	560	-1.5	-12.5		
2025-11-16T11:45	5143	552	-1.5	-21.6		
2025-11-16T11:45	5257	545	-0.7	-34.0		
2025-11-16T11:46	5328	540	0.6	-50.0		
2025-11-16T11:46	5334	539			288	12
2025-11-16T11:46	5637	519			297	9
2025-11-16T11:47	5693	516	-1.7	-51.4		
2025-11-16T11:47	5805	508			303	9
2025-11-16T11:48	6167	486	-5.2	-53.6		
2025-11-16T11:48	6173	485			293	9
2025-11-16T11:49	6541	463			295	8
2025-11-16T11:50	6858	444			280	8
2025-11-16T11:50	6999	436	-11.9	-52.2		
2025-11-16T11:50	7092	431			287	8
2025-11-16T11:51	7340	417	-14.3	-53.8		
2025-11-16T11:51	7438	412			307	11
2025-11-16T11:52	7565	405	-15.4	-60.2		
2025-11-16T11:52	7783	393			311	12
2025-11-16T11:53	8022	381			311	12
2025-11-16T11:54	8386	363			299	12
2025-11-16T11:55	8593	352	-22.8	-65.0		
2025-11-16T11:55	8725	346	-23.5	-48.7		
2025-11-16T11:55	8764	344			291	12
2025-11-16T11:56	9128	327			292	11
2025-11-16T11:57	9396	315			287	10
2025-11-16T11:57	9649	304			291	9
2025-11-16T11:58	9946	292	-34.6	-52.2		
2025-11-16T11:58	10030	288			291	8
2025-11-16T11:59	10410	273			303	10
2025-11-16T12:00	10574	266	-39.8	-55.6		
2025-11-16T12:00	10604	265			308	15
2025-11-16T12:00	10639	264	-40.0	-57.3		
2025-11-16T12:01	10844	256			308	18
2025-11-16T12:02	11197	243			306	18
2025-11-16T12:02	11437	234	-44.7			
2025-11-16T12:03	11556	230			292	18
2025-11-16T12:04	11934	218			289	19
2025-11-16T12:05	12262	207	-50.7			
2025-11-16T12:05	12312	205			301	21
2025-11-16T12:05	12618	196			305	24
2025-11-16T12:06	12742	192	-53.6			
2025-11-16T12:06	12990	185			304	22
2025-11-16T12:07	13376	174			297	22
2025-11-16T12:08	13768	163			304	23
2025-11-16T12:09	13822	162	-61.4			
2025-11-16T12:09	14191	152			304	20
2025-11-16T12:10	14375	148	-64.1			
2025-11-16T12:10	14519	145			281	13
2025-11-16T12:10	14633	142	-65.1			
2025-11-16T12:11	14948	135			274	13
2025-11-16T12:12	15402	125			276	14
2025-11-16T12:13	15832	116	-76.4			
2025-11-16T12:13	15873	115			281	15
2025-11-16T12:14	16337	106			282	15
2025-11-16T12:15	16668	100	-80.9			
2025-11-16T12:15	16688	100	-80.9			
2025-11-16T12:15	16787	98			304	15
2025-11-16T12:16	17149	92			293	11
2025-11-16T12:17	17383	88			248	9
2025-11-16T12:17	17466	87	-85.1			
2025-11-16T12:17	17602	85	-83.5		224	11
2025-11-16T12:17	17686	83	-80.5			
2025-11-16T12:18	17823	81			265	3
2025-11-16T12:18	17867	81	-79.3		271	4
2025-11-16T23:30	9	1019	26.9	20.3	70	9
2025-11-16T23:30	12	1019	26.5	20.1	67	2
2025-11-16T23:30	21	1018			82	4
2025-11-16T23:30	67	1013			75	11
2025-11-16T23:31	285	988	23.8	17.3		
2025-11-16T23:31	368	978			63	13
2025-11-16T23:32	553	958	21.4	16.1		
2025-11-16T23:32	679	944			67	13
2025-11-16T23:32	689	943	20.2	15.6		
2025-11-16T23:33	769	934	19.1	16.1		
2025-11-16T23:33	822	929	19.1	13.7		
2025-11-16T23:33	973	912	18.2	11.8		
2025-11-16T23:33	1001	909			68	11
2025-11-16T23:34	1327	875			81	7
2025-11-16T23:34	1366	871	14.7	12.6		
2025-11-16T23:35	1526	855			114	5
2025-11-16T23:35	1567	851	13.8	13.0		
2025-11-16T23:35	1699	838	13.7	12.8		
2025-11-16T23:35	1777	830			145	2
2025-11-16T23:35	1788	829	13.6	12.3		
2025-11-16T23:36	1835	824	13.2	10.4		
2025-11-16T23:36	1875	821	13.0	0.4		
2025-11-16T23:36	1910	817	15.8	-2.7		
2025-11-16T23:36	1927	816	16.7	-2.4		
2025-11-16T23:36	2013	807	16.6	-5.8		
2025-11-16T23:36	2104	799	16.7	-0.5		
2025-11-16T23:36	2115	798			16	2
2025-11-16T23:37	2373	774	15.3	-3.1		
2025-11-16T23:37	2390	772			358	3
2025-11-16T23:38	2742	741			307	6
2025-11-16T23:39	3010	717	10.1	-2.9		
2025-11-16T23:39	3090	710			289	8
2025-11-16T23:40	3417	683			282	10
2025-11-16T23:41	3603	667	4.4	-4.9		
2025-11-16T23:41	3627	665	4.9	-8.9		
2025-11-16T23:41	3662	663	6.7	-20.8		
2025-11-16T23:41	3717	658			288	10
2025-11-16T23:41	3768	654	8.3	-38.6		
2025-11-16T23:42	3924	642			275	8
2025-11-16T23:43	4189	621	6.0	-40.1		
2025-11-16T23:43	4318	612			306	8
2025-11-16T23:43	4538	595	4.7	-41.0		
2025-11-16T23:44	4687	584			301	8
2025-11-16T23:45	5018	561	1.5	-49.4		
2025-11-16T23:45	5035	560			311	8
2025-11-16T23:46	5371	537			317	8
2025-11-16T23:46	5412	534	-0.9	-50.9		
2025-11-16T23:47	5740	512			318	8
2025-11-16T23:48	6002	496	-4.3	-47.0		
2025-11-16T23:48	6120	488			312	6
2025-11-16T23:49	6366	473			322	6
2025-11-16T23:50	6747	450			317	5
2025-11-16T23:50	7052	433			311	5
2025-11-16T23:50	7064	432	-13.2	-49.6		
2025-11-16T23:51	7228	423	-14.0	-53.6		
2025-11-16T23:51	7300	419	-14.2	-59.4		
2025-11-16T23:51	7389	414			304	9
2025-11-16T23:52	7539	406	-15.5	-60.2		
2025-11-16T23:52	7727	396			287	9
2025-11-16T23:53	7808	391	-16.6	-45.9		
2025-11-16T23:53	8069	378			296	10
2025-11-16T23:54	8430	360			299	11
2025-11-16T23:55	8789	343			297	11
2025-11-16T23:56	9084	329	-28.8	-45.7		
2025-11-16T23:56	9158	325			290	11
2025-11-16T23:57	9515	309			302	13
2025-11-16T23:58	9700	301			311	14
2025-11-16T23:58	9793	297	-34.7	-50.3		
2025-11-16T23:59	10058	286			310	16
2025-11-17T00:00	10411	272			313	19
2025-11-17T00:01	10648	263	-40.0	-57.3		
2025-11-17T00:01	10769	258			306	19
2025-11-17T00:02	11142	244	-43.6		306	20
2025-11-17T00:03	11507	231			300	24
2025-11-17T00:04	11878	219			295	22
2025-11-17T00:04	12056	213	-49.1			
2025-11-17T00:05	12251	207			295	22
2025-11-17T00:06	12620	195			297	21
2025-11-17T00:06	12808	190	-54.8			
2025-11-17T00:07	12981	185			295	22
2025-11-17T00:08	13318	175			287	22
2025-11-17T00:09	13639	166			294	20
2025-11-17T00:10	13954	158			297	21
2025-11-17T00:11	14186	152	-64.5			
2025-11-17T00:11	14277	150			299	22
2025-11-17T00:12	14599	142			287	21
2025-11-17T00:13	14954	134			273	21
2025-11-17T00:13	15068	131	-70.7			
2025-11-17T00:14	15294	126			286	18
2025-11-17T00:15	15558	121	-73.2			
2025-11-17T00:15	15636	119			293	18
2025-11-17T00:16	15963	113			298	18
2025-11-17T00:16	16029	111	-77.0			
2025-11-17T00:17	16273	107	-77.9			
2025-11-17T00:17	16296	106			309	16
2025-11-17T00:18	16644	100			283	12
2025-11-17T00:19	16980	94			261	14
2025-11-17T00:20	17266	89	-83.7			
2025-11-17T00:20	17324	89			257	16
2025-11-17T00:20	17502	86	-79.2			
2025-11-17T00:21	17666	83			304	9
2025-11-17T00:21	17832	81			278	5
2025-11-17T00:22	17988	79			242	6
2025-11-17T00:22	18045	78	-79.9			
2025-11-17T00:23	18334	74			265	11
2025-11-17T00:23	18490	72	-81.3			
2025-11-17T00:24	18629	70			261	5
2025-11-17T00:24	18696	69	-80.7			
2025-11-17T00:24	18769	69			241	4
2025-11-17T00:24	18843	68			283	1
2025-11-17T00:25	18981	66			138	3
2025-11-17T00:25	19009	66	-75.1			
2025-11-17T00:25	19161	64			167	7
2025-11-17T00:26	19342	62	-76.4			
2025-11-17T00:26	19445	61			188	6
2025-11-17T00:26	19466	61	-75.3			
2025-11-17T00:27	19640	59			238	2
2025-11-17T00:27	19803	57	-71.2			
2025-11-17T00:27	19835	57			1	3
2025-11-17T00:28	19960	56	-70.1			
2025-11-17T00:28	20112	54			349	7
2025-11-17T00:29	20429	52	-66.5			
2025-11-17T00:29	20475	51			43	9
2025-11-17T00:29	20655	50	-67.1			
2025-11-17T00:30	20755	49			87	4
2025-11-17T00:30	20955	47	-64.5		148	10
2025-11-17T00:31	21218	45			150	9
2025-11-17T00:31	21441	44			145	6
2025-11-17T00:32	21712	42	-64.1		201	5
2025-11-17T00:32	21799	41			227	1
2025-11-17T00:33	22109	39	-61.9			
2025-11-17T00:33	22206	39			81	1
2025-11-17T00:34	22336	38			70	3
2025-11-17T00:34	22437	37	-60.0			
2025-11-17T00:34	22588	36			100	4
2025-11-17T00:35	22763	35			98	3
2025-11-17T00:36	23056	34			143	8
2025-11-17T00:36	23206	33	-58.4			
2025-11-17T00:37	23500	31			167	9
2025-11-17T00:38	23915	29			193	4
2025-11-17T00:38	24001	29			241	3
2025-11-17T00:38	24023	29	-56.6			
2025-11-17T00:38	24088	29			303	6
2025-11-17T00:39	24387	27			343	11
2025-11-17T00:39	24482	27	-52.9			
2025-11-17T00:39	24604	26			360	11
2025-11-17T00:39	24626	26			1	11
2025-11-17T00:40	25080	25			29	9
2025-11-17T00:41	25486	23			64	3
2025-11-17T00:42	25866	22	-54.4		196	3
2025-11-17T11:30	9	1017	26.3	22.0	80	9
2025-11-17T11:30	13	1016	26.3	21.7	105	2
2025-11-17T11:30	24	1015			120	5
2025-11-17T11:30	66	1010			84	10
2025-11-17T11:30	82	1009	25.7	20.1		
2025-11-17T11:31	376	975			81	11
2025-11-17T11:32	702	940	20.0	18.1	86	10
2025-11-17T11:33	862	922	19.2	16.6		
2025-11-17T11:33	1032	904			92	5
2025-11-17T11:34	1213	885	17.3	13.4		
2025-11-17T11:34	1368	869			111	4
2025-11-17T11:35	1558	850			111	3
2025-11-17T11:35	1660	840			106	2
2025-11-17T11:35	1676	838	13.7	11.6		
2025-11-17T11:35	1789	827	13.5	10.5		
2025-11-17T11:36	1810	825			331	2
2025-11-17T11:36	1815	824	14.1	9.5		
2025-11-17T11:36	1880	818	14.6	7.4		
2025-11-17T11:36	1982	808			311	6
2025-11-17T11:36	2023	804	15.1	5.0		
2025-11-17T11:36	2133	794	16.1	3.2		
2025-11-17T11:37	2212	787			286	10
2025-11-17T11:38	2524	758			285	12
2025-11-17T11:39	2827	731			287	12
2025-11-17T11:39	2932	722	8.9	-1.0		
2025-11-17T11:39	2973	718	9.4	-5.3		
2025-11-17T11:39	3015	715	10.9	-19.6		
2025-11-17T11:40	3110	706			309	9
2025-11-17T11:40	3131	705	11.2	-29.6		
2025-11-17T11:40	3332	688			301	12
2025-11-17T11:40	3355	686	9.9	-33.5		
2025-11-17T11:41	3483	675			297	12
2025-11-17T11:41	3519	672	11.3	-43.3		
2025-11-17T11:41	3603	666	11.4	-43.2		
2025-11-17T11:41	3680	660			285	7
2025-11-17T11:42	3956	638			300	5
2025-11-17T11:43	4185	621			305	7
2025-11-17T11:44	4460	600			303	5
2025-11-17T11:44	4564	592	5.2	-47.1		
2025-11-17T11:45	4807	575			294	5
2025-11-17T11:45	5017	560			291	4
2025-11-17T11:46	5216	547			279	4
2025-11-17T11:46	5311	540	-0.6	-50.7		
2025-11-17T11:46	5431	532			256	3
2025-11-17T11:47	5549	524	-1.3	-51.2		
2025-11-17T11:47	5652	517			304	3
2025-11-17T11:48	5909	501			301	4
2025-11-17T11:48	6127	487	-6.1	-44.6		
2025-11-17T11:49	6282	477			285	4
2025-11-17T11:49	6527	463			300	4
2025-11-17T11:50	6705	452	-11.0	-45.4		
2025-11-17T11:50	6817	446			255	4
2025-11-17T11:51	7123	428			247	5
2025-11-17T11:51	7225	422	-15.3	-46.6		
2025-11-17T11:52	7336	416			249	4
2025-11-17T11:52	7508	407			302	7
2025-11-17T11:52	7576	403	-17.6	-50.3		
2025-11-17T11:53	7744	394			305	9
2025-11-17T11:53	7839	389	-18.4	-56.6		
2025-11-17T11:53	7975	382			306	11
2025-11-17T11:54	8156	373	-20.5	-54.8		
2025-11-17T11:54	8331	364			303	12
2025-11-17T11:55	8393	361	-22.4	-46.7		
2025-11-17T11:55	8559	353	-23.9	-40.1		
2025-11-17T11:55	8677	347			307	13
2025-11-17T11:56	9034	330			294	10
2025-11-17T11:57	9385	315			310	11
2025-11-17T11:58	9755	298			320	14
2025-11-17T11:58	9768	298	-35.1	-45.4		
2025-11-17T11:59	9848	294	-35.0	-50.1		
2025-11-17T11:59	9921	291	-34.7	-54.2		
2025-11-17T11:59	10096	284			310	18
2025-11-17T12:00	10483	269			297	22
2025-11-17T12:00	10489	268	-38.2	-57.1		
2025-11-17T12:01	10754	258	-40.0	-60.0		
2025-11-17T12:01	10861	254			289	23
2025-11-17T12:02	11247	240			285	22
2025-11-17T12:03	11624	227			297	23
2025-11-17T12:04	11777	222	-47.6			
2025-11-17T12:04	12011	214			300	23
2025-11-17T12:05	12192	208	-50.4			
2025-11-17T12:05	12402	201			297	24
2025-11-17T12:06	12803	189			300	24
2025-11-17T12:07	13206	178			303	20
2025-11-17T12:08	13393	172	-58.7			
2025-11-17T12:08	13606	167			297	22
2025-11-17T12:09	14028	156			286	20
2025-11-17T12:10	14412	146	-66.0			
2025-11-17T12:10	14496	144			287	20
2025-11-17T12:11	14993	133			276	21
2025-11-17T12:12	15418	123	-72.9			
2025-11-17T12:12	15441	123			286	19
2025-11-17T12:13	15919	113			287	16
2025-11-17T12:13	15944	113	-75.3			
2025-11-17T12:14	16310	106	-77.7			
2025-11-17T12:14	16318	106			274	14
2025-11-17T12:15	16579	101			240	15
2025-11-17T12:15	16675	99	-79.3			
2025-11-17T12:16	17068	93			238	19
2025-11-17T12:16	17163	91	-82.7			
2025-11-17T12:17	17510	86			307	11
2025-11-17T12:17	17557	85	-82.5			
2025-11-17T12:17	17800	81			304	7
2025-11-17T12:18	17975	79	-84.4			
2025-11-17T12:18	17990	78			242	7
2025-11-17T12:18	18083	77	-80.1			
2025-11-17T12:18	18106	77			253	10
2025-11-17T12:18	18120	77	-79.3		264	8
2025-11-17T23:30	9	1016	28.8	23.5	130	4
2025-11-17T23:30	11	1016	29.1	23.3	135	1
2025-11-17T23:30	38	1013	27.2	21.0		
2025-11-17T23:30	123	1003			128	7
2025-11-17T23:31	451	967			129	7
2025-11-17T23:32	551	956	22.6	19.2		
2025-11-17T23:32	706	939	21.9	17.1		
2025-11-17T23:32	808	928			163	4
2025-11-17T23:33	1067	901	19.5	16.0		
2025-11-17T23:33	1143	893			184	5
2025-11-17T23:34	1296	877			197	3
2025-11-17T23:35	1643	842			240	4
2025-11-17T23:36	2001	807			261	5
2025-11-17T23:36	2013	806	12.8	8.9		
2025-11-17T23:36	2125	795	12.6	6.6		
2025-11-17T23:37	2350	774			283	8
2025-11-17T23:38	2681	744			279	8
2025-11-17T23:38	2718	741	10.9	-3.6		
2025-11-17T23:38	2866	728	10.4	-5.2		
2025-11-17T23:39	2898	725	10.4	-6.9		
2025-11-17T23:39	2924	723	11.1	-11.7		
2025-11-17T23:39	2997	717			280	5
2025-11-17T23:39	3051	712	13.1	-25.8		
2025-11-17T23:39	3152	704	13.3	-35.3		
2025-11-17T23:40	3257	695			275	8
2025-11-17T23:40	3534	672			312	6
2025-11-17T23:41	3747	655			307	3
2025-11-17T23:41	3872	645			292	3
2025-11-17T23:41	3914	642	8.9	-44.8		
2025-11-17T23:42	4098	628			286	4
2025-11-17T23:42	4219	619			253	2
2025-11-17T23:43	4480	599			216	3
2025-11-17T23:43	4604	590	3.8	-48.0		
2025-11-17T23:44	4735	581			253	3
2025-11-17T23:44	4844	573			239	3
2025-11-17T23:45	4931	567	2.5	-48.8		
2025-11-17T23:45	5113	554			273	5
2025-11-17T23:46	5233	546	0.2	-50.2		
2025-11-17T23:46	5294	542			277	5
2025-11-17T23:46	5444	531			237	5
2025-11-17T23:46	5483	529	-1.0	-51.0		
2025-11-17T23:47	5709	514			250	4
2025-11-17T23:48	6052	492			264	4
2025-11-17T23:48	6223	481			276	4
2025-11-17T23:49	6274	478	-7.5	-49.2		
2025-11-17T23:49	6338	474			257	3
2025-11-17T23:49	6461	467			313	3
2025-11-17T23:50	6627	457			296	4
2025-11-17T23:50	6802	447	-10.8	-41.5		
2025-11-17T23:50	6844	444			309	4
2025-11-17T23:51	6952	438			331	3
2025-11-17T23:51	6964	437	-12.3	-29.2		
2025-11-17T23:51	7100	429	-13.6	-27.5	275	4
2025-11-17T23:51	7191	424	-13.6	-28.2		
2025-11-17T23:51	7270	420	-13.4	-34.6		
2025-11-17T23:51	7282	419			198	4
2025-11-17T23:52	7546	405			265	4
2025-11-17T23:53	7697	397			290	3
2025-11-17T23:53	7914	386	-19.2	-40.0		
2025-11-17T23:54	8039	379			315	6
2025-11-17T23:55	8394	361			308	9
2025-11-17T23:55	8624	350			308	11
2025-11-17T23:56	8828	340	-27.9	-40.8		
2025-11-17T23:56	8980	333			315	12
2025-11-17T23:57	9326	317	-32.5	-42.8		
2025-11-17T23:57	9338	317			324	15
2025-11-17T23:57	9386	315	-31.7	-48.7		
2025-11-17T23:58	9521	309	-31.6	-54.1		
2025-11-17T23:58	9714	300			313	10
2025-11-17T23:59	10061	286			292	10
2025-11-17T23:59	10120	283	-36.5	-57.1		
2025-11-18T00:00	10398	272			304	13
2025-11-18T00:00	10549	266	-40.0	-59.2		
2025-11-18T00:01	10796	257			315	14
2025-11-18T00:02	11089	246			322	13
2025-11-18T00:02	11143	244	-44.2			
2025-11-18T00:03	11486	232			311	13
2025-11-18T00:04	11893	218			305	12
2025-11-18T00:04	12188	208	-52.1			
2025-11-18T00:05	12303	204			298	12
2025-11-18T00:05	12566	196	-54.9			
2025-11-18T00:06	12697	192			300	15
2025-11-18T00:06	12777	190	-55.5			
2025-11-18T00:07	13109	180			293	16
2025-11-18T00:07	13363	173	-58.8			
2025-11-18T00:08	13463	170			290	18
2025-11-18T00:09	13863	160			280	19
2025-11-18T00:10	14255	150			277	18
2025-11-18T00:10	14319	148	-66.5			
2025-11-18T00:10	14542	143	-67.7			
2025-11-18T00:11	14674	140			285	18
2025-11-18T00:12	15125	129			278	16
2025-11-18T00:13	15593	120			273	19
2025-11-18T00:13	15892	113	-77.0			
2025-11-18T00:14	16058	110			281	16
2025-11-18T00:14	16207	107	-79.3			
2025-11-18T00:14	16386	104			262	14
2025-11-18T00:15	16798	97			258	18
2025-11-18T00:16	16860	96	-81.4			
2025-11-18T00:16	17006	93	-80.4			
2025-11-18T00:16	17157	91			301	12
2025-11-18T00:17	17438	86			255	7
2025-11-18T00:17	17676	83			214	10
2025-11-18T00:17	17767	81	-83.0			
2025-11-18T00:18	17945	79	-79.5			
2025-11-18T00:18	17987	78			283	6
2025-11-18T00:18	18132	76	-78.0			
2025-11-18T00:19	18394	73			274	10
2025-11-18T00:19	18600	70	-79.7			
2025-11-18T00:20	18731	69			332	8
2025-11-18T00:20	18914	66	-78.5			
2025-11-18T00:20	18952	66			291	6
2025-11-18T00:21	19092	64	-76.8			
2025-11-18T00:21	19237	63			310	4
2025-11-18T00:21	19245	63	-76.8			
2025-11-18T00:21	19385	61			254	1
2025-11-18T00:21	19462	60	-73.5			
2025-11-18T00:22	19549	60			174	3
2025-11-18T00:22	19566	59	-72.6			
2025-11-18T00:22	19689	58			190	7
2025-11-18T00:22	19763	57	-68.8			
2025-11-18T00:23	19942	56			204	7
2025-11-18T00:23	19975	55	-68.1			
2025-11-18T00:23	20131	54			244	4
2025-11-18T00:23	20302	53			201	7
2025-11-18T00:24	20322	52	-64.9			
2025-11-18T00:24	20489	51	-63.9			
2025-11-18T00:24	20526	51			217	7
2025-11-18T00:24	20634	50	-64.1			
2025-11-18T00:24	20647	50			205	3
2025-11-18T00:25	21056	46			220	3
2025-11-18T00:26	21226	45			234	3
2025-11-18T00:26	21384	44			196	7
2025-11-18T00:27	21648	42	-63.2			
2025-11-18T00:27	21662	42			206	6
2025-11-18T00:27	21890	41			193	10
2025-11-18T00:28	22138	39			205	10
2025-11-18T00:28	22156	39	-61.8			
2025-11-18T00:29	22548	36			246	6
2025-11-18T00:30	22971	34			278	5
2025-11-18T00:30	23172	33	-61.6			
2025-11-18T00:31	23328	32			322	4
2025-11-18T00:31	23429	32			270	3
2025-11-18T00:31	23544	31			198	4
2025-11-18T00:31	23627	31	-57.2			
2025-11-18T00:32	23797	30			151	5
2025-11-18T00:33	24236	28			244	6
2025-11-18T00:33	24396	27	-56.6			
2025-11-18T00:34	24658	26	-53.6		334	6
2025-11-18T00:35	24938	25			345	6
2025-11-18T00:35	25172	24			12	4
2025-11-18T00:36	25391	23			32	2
2025-11-18T00:36	25617	22	-52.7			
2025-11-18T00:37	25853	22			173	2
2025-11-18T00:37	26069	21	-50.7			
2025-11-18T00:38	26321	20			25	3
2025-11-18T00:38	26552	19			353	5
2025-11-18T00:38	26652	19			332	2
2025-11-18T00:39	27040	18			170	3
2025-11-18T00:40	27154	18	-49.3			
2025-11-18T00:40	27263	17			182	4
2025-11-18T00:40	27459	17			124	4
2025-11-18T00:41	27816	16			133	6
2025-11-18T00:41	27858	16	-49.3			
2025-11-18T00:42	28067	15			189	7
2025-11-18T00:42	28416	15			218	7
2025-11-18T00:43	28688	14	-51.0		208	8
2025-11-18T00:44	29121	13			235	9
2025-11-18T00:44	29323	13	-50.8			
2025-11-18T00:45	29586	12			242	11
2025-11-18T00:46	30081	11			202	11
2025-11-18T00:47	30434	11			231	9
2025-11-18T00:47	30678	10			245	8
2025-11-18T00:48	30800	10	-53.0			
2025-11-18T00:48	30998	10			242	14
2025-11-18T00:49	31268	9	-50.9		235	16
2025-11-18T00:49	31389	9	-49.5		241	19
2025-11-18T11:30	9	1015	26.7	24.9	140	3
2025-11-18T11:30	12	1015	26.9	24.6	0	0
2025-11-18T11:30	36	1012			165	3
2025-11-18T11:30	60	1009	27.0	23.9		
2025-11-18T11:30	70	1008			137	4
2025-11-18T11:31	244	988			136	7
2025-11-18T11:32	468	964	23.4	21.3		
2025-11-18T11:32	509	959	23.8	20.1		
2025-11-18T11:32	557	954			151	5
2025-11-18T11:32	710	937	23.0	17.7		
2025-11-18T11:33	874	920			201	1
2025-11-18T11:34	1226	883			277	2
2025-11-18T11:34	1232	883	19.1	13.1		
2025-11-18T11:34	1428	862	17.9	9.0		
2025-11-18T11:34	1434	862			314	3
2025-11-18T11:35	1558	849			296	2
2025-11-18T11:35	1671	838	17.6	-3.8		
2025-11-18T11:35	1689	836			335	3
2025-11-18T11:36	1860	820	18.0	-6.7		
2025-11-18T11:36	1964	810			353	5
2025-11-18T11:36	2049	802	17.1	-0.6		
2025-11-18T11:36	2161	791			31	6
2025-11-18T11:37	2339	775	14.4	6.0		
2025-11-18T11:37	2480	762	13.7	5.8		
2025-11-18T11:37	2491	761			9	9
2025-11-18T11:38	2584	753	13.9	2.8		
2025-11-18T11:38	2709	742	13.1	2.6		
2025-11-18T11:38	2817	732			360	9
2025-11-18T11:38	2839	730	12.1	-0.1		
2025-11-18T11:39	3049	712	11.4	-10.8		
2025-11-18T11:39	3156	703			26	1
2025-11-18T11:40	3383	684	9.8	-30.5		
2025-11-18T11:40	3502	674	10.0	-33.4		
2025-11-18T11:40	3514	673			214	3
2025-11-18T11:41	3866	645			223	6
2025-11-18T11:41	3889	644	6.8	-35.6		
2025-11-18T11:42	4054	631	7.2	-39.3		
2025-11-18T11:42	4210	619			226	6
2025-11-18T11:43	4276	614	5.9	-46.6		
2025-11-18T11:43	4565	592			207	7
2025-11-18T11:43	4583	591	3.3	-41.9		
2025-11-18T11:44	4705	582	3.2	-48.3		
2025-11-18T11:44	4916	567			204	6
2025-11-18T11:45	5263	543			215	7
2025-11-18T11:46	5314	539	-0.5	-50.6		
2025-11-18T11:46	5575	522	-2.3	-45.7		
2025-11-18T11:46	5604	520			201	8
2025-11-18T11:47	5948	498			204	9
2025-11-18T11:48	6148	485	-6.7	-45.0		
2025-11-18T11:48	6302	476			200	5
2025-11-18T11:49	6472	465			203	7
2025-11-18T11:49	6490	464	-8.1	-46.0		
2025-11-18T11:50	6830	444			213	8
2025-11-18T11:50	6976	436	-11.6	-45.9		
2025-11-18T11:51	7167	425			208	11
2025-11-18T11:51	7173	425	-13.1	-33.1		
2025-11-18T11:51	7332	416	-13.9	-38.1		
2025-11-18T11:52	7529	405			218	7
2025-11-18T11:52	7727	395	-17.3	-40.0		
2025-11-18T11:53	7823	390			233	8
2025-11-18T11:54	8177	371			244	6
2025-11-18T11:55	8519	354	-24.5	-42.6		
2025-11-18T11:55	8537	354			279	4
2025-11-18T11:55	8803	341			284	6
2025-11-18T11:55	8832	339	-26.9	-39.9		
2025-11-18T11:56	9165	324			249	11
2025-11-18T11:57	9393	314	-31.0	-50.4		
2025-11-18T11:57	9546	307			250	9
2025-11-18T11:57	9558	306	-32.2	-48.6		
2025-11-18T11:58	9690	301	-33.1	-49.9		
2025-11-18T11:58	9817	295	-33.4	-47.9		
2025-11-18T11:58	9877	293	-33.3	-58.7		
2025-11-18T11:58	9883	293			234	6
2025-11-18T11:59	10252	277			208	7
2025-11-18T12:00	10615	263			224	7
2025-11-18T12:01	10775	257	-40.0	-65.3		
2025-11-18T12:01	10998	249			241	11
2025-11-18T12:02	11362	236			254	11
2025-11-18T12:02	11399	235	-44.9			
2025-11-18T12:03	11736	223			247	10
2025-11-18T12:04	12115	210	-50.3			
2025-11-18T12:04	12128	210			270	14
2025-11-18T12:05	12482	199			266	13
2025-11-18T12:06	12854	188			270	12
2025-11-18T12:07	13089	181	-58.2			
2025-11-18T12:07	13261	176			269	10
2025-11-18T12:08	13700	164			269	12
2025-11-18T12:09	13939	158	-64.2			
2025-11-18T12:09	14111	153			273	12
2025-11-18T12:10	14327	148	-66.3			
2025-11-18T12:10	14535	143			277	14
2025-11-18T12:11	14874	135	-69.5			
2025-11-18T12:11	15012	132			270	15
2025-11-18T12:12	15457	122			268	17
2025-11-18T12:13	15860	114	-76.8			
2025-11-18T12:13	15920	113			263	18
2025-11-18T12:14	16308	105			272	18
2025-11-18T12:15	16512	102	-80.4			
2025-11-18T12:15	16712	98			272	18
2025-11-18T12:16	17062	92	-82.0			
2025-11-18T12:16	17147	91			242	9
2025-11-18T12:16	17246	89	-82.0			
2025-11-18T12:17	17392	87	-81.6			
2025-11-18T12:17	17399	87			212	13
2025-11-18T12:17	17674	83	-82.1			
2025-11-18T12:17	17681	83			235	13
2025-11-18T12:18	17858	80	-81.1			
2025-11-18T12:18	17935	79			253	5
2025-11-18T12:19	18087	77			216	7
2025-11-18T12:19	18103	77	-82.6			
2025-11-18T12:19	18257	75	-81.3			
2025-11-18T12:20	18515	71			243	8
2025-11-18T12:20	18584	70	-82.1			
2025-11-18T12:20	18718	69			197	10
2025-11-18T12:20	18853	67	-78.4			
2025-11-18T12:20	18877	67			212	15
2025-11-18T12:21	18964	66	-76.6			
2025-11-18T12:21	19088	64	-74.6			
2025-11-18T12:21	19209	63	-71.1			
2025-11-18T12:21	19275	62			218	9
2025-11-18T12:22	19472	60			232	6
2025-11-18T12:22	19624	59			286	6
2025-11-18T12:22	19716	58	-67.1			
2025-11-18T12:23	19810	57			281	4
2025-11-18T12:23	19874	56	-65.8			
2025-11-18T12:23	19950	56			311	3
2025-11-18T12:24	20368	52			312	3
2025-11-18T12:24	20425	52	-66.4			
2025-11-18T12:25	20595	50			332	2
2025-11-18T12:25	20729	49	-65.1			
2025-11-18T12:25	20778	49			166	3
2025-11-18T12:25	20932	47	-62.2			
2025-11-18T12:26	21000	47			191	5
2025-11-18T12:26	21238	45			243	7
2025-11-18T12:26	21325	45	-60.8			
2025-11-18T12:27	21436	44			199	4
2025-11-18T12:27	21551	43	-59.2			
2025-11-18T12:27	21581	43			247	5
2025-11-18T12:28	21865	41			259	9
2025-11-18T12:28	22112	39			277	6
2025-11-18T12:29	22208	39	-60.5			
2025-11-18T12:29	22325	38			257	4
2025-11-18T12:29	22473	37			232	4
2025-11-18T12:30	22699	36			226	6
2025-11-18T12:30	22842	35	-58.5		259	3
2025-11-18T12:30	22935	34			257	3
2025-11-18T12:31	23117	33			223	8
2025-11-18T12:31	23195	33	-58.0			
2025-11-18T12:32	23526	31			287	5
2025-11-18T12:33	23800	30			270	5
2025-11-18T12:33	23974	29	-54.0			
2025-11-18T12:33	24219	28			208	3
2025-11-18T12:34	24356	28			327	3
2025-11-18T12:34	24542	27			360	7
2025-11-18T12:34	24565	27			2	7
2025-11-18T12:35	24764	26			356	2
2025-11-18T12:35	24915	25			342	4
2025-11-18T12:35	25093	25			346	4
2025-11-18T12:36	25305	24			298	5
2025-11-18T12:36	25388	23	-54.5			
2025-11-18T12:36	25551	23			308	6
2025-11-18T12:37	25843	22			281	6
2025-11-18T12:37	25927	22	-54.1			
2025-11-18T12:38	26144	21			286	5
2025-11-18T12:38	26368	20			264	4
2025-11-18T12:39	26530	20			180	4
2025-11-18T12:39	26666	19			170	5
2025-11-18T12:39	26731	19	-50.1			
2025-11-18T12:39	26871	19			231	3
2025-11-18T12:40	27086	18			191	3
2025-11-18T12:40	27270	18			309	3
2025-11-18T12:41	27534	17			329	7
2025-11-18T12:41	27728	16	-52.5			
2025-11-18T12:41	27887	16			311	3
2025-11-18T12:42	28093	15			211	4
2025-11-18T12:42	28219	15	-54.8			
2025-11-18T12:42	28305	15			218	4
2025-11-18T12:43	28526	14			299	4
2025-11-18T12:43	28795	14			308	1
2025-11-18T12:43	28845	14	-53.2			
2025-11-18T12:44	28943	14			235	3
2025-11-18T12:44	29230	13			239	6
2025-11-18T12:45	29538	12			251	5
2025-11-18T12:46	30083	11			210	12
2025-11-18T12:47	30622	10			240	10
2025-11-18T12:48	30936	10	-52.6			
2025-11-18T12:48	31074	10			244	15
2025-11-18T12:48	31275	9	-50.1		240	19
2025-11-18T23:30	9	1017	28.3	24.9	90	4
2025-11-18T23:30	11	1017	28.4	24.6	0	0
2025-11-18T23:30	35	1014	27.8	23.6		
2025-11-18T23:30	58	1011	26.9	23.2		
2025-11-18T23:30	98	1007			121	3
2025-11-18T23:31	391	974			91	4
2025-11-18T23:31	474	965	22.8	21.4		
2025-11-18T23:32	539	958	22.5	20.2		
2025-11-18T23:32	580	953	22.1	20.7		
2025-11-18T23:32	610	950	21.9	18.1	101	4
2025-11-18T23:32	627	948	22.8	17.7		
2025-11-18T23:33	827	927			89	5
2025-11-18T23:33	898	919	21.2	13.4		
2025-11-18T23:33	1102	897	19.7	12.5		
2025-11-18T23:33	1160	891			91	5
2025-11-18T23:34	1329	874	19.4	4.7		
2025-11-18T23:34	1436	863	19.3	4.6	51	4
2025-11-18T23:35	1579	849	18.7	2.1		
2025-11-18T23:35	1669	840			51	5
2025-11-18T23:35	1733	834	18.0	-1.3		
2025-11-18T23:35	1774	830	18.1	-3.4		
2025-11-18T23:35	1809	826			82	3
2025-11-18T23:35	1821	825	17.9	-5.4		
2025-11-18T23:36	1884	819	17.3	-1.4		
2025-11-18T23:36	1930	815			59	3
2025-11-18T23:36	2061	802	16.9	-2.2		
2025-11-18T23:36	2073	801			136	3
2025-11-18T23:36	2107	798	16.5	4.8		
2025-11-18T23:37	2240	786			128	3
2025-11-18T23:37	2354	775	14.4	5.7		
2025-11-18T23:37	2404	771			61	2
2025-11-18T23:37	2492	763	14.0	3.7		
2025-11-18T23:38	2553	757	13.9	0.2		
2025-11-18T23:38	2686	745	13.3	-3.9		
2025-11-18T23:38	2716	743			217	1
2025-11-18T23:38	2733	741	13.4	-6.2		
2025-11-18T23:38	2856	730			351	3
2025-11-18T23:38	2867	729	12.8	0.2		
2025-11-18T23:39	2962	721			334	2
2025-11-18T23:39	3006	717	12.3	-4.8		
2025-11-18T23:39	3072	712			319	3
2025-11-18T23:39	3172	703			353	6
2025-11-18T23:40	3253	696	10.0	-5.9		
2025-11-18T23:40	3389	685			332	3
2025-11-18T23:40	3515	675	8.2	-14.7		
2025-11-18T23:41	3613	667			257	4
2025-11-18T23:41	3654	663	8.7	-34.3		
2025-11-18T23:41	3737	657	8.2	-25.7		
2025-11-18T23:41	3795	652	8.2	-9.7		
2025-11-18T23:41	3829	649	7.8	-5.3		
2025-11-18T23:41	3869	646			240	7
2025-11-18T23:41	3909	643	7.4	-11.9		
2025-11-18T23:42	3968	639	7.3	-23.6		
2025-11-18T23:42	4030	634	6.6	-11.1		
2025-11-18T23:42	4135	626	5.8	-8.1		
2025-11-18T23:42	4218	619			231	6
2025-11-18T23:42	4224	619	5.0	-8.5		
2025-11-18T23:43	4334	610	4.3	-7.8		
2025-11-18T23:43	4501	598	3.6	-10.1		
2025-11-18T23:43	4563	594			225	8
2025-11-18T23:43	4574	593	3.7	-17.2		
2025-11-18T23:44	4788	577	1.8	-16.2		
2025-11-18T23:44	4876	571			215	7
2025-11-18T23:44	4929	567	1.4	-23.2		
2025-11-18T23:45	5095	556	0.4	-16.0		
2025-11-18T23:45	5231	546			211	9
2025-11-18T23:45	5301	541	-1.3	-19.8		
2025-11-18T23:46	5577	523			206	10
2025-11-18T23:46	5583	522	-2.8	-19.7		
2025-11-18T23:47	5706	514	-3.7	-20.4		
2025-11-18T23:47	5806	508	-4.5	-23.0		
2025-11-18T23:47	5913	501			200	12
2025-11-18T23:48	6070	491	-6.7	-24.4		
2025-11-18T23:48	6145	486	-7.3	-23.1		
2025-11-18T23:48	6261	479			196	10
2025-11-18T23:48	6272	479	-8.5	-21.6		
2025-11-18T23:49	6391	471	-8.5	-25.5		
2025-11-18T23:49	6590	459	-9.4	-32.8		
2025-11-18T23:49	6601	459			225	10
2025-11-18T23:50	6694	453	-9.4	-37.7		
2025-11-18T23:50	6956	438			215	10
2025-11-18T23:51	7075	431	-12.6	-38.0		
2025-11-18T23:51	7218	423			201	12
2025-11-18T23:52	7567	404			217	9
2025-11-18T23:52	7607	402	-16.9	-40.5		
2025-11-18T23:53	7915	386			241	10
2025-11-18T23:54	8211	371	-22.2	-42.5		
2025-11-18T23:54	8278	367			256	10
2025-11-18T23:55	8635	350			240	9
2025-11-18T23:55	8676	348	-26.2	-44.6		
2025-11-18T23:56	8974	334			233	10
2025-11-18T23:57	9220	322	-30.7	-43.0		
2025-11-18T23:57	9312	318	-31.1	-41.3		
2025-11-18T23:57	9318	318			243	7
2025-11-18T23:57	9354	316	-30.7	-37.2		
2025-11-18T23:57	9457	312	-30.9	-38.3		
2025-11-18T23:58	9629	304			240	6
2025-11-18T23:58	9777	298	-32.7	-44.4		
2025-11-18T23:59	10005	288			241	6
2025-11-18T23:59	10212	280	-36.4	-47.2		
2025-11-19T00:00	10390	273			244	7
2025-11-19T00:00	10565	266	-38.9	-60.8		
2025-11-19T00:00	10615	264			267	10
2025-11-19T00:01	10696	261	-40.0	-61.7		
2025-11-19T00:01	10996	250			260	7
2025-11-19T00:02	11368	236			261	10
2025-11-19T00:03	11756	223			258	10
2025-11-19T00:04	12112	211	-51.0		253	10
2025-11-19T00:05	12485	199			253	11
2025-11-19T00:06	12863	188			250	13
2025-11-19T00:07	13229	177			259	14
2025-11-19T00:08	13609	167			265	17
2025-11-19T00:09	13752	163	-62.8			
2025-11-19T00:09	13998	156			262	17
2025-11-19T00:10	14355	148	-66.9			
2025-11-19T00:10	14381	147			261	17
2025-11-19T00:11	14775	138			255	17
2025-11-19T00:12	15156	129	-72.5			
2025-11-19T00:12	15226	127			252	17
2025-11-19T00:13	15657	118			258	18
2025-11-19T00:13	15670	118	-76.1			
2025-11-19T00:14	16097	110			258	19
2025-11-19T00:15	16174	108	-78.2			
2025-11-19T00:15	16533	102			270	19
2025-11-19T00:16	16837	96	-82.1			
2025-11-19T00:16	16960	94			271	16
2025-11-19T00:17	17185	90	-82.1			
2025-11-19T00:17	17374	87			233	16
2025-11-19T00:18	17486	86	-84.1			
2025-11-19T00:18	17653	83	-80.6			
2025-11-19T00:18	17717	82			270	15
2025-11-19T00:19	17994	78			260	10
2025-11-19T00:19	18028	78	-81.0			
2025-11-19T00:20	18227	75	-79.2			
2025-11-19T00:20	18361	73			236	8
2025-11-19T00:20	18619	70	-77.8		268	8
2025-11-19T00:21	18723	69	-75.6			
2025-11-19T00:21	18938	66	-73.4			
2025-11-19T00:21	18964	66			305	4
2025-11-19T00:22	19145	64	-73.3			
2025-11-19T00:22	19164	64			257	2
2025-11-19T00:22	19275	63			191	3
2025-11-19T00:22	19388	61	-71.4			
2025-11-19T00:23	19445	61			236	3
2025-11-19T00:23	19505	60	-69.7			
2025-11-19T00:23	19728	58			351	3
2025-11-19T00:24	19849	57			55	1
2025-11-19T00:24	20052	55	-69.8			
2025-11-19T00:24	20086	55			170	3
2025-11-19T00:25	20332	52	-68.9			
2025-11-19T00:25	20355	52			189	10
2025-11-19T00:26	20674	50	-66.6			
2025-11-19T00:26	20700	49			196	9
2025-11-19T00:26	20930	48	-61.9			
2025-11-19T00:26	20969	47			279	8
2025-11-19T00:27	21359	44			345	3
2025-11-19T00:27	21372	44	-61.3			
2025-11-19T00:28	21528	43			259	4
2025-11-19T00:28	21643	42	-61.2			
2025-11-19T00:28	21660	42			273	4
2025-11-19T00:28	21823	41			348	4
2025-11-19T00:29	21868	41			358	4
2025-11-19T00:29	21885	41			1	4
2025-11-19T00:29	22009	40			39	2
2025-11-19T00:29	22233	39	-59.4			
2025-11-19T00:30	22448	37			175	2
2025-11-19T00:31	22778	35			176	2
2025-11-19T00:31	22883	35	-58.2		211	3
2025-11-19T00:31	22992	34			256	5
2025-11-19T00:32	23203	33			268	3
2025-11-19T00:32	23437	32			148	1
2025-11-19T00:33	23594	31			162	4
2025-11-19T00:34	23948	29			192	3
2025-11-19T00:34	24083	29	-57.0			
2025-11-19T00:34	24264	28	-55.8			
2025-11-19T00:35	24398	27			360	1
2025-11-19T00:35	24635	26			107	3
2025-11-19T00:35	24657	26	-57.5			
2025-11-19T00:36	24828	26			152	2
2025-11-19T00:36	24955	25			283	3
2025-11-19T00:36	25109	24			286	2
2025-11-19T00:37	25427	23			355	1
2025-11-19T00:37	25452	23	-54.7			
2025-11-19T00:37	25677	22			18	3
2025-11-19T00:38	25853	22			30	2
2025-11-19T00:38	26038	21			69	3
2025-11-19T00:39	26284	20			34	1
2025-11-19T00:39	26413	20	-52.1			
2025-11-19T00:40	26580	19			310	5
2025-11-19T00:40	26748	19			324	4
2025-11-19T00:40	26921	18	-51.5		17	3
2025-11-19T00:41	27101	18			330	3
2025-11-19T00:41	27322	17	-50.6			
2025-11-19T00:42	27554	17			316	1
2025-11-19T00:42	27793	16			232	4
2025-11-19T00:42	27876	16	-48.9			
2025-11-19T00:43	28214	15			170	4
2025-11-19T00:44	28343	15	-49.5			
2025-11-19T00:44	28390	15			210	5
2025-11-19T00:44	28572	14			272	6
2025-11-19T00:45	29047	13	-48.9		226	6
2025-11-19T00:46	29458	13			214	11
2025-11-19T00:47	29887	12	-51.0		229	13
2025-11-19T00:48	30345	11			249	14
2025-11-19T00:48	30592	11			243	11
2025-11-19T00:49	30843	10			251	14
2025-11-19T00:49	30909	10	-53.0			
2025-11-19T00:50	31232	10			232	12
2025-11-19T00:50	31369	9	-54.7			
2025-11-19T00:51	31584	9			255	14
2025-11-19T00:51	31654	9	-54.1			
2025-11-19T00:52	32024	8	-54.3		229	16
2025-11-19T00:52	32178	8	-52.2			
2025-11-19T00:53	32586	8			256	17
2025-11-19T00:53	32668	8	-52.0			
2025-11-19T00:54	32998	7	-49.9		256	22
2025-11-19T11:30	9	1018	26.9	24.0	50	4
2025-11-19T11:30	24	1016	26.6	22.9	52	9
2025-11-19T11:31	358	978	24.2	21.1		
2025-11-19T11:31	453	968			46	8
2025-11-19T11:32	639	947	21.7	19.3		
2025-11-19T11:32	717	939	22.8	13.0		
2025-11-19T11:32	782	932			65	11
2025-11-19T11:32	827	927	22.5	10.3		
2025-11-19T11:33	1018	907	21.6	8.5		
2025-11-19T11:33	1123	896			67	9
2025-11-19T11:33	1207	887	20.8	2.6		
2025-11-19T11:34	1370	871	19.4	2.3		
2025-11-19T11:34	1429	864	19.1	2.9		
2025-11-19T11:34	1483	859	18.8	1.3	66	8
2025-11-19T11:34	1589	849	17.9	11.0		
2025-11-19T11:34	1641	843	17.5	8.4		
2025-11-19T11:35	1681	839	17.5	7.3		
2025-11-19T11:35	1727	835	17.5	6.4		
2025-11-19T11:35	1815	827	17.8	-0.9		
2025-11-19T11:35	1832	825			76	7
2025-11-19T11:35	1962	812	16.5	4.5		
2025-11-19T11:36	2052	804			82	6
2025-11-19T11:36	2124	797	16.3	2.0		
2025-11-19T11:36	2297	781	15.7	0.3		
2025-11-19T11:37	2399	772			122	5
2025-11-19T11:37	2501	762	14.4	1.7		
2025-11-19T11:37	2564	757	14.6	-6.3		
2025-11-19T11:38	2715	743			149	4
2025-11-19T11:38	2792	737	13.7	-11.7		
2025-11-19T11:38	2935	724	12.8	-3.9		
2025-11-19T11:38	2946	723			143	8
2025-11-19T11:39	3147	706	12.5	-22.5		
2025-11-19T11:39	3245	698			169	5
2025-11-19T11:39	3302	693	11.3	-10.3		
2025-11-19T11:39	3343	690	11.0	-3.9		
2025-11-19T11:39	3377	687	10.6	0.6		
2025-11-19T11:40	3572	671	9.3	-1.7		
2025-11-19T11:40	3589	669			221	6
2025-11-19T11:40	3701	661	8.4	-2.8		
2025-11-19T11:41	3754	656	8.4	-7.4		
2025-11-19T11:41	3891	645			238	6
2025-11-19T11:41	4016	636	6.2	-5.2		
2025-11-19T11:42	4105	629	5.4	-4.7		
2025-11-19T11:42	4116	628			222	5
2025-11-19T11:42	4193	622	5.1	-7.7		
2025-11-19T11:42	4308	613			240	5
2025-11-19T11:42	4313	613	4.7	-11.4		
2025-11-19T11:43	4516	598	2.8	-5.1		
2025-11-19T11:43	4574	593	2.6	-6.0		
2025-11-19T11:43	4586	593			236	7
2025-11-19T11:43	4675	586	2.1	-7.0		
2025-11-19T11:43	4736	582	2.3	-16.2		
2025-11-19T11:44	4861	573			239	9
2025-11-19T11:44	4879	571	2.0	-20.5		
2025-11-19T11:44	4978	564	1.4	-25.0		
2025-11-19T11:44	5077	557			242	12
2025-11-19T11:44	5112	555	0.6	-21.0		
2025-11-19T11:45	5436	533			222	12
2025-11-19T11:46	5519	527	-2.1	-33.4		
2025-11-19T11:46	5729	513	-4.1	-24.3		
2025-11-19T11:46	5794	509			212	11
2025-11-19T11:47	6029	494	-6.6	-22.5		
2025-11-19T11:47	6092	490	-7.3	-19.8		
2025-11-19T11:47	6139	487			225	10
2025-11-19T11:47	6186	484	-7.8	-24.0		
2025-11-19T11:48	6424	470	-8.9	-31.6		
2025-11-19T11:48	6496	465			220	10
2025-11-19T11:49	6610	459	-9.6	-30.1		
2025-11-19T11:49	6677	455	-10.1	-26.0		
2025-11-19T11:49	6804	447	-11.0	-29.1		
2025-11-19T11:49	6858	444			214	10
2025-11-19T11:50	7088	431	-13.2	-32.6		
2025-11-19T11:50	7176	426			225	10
2025-11-19T11:50	7251	422	-14.3	-39.3		
2025-11-19T11:51	7535	406			226	9
2025-11-19T11:52	7879	388			230	7
2025-11-19T11:53	8055	379	-21.0	-43.0		
2025-11-19T11:53	8235	370			252	7
2025-11-19T11:54	8406	361	-23.3	-43.4		
2025-11-19T11:54	8430	360			238	9
2025-11-19T11:54	8529	355	-23.4	-42.9		
2025-11-19T11:55	8807	342			221	8
2025-11-19T11:55	8866	339	-26.0	-43.9		
2025-11-19T11:55	8974	334	-26.5	-44.9		
2025-11-19T11:55	9075	329			225	12
2025-11-19T11:56	9461	312			233	10
2025-11-19T11:57	9543	308	-31.1	-46.7		
2025-11-19T11:57	9843	295			246	9
2025-11-19T11:57	9850	295	-33.4	-47.9		
2025-11-19T11:58	9962	290	-33.5	-50.7		
2025-11-19T11:58	10115	284	-34.6	-50.7		
2025-11-19T11:58	10155	283			238	9
2025-11-19T11:59	10476	270			241	11
2025-11-19T12:00	10740	260	-39.4	-56.8		
2025-11-19T12:00	10811	257	-40.0	-57.3		
2025-11-19T12:00	10878	255			252	11
2025-11-19T12:01	11274	240			261	10
2025-11-19T12:02	11651	227			262	10
2025-11-19T12:02	11856	220	-48.3			
2025-11-19T12:03	12035	214			260	10
2025-11-19T12:04	12447	201			248	10
2025-11-19T12:04	12670	194	-55.3			
2025-11-19T12:05	12880	188			262	11
2025-11-19T12:06	13228	178			252	15
2025-11-19T12:06	13374	173	-60.6			
2025-11-19T12:06	13509	170			263	16
2025-11-19T12:07	13927	159	-63.9		273	17
2025-11-19T12:08	14365	148			274	18
2025-11-19T12:09	14795	137			260	19
2025-11-19T12:10	15118	130	-70.7			
2025-11-19T12:10	15215	128			249	19
2025-11-19T12:11	15637	119			249	20
2025-11-19T12:12	15826	115	-73.5			
2025-11-19T12:12	16066	111			260	19
2025-11-19T12:13	16315	106	-76.7			
2025-11-19T12:13	16519	102			276	19
2025-11-19T12:14	16612	101	-78.8			
2025-11-19T12:14	16876	96			269	13
2025-11-19T12:15	17122	92	-81.9			
2025-11-19T12:15	17306	89			261	11
2025-11-19T12:15	17321	89	-82.7			
2025-11-19T12:16	17529	86	-83.1			
2025-11-19T12:16	17647	84			266	16
2025-11-19T12:16	17716	83	-83.2			
2025-11-19T12:16	17792	82			264	13
2025-11-19T12:17	17926	80			222	9
2025-11-19T12:17	18000	79	-80.5			
2025-11-19T12:17	18142	77			219	11
2025-11-19T12:17	18149	77	-80.1			
2025-11-19T12:18	18349	74	-79.7			
2025-11-19T12:18	18541	71			266	10
2025-11-19T12:19	18729	69			242	7
2025-11-19T12:19	18744	69	-79.6			
2025-11-19T12:19	18869	67	-78.6			
2025-11-19T12:19	18893	67			208	9
2025-11-19T12:20	19084	65	-78.3		211	7
2025-11-19T12:20	19191	64	-76.4			
2025-11-19T12:20	19238	63			253	5
2025-11-19T12:20	19377	62	-72.9			
2025-11-19T12:21	19444	61			278	5
2025-11-19T12:21	19463	61	-69.4			
2025-11-19T12:21	19739	58			226	8
2025-11-19T12:22	19842	57	-65.6			
2025-11-19T12:22	19948	56			239	8
2025-11-19T12:22	20137	54	-65.4			
2025-11-19T12:23	20180	54			299	9
2025-11-19T12:23	20400	52			325	5
2025-11-19T12:23	20427	52	-62.3			
2025-11-19T12:24	20844	49	-63.2		72	7
2025-11-19T12:25	21289	45			172	7
2025-11-19T12:26	21511	44	-61.5			
2025-11-19T12:26	21641	43			202	4
2025-11-19T12:27	21881	41	-59.9		183	9
2025-11-19T12:27	22290	38			273	8
2025-11-19T12:28	22610	37			287	5
2025-11-19T12:29	22748	36			257	4
2025-11-19T12:29	22962	35			315	5
2025-11-19T12:29	23019	34	-58.3			
2025-11-19T12:29	23090	34			360	6
2025-11-19T12:29	23112	34			1	7
2025-11-19T12:30	23456	32			336	4
2025-11-19T12:30	23518	32	-56.9			
2025-11-19T12:30	23599	31			307	3
2025-11-19T12:31	23865	30	-56.1			
2025-11-19T12:31	23910	30			30	4
2025-11-19T12:32	24262	28			35	9
2025-11-19T12:33	24628	27			55	2
2025-11-19T12:33	24893	25	-59.4			
2025-11-19T12:34	24920	25			310	3
2025-11-19T12:34	25071	25			348	7
2025-11-19T12:35	25362	24			354	6
2025-11-19T12:35	25526	23	-53.9			
2025-11-19T12:35	25553	23			356	4
2025-11-19T12:35	25580	23			2	4
2025-11-19T12:36	25960	22	-52.0			
2025-11-19T12:36	25991	21			39	2
2025-11-19T12:37	26367	20			47	3
2025-11-19T12:37	26530	20			6	7
2025-11-19T12:38	26731	19	-50.8			
2025-11-19T12:38	26767	19			15	5
2025-11-19T12:38	27044	18			7	2
2025-11-19T12:39	27333	17			350	3
2025-11-19T12:39	27560	17			285	3
2025-11-19T12:40	27797	16	-52.5		266	4
2025-11-19T12:40	28039	16			329	6
2025-11-19T12:41	28250	15			341	10
2025-11-19T12:42	28597	14			295	6
2025-11-19T12:43	29015	13			292	8
2025-11-19T12:43	29255	13	-54.1			
2025-11-19T12:43	29307	13			305	8
2025-11-19T12:44	29668	12			290	8
2025-11-19T12:44	29831	12			294	10
2025-11-19T12:45	30051	11	-52.1			
2025-11-19T12:45	30168	11			307	10
2025-11-19T12:45	30279	11	-51.2		294	11
2025-11-19T23:30	9	1019	27.3	24.9	100	8
2025-11-19T23:30	12	1018	27.1	24.4	100	1
2025-11-19T23:30	49	1014			120	4
2025-11-19T23:30	138	1004			99	10
2025-11-19T23:31	284	987	24.1	22.2		
2025-11-19T23:31	393	975	24.4	19.5		
2025-11-19T23:31	410	973			96	10
2025-11-19T23:32	669	945	22.8	17.9		
2025-11-19T23:32	723	939			107	16
2025-11-19T23:33	857	925	21.9	17.3		
2025-11-19T23:33	889	922	22.3	17.2		
2025-11-19T23:33	1032	906			99	11
2025-11-19T23:34	1122	897	21.0	16.4		
2025-11-19T23:34	1399	869	18.8	16.2		
2025-11-19T23:34	1412	868			94	9
2025-11-19T23:35	1490	860	19.1	15.0		
2025-11-19T23:35	1615	847	19.3	12.8		
2025-11-19T23:35	1780	831			79	6
2025-11-19T23:36	2106	800			69	7
2025-11-19T23:36	2109	800	14.7	11.3		
2025-11-19T23:37	2204	791	14.4	12.6		
2025-11-19T23:37	2368	776			109	6
2025-11-19T23:37	2479	765	12.3	11.0		
2025-11-19T23:38	2642	751	11.4	9.8		
2025-11-19T23:38	2691	746			104	8
2025-11-19T23:39	2961	723	10.0	9.1		
2025-11-19T23:39	2987	720			93	4
2025-11-19T23:40	3173	705			99	3
2025-11-19T23:40	3303	694	8.0	7.1	115	2
2025-11-19T23:41	3544	674	6.6	5.1		
2025-11-19T23:41	3659	664			185	1
2025-11-19T23:41	3804	653	4.7	3.0		
2025-11-19T23:42	3884	646	3.8	1.5		
2025-11-19T23:42	3909	644	4.5	2.4		
2025-11-19T23:42	3958	640	4.2	2.1		
2025-11-19T23:42	3964	640			174	3
2025-11-19T23:42	4132	627	4.1	3.2		
2025-11-19T23:43	4246	618			139	6
2025-11-19T23:43	4566	594	0.7	-0.9		
2025-11-19T23:44	4621	590			184	8
2025-11-19T23:44	4754	580	-0.9	-7.9		
2025-11-19T23:44	4833	575	-1.6	-14.4		
2025-11-19T23:44	4893	570			215	9
2025-11-19T23:44	4953	566	-2.2	-16.3		
2025-11-19T23:45	4971	565	-2.0	-16.5		
2025-11-19T23:45	5001	563	0.4	-17.4		
2025-11-19T23:45	5098	556	-0.2	-17.4		
2025-11-19T23:45	5242	546	-0.8	-21.6		
2025-11-19T23:45	5254	545			215	9
2025-11-19T23:46	5439	532	-2.4	-22.3		
2025-11-19T23:46	5515	527	-2.8	-21.1		
2025-11-19T23:46	5595	522	-3.1	-23.5		
2025-11-19T23:46	5607	521			220	11
2025-11-19T23:47	5955	499			214	13
2025-11-19T23:47	6013	495	-6.5	-28.2		
2025-11-19T23:48	6258	480			216	12
2025-11-19T23:49	6397	471	-8.8	-34.0		
2025-11-19T23:49	6539	463	-9.3	-31.9		
2025-11-19T23:49	6551	462			212	12
2025-11-19T23:49	6646	456	-10.0	-33.3		
2025-11-19T23:50	6883	442	-11.8	-32.0		
2025-11-19T23:50	6925	440			219	10
2025-11-19T23:50	6954	438	-12.4	-31.3		
2025-11-19T23:50	7084	431	-13.5	-34.0		
2025-11-19T23:51	7284	420			245	9
2025-11-19T23:52	7508	407			245	6
2025-11-19T23:52	7533	406	-17.1	-33.8		
2025-11-19T23:52	7748	394	-18.3	-37.4		
2025-11-19T23:52	7796	392			222	7
2025-11-19T23:53	8090	377	-19.9	-37.7		
2025-11-19T23:53	8175	372			249	9
2025-11-19T23:54	8269	368	-20.5	-38.7		
2025-11-19T23:54	8490	357	-22.5	-38.4		
2025-11-19T23:54	8576	352			258	9
2025-11-19T23:55	8870	339	-25.5	-44.0		
2025-11-19T23:55	8981	333			241	12
2025-11-19T23:55	9023	331	-26.8	-42.2		
2025-11-19T23:56	9190	324	-27.8	-45.9		
2025-11-19T23:56	9358	316			243	11
2025-11-19T23:57	9689	302	-32.2	-46.8		
2025-11-19T23:57	9763	299			252	10
2025-11-19T23:58	10018	288	-34.5	-49.7		
2025-11-19T23:58	10024	288			248	11
2025-11-19T23:59	10411	272			262	11
2025-11-19T23:59	10553	267	-38.7	-54.2		
2025-11-20T00:00	10732	260	-40.0	-54.8		
2025-11-20T00:00	10812	257			264	11
2025-11-20T00:01	11058	248			260	13
2025-11-20T00:01	11276	240			254	10
2025-11-20T00:02	11577	229	-46.1			
2025-11-20T00:02	11643	227			266	11
2025-11-20T00:03	11941	217			262	11
2025-11-20T00:03	11970	216	-48.1			
2025-11-20T00:04	12365	203			273	13
2025-11-20T00:04	12581	197	-53.3			
2025-11-20T00:04	12674	194			279	14
2025-11-20T00:05	13073	182			288	15
2025-11-20T00:06	13491	170			291	16
2025-11-20T00:07	13822	161	-63.4			
2025-11-20T00:07	13884	160			287	12
2025-11-20T00:08	14286	150			263	13
2025-11-20T00:09	14710	139			258	14
2025-11-20T00:10	14936	134	-70.7			
2025-11-20T00:10	15152	129			273	15
2025-11-20T00:11	15347	125	-73.6			
2025-11-20T00:11	15636	119			266	15
2025-11-20T00:11	15652	119	-75.6			
2025-11-20T00:12	16028	111	-77.0			
2025-11-20T00:12	16105	110			257	15
2025-11-20T00:13	16532	102	-79.5			
2025-11-20T00:13	16580	101			258	14
2025-11-20T00:14	16982	94			244	13
2025-11-20T00:15	17069	93	-80.3			
2025-11-20T00:15	17421	87			256	17
2025-11-20T00:16	17804	81	-84.3			
2025-11-20T00:16	17814	81			287	10
2025-11-20T00:17	18057	78			278	7
2025-11-20T00:17	18216	75	-83.2			
2025-11-20T00:17	18231	75			249	8
2025-11-20T00:18	18367	73	-79.8			
2025-11-20T00:18	18441	72			249	10
2025-11-20T00:18	18507	72	-76.4			
2025-11-20T00:19	18823	68	-75.2			
2025-11-20T00:19	18858	67			234	14
2025-11-20T00:20	19260	63	-73.5			
2025-11-20T00:20	19276	63			293	8
2025-11-20T00:20	19364	62	-71.0			
2025-11-20T00:21	19577	60	-71.6			
2025-11-20T00:21	19639	59			278	4
2025-11-20T00:21	19700	58	-68.9			
2025-11-20T00:21	19732	58			315	1
2025-11-20T00:21	19846	57	-67.3			
2025-11-20T00:21	19943	56			39	4
2025-11-20T00:22	20032	55	-64.9			
2025-11-20T00:22	20152	54			100	7
2025-11-20T00:23	20426	52	-67.4			
2025-11-20T00:23	20556	51			122	6
2025-11-20T00:23	20749	49			183	7
2025-11-20T00:24	20839	48	-64.0			
2025-11-20T00:24	21007	47			201	13
2025-11-20T00:24	21176	46			214	10
2025-11-20T00:25	21355	44			272	5
2025-11-20T00:25	21507	43			319	2
2025-11-20T00:26	21682	42			56	3
2025-11-20T00:26	21845	41			83	1
2025-11-20T00:26	21923	41	-63.0			
2025-11-20T00:26	21965	40			283	3
2025-11-20T00:27	22311	38			308	7
2025-11-20T00:27	22327	38	-64.1			
2025-11-20T00:28	22626	36			45	7
2025-11-20T00:28	22693	36	-62.2			
2025-11-20T00:29	23049	34			33	6
2025-11-20T00:29	23219	33			58	4
2025-11-20T00:30	23368	32			78	2
2025-11-20T00:30	23467	32	-60.3			
2025-11-20T00:30	23530	31			350	5
2025-11-20T00:31	23733	30	-58.0			
2025-11-20T00:31	23780	30			6	3
2025-11-20T00:31	23942	29			351	2
2025-11-20T00:32	24129	28	-58.1		64	1
2025-11-20T11:30	9	1018	27.3	26.2	110	4
2025-11-20T11:30	13	1018	27.5	25.9	120	1
2025-11-20T11:30	52	1013			118	4
2025-11-20T11:30	109	1006	26.9	24.6		
2025-11-20T11:31	383	976			126	8
2025-11-20T11:32	583	954	23.1	21.7		
2025-11-20T11:32	717	939			147	8
2025-11-20T11:32	762	934	22.5	18.9		
2025-11-20T11:32	820	928	22.5	18.1		
2025-11-20T11:33	1062	903	21.1	17.1	159	8
2025-11-20T11:34	1345	873	19.8	14.4		
2025-11-20T11:34	1409	867	19.2	15.1	150	9
2025-11-20T11:35	1561	852	17.9	15.2		
2025-11-20T11:35	1666	842	18.0	10.4		
2025-11-20T11:35	1725	836	17.5	14.2		
2025-11-20T11:35	1759	833			152	6
2025-11-20T11:35	1851	824	16.9	12.2		
2025-11-20T11:36	1972	812	16.6	10.0		
2025-11-20T11:36	2107	799			165	7
2025-11-20T11:36	2160	794	16.6	1.1		
2025-11-20T11:37	2237	787	16.3	1.6		
2025-11-20T11:37	2418	771	15.3	0.3		
2025-11-20T11:37	2459	767			163	6
2025-11-20T11:37	2564	757	15.2	-3.2		
2025-11-20T11:38	2739	742			178	8
2025-11-20T11:38	2844	733	13.4	-4.3		
2025-11-20T11:39	2991	720	12.6	-6.9		
2025-11-20T11:39	3050	715	11.9	-2.3		
2025-11-20T11:39	3091	711			171	7
2025-11-20T11:39	3278	695	10.0	-4.8		
2025-11-20T11:40	3360	689			207	4
2025-11-20T11:40	3418	684	9.5	-7.7		
2025-11-20T11:41	3687	662			215	4
2025-11-20T11:41	3797	653	5.9	-8.0		
2025-11-20T11:41	3883	646	5.4	-10.8		
2025-11-20T11:41	3946	641			190	4
2025-11-20T11:42	3998	637	5.6	-12.4		
2025-11-20T11:42	4101	629	4.8	-9.0		
2025-11-20T11:42	4164	624	5.3	-18.5		
2025-11-20T11:42	4289	615			286	5
2025-11-20T11:43	4386	607	3.9	-19.0		
2025-11-20T11:43	4426	604			257	4
2025-11-20T11:44	4730	582	2.5	-31.6		
2025-11-20T11:44	4777	579			255	7
2025-11-20T11:44	4939	567			247	7
2025-11-20T11:45	5056	559			237	8
2025-11-20T11:45	5316	541			237	8
2025-11-20T11:46	5603	521			233	9
2025-11-20T11:47	5787	509	-5.2	-32.1		
2025-11-20T11:47	5955	499			238	10
2025-11-20T11:47	6012	495	-7.0	-31.7		
2025-11-20T11:48	6307	477			226	13
2025-11-20T11:49	6655	456			223	10
2025-11-20T11:49	6735	451	-11.3	-38.0		
2025-11-20T11:50	6947	439	-12.9	-40.4		
2025-11-20T11:50	6990	436			220	10
2025-11-20T11:50	7105	430	-13.8	-43.8		
2025-11-20T11:51	7321	418			208	10
2025-11-20T11:52	7465	410	-16.5	-43.2		
2025-11-20T11:52	7662	399			234	9
2025-11-20T11:52	7680	398	-17.4	-38.6		
2025-11-20T11:53	7875	388			243	5
2025-11-20T11:53	7987	382	-19.1	-40.0		
2025-11-20T11:54	8242	369			232	9
2025-11-20T11:54	8312	366	-21.0	-39.1		
2025-11-20T11:54	8428	360	-21.9	-40.4		
2025-11-20T11:54	8507	356			247	9
2025-11-20T11:55	8684	347			246	9
2025-11-20T11:55	8691	347	-23.5	-49.8		
2025-11-20T11:56	9058	330	-25.7	-51.5		
2025-11-20T11:56	9086	329			252	10
2025-11-20T11:56	9148	326	-25.9	-53.0		
2025-11-20T11:57	9500	311			276	9
2025-11-20T11:57	9514	310	-28.6	-53.8		
2025-11-20T11:58	9906	293			304	15
2025-11-20T11:59	10199	281	-33.9	-57.9		
2025-11-20T11:59	10329	276			293	13
2025-11-20T12:00	10722	261			300	13
2025-11-20T12:00	10876	255	-40.0	-56.8		
2025-11-20T12:01	11130	246			298	17
2025-11-20T12:02	11408	236			293	17
2025-11-20T12:03	11789	223			291	14
2025-11-20T12:03	12080	213	-49.4			
2025-11-20T12:04	12178	210			288	14
2025-11-20T12:05	12577	197			279	13
2025-11-20T12:06	12961	186			278	14
2025-11-20T12:06	13208	179	-58.9			
2025-11-20T12:07	13357	174			283	15
2025-11-20T12:07	13664	166	-61.7			
2025-11-20T12:08	13769	163			279	17
2025-11-20T12:09	14201	152			275	16
2025-11-20T12:09	14391	147	-67.6			
2025-11-20T12:09	14611	142			287	18
2025-11-20T12:11	15082	131			277	18
2025-11-20T12:11	15128	130	-73.4			
2025-11-20T12:11	15346	125	-74.0			
2025-11-20T12:12	15514	122			268	16
2025-11-20T12:12	15837	115	-76.9			
2025-11-20T12:13	15930	113			266	18
2025-11-20T12:13	16076	110	-76.3			
2025-11-20T12:14	16322	106			253	16
2025-11-20T12:14	16594	101			259	16
2025-11-20T12:14	16644	100	-78.6			
2025-11-20T12:15	16793	97	-79.6			
2025-11-20T12:15	17019	94			259	16
2025-11-20T12:15	17065	93	-80.9			
2025-11-20T12:16	17392	88			267	12
2025-11-20T12:17	17642	84	-81.5			
2025-11-20T12:17	17780	82			250	10
2025-11-20T12:18	17982	79	-82.0			
2025-11-20T12:18	18182	76			276	13
2025-11-20T12:19	18303	74	-81.7			
2025-11-20T12:19	18359	74			285	11
2025-11-20T12:19	18413	73	-79.2			
2025-11-20T12:19	18563	71			277	7
2025-11-20T12:20	18761	69	-77.2			
2025-11-20T12:20	18785	68			289	8
2025-11-20T12:20	19005	66			293	8
2025-11-20T12:21	19121	65	-77.9			
2025-11-20T12:21	19209	64	-75.3			
2025-11-20T12:21	19257	63			323	2
2025-11-20T12:21	19357	62	-74.2			
2025-11-20T12:21	19387	62			227	3
2025-11-20T12:22	19628	59	-73.0			
2025-11-20T12:22	19781	58			225	2
2025-11-20T12:23	19907	56	-68.7			
2025-11-20T12:23	19979	56			165	3
2025-11-20T12:24	20246	53			278	4
2025-11-20T12:24	20259	53	-65.9			
2025-11-20T12:24	20385	52			323	3
2025-11-20T12:24	20469	51			357	3
2025-11-20T12:24	20482	51	-63.7			
2025-11-20T12:25	20776	49			344	6
2025-11-20T12:25	20914	48	-62.9			
2025-11-20T12:25	20928	48			24	4
2025-11-20T12:26	21153	46			118	6
2025-11-20T12:26	21232	45	-61.2			
2025-11-20T12:27	21570	43			147	7
2025-11-20T12:28	21804	41			152	3
2025-11-20T12:28	21953	40	-61.6			
2025-11-20T12:28	21969	40			39	3
2025-11-20T12:28	22124	39			63	2
2025-11-20T12:29	22251	39			167	3
2025-11-20T12:29	22465	37			207	3
2025-11-20T12:30	22600	36	-61.1			
2025-11-20T12:30	22687	36			190	3
2025-11-20T12:30	22951	34			279	3
2025-11-20T12:31	23114	34	-60.6			
2025-11-20T12:31	23402	32			325	9
2025-11-20T12:32	23579	31	-60.6			
2025-11-20T12:32	23619	31			360	6
2025-11-20T12:32	23637	31			2	6
2025-11-20T12:33	24078	29			358	7
2025-11-20T12:33	24186	28	-59.8			
2025-11-20T12:34	24412	27	-58.4		352	9
2025-11-20T12:34	24649	26			38	4
2025-11-20T12:35	24845	25			58	1
2025-11-20T12:35	24945	25	-57.6			
2025-11-20T12:35	25125	24			239	4
2025-11-20T12:36	25388	23	-55.7			
2025-11-20T12:36	25474	23			307	5
2025-11-20T12:37	25784	22	-52.8			
2025-11-20T12:37	25940	21			359	5
2025-11-20T12:37	25970	21			1	6
2025-11-20T12:38	26213	21			19	9
2025-11-20T12:38	26465	20			355	4
2025-11-20T12:39	26666	19			294	2
2025-11-20T12:39	26905	18			306	3
2025-11-20T12:40	27156	18			321	7
2025-11-20T12:40	27190	18	-53.7			
2025-11-20T12:41	27530	17			325	9
2025-11-20T12:41	27889	16			304	9
2025-11-20T12:42	27930	16	-52.6			
2025-11-20T12:42	28223	15			277	9
2025-11-20T12:42	28336	15	-53.2		288	11
2025-11-20T23:30	9	1018	28.5	25.7	100	3
2025-11-20T23:30	12	1018	28.1	25.3	118	2
2025-11-20T23:30	31	1016	27.2	24.5		
2025-11-20T23:30	102	1008			91	2
2025-11-20T23:31	200	997			100	3
2025-11-20T23:31	327	982			134	3
2025-11-20T23:31	469	967			121	3
2025-11-20T23:31	486	965	23.6	21.7		
2025-11-20T23:32	640	948			151	2
2025-11-20T23:32	808	930	22.0	18.2		
2025-11-20T23:33	973	913			48	1
2025-11-20T23:34	1207	888	19.8	14.6		
2025-11-20T23:34	1329	876			223	1
2025-11-20T23:34	1483	861	19.1	9.9		
2025-11-20T23:34	1506	858			275	3
2025-11-20T23:35	1581	851	18.7	7.5		
2025-11-20T23:35	1621	847	18.4	9.2		
2025-11-20T23:35	1696	840	18.4	5.3		
2025-11-20T23:35	1772	832			189	4
2025-11-20T23:36	1976	813			189	4
2025-11-20T23:36	2071	803			190	3
2025-11-20T23:36	2172	794			229	3
2025-11-20T23:37	2245	787	15.3	-0.9		
2025-11-20T23:37	2306	781			206	2
2025-11-20T23:37	2422	771	14.6	-2.8		
2025-11-20T23:38	2623	753	13.8	-4.4		
2025-11-20T23:38	2634	752			113	2
2025-11-20T23:38	2684	747	13.9	-3.4		
2025-11-20T23:38	2824	735	13.2	-5.9		
2025-11-20T23:39	2886	729	12.8	-3.9		
2025-11-20T23:39	2970	722			90	2
2025-11-20T23:39	3109	710	11.5	-8.4		
2025-11-20T23:39	3114	710			124	1
2025-11-20T23:39	3194	703			179	3
2025-11-20T23:40	3285	695	10.2	-7.5		
2025-11-20T23:40	3349	690			151	3
2025-11-20T23:40	3453	681			103	2
2025-11-20T23:40	3458	681	9.6	-12.3		
2025-11-20T23:41	3685	662			155	4
2025-11-20T23:41	3752	657	9.6	-24.6		
2025-11-20T23:41	3802	653			187	4
2025-11-20T23:42	4140	627			189	4
2025-11-20T23:42	4169	625	7.0	-28.3		
2025-11-20T23:43	4487	601			204	5
2025-11-20T23:44	4638	590			221	4
2025-11-20T23:44	4757	581			247	5
2025-11-20T23:45	4917	570	2.1	-33.8		
2025-11-20T23:45	4966	566			233	7
2025-11-20T23:46	5294	544			235	9
2025-11-20T23:47	5604	523			234	8
2025-11-20T23:47	5610	523	-3.2	-35.8		
2025-11-20T23:47	5816	509	-4.7	-32.8		
2025-11-20T23:47	5878	505	-5.2	-26.5		
2025-11-20T23:48	5945	501			244	8
2025-11-20T23:48	6134	489	-7.6	-29.1		
2025-11-20T23:48	6196	485	-8.0	-28.8		
2025-11-20T23:48	6253	481	-8.5	-21.2		
2025-11-20T23:49	6287	479			248	8
2025-11-20T23:50	6629	459	-11.1	-25.7		
2025-11-20T23:50	6640	458			230	10
2025-11-20T23:50	6856	445	-13.1	-29.5		
2025-11-20T23:50	6874	444			214	7
2025-11-20T23:50	6951	440	-12.5	-36.1		
2025-11-20T23:51	7235	423			295	4
2025-11-20T23:51	7310	419	-14.6	-37.0		
2025-11-20T23:52	7371	416			293	3
2025-11-20T23:52	7484	410			264	3
2025-11-20T23:52	7619	402			288	2
2025-11-20T23:52	7631	402	-17.3	-37.8		
2025-11-20T23:53	7783	394			215	3
2025-11-20T23:53	7850	390	-18.0	-41.4		
2025-11-20T23:53	7892	388			265	3
2025-11-20T23:53	7987	383			291	3
2025-11-20T23:53	8011	382	-18.9	-39.8		
2025-11-20T23:54	8232	371			305	4
2025-11-20T23:54	8249	370	-21.1	-30.6		
2025-11-20T23:54	8309	367	-21.3	-29.6		
2025-11-20T23:55	8412	362	-20.8	-37.4		
2025-11-20T23:55	8505	357			310	9
2025-11-20T23:55	8518	356	-20.8	-41.4		
2025-11-20T23:56	8888	339			307	7
2025-11-20T23:57	9274	321			291	9
2025-11-20T23:57	9472	312	-29.8	-45.2		
2025-11-20T23:58	9657	304			311	9
2025-11-20T23:58	9891	295	-33.4	-47.1		
2025-11-20T23:59	10061	287			317	17
2025-11-20T23:59	10236	280	-35.1	-53.8		
2025-11-21T00:00	10477	271			309	16
2025-11-21T00:01	10868	256	-40.0	-60.8		
2025-11-21T00:01	10902	255			307	15
2025-11-21T00:02	11315	240			298	13
2025-11-21T00:03	11721	225			290	13
2025-11-21T00:03	11910	219	-48.8			
2025-11-21T00:04	12115	212			276	11
2025-11-21T00:05	12535	199			281	12
2025-11-21T00:05	12631	196	-53.7			
2025-11-21T00:06	12951	186			291	14
2025-11-21T00:07	13351	175			300	15
2025-11-21T00:08	13747	164	-63.3			
2025-11-21T00:08	13760	164			304	16
2025-11-21T00:09	14184	153			308	16
2025-11-21T00:09	14279	150	-67.4			
2025-11-21T00:09	14416	147			301	12
2025-11-21T00:10	14686	140	-69.7			
2025-11-21T00:10	14716	140			276	11
2025-11-21T00:11	15201	129			293	13
2025-11-21T00:11	15258	127	-74.5			
2025-11-21T00:12	15615	120	-77.4		296	17
2025-11-21T11:30	9	1017	27.0	24.7	50	3
2025-11-21T11:30	12	1017	27.2	24.3	70	2
2025-11-21T11:30	50	1013			47	6
2025-11-21T11:30	60	1012	27.2	23.0		
2025-11-21T11:31	376	976			57	5
2025-11-21T11:32	504	962	23.1	21.4		
2025-11-21T11:32	611	950	22.8	19.2		
2025-11-21T11:32	700	940			75	6
2025-11-21T11:33	824	927	21.5	17.9		
2025-11-21T11:33	893	920			66	6
2025-11-21T11:33	1074	901	19.7	16.5		
2025-11-21T11:34	1210	887			69	6
2025-11-21T11:34	1340	873	18.5	13.6		
2025-11-21T11:35	1475	860			62	7
2025-11-21T11:35	1538	854	17.5	10.9		
2025-11-21T11:35	1628	845	17.7	7.2		
2025-11-21T11:35	1700	838			38	5
2025-11-21T11:36	1852	823			64	3
2025-11-21T11:36	1891	819	16.6	4.0		
2025-11-21T11:36	2009	808			57	4
2025-11-21T11:37	2161	793	15.5	-1.6		
2025-11-21T11:37	2348	776			107	6
2025-11-21T11:37	2447	767	14.2	-1.4		
2025-11-21T11:38	2523	760	14.1	-0.4		
2025-11-21T11:38	2676	746			111	7
2025-11-21T11:38	2755	739	12.7	-0.2		
2025-11-21T11:39	2837	732	12.6	-3.3		
2025-11-21T11:39	2849	731			98	6
2025-11-21T11:39	2943	723	12.3	-7.2		
2025-11-21T11:39	2967	721			86	6
2025-11-21T11:39	3108	709	11.4	-6.5		
2025-11-21T11:39	3132	707			98	7
2025-11-21T11:40	3213	700	11.3	-9.7		
2025-11-21T11:40	3370	687	10.2	-13.8		
2025-11-21T11:40	3468	679			81	5
2025-11-21T11:41	3702	660	9.0	-23.6	92	3
2025-11-21T11:42	3864	647			48	2
2025-11-21T11:42	4092	629			152	4
2025-11-21T11:43	4332	611			181	4
2025-11-21T11:43	4369	608	4.9	-29.8		
2025-11-21T11:44	4558	594			190	5
2025-11-21T11:45	4878	571	2.3	-42.6		
2025-11-21T11:45	4883	571			193	7
2025-11-21T11:46	5210	548			204	8
2025-11-21T11:46	5283	543	-0.2	-30.6		
2025-11-21T11:47	5529	527			200	5
2025-11-21T11:47	5736	513			215	8
2025-11-21T11:47	5758	512	-4.4	-27.9		
2025-11-21T11:48	5885	503	-5.4	-30.4		
2025-11-21T11:48	6052	493	-6.5	-35.4		
2025-11-21T11:48	6068	492			217	8
2025-11-21T11:49	6205	483	-7.8	-27.5		
2025-11-21T11:49	6260	480	-8.3	-20.7		
2025-11-21T11:49	6398	471			218	9
2025-11-21T11:50	6487	466	-10.4	-21.7		
2025-11-21T11:50	6585	460	-11.0	-23.2		
2025-11-21T11:50	6596	459			234	11
2025-11-21T11:50	6706	453	-11.9	-24.6		
2025-11-21T11:50	6750	450			221	9
2025-11-21T11:51	6784	448	-11.0	-34.9		
2025-11-21T11:51	6919	440			197	9
2025-11-21T11:51	6930	440	-9.9	-50.8		
2025-11-21T11:52	7254	422			172	7
2025-11-21T11:52	7305	419	-12.4	-34.5		
2025-11-21T11:52	7442	411			172	7
2025-11-21T11:53	7460	410	-14.0	-29.8		
2025-11-21T11:53	7805	392			155	5
2025-11-21T11:54	7830	391	-17.4	-30.2		
2025-11-21T11:54	7950	384			130	3
2025-11-21T11:54	8020	381	-18.9	-34.5		
2025-11-21T11:54	8096	377	-19.3	-31.9		
2025-11-21T11:54	8166	373	-18.6	-39.6		
2025-11-21T11:55	8211	371			208	7
2025-11-21T11:55	8263	369	-18.7	-41.9		
2025-11-21T11:56	8603	352			216	8
2025-11-21T11:56	8755	345	-22.4	-45.8		
2025-11-21T11:56	8827	342			252	8
2025-11-21T11:57	9212	324			276	10
2025-11-21T11:57	9364	317	-27.5	-47.6		
2025-11-21T11:58	9527	310	-28.6	-50.8		
2025-11-21T11:58	9611	306			287	11
2025-11-21T11:59	9800	298	-31.0	-52.7		
2025-11-21T11:59	9989	291			282	11
2025-11-21T12:00	10393	274			281	11
2025-11-21T12:01	10775	260	-38.1	-62.4		
2025-11-21T12:01	10817	258			299	14
2025-11-21T12:01	10973	252	-40.0	-61.7		
2025-11-21T12:02	11214	243			305	14
2025-11-21T12:03	11468	234	-44.3			
2025-11-21T12:03	11596	230			297	13
2025-11-21T12:04	11990	217			278	12
2025-11-21T12:05	12169	211	-49.0			
2025-11-21T12:05	12386	204			283	12
2025-11-21T12:06	12785	192			280	13
2025-11-21T12:07	13198	180			287	15
2025-11-21T12:08	13531	170	-60.4			
2025-11-21T12:08	13593	169			290	17
2025-11-21T12:09	14025	157			291	18
2025-11-21T12:09	14102	155	-64.9			
2025-11-21T12:10	14451	147			282	18
2025-11-21T12:11	14654	142	-69.3			
2025-11-21T12:11	14890	136			286	18
2025-11-21T12:12	15324	126			290	17
2025-11-21T12:13	15770	117	-77.4		282	16
2025-11-21T12:14	16094	111			292	15
2025-11-21T12:15	16462	104	-81.1			
2025-11-21T12:15	16521	103			274	14
2025-11-21T12:15	16702	99	-81.5			
2025-11-21T12:15	16752	98			276	16
2025-11-21T12:16	16887	96	-80.2			
2025-11-21T12:16	16952	95			269	12
2025-11-21T12:16	17140	92	-81.1			
2025-11-21T12:17	17288	90	-80.4			
2025-11-21T12:17	17395	88			251	11
2025-11-21T12:17	17539	86	-81.4			
2025-11-21T12:18	17815	81			266	15
2025-11-21T12:18	17951	80	-83.1			
2025-11-21T12:19	18125	77			277	7
2025-11-21T12:19	18249	75	-82.7			
2025-11-21T12:19	18347	74			198	8
2025-11-21T12:19	18398	73	-81.9			
2025-11-21T12:19	18469	72			202	10
2025-11-21T12:20	18677	70			256	7
2025-11-21T12:20	18702	70	-79.2			
2025-11-21T12:21	18901	67	-75.5			
2025-11-21T12:21	18980	66			238	4
2025-11-21T12:22	19241	63			280	5
2025-11-21T12:22	19369	62	-75.9			
2025-11-21T12:22	19378	62			281	2
2025-11-21T12:22	19454	61	-74.3			
2025-11-21T12:23	19716	58	-73.6			
2025-11-21T12:23	19737	58			146	2
2025-11-21T12:24	19942	56	-70.8			
2025-11-21T12:24	20062	55			166	1
2025-11-21T12:24	20139	54	-67.7			
2025-11-21T12:24	20161	54			190	3
2025-11-21T12:25	20374	52			207	4
2025-11-21T12:25	20400	52	-66.8			
2025-11-21T12:25	20519	51	-65.8		215	1
2025-11-21T12:25	20648	50			46	3
2025-11-21T12:26	20783	49			32	2
2025-11-21T12:27	21178	46	-65.8			
2025-11-21T12:27	21194	46			336	3
2025-11-21T12:27	21414	44			39	4
2025-11-21T12:28	21611	43			47	5
2025-11-21T12:28	21760	42			57	5
2025-11-21T12:28	21805	41	-61.5			
2025-11-21T12:29	22078	40			32	8
2025-11-21T12:30	22451	37			68	10
2025-11-21T12:31	22880	35			133	6
2025-11-21T12:31	23006	34			170	2
2025-11-21T12:31	23114	33			289	3
2025-11-21T12:31	23155	33	-62.0			
2025-11-21T12:32	23518	31			344	2
2025-11-21T12:33	23826	30			334	2
2025-11-21T12:33	24038	29			300	4
2025-11-21T12:34	24060	29	-57.9			
2025-11-21T12:34	24332	28	-55.8			
2025-11-21T12:34	24446	27			339	6
2025-11-21T12:35	24711	26			354	9
2025-11-21T12:35	24832	25	-57.2			
2025-11-21T12:35	24885	25			359	6
2025-11-21T12:35	24909	25			3	7
2025-11-21T12:36	25272	24			45	5
2025-11-21T12:37	25378	23			84	3
2025-11-21T12:37	25490	23	-56.3		159	3
2025-11-21T12:37	25659	22			192	3
2025-11-21T12:38	25888	22			208	3
2025-11-21T12:38	25979	21	-56.0			
2025-11-21T12:38	26009	21			247	2
2025-11-21T12:38	26097	21			284	3
2025-11-21T12:38	26190	21			261	2
2025-11-21T12:39	26413	20			186	2
2025-11-21T12:39	26513	20	-54.0			
2025-11-21T12:40	26711	19			184	5
2025-11-21T12:40	26888	18	-52.2			
2025-11-21T12:40	26910	18	-51.8		210	6
2025-11-21T23:30	9	1017	28.8	25.2	100	6
2025-11-21T23:30	12	1017	28.4	24.6	125	2
2025-11-21T23:30	38	1014	26.9	23.0		
2025-11-21T23:30	59	1011			104	7
2025-11-21T23:31	324	982	24.3	21.4		
2025-11-21T23:31	378	976	25.2	17.2		
2025-11-21T23:31	402	973			112	8
2025-11-21T23:32	538	958	24.4	16.4		
2025-11-21T23:32	691	941	23.9	14.0		
2025-11-21T23:32	756	934			104	7
2025-11-21T23:32	768	933	23.1	16.6		
2025-11-21T23:33	929	916	22.0	15.8		
2025-11-21T23:33	1111	897			88	4
2025-11-21T23:34	1272	881	20.1	11.6		
2025-11-21T23:34	1373	871	19.6	9.5		
2025-11-21T23:34	1457	862	19.3	7.1		
2025-11-21T23:34	1469	861			107	4
2025-11-21T23:34	1522	856	19.1	4.1		
2025-11-21T23:35	1668	841	18.3	4.1		
2025-11-21T23:35	1816	827			120	7
2025-11-21T23:36	2011	808	16.8	1.3		
2025-11-21T23:36	2182	792			136	10
2025-11-21T23:37	2465	766	13.5	1.5		
2025-11-21T23:37	2544	759			125	10
2025-11-21T23:38	2721	743	12.3	0.1		
2025-11-21T23:38	2782	737	11.9	0.9		
2025-11-21T23:38	2907	727			107	10
2025-11-21T23:38	2936	724	11.2	-1.6		
2025-11-21T23:38	3000	719	11.4	-2.8		
2025-11-21T23:39	3086	711	11.2	-5.3		
2025-11-21T23:39	3138	707			136	10
2025-11-21T23:39	3247	698	10.9	-14.0		
2025-11-21T23:40	3376	687			139	8
2025-11-21T23:40	3513	676	10.4	-24.0		
2025-11-21T23:40	3585	670			151	4
2025-11-21T23:41	3778	654	8.8	-34.2		
2025-11-21T23:41	3944	641			168	8
2025-11-21T23:41	4048	633	7.1	-45.9		
2025-11-21T23:42	4242	618	6.2	-46.5		
2025-11-21T23:42	4289	615			188	8
2025-11-21T23:43	4584	593			217	9
2025-11-21T23:43	4642	589	4.3	-41.3		
2025-11-21T23:44	4935	568			230	9
2025-11-21T23:45	5196	550			221	8
2025-11-21T23:45	5325	541	-1.6	-36.5		
2025-11-21T23:46	5552	525			237	9
2025-11-21T23:47	5906	502			227	11
2025-11-21T23:47	5959	499	-6.3	-39.9		
2025-11-21T23:48	6218	482	-7.7	-36.4		
2025-11-21T23:48	6236	481			222	10
2025-11-21T23:48	6327	476	-8.6	-29.3		
2025-11-21T23:49	6606	459			237	8
2025-11-21T23:50	6985	437			239	9
2025-11-21T23:50	7240	422	-17.1	-30.6	248	9
2025-11-21T23:50	7305	418	-16.4	-36.4		
2025-11-21T23:51	7353	416	-16.1	-39.9		
2025-11-21T23:51	7389	414			208	12
2025-11-21T23:51	7419	412	-15.1	-46.4		
2025-11-21T23:51	7486	408	-14.8	-48.2		
2025-11-21T23:51	7548	405	-13.2	-58.7		
2025-11-21T23:51	7658	399			195	16
2025-11-21T23:52	7689	398	-13.3	-53.1		
2025-11-21T23:52	8026	380			208	15
2025-11-21T23:53	8214	371	-17.6	-48.3		
2025-11-21T23:53	8226	370			204	14
2025-11-21T23:54	8601	352			217	11
2025-11-21T23:55	8972	335			229	9
2025-11-21T23:56	9298	320			243	7
2025-11-21T23:56	9474	312	-28.4	-49.0		
2025-11-21T23:56	9493	312			251	9
2025-11-21T23:57	9754	300	-30.3	-53.0		
2025-11-21T23:57	9774	300			282	7
2025-11-21T23:58	10044	288			274	11
2025-11-21T23:59	10453	272			255	10
2025-11-21T23:59	10686	263	-38.4	-59.5		
2025-11-22T00:00	10859	256	-40.0	-62.7		
2025-11-22T00:00	10866	256			257	9
2025-11-22T00:01	11280	241			261	11
2025-11-22T00:02	11694	227			271	13
2025-11-22T00:02	11879	220	-48.5			
2025-11-22T00:03	12075	214	-49.1			
2025-11-22T00:03	12125	212			274	12
2025-11-22T00:04	12542	199			276	14
2025-11-22T00:05	12956	187			279	14
2025-11-22T00:06	13366	175			277	12
2025-11-22T00:07	13717	165	-61.4			
2025-11-22T00:07	13790	163			268	12
2025-11-22T00:08	14211	152			272	12
2025-11-22T00:09	14625	142			262	12
2025-11-22T00:10	15052	132	-72.9		261	14
2025-11-22T00:11	15481	123			282	16
2025-11-22T00:11	15822	116	-78.1			
2025-11-22T00:12	15946	113			286	12
2025-11-22T00:12	16179	109	-79.0			
2025-11-22T00:12	16187	109			289	14
2025-11-22T00:13	16535	102	-79.1			
2025-11-22T00:13	16628	101			274	15
2025-11-22T00:14	17094	93			278	14
2025-11-22T00:14	17176	91	-82.4			
2025-11-22T00:15	17540	86			298	12
2025-11-22T00:15	17634	84	-82.6			
2025-11-22T00:16	18003	79	-83.1			
2025-11-22T00:16	18011	79			318	9
2025-11-22T00:17	18167	76			285	6
2025-11-22T00:17	18263	75	-83.1			
2025-11-22T00:17	18329	74			229	8
2025-11-22T00:17	18443	73	-82.6			
2025-11-22T00:17	18505	72			254	7
2025-11-22T00:18	18635	70			266	2
2025-11-22T00:18	18673	70	-78.5			
2025-11-22T00:18	18770	69	-77.2		263	3
2025-11-22T00:18	18905	67			245	3
2025-11-22T00:19	19060	65	-75.4			
2025-11-22T00:19	19271	63	-73.9		178	3
2025-11-22T00:20	19584	60			194	4
2025-11-22T00:20	19644	59	-72.9			
2025-11-22T00:20	19735	58			164	1
2025-11-22T00:20	19826	57	-70.5			
2025-11-22T00:21	20027	55	-70.8			
2025-11-22T00:21	20148	54			113	2
2025-11-22T00:21	20270	53			128	4
2025-11-22T00:21	20291	53	-70.2			
2025-11-22T00:22	20395	52			95	2
2025-11-22T00:22	20485	51	-68.8			
2025-11-22T00:22	20520	51			55	3
2025-11-22T00:22	20698	49	-67.2			
2025-11-22T00:23	20750	49			100	4
2025-11-22T00:23	20923	48			34	4
2025-11-22T00:24	21224	45			77	8
2025-11-22T00:25	21580	43			111	6
2025-11-22T00:25	21781	41			147	5
2025-11-22T00:25	21795	41	-65.1			
2025-11-22T00:25	21857	41			120	2
2025-11-22T00:25	21946	40			76	3
2025-11-22T00:26	22276	38			159	3
2025-11-22T00:27	22392	37			145	1
2025-11-22T00:27	22509	37			22	3
2025-11-22T00:27	22526	37	-60.3			
2025-11-22T00:27	22719	36			21	7
2025-11-22T00:28	22970	34	-59.6			
2025-11-22T00:28	23156	33			60	7
2025-11-22T00:29	23524	31			63	4
2025-11-22T00:29	23563	31	-59.3			
2025-11-22T00:30	23729	30			32	8
2025-11-22T00:30	23791	30	-58.9			
2025-11-22T00:30	23983	29			33	13
2025-11-22T00:31	24314	28			76	6
2025-11-22T00:31	24452	27	-59.0			
2025-11-22T00:32	24741	26			174	6
2025-11-22T00:32	24816	25	-55.4			
2025-11-22T00:33	25178	24			189	6
2025-11-22T00:33	25256	24	-56.6			
2025-11-22T00:34	25559	23			200	4
2025-11-22T00:35	25874	22			190	7
2025-11-22T00:35	26240	20			191	8
2025-11-22T00:36	26304	20	-55.4			
2025-11-22T00:36	26464	20	-51.6			
2025-11-22T00:36	26528	19			210	12
2025-11-22T00:37	26981	18			222	7
2025-11-22T00:37	27051	18	-51.7			
2025-11-22T00:38	27162	18			244	4
2025-11-22T00:38	27462	17			284	5
2025-11-22T00:39	27816	16			287	8
2025-11-22T00:39	28021	15			281	8
2025-11-22T00:40	28277	15	-54.6		224	8
2025-11-22T00:41	28635	14			280	8
2025-11-22T00:41	28869	14			235	6
2025-11-22T00:42	29265	13			256	13
2025-11-22T00:43	29420	12	-49.9			
2025-11-22T00:43	29580	12			246	8
2025-11-22T00:43	29637	12	-47.5			
2025-11-22T00:44	29859	12			231	6
2025-11-22T00:45	30387	11			230	10
2025-11-22T00:45	30450	11	-50.7			
2025-11-22T00:45	30760	10			273	9
2025-11-22T00:46	31091	10			275	10
2025-11-22T00:46	31172	10	-51.4		284	10
2025-11-22T11:30	9	1018	27.4	24.5	70	6
2025-11-22T11:30	12	1017	27.4	24.3	77	2
2025-11-22T11:30	55	1012			75	9
2025-11-22T11:30	122	1005	26.5	22.6		
2025-11-22T11:31	423	971			72	9
2025-11-22T11:32	564	956	22.4	20.9		
2025-11-22T11:32	748	935			75	8
2025-11-22T11:33	978	911	20.4	15.4		
2025-11-22T11:33	1070	902			78	6
2025-11-22T11:34	1233	884	18.8	13.0		
2025-11-22T11:34	1358	872	18.9	8.3		
2025-11-22T11:34	1396	868			73	9
2025-11-22T11:35	1721	836			84	6
2025-11-22T11:35	1795	828	16.2	5.5		
2025-11-22T11:36	1860	822	16.0	5.9		
2025-11-22T11:36	1930	815	15.7	6.2		
2025-11-22T11:36	2042	805			82	6
2025-11-22T11:36	2145	795	13.9	5.3		
2025-11-22T11:37	2341	777	12.2	8.1		
2025-11-22T11:37	2369	774			115	9
2025-11-22T11:37	2397	772	12.1	6.8		
2025-11-22T11:37	2441	767	11.7	7.2		
2025-11-22T11:38	2514	761	11.2	9.9		
2025-11-22T11:38	2701	744			119	4
2025-11-22T11:38	2750	739	9.5	8.1		
2025-11-22T11:39	2887	727	8.7	7.2	161	3
2025-11-22T11:39	2943	722	8.2	-0.3		
2025-11-22T11:39	2965	721	10.1	-0.4		
2025-11-22T11:39	3004	717			198	4
2025-11-22T11:39	3025	715	9.6	0.7		
2025-11-22T11:39	3126	707	8.5	3.3		
2025-11-22T11:40	3183	702	8.0	4.9		
2025-11-22T11:40	3286	693	7.2	5.5		
2025-11-22T11:40	3344	688			215	7
2025-11-22T11:40	3350	688	7.7	5.8		
2025-11-22T11:41	3510	675	7.1	4.4		
2025-11-22T11:41	3557	671	6.8	4.6		
2025-11-22T11:41	3605	667	8.0	-1.5		
2025-11-22T11:41	3701	659			218	10
2025-11-22T11:41	3725	657	7.5	-6.6		
2025-11-22T11:41	3825	649	9.6	-37.7		
2025-11-22T11:42	3954	639	9.6	-30.7		
2025-11-22T11:42	4053	632			243	10
2025-11-22T11:43	4407	605			239	9
2025-11-22T11:43	4430	603	5.6	-31.2		
2025-11-22T11:44	4747	580			216	10
2025-11-22T11:45	5076	557	0.5	-37.2		
2025-11-22T11:45	5082	557			210	12
2025-11-22T11:46	5224	547	-0.1	-40.4		
2025-11-22T11:46	5422	533			199	10
2025-11-22T11:46	5464	531	-1.0	-34.2		
2025-11-22T11:47	5724	514			223	6
2025-11-22T11:48	6005	495			250	6
2025-11-22T11:48	6075	491	-6.3	-31.1		
2025-11-22T11:48	6175	485			259	7
2025-11-22T11:49	6518	464			275	6
2025-11-22T11:50	6747	450			274	6
2025-11-22T11:50	6817	446	-13.0	-33.0		
2025-11-22T11:51	6998	435			235	9
2025-11-22T11:51	7148	427	-15.3	-39.2		
2025-11-22T11:52	7333	417			229	16
2025-11-22T11:52	7339	416	-15.2	-43.4		
2025-11-22T11:52	7642	400			228	19
2025-11-22T11:53	7747	394	-17.3	-40.8		
2025-11-22T11:53	7998	381	-18.4	-48.9	219	21
2025-11-22T11:54	8123	375	-18.1	-61.9		
2025-11-22T11:54	8306	366	-19.2	-57.2		
2025-11-22T11:54	8376	362			206	22
2025-11-22T11:55	8753	344			201	20
2025-11-22T11:56	9130	327			203	16
2025-11-22T11:57	9267	321	-26.7	-57.0		
2025-11-22T11:57	9514	310			214	13
2025-11-22T11:58	9857	295			220	13
2025-11-22T11:58	9919	293	-32.2	-61.0		
2025-11-22T11:59	10266	278			242	10
2025-11-22T12:00	10691	262			236	12
2025-11-22T12:01	10830	257	-39.1	-66.2		
2025-11-22T12:01	10932	253	-40.0	-66.9		
2025-11-22T12:01	11123	246			246	14
2025-11-22T12:02	11534	231			260	12
2025-11-22T12:03	11948	217			267	15
2025-11-22T12:04	12216	209	-49.8			
2025-11-22T12:04	12364	204			251	14
2025-11-22T12:05	12798	191			263	14
2025-11-22T12:06	13058	183	-56.0			
2025-11-22T12:06	13249	178			269	15
2025-11-22T12:07	13717	165			255	15
2025-11-22T12:08	14175	153			261	14
2025-11-22T12:09	14323	150	-65.3			
2025-11-22T12:09	14641	142			276	11
2025-11-22T12:10	14954	135	-70.8			
2025-11-22T12:10	15093	131			284	12
2025-11-22T12:11	15531	122			279	13
2025-11-22T12:11	15652	120	-75.5			
2025-11-22T12:12	15973	113			265	10
2025-11-22T12:13	16100	111	-78.8			
2025-11-22T12:13	16344	106			270	12
2025-11-22T12:13	16416	105	-79.7			
2025-11-22T12:14	16693	100			284	13
2025-11-22T12:15	17065	93			261	14
2025-11-22T12:15	17158	92	-81.4			
2025-11-22T12:15	17205	91			268	16
2025-11-22T12:15	17294	89			254	3
2025-11-22T12:15	17317	89			116	3
2025-11-22T12:15	17333	89	-82.4		104	6
2025-11-22T23:30	9	1017	29.0	25.6	100	6
2025-11-22T23:30	12	1017	28.6	25.0	100	1
2025-11-22T23:30	21	1016	28.1	24.1		
2025-11-22T23:30	45	1013	28.1	23.9		
2025-11-22T23:30	72	1010	27.3	23.1		
2025-11-22T23:30	131	1003			97	8
2025-11-22T23:31	469	965			95	9
2025-11-22T23:31	475	965	23.6	21.3		
2025-11-22T23:32	820	927			108	9
2025-11-22T23:32	839	925	20.4	19.6		
2025-11-22T23:33	916	917	20.1	19.4		
2025-11-22T23:33	1172	890			111	9
2025-11-22T23:34	1286	878	17.0	14.6		
2025-11-22T23:34	1339	873	17.5	15.3		
2025-11-22T23:34	1448	862	17.9	13.8		
2025-11-22T23:34	1515	855			101	7
2025-11-22T23:34	1531	854	17.7	12.8		
2025-11-22T23:35	1800	827	16.1	11.3		
2025-11-22T23:35	1831	824			94	6
2025-11-22T23:36	1956	812	15.1	10.1		
2025-11-22T23:36	2018	806	15.0	9.1		
2025-11-22T23:36	2074	801	15.6	2.4		
2025-11-22T23:36	2142	795			69	4
2025-11-22T23:37	2174	792	15.5	5.1		
2025-11-22T23:37	2258	784	15.0	5.0		
2025-11-22T23:37	2436	768	14.0	4.3		
2025-11-22T23:37	2456	766			40	8
2025-11-22T23:38	2506	761	13.3	7.7		
2025-11-22T23:38	2761	738			359	4
2025-11-22T23:39	2847	731	11.4	7.9		
2025-11-22T23:39	2909	725			352	3
2025-11-22T23:39	3056	713			109	1
2025-11-22T23:40	3141	705	9.8	3.3		
2025-11-22T23:40	3192	701			141	4
2025-11-22T23:40	3271	695	10.3	-9.4		
2025-11-22T23:40	3316	691	11.3	-21.8		
2025-11-22T23:40	3435	681	10.3	-7.4	211	5
2025-11-22T23:41	3528	674	10.9	-36.9		
2025-11-22T23:41	3619	666	10.3	-17.9		
2025-11-22T23:41	3779	653			227	7
2025-11-22T23:42	3864	647	8.6	-25.4		
2025-11-22T23:42	4127	626			258	7
2025-11-22T23:43	4288	614			261	7
2025-11-22T23:43	4312	612	5.6	-29.3		
2025-11-22T23:44	4642	588			256	6
2025-11-22T23:44	4819	575	1.5	-32.3		
2025-11-22T23:45	4989	563			266	7
2025-11-22T23:46	5343	539			239	7
2025-11-22T23:46	5446	532	-3.2	-39.8		
2025-11-22T23:46	5533	526	-3.2	-42.5		
2025-11-22T23:47	5666	517	-3.4	-36.0		
2025-11-22T23:47	5672	517			215	9
2025-11-22T23:48	6026	494			247	8
2025-11-22T23:48	6228	482	-7.1	-30.1		
2025-11-22T23:49	6374	473			277	10
2025-11-22T23:49	6592	459			277	13
2025-11-22T23:50	6798	447			280	14
2025-11-22T23:51	7109	429	-14.7	-31.7		
2025-11-22T23:51	7157	427			262	17
2025-11-22T23:52	7442	411	-16.8	-31.8		
2025-11-22T23:52	7528	406			247	20
2025-11-22T23:52	7552	405	-17.2	-34.4		
2025-11-22T23:53	7827	390	-19.2	-35.6		
2025-11-22T23:53	7887	387			237	23
2025-11-22T23:54	8176	372	-21.6	-38.1		
2025-11-22T23:54	8249	369			236	22
2025-11-22T23:54	8358	363	-22.8	-39.6		
2025-11-22T23:55	8615	351			230	22
2025-11-22T23:55	8685	347	-24.8	-44.0		
2025-11-22T23:56	8803	342	-25.6	-40.3		
2025-11-22T23:56	8984	333	-27.3	-39.6		
2025-11-22T23:56	8990	333			221	24
2025-11-22T23:57	9183	324	-28.6	-58.4		
2025-11-22T23:57	9237	322	-28.9	-48.7		
2025-11-22T23:57	9318	318	-29.6	-41.4		
2025-11-22T23:57	9350	317			224	24
2025-11-22T23:57	9416	314	-30.4	-38.9		
2025-11-22T23:57	9455	312	-30.6	-40.1		
2025-11-22T23:57	9509	310	-30.3	-48.6		
2025-11-22T23:58	9623	305	-30.4	-53.1		
2025-11-22T23:58	9749	299			230	24
2025-11-22T23:59	10041	287	-33.5	-64.2		
2025-11-22T23:59	10133	284			234	24
2025-11-23T00:00	10502	269			245	23
2025-11-23T00:01	10794	258	-39.2	-62.1		
2025-11-23T00:01	10898	254	-40.0	-57.3	257	19
2025-11-23T00:02	11299	239			255	19
2025-11-23T00:02	11443	234	-44.5			
2025-11-23T00:03	11585	229			246	15
2025-11-23T00:03	11708	225	-46.0			
2025-11-23T00:04	11977	216			256	15
2025-11-23T00:05	12335	205			266	15
2025-11-23T00:05	12361	204	-49.9			
2025-11-23T00:06	12723	193			279	16
2025-11-23T00:07	13104	182			275	16
2025-11-23T00:07	13324	175	-57.8			
2025-11-23T00:08	13504	171			275	17
2025-11-23T00:09	13932	159			266	16
2025-11-23T00:09	14235	151	-65.1			
2025-11-23T00:10	14364	148			260	15
2025-11-23T00:10	14519	145	-66.9			
2025-11-23T00:11	14779	138			268	15
2025-11-23T00:11	14943	135	-70.3			
2025-11-23T00:12	15194	129			265	16
2025-11-23T00:13	15624	120			277	16
2025-11-23T00:14	15981	113	-77.8			
2025-11-23T00:14	16047	111			264	15
2025-11-23T00:14	16359	105	-79.0			
2025-11-23T00:15	16493	103			293	21
2025-11-23T00:15	16628	101	-78.5			
2025-11-23T00:16	16979	95			297	21
2025-11-23T00:16	17295	89	-82.7			
2025-11-23T00:16	17329	89			305	20
2025-11-23T00:17	17563	85			282	12
2025-11-23T00:17	17695	83	-82.1			
2025-11-23T00:17	17805	82			281	11
2025-11-23T00:17	17860	81	-81.8			
2025-11-23T00:18	18139	77	-82.5			
2025-11-23T00:18	18198	76			299	12
2025-11-23T00:19	18422	73			315	6
2025-11-23T00:19	18495	72			292	2
2025-11-23T00:19	18584	71			204	3
2025-11-23T00:19	18690	70			238	3
2025-11-23T00:19	18813	68	-79.9		315	4
2025-11-23T00:20	18938	67	-78.7			
2025-11-23T00:20	18968	66			307	3
2025-11-23T00:20	19118	65			304	5
2025-11-23T00:20	19276	63	-76.6			
2025-11-23T00:21	19457	61			342	5
2025-11-23T00:21	19563	60	-73.3			
2025-11-23T00:22	19814	57			360	4
2025-11-23T00:22	19834	57	-72.4			
2025-11-23T00:22	19916	56			58	3
2025-11-23T00:22	19960	56	-69.1			
2025-11-23T00:22	20013	55			107	5
2025-11-23T00:22	20088	55	-68.3			
2025-11-23T00:23	20165	54			141	2
2025-11-23T00:23	20418	52			60	3
2025-11-23T00:24	20539	51	-65.8			
2025-11-23T00:24	20792	49			36	9
2025-11-23T00:25	21122	46			54	9
2025-11-23T00:25	21218	45	-65.9			
2025-11-23T00:26	21518	43			101	12
2025-11-23T00:26	21552	43	-63.5			
2025-11-23T00:27	21824	41			101	4
2025-11-23T00:27	21917	41	-63.3			
2025-11-23T00:27	21943	40			63	4
2025-11-23T00:28	22147	39			62	6
2025-11-23T00:28	22274	38	-62.5			
2025-11-23T00:29	22573	36			39	8
2025-11-23T00:29	22797	35			30	6
2025-11-23T00:30	22975	34	-62.2			
2025-11-23T00:30	23102	33			41	7
2025-11-23T00:31	23332	32	-60.1			
2025-11-23T00:31	23411	32			94	4
2025-11-23T00:32	23730	30			21	9
2025-11-23T00:32	24031	29			74	7
2025-11-23T00:33	24166	28			82	4
2025-11-23T00:33	24324	28			27	3
2025-11-23T00:33	24491	27	-55.5			
2025-11-23T00:34	24633	26			26	4
2025-11-23T00:34	24830	25			353	5
2025-11-23T00:35	25161	24			349	4
2025-11-23T00:35	25348	23			42	2
2025-11-23T00:36	25456	23			257	2
2025-11-23T00:36	25512	23	-56.2			
2025-11-23T00:36	25682	22			272	4
2025-11-23T00:37	25887	22			326	5
2025-11-23T00:37	26065	21			300	5
2025-11-23T00:37	26221	20			290	4
2025-11-23T00:38	26316	20	-54.6			
2025-11-23T00:38	26416	20			300	1
2025-11-23T00:38	26709	19			256	5
2025-11-23T00:39	27022	18			281	5
2025-11-23T00:40	27307	17			211	6
2025-11-23T00:40	27424	17	-56.1			
2025-11-23T00:40	27536	17			241	8
2025-11-23T00:41	27732	16	-53.6			
2025-11-23T00:41	28017	15			246	8
2025-11-23T00:42	28316	15			291	7
2025-11-23T00:42	28448	14	-53.1			
2025-11-23T00:43	28724	14			281	6
2025-11-23T00:43	28961	13			311	7
2025-11-23T00:44	29108	13	-52.1			
2025-11-23T00:44	29208	13			249	10
2025-11-23T00:44	29466	12			241	14
2025-11-23T00:45	29679	12	-51.7			
2025-11-23T00:45	29844	12			257	6
2025-11-23T00:46	30247	11	-51.5			
2025-11-23T00:46	30368	11			245	7
2025-11-23T00:47	30557	10	-50.4			
2025-11-23T00:47	30875	10			236	9
2025-11-23T00:48	31211	9			272	9
2025-11-23T00:48	31351	9	-50.9			
2025-11-23T00:49	31568	9			256	10
2025-11-23T00:49	31718	9	-46.7			
2025-11-23T00:50	32005	8	-47.2		286	12
2025-11-23T11:30	9	1016	26.8	24.3	50	5
2025-11-23T11:30	13	1016	26.9	24.2	47	1
2025-11-23T11:30	28	1014			70	3
2025-11-23T11:30	67	1010			56	7
2025-11-23T11:30	89	1007	26.5	23.4		
2025-11-23T11:31	341	979	24.2	21.9		
2025-11-23T11:31	450	967			65	8
2025-11-23T11:31	457	966	23.4	20.9		
2025-11-23T11:32	802	928			72	9
2025-11-23T11:33	950	913	19.8	17.8		
2025-11-23T11:33	1091	898	19.1	16.3		
2025-11-23T11:33	1165	890			66	9
2025-11-23T11:33	1209	886	18.5	15.9		
2025-11-23T11:34	1406	866	17.3	14.8		
2025-11-23T11:34	1533	853	17.9	10.5		
2025-11-23T11:34	1546	852			75	7
2025-11-23T11:34	1577	849	17.8	8.4		
2025-11-23T11:34	1633	843	17.7	4.6		
2025-11-23T11:35	1696	837	17.2	8.6		
2025-11-23T11:35	1794	827	16.6	8.1		
2025-11-23T11:35	1886	819	17.0	7.4		
2025-11-23T11:35	1916	816			92	5
2025-11-23T11:36	2098	798			83	5
2025-11-23T11:36	2146	794	15.8	4.8		
2025-11-23T11:36	2361	774			25	5
2025-11-23T11:37	2415	769	14.0	5.1		
2025-11-23T11:37	2510	761	13.7	6.1		
2025-11-23T11:37	2614	751			344	5
2025-11-23T11:37	2673	746	12.7	4.7		
2025-11-23T11:38	2930	724			351	3
2025-11-23T11:38	2994	718	9.8	2.6		
2025-11-23T11:38	3071	712	9.7	-1.7		
2025-11-23T11:39	3149	705	9.2	0.9		
2025-11-23T11:39	3221	699			314	2
2025-11-23T11:39	3251	696	9.4	-3.9		
2025-11-23T11:39	3322	690	9.7	-9.9		
2025-11-23T11:39	3375	686	9.5	-9.6		
2025-11-23T11:39	3423	682	10.8	-23.7		
2025-11-23T11:40	3575	670			340	4
2025-11-23T11:40	3676	662	9.1	-17.9		
2025-11-23T11:40	3688	661			341	4
2025-11-23T11:41	3961	639			294	5
2025-11-23T11:41	4102	628	6.6	-28.5		
2025-11-23T11:42	4348	609			282	4
2025-11-23T11:42	4496	598			292	5
2025-11-23T11:43	4628	589			280	4
2025-11-23T11:43	4772	578			280	5
2025-11-23T11:44	5057	558	-0.3	-30.7		
2025-11-23T11:44	5070	557			252	6
2025-11-23T11:44	5247	545	-1.1	-34.3		
2025-11-23T11:45	5402	535	-1.4	-36.3		
2025-11-23T11:45	5453	531			267	8
2025-11-23T11:46	5794	509	-3.6	-42.8		
2025-11-23T11:46	5819	507			242	9
2025-11-23T11:46	6002	496			267	10
2025-11-23T11:47	6141	487	-5.9	-31.7		
2025-11-23T11:47	6367	473			268	9
2025-11-23T11:48	6723	452			272	11
2025-11-23T11:49	6999	436	-13.5	-34.0		
2025-11-23T11:49	7077	431			269	11
2025-11-23T11:50	7238	422	-15.5	-33.4		
2025-11-23T11:50	7365	415	-16.4	-31.9		
2025-11-23T11:50	7447	411			264	14
2025-11-23T11:50	7543	405	-17.3	-33.5		
2025-11-23T11:51	7594	403	-17.2	-46.4		
2025-11-23T11:51	7778	393	-18.4	-43.6		
2025-11-23T11:51	7837	390			254	15
2025-11-23T11:52	7947	384	-20.0	-35.4		
2025-11-23T11:52	8072	377			250	17
2025-11-23T11:52	8091	376	-21.3	-34.0		
2025-11-23T11:53	8460	358			233	13
2025-11-23T11:53	8550	354	-23.9	-43.3		
2025-11-23T11:54	8741	345	-24.5	-42.1		
2025-11-23T11:54	8832	340			266	13
2025-11-23T11:54	8851	339	-24.8	-44.7		
2025-11-23T11:55	9127	327	-27.0	-47.9		
2025-11-23T11:55	9219	323			271	14
2025-11-23T11:56	9562	307	-30.6	-51.6		
2025-11-23T11:56	9615	305			281	15
2025-11-23T11:57	9895	293			279	18
2025-11-23T11:58	10268	278			281	18
2025-11-23T11:58	10368	274	-36.9	-54.7		
2025-11-23T11:58	10595	265	-38.7	-56.8		
2025-11-23T11:58	10642	263			285	18
2025-11-23T11:59	10848	255	-40.0	-61.7		
2025-11-23T12:00	11008	250			266	16
2025-11-23T12:01	11339	238			270	18
2025-11-23T12:01	11375	236	-44.0			
2025-11-23T12:02	11662	226			279	20
2025-11-23T12:02	11929	218	-47.2			
2025-11-23T12:02	11976	216			280	17
2025-11-23T12:03	12282	206			277	15
2025-11-23T12:04	12597	196			287	16
2025-11-23T12:05	12918	187			291	18
2025-11-23T12:06	13136	180	-56.9			
2025-11-23T12:06	13238	178			282	20
2025-11-23T12:07	13555	169			286	21
2025-11-23T12:08	13861	161			288	20
2025-11-23T12:09	14182	153			288	19
2025-11-23T12:10	14359	148	-65.9			
2025-11-23T12:10	14554	143	-66.8			
2025-11-23T12:10	14606	142			308	23
2025-11-23T12:11	14985	134			311	23
2025-11-23T12:12	15466	123			284	17
2025-11-23T12:12	15474	123	-72.5			
2025-11-23T12:13	15936	114			288	20
2025-11-23T12:14	16167	109	-78.0			
2025-11-23T12:14	16276	107			303	19
2025-11-23T12:14	16461	104			317	19
2025-11-23T12:15	16500	103	-79.4		319	17
2025-11-23T23:30	9	1017	29.1	24.2	100	6
2025-11-23T23:30	12	1016	28.7	23.6	102	1
2025-11-23T23:30	43	1013	27.4	21.9		
2025-11-23T23:30	108	1005			102	7
2025-11-23T23:31	457	966			98	8
2025-11-23T23:32	671	943	21.6	19.9		
2025-11-23T23:32	796	930	21.1	17.9		
2025-11-23T23:32	813	928			109	8
2025-11-23T23:33	975	911	20.0	16.8		
2025-11-23T23:33	1175	890			112	9
2025-11-23T23:34	1256	881	18.1	15.0		
2025-11-23T23:34	1342	873	18.5	8.7		
2025-11-23T23:34	1473	859	17.3	13.4		
2025-11-23T23:34	1522	854			90	4
2025-11-23T23:34	1590	848	16.6	11.5		
2025-11-23T23:35	1726	834	15.9	11.7		
2025-11-23T23:35	1763	830			77	3
2025-11-23T23:35	1906	817			108	3
2025-11-23T23:36	2029	805	14.5	9.1		
2025-11-23T23:36	2090	799	14.4	8.6		
2025-11-23T23:36	2145	794	14.1	9.7		
2025-11-23T23:36	2268	782	13.6	10.4		
2025-11-23T23:36	2274	782			60	4
2025-11-23T23:37	2377	772	13.9	8.3		
2025-11-23T23:37	2469	764	13.6	7.6		
2025-11-23T23:37	2537	758			29	5
2025-11-23T23:37	2561	755	13.2	7.0		
2025-11-23T23:38	2715	742	12.8	3.5		
2025-11-23T23:38	2764	737	12.7	2.3		
2025-11-23T23:38	2782	736			46	4
2025-11-23T23:38	2856	729	13.3	-5.8		
2025-11-23T23:38	3057	712	12.0	-7.4		
2025-11-23T23:39	3076	710			134	1
2025-11-23T23:39	3218	698	11.6	-8.3		
2025-11-23T23:39	3304	691	11.0	-11.1		
2025-11-23T23:39	3372	686			220	2
2025-11-23T23:40	3553	671	9.6	-21.8		
2025-11-23T23:40	3747	655			209	2
2025-11-23T23:41	4023	634			268	3
2025-11-23T23:42	4210	619			255	2
2025-11-23T23:42	4229	618	4.8	-28.2		
2025-11-23T23:42	4376	607			241	3
2025-11-23T23:43	4635	587			224	6
2025-11-23T23:43	4781	577	0.6	-30.0		
2025-11-23T23:44	5002	561			236	5
2025-11-23T23:44	5264	543	-2.7	-32.5		
2025-11-23T23:45	5314	539			251	5
2025-11-23T23:45	5557	523			273	6
2025-11-23T23:45	5613	519	-4.9	-35.6		
2025-11-23T23:46	5712	513			248	8
2025-11-23T23:46	5768	509	-5.4	-39.3		
2025-11-23T23:46	6006	494	-6.2	-39.8		
2025-11-23T23:47	6090	489			277	7
2025-11-23T23:47	6213	481	-7.5	-35.0		
2025-11-23T23:47	6297	476	-8.1	-27.7		
2025-11-23T23:48	6476	465			266	10
2025-11-23T23:48	6514	463	-10.0	-29.9		
2025-11-23T23:48	6783	447			261	10
2025-11-23T23:49	7001	434	-14.3	-30.1		
2025-11-23T23:49	7021	433			264	11
2025-11-23T23:49	7149	426	-15.1	-34.2		
2025-11-23T23:50	7322	416	-16.7	-31.3		
2025-11-23T23:50	7409	411			274	14
2025-11-23T23:50	7453	409	-17.8	-30.2		
2025-11-23T23:51	7726	394	-19.9	-35.8		
2025-11-23T23:51	7789	391			294	14
2025-11-23T23:51	7900	385	-20.7	-37.4		
2025-11-23T23:52	8116	374	-22.1	-39.0		
2025-11-23T23:52	8152	372			284	16
2025-11-23T23:53	8461	357	-24.9	-40.1		
2025-11-23T23:53	8517	354			273	15
2025-11-23T23:54	8782	341			257	15
2025-11-23T23:54	8905	335	-26.8	-62.5		
2025-11-23T23:54	9087	327			265	13
2025-11-23T23:55	9319	317			269	16
2025-11-23T23:56	9498	309			275	15
2025-11-23T23:56	9569	306	-31.5	-70.7		
2025-11-23T23:56	9714	299			275	15
2025-11-23T23:57	9992	288			296	18
2025-11-23T23:58	10319	275			296	18
2025-11-23T23:58	10533	266			299	22
2025-11-23T23:59	10744	258			298	19
2025-11-23T23:59	10862	254	-40.0	-76.4		
2025-11-23T23:59	11014	248			301	21
2025-11-24T00:00	11428	233			288	20
2025-11-24T00:01	11705	224	-45.5			
2025-11-24T00:01	11858	219			278	19
2025-11-24T00:02	12111	210			284	21
2025-11-24T00:03	12417	201	-51.0			
2025-11-24T00:03	12528	197			291	23
2025-11-24T00:04	12936	185			288	21
2025-11-24T00:05	13372	173			287	21
2025-11-24T00:06	13751	163			300	24
2025-11-24T00:07	14034	155	-63.6			
2025-11-24T00:07	14084	154			297	20
2025-11-24T00:08	14428	146			297	21
2025-11-24T00:09	14806	137	-68.4			
2025-11-24T00:09	14889	135			291	18
2025-11-24T00:09	15038	132	-69.5			
2025-11-24T00:10	15339	125			283	17
2025-11-24T00:10	15530	121	-72.9			
2025-11-24T00:11	15747	117			299	16
2025-11-24T00:11	15957	113			296	11
2025-11-24T00:11	16081	110	-75.0			
2025-11-24T00:12	16384	105			245	13
2025-11-24T00:12	16427	104	-76.9			
2025-11-24T00:13	16700	99			281	9
2025-11-24T00:14	17030	93			240	10
2025-11-24T00:14	17085	92	-79.7			
2025-11-24T00:15	17429	87			261	13
2025-11-24T00:16	17837	81			277	11
2025-11-24T00:16	17888	80	-83.5			
2025-11-24T00:17	18105	77	-82.8			
2025-11-24T00:17	18202	76			336	8
2025-11-24T00:18	18424	73	-82.8			
2025-11-24T00:18	18501	72			322	5
2025-11-24T00:18	18652	70			317	6
2025-11-24T00:18	18692	69	-81.5			
2025-11-24T00:19	18890	67	-77.2		23	7
2025-11-24T00:20	19120	64			30	8
2025-11-24T00:20	19304	62			39	7
2025-11-24T00:20	19342	62	-74.5			
2025-11-24T00:21	19455	61			18	7
2025-11-24T00:21	19563	60	-72.3			
2025-11-24T00:22	19775	58	-71.4			
2025-11-24T00:22	19815	57			46	7
2025-11-24T00:22	20079	55	-71.8			
2025-11-24T00:23	20123	54			32	7
2025-11-24T00:23	20245	53	-67.4			
2025-11-24T00:24	20489	51			71	9
2025-11-24T00:24	20668	50			83	7
2025-11-24T00:24	20679	49	-66.4			
2025-11-24T00:25	20852	48			38	8
2025-11-24T00:25	20957	47	-63.1			
2025-11-24T00:25	21062	46			35	12
2025-11-24T00:26	21308	45			74	14
2025-11-24T00:27	21677	42			85	13
2025-11-24T00:28	22055	40			96	11
2025-11-24T00:28	22085	39	-63.3			
2025-11-24T00:28	22211	39			62	7
2025-11-24T00:28	22275	38	-62.2			
2025-11-24T00:29	22341	38			35	9
2025-11-24T00:30	22731	35			57	11
2025-11-24T00:31	23134	33			54	14
2025-11-24T00:31	23326	32	-58.5			
2025-11-24T00:32	23544	31			62	17
2025-11-24T00:32	23811	30	-58.5			
2025-11-24T00:33	23959	29			65	13
2025-11-24T00:34	24342	27			48	10
2025-11-24T00:35	24749	26			70	12
2025-11-24T00:35	24897	25	-55.5			
2025-11-24T00:36	25182	24			71	6
2025-11-24T00:37	25623	22			32	11
2025-11-24T00:37	25853	22			47	5
2025-11-24T00:37	25974	21			57	3
2025-11-24T00:38	26121	21	-56.3			
2025-11-24T00:38	26151	21			1	2
2025-11-24T00:38	26246	20			333	3
2025-11-24T00:39	26435	20			21	4
2025-11-24T00:39	26601	19			356	4
2025-11-24T00:39	26667	19	-54.8			
2025-11-24T00:39	26738	19			329	5
2025-11-24T00:40	27013	18			359	4
2025-11-24T00:40	27227	17			329	1
2025-11-24T00:41	27492	17			293	4
2025-11-24T00:41	27725	16			290	2
2025-11-24T00:42	27964	16			194	3
2025-11-24T00:42	28087	15	-56.3			
2025-11-24T00:43	28217	15			229	7
2025-11-24T00:43	28433	14	-55.4			
2025-11-24T00:43	28478	14			250	10
2025-11-24T00:43	28613	14	-54.5			
2025-11-24T00:44	28703	14			271	9
2025-11-24T00:44	28895	13			258	10
2025-11-24T00:45	29137	13	-53.2		282	11
2025-11-24T00:45	29289	13	-54.1			
2025-11-24T00:45	29446	12	-52.4			
2025-11-24T00:45	29497	12			275	10
2025-11-24T00:46	29659	12	-53.0			
2025-11-24T00:46	29711	12			283	8
2025-11-24T00:46	29878	12	-52.1			
2025-11-24T00:47	30049	11			334	11
2025-11-24T00:47	30284	11			313	5
2025-11-24T00:48	30590	10			292	9
2025-11-24T00:48	30916	10	-51.8			
2025-11-24T00:49	31051	10			312	11
2025-11-24T00:49	31214	9	-50.8		317	10
2025-11-24T11:30	9	1014	26.8	23.7	120	3
2025-11-24T11:30	12	1014	26.9	23.4	0	0
2025-11-24T11:30	43	1010			138	3
2025-11-24T11:30	80	1006	27.0	22.0		
2025-11-24T11:30	138	1000			121	6
2025-11-24T11:31	491	960			132	6
2025-11-24T11:32	549	954	22.7	20.4		
2025-11-24T11:32	717	936	22.2	18.8		
2025-11-24T11:32	842	922			149	6
2025-11-24T11:33	1093	896	19.6	16.1		
2025-11-24T11:33	1188	886	19.0	14.7		
2025-11-24T11:33	1214	884			150	5
2025-11-24T11:34	1442	861	19.2	2.1		
2025-11-24T11:34	1517	853	19.2	-1.3		
2025-11-24T11:34	1554	849			162	3
2025-11-24T11:35	1632	842	18.7	2.9		
2025-11-24T11:35	1680	837	18.2	7.6		
2025-11-24T11:35	1875	818	16.4	9.3		
2025-11-24T11:35	1910	814			190	2
2025-11-24T11:36	2023	804	15.6	3.4		
2025-11-24T11:36	2095	797	15.7	-0.1		
2025-11-24T11:36	2197	787	14.9	4.9		
2025-11-24T11:36	2245	783			197	7
2025-11-24T11:37	2355	773	13.7	1.7		
2025-11-24T11:37	2404	768	14.8	-10.8		
2025-11-24T11:37	2539	756	15.0	-26.9		
2025-11-24T11:37	2600	751			186	6
2025-11-24T11:38	2755	737	14.5	-13.6		
2025-11-24T11:38	2876	726			153	2
2025-11-24T11:38	2951	720	12.3	-3.1		
2025-11-24T11:39	3068	710	11.4	-1.1		
2025-11-24T11:39	3142	704	11.1	-2.0		
2025-11-24T11:39	3193	699	12.0	-14.7		
2025-11-24T11:39	3204	699			307	2
2025-11-24T11:39	3291	691	11.5	-13.5		
2025-11-24T11:40	3405	682			291	4
2025-11-24T11:40	3411	681	10.9	-20.8		
2025-11-24T11:40	3524	672			265	4
2025-11-24T11:40	3665	661			282	5
2025-11-24T11:40	3689	659	8.7	-20.2		
2025-11-24T11:41	3957	638	7.1	-21.4		
2025-11-24T11:41	4037	632			284	5
2025-11-24T11:42	4289	613			275	6
2025-11-24T11:42	4400	604	5.4	-31.4		
2025-11-24T11:43	4471	599			247	6
2025-11-24T11:44	4834	573			262	7
2025-11-24T11:44	5096	554			275	6
2025-11-24T11:44	5126	552	0.3	-37.3		
2025-11-24T11:45	5243	544			292	6
2025-11-24T11:45	5505	527	-2.1	-39.0		
2025-11-24T11:46	5606	520			256	8
2025-11-24T11:46	5844	504	-4.9	-41.0		
2025-11-24T11:47	5925	499	-5.0	-41.1		
2025-11-24T11:47	5949	498			245	8
2025-11-24T11:47	6166	484			257	7
2025-11-24T11:48	6333	474			260	6
2025-11-24T11:48	6362	472	-8.5	-31.3		
2025-11-24T11:48	6545	461	-10.2	-30.6		
2025-11-24T11:49	6638	455			259	8
2025-11-24T11:49	6838	444	-12.5	-34.6		
2025-11-24T11:50	7003	434			267	6
2025-11-24T11:50	7027	433	-14.2	-34.0		
2025-11-24T11:50	7197	423			283	6
2025-11-24T11:50	7312	417	-16.5	-44.4		
2025-11-24T11:51	7403	412			282	4
2025-11-24T11:51	7662	398			259	7
2025-11-24T11:51	7708	395	-19.6	-45.6		
2025-11-24T11:52	7939	383			263	11
2025-11-24T11:52	8014	379	-21.5	-42.6		
2025-11-24T11:53	8261	367	-22.9	-35.1		
2025-11-24T11:53	8302	365			269	20
2025-11-24T11:53	8344	363	-23.1	-33.2		
2025-11-24T11:53	8466	357	-23.9	-34.5		
2025-11-24T11:54	8534	353	-24.5	-30.4		
2025-11-24T11:54	8640	348	-24.6	-37.2		
2025-11-24T11:54	8673	347			265	18
2025-11-24T11:54	8835	339	-25.4	-37.3		
2025-11-24T11:55	9062	329			258	15
2025-11-24T11:55	9226	321	-28.3	-42.6		
2025-11-24T11:56	9378	314	-28.8	-44.3		
2025-11-24T11:56	9391	314			269	18
2025-11-24T11:56	9523	308	-29.7	-43.1		
2025-11-24T11:57	9669	302	-30.7	-41.5		
2025-11-24T11:57	9681	301			279	21
2025-11-24T11:57	9963	290			279	18
2025-11-24T11:58	10342	274			273	18
2025-11-24T11:58	10355	274	-35.7	-55.7		
2025-11-24T11:59	10721	260			278	17
2025-11-24T12:00	10806	256	-40.0	-56.2		
2025-11-24T12:00	10981	250			277	19
2025-11-24T12:01	11360	236			283	19
2025-11-24T12:02	11556	229	-46.5			
2025-11-24T12:02	11622	227			295	23
2025-11-24T12:03	11892	218	-47.9			
2025-11-24T12:03	11971	215			300	27
2025-11-24T12:04	12358	203			300	27
2025-11-24T12:05	12731	192			299	27
2025-11-24T12:06	13021	183	-54.3			
2025-11-24T12:06	13073	182			294	26
2025-11-24T12:06	13209	178	-55.0			
2025-11-24T12:07	13412	173			300	27
2025-11-24T12:08	13686	165			302	27
2025-11-24T12:09	13995	157			300	25
2025-11-24T12:09	14077	155	-61.4			
2025-11-24T12:09	14326	149			303	26
2025-11-24T12:10	14707	140			298	22
2025-11-24T12:11	14863	136	-67.8			
2025-11-24T12:12	15166	130			290	26
2025-11-24T12:12	15575	121	-74.0			
2025-11-24T12:12	15593	121			288	25
2025-11-24T12:13	15739	118	-74.5			
2025-11-24T12:13	15969	113			294	20
2025-11-24T12:14	16013	112	-76.1			
2025-11-24T12:14	16296	107	-78.1			
2025-11-24T12:14	16357	106			289	18
2025-11-24T12:15	16601	101	-79.3			
2025-11-24T12:15	16691	100			272	16
2025-11-24T12:16	17073	93	-81.9			
2025-11-24T12:16	17153	92			279	20
2025-11-24T12:16	17223	91	-80.5			
2025-11-24T12:17	17572	85			288	17
2025-11-24T12:17	17659	84	-82.4			
2025-11-24T12:17	17725	83			280	10
2025-11-24T12:18	17783	82	-80.3			
2025-11-24T12:18	17843	81			290	6
2025-11-24T12:18	17921	80	-81.1		288	7
2025-11-24T23:30	9	1016	28.8	25.4	170	2
2025-11-24T23:30	13	1015	28.6	24.6	0	0
2025-11-24T23:30	34	1013			133	3
2025-11-24T23:30	92	1006	27.1	23.1		
2025-11-24T23:31	211	993			156	3
2025-11-24T23:31	471	964	23.6	21.5		
2025-11-24T23:32	544	956			163	3
2025-11-24T23:32	681	941	22.2	20.1		
2025-11-24T23:32	739	935			182	3
2025-11-24T23:32	788	930	21.5	19.1		
2025-11-24T23:33	866	921	21.2	18.6		
2025-11-24T23:33	996	908	20.5	17.5		
2025-11-24T23:33	1086	898			190	3
2025-11-24T23:34	1317	874	19.0	14.7		
2025-11-24T23:34	1432	863			195	3
2025-11-24T23:35	1698	836			180	3
2025-11-24T23:35	1716	835	16.6	12.9		
2025-11-24T23:36	2008	807	14.5	11.3		
2025-11-24T23:36	2070	801			203	4
2025-11-24T23:36	2220	786	12.6	9.2		
2025-11-24T23:37	2291	780	12.7	3.9		
2025-11-24T23:37	2309	778			239	4
2025-11-24T23:37	2351	774	13.7	-5.5		
2025-11-24T23:37	2493	761			285	1
2025-11-24T23:37	2552	756	14.3	-17.0		
2025-11-24T23:38	2664	746	13.8	-13.3		
2025-11-24T23:38	2705	742			218	3
2025-11-24T23:38	2858	729			213	3
2025-11-24T23:38	2894	726	13.9	-34.9		
2025-11-24T23:39	3008	716			244	4
2025-11-24T23:39	3249	696			257	4
2025-11-24T23:39	3296	692	11.6	-32.3		
2025-11-24T23:40	3593	668			245	3
2025-11-24T23:41	3766	654	7.9	-25.9		
2025-11-24T23:41	3875	645			245	5
2025-11-24T23:42	4092	628	5.7	-36.4		
2025-11-24T23:42	4134	625			290	5
2025-11-24T23:42	4339	609			285	6
2025-11-24T23:43	4533	595			309	7
2025-11-24T23:43	4569	592	2.6	-29.9		
2025-11-24T23:44	4867	571	0.6	-34.9		
2025-11-24T23:44	4892	569			290	5
2025-11-24T23:45	5181	549			264	5
2025-11-24T23:46	5432	531			243	7
2025-11-24T23:46	5486	528	-3.3	-39.9		
2025-11-24T23:46	5685	515			254	6
2025-11-24T23:47	5836	505	-5.7	-34.8		
2025-11-24T23:47	5887	502	-6.0	-27.8		
2025-11-24T23:47	5950	498	-6.6	-24.3		
2025-11-24T23:47	6036	492	-6.7	-33.3		
2025-11-24T23:47	6060	491			261	7
2025-11-24T23:48	6191	483	-7.4	-37.5		
2025-11-24T23:48	6405	469			275	6
2025-11-24T23:49	6529	462	-10.0	-31.8		
2025-11-24T23:49	6564	460			328	5
2025-11-24T23:49	6768	448			300	4
2025-11-24T23:50	7109	428			312	4
2025-11-24T23:51	7369	414	-17.7	-33.9		
2025-11-24T23:51	7381	413			304	7
2025-11-24T23:51	7557	403	-17.9	-45.5		
2025-11-24T23:52	7607	401			341	8
2025-11-24T23:52	7651	398	-17.4	-55.9		
2025-11-24T23:52	7803	390	-17.9	-61.8		
2025-11-24T23:53	7974	381			326	10
2025-11-24T23:53	8084	376	-19.8	-57.6		
2025-11-24T23:54	8359	362			329	9
2025-11-24T23:54	8441	358	-22.0	-53.5		
2025-11-24T23:55	8738	344			310	8
2025-11-24T23:55	8863	338	-25.5	-54.2		
2025-11-24T23:56	9113	327			306	10
2025-11-24T23:56	9242	321	-28.5	-56.5		
2025-11-24T23:56	9398	314			319	14
2025-11-24T23:57	9694	301	-32.6	-58.2		
2025-11-24T23:57	9783	297			310	14
2025-11-24T23:58	10152	282			310	14
2025-11-24T23:59	10384	273			311	14
2025-11-24T23:59	10414	271	-38.3	-61.4		
2025-11-25T00:00	10657	262	-40.0	-63.9		
2025-11-25T00:00	10664	262			320	17
2025-11-25T00:00	10977	250	-41.6			
2025-11-25T00:01	11077	246			319	18
2025-11-25T00:01	11343	237			318	16
2025-11-25T00:02	11729	223			320	24
2025-11-25T00:03	11910	217	-48.0			
2025-11-25T00:03	12065	212			321	28
2025-11-25T00:04	12383	202			323	31
2025-11-25T00:05	12737	191			327	30
2025-11-25T00:06	13107	181			322	29
2025-11-25T00:07	13311	175	-57.3			
2025-11-25T00:07	13436	171			325	32
2025-11-25T00:08	13580	168	-58.9			
2025-11-25T00:08	13751	163			325	31
2025-11-25T00:08	13761	163	-59.7			
2025-11-25T00:09	14062	155			325	30
2025-11-25T00:10	14374	147			323	30
2025-11-25T00:11	14672	140	-66.3			
2025-11-25T00:11	14714	139			316	24
2025-11-25T00:12	15054	132			308	22
2025-11-25T00:13	15276	127			299	19
2025-11-25T00:14	15658	119			297	19
2025-11-25T00:15	15917	114	-76.9			
2025-11-25T00:15	15996	112			304	21
2025-11-25T00:15	16079	110	-76.9			
2025-11-25T00:16	16265	107			304	18
2025-11-25T00:17	16551	102			295	18
2025-11-25T00:17	16596	101	-79.7			
2025-11-25T00:18	16883	96			304	23
2025-11-25T00:18	16922	95	-81.3			
2025-11-25T00:18	17152	91	-80.5			
2025-11-25T00:19	17230	90			321	21
2025-11-25T00:19	17519	86			306	12
2025-11-25T00:19	17531	85	-79.3			
2025-11-25T00:20	17732	83	-78.7			
2025-11-25T00:20	17870	81			302	9
2025-11-25T00:21	18145	77			277	10
2025-11-25T00:22	18263	75	-80.6			
2025-11-25T00:22	18292	75			269	4
2025-11-25T00:22	18459	73			178	3
2025-11-25T00:23	18608	71			105	3
2025-11-25T00:23	18788	68			136	2
2025-11-25T00:23	18905	67			281	3
2025-11-25T00:24	18957	66	-80.6			
2025-11-25T00:24	19112	65	-78.5			
2025-11-25T00:24	19121	65			24	4
2025-11-25T00:24	19220	63	-78.1			
2025-11-25T00:25	19328	62	-76.9			
2025-11-25T00:25	19367	62			45	7
2025-11-25T00:25	19412	61	-75.9			
2025-11-25T00:25	19547	60	-74.9			
2025-11-25T00:25	19565	60			39	10
2025-11-25T00:26	19784	58	-72.8		104	6
2025-11-25T00:26	19857	57	-71.3			
2025-11-25T00:26	19899	56			119	4
2025-11-25T00:26	19983	56	-71.3			
2025-11-25T00:27	20080	55			50	3
2025-11-25T00:27	20144	54	-70.2			
2025-11-25T00:27	20311	53			46	6
2025-11-25T00:28	20476	51	-68.5			
2025-11-25T00:28	20511	51			57	7
2025-11-25T00:28	20580	50	-66.1			
2025-11-25T00:29	20813	48			73	13
2025-11-25T00:30	21125	46			66	7
2025-11-25T00:30	21398	44	-64.3			
2025-11-25T00:31	21492	43			40	8
2025-11-25T00:31	21712	42			86	8
2025-11-25T00:31	21768	41	-64.2			
2025-11-25T00:31	21846	41			91	9
2025-11-25T00:32	22029	40			63	10
2025-11-25T00:33	22378	38	-62.1			
2025-11-25T00:33	22446	37			78	8
2025-11-25T00:33	22547	37	-62.1			
2025-11-25T00:34	22789	35			49	6
2025-11-25T00:34	23039	34			39	6
2025-11-25T00:34	23073	34	-62.8			
2025-11-25T00:35	23302	32			25	11
2025-11-25T00:35	23340	32	-59.4			
2025-11-25T00:36	23540	31			3	12
2025-11-25T00:36	23723	30	-57.7		13	15
2025-11-25T00:37	24068	29	-57.1		41	6
2025-11-25T00:37	24223	28	-56.7			
2025-11-25T00:37	24290	28			48	2
2025-11-25T00:38	24408	27			357	4
2025-11-25T00:38	24668	26	-56.8			
2025-11-25T00:39	24742	26			11	9
2025-11-25T00:39	24944	25	-54.7			
2025-11-25T00:40	25177	24	-55.1			
2025-11-25T00:40	25204	24			18	15
2025-11-25T00:41	25673	22			61	6
2025-11-25T00:41	25763	22	-54.3			
2025-11-25T00:41	25820	22			95	1
2025-11-25T00:41	25972	21			255	3
2025-11-25T00:42	26214	20			239	5
2025-11-25T00:43	26638	19			265	9
2025-11-25T00:43	26705	19	-54.1			
2025-11-25T00:44	27088	18			295	5
2025-11-25T00:44	27235	17	-54.7			
2025-11-25T00:45	27385	17			303	4
2025-11-25T00:45	27615	16			283	6
2025-11-25T00:46	27848	16	-57.0			
2025-11-25T00:46	28055	15			315	8
2025-11-25T00:47	28351	15	-56.1			
2025-11-25T00:47	28438	14			8	13
2025-11-25T00:48	28803	14			354	10
2025-11-25T00:48	28850	14	-53.9			
2025-11-25T00:48	28994	13			15	9
2025-11-25T00:49	29148	13	-50.3			
2025-11-25T00:49	29457	12			359	9
2025-11-25T00:50	29676	12			18	10
2025-11-25T00:50	29732	12	-48.6			
2025-11-25T00:50	29900	12			68	4
2025-11-25T00:50	29957	11	-44.5			
2025-11-25T00:51	30136	11			107	5
2025-11-25T00:51	30320	11			151	7
2025-11-25T00:52	30829	10			154	7
2025-11-25T00:53	31025	10	-49.8			
2025-11-25T00:53	31094	10			162	8
2025-11-25T00:53	31302	9			175	7
2025-11-25T00:54	31517	9			165	6
2025-11-25T00:55	31975	8			270	9
2025-11-25T00:55	32223	8	-44.7			
2025-11-25T00:55	32389	8			331	10
2025-11-25T00:56	32560	8	-42.6			
2025-11-25T00:56	32740	8			318	11
2025-11-25T00:57	33208	7	-39.0		352	15
2025-11-25T00:57	33325	7	-39.3		344	15
2025-11-25T11:30	9	1015	27.1	24.6	80	3
2025-11-25T11:30	12	1015	27.1	24.2	353	1
2025-11-25T11:30	26	1013			98	3
2025-11-25T11:30	109	1004			91	4
2025-11-25T11:31	418	969	23.7	21.8		
2025-11-25T11:31	470	964			70	4
2025-11-25T11:32	627	946			53	2
2025-11-25T11:32	877	920			23	2
2025-11-25T11:33	907	917	20.9	17.3		
2025-11-25T11:33	1224	884	19.5	13.7	62	1
2025-11-25T11:34	1356	870	18.8	11.4		
2025-11-25T11:34	1577	848			65	3
2025-11-25T11:35	1748	831			46	3
2025-11-25T11:35	1811	825	15.7	4.4		
2025-11-25T11:35	1879	818			61	2
2025-11-25T11:36	2099	797	13.4	4.8		
2025-11-25T11:36	2155	792	15.2	0.2		
2025-11-25T11:36	2212	787	16.6	-8.6		
2025-11-25T11:36	2218	786			0	0
2025-11-25T11:36	2270	781	16.8	-13.9		
2025-11-25T11:37	2415	768	16.6	-25.8		
2025-11-25T11:37	2545	756			281	2
2025-11-25T11:38	2723	741	15.1	-29.9		
2025-11-25T11:38	2736	739			225	4
2025-11-25T11:39	3110	707	13.0	-25.9	211	3
2025-11-25T11:40	3408	683			217	2
2025-11-25T11:40	3432	681	11.1	-27.2		
2025-11-25T11:40	3515	674			260	3
2025-11-25T11:40	3597	667	10.5	-30.1		
2025-11-25T11:40	3662	662			229	2
2025-11-25T11:41	3897	644	8.6	-29.0		
2025-11-25T11:41	4016	634			235	5
2025-11-25T11:42	4185	621			252	6
2025-11-25T11:42	4376	607			231	7
2025-11-25T11:43	4536	595	3.8	-34.8		
2025-11-25T11:43	4549	594			247	8
2025-11-25T11:43	4874	571	1.3	-34.3		
2025-11-25T11:44	4931	567			266	5
2025-11-25T11:44	5045	559	-0.2	-29.4		
2025-11-25T11:44	5131	553	-1.1	-27.9		
2025-11-25T11:45	5305	541			270	8
2025-11-25T11:45	5342	538	-2.4	-35.2		
2025-11-25T11:45	5543	525	-3.9	-36.3		
2025-11-25T11:46	5661	517			267	6
2025-11-25T11:46	5797	508	-5.6	-28.2		
2025-11-25T11:46	5839	505			257	5
2025-11-25T11:46	5899	502	-6.3	-24.1		
2025-11-25T11:47	5982	496			244	5
2025-11-25T11:47	6164	485	-8.2	-29.6		
2025-11-25T11:47	6176	484			217	5
2025-11-25T11:47	6290	477	-8.7	-31.4		
2025-11-25T11:48	6364	472			247	6
2025-11-25T11:49	6738	450			247	5
2025-11-25T11:49	6825	445	-13.6	-34.1		
2025-11-25T11:49	6843	444			243	4
2025-11-25T11:49	6955	437	-12.4	-49.0		
2025-11-25T11:49	6961	437			179	2
2025-11-25T11:50	7238	421			200	3
2025-11-25T11:50	7250	421	-14.2	-53.8		
2025-11-25T11:51	7495	407			196	4
2025-11-25T11:51	7654	399			203	5
2025-11-25T11:51	7667	398	-16.9	-52.2		
2025-11-25T11:52	7833	389	-16.9	-52.2		
2025-11-25T11:52	8029	379			271	8
2025-11-25T11:53	8238	369	-19.9	-51.9		
2025-11-25T11:53	8393	361			284	11
2025-11-25T11:54	8738	345			286	11
2025-11-25T11:54	8814	341	-24.7	-61.0		
2025-11-25T11:55	8978	333			268	10
2025-11-25T11:56	9326	318			274	10
2025-11-25T11:56	9379	315	-29.6	-55.8		
2025-11-25T11:57	9616	305			288	11
2025-11-25T11:57	9680	302	-32.1	-54.5		
2025-11-25T11:57	9748	299	-31.5	-58.8		
2025-11-25T11:57	9957	291			291	13
2025-11-25T11:58	10331	275			295	11
2025-11-25T11:59	10384	273	-36.1	-62.3		
2025-11-25T11:59	10500	269	-36.3	-64.1		
2025-11-25T11:59	10717	261			309	17
2025-11-25T12:00	10993	250	-40.0	-65.3		
2025-11-25T12:01	11112	246			315	21
2025-11-25T12:02	11480	233			317	21
2025-11-25T12:03	11794	222			310	21
2025-11-25T12:03	11864	220	-46.5			
2025-11-25T12:04	12119	212			316	22
2025-11-25T12:05	12431	202			325	25
2025-11-25T12:06	12759	192			324	27
2025-11-25T12:06	13062	183			322	30
2025-11-25T12:07	13256	177	-56.2			
2025-11-25T12:07	13369	174			322	32
2025-11-25T12:08	13677	166			323	29
2025-11-25T12:09	13993	158			319	23
2025-11-25T12:10	14327	150			305	18
2025-11-25T12:11	14344	149	-63.2			
2025-11-25T12:11	14707	141			285	18
2025-11-25T12:12	15157	130			277	20
2025-11-25T12:13	15294	127	-71.5			
2025-11-25T12:13	15562	122			275	21
2025-11-25T12:14	15902	115			275	19
2025-11-25T12:15	16279	107	-79.5			
2025-11-25T12:15	16287	107	-79.5		288	17
2025-11-25T23:30	9	1015	28.4	24.0	150	2
2025-11-25T23:30	11	1015	28.2	23.8	125	1
2025-11-25T23:30	90	1006			146	3
2025-11-25T23:30	101	1005	26.6	22.5		
2025-11-25T23:31	289	983			147	2
2025-11-25T23:31	425	968			134	3
2025-11-25T23:32	551	955			164	3
2025-11-25T23:32	585	951	22.0	20.5		
2025-11-25T23:33	890	918			165	5
2025-11-25T23:33	940	913	19.9	15.8		
2025-11-25T23:33	1012	906	19.6	15.5		
2025-11-25T23:33	1118	895	19.0	14.7		
2025-11-25T23:34	1223	884			179	6
2025-11-25T23:35	1559	850			165	4
2025-11-25T23:35	1684	837	15.5	9.4		
2025-11-25T23:35	1719	834			188	3
2025-11-25T23:35	1765	829	15.6	6.9		
2025-11-25T23:35	1822	824			208	2
2025-11-25T23:36	1873	819	14.7	5.2		
2025-11-25T23:36	1952	811	15.5	-2.0		
2025-11-25T23:36	1958	811			180	4
2025-11-25T23:36	2149	793	15.6	-5.5		
2025-11-25T23:36	2154	792			179	5
2025-11-25T23:37	2304	778	16.6	-23.3		
2025-11-25T23:37	2447	765			182	5
2025-11-25T23:37	2458	764	16.3	-21.4		
2025-11-25T23:38	2783	735			192	8
2025-11-25T23:39	2834	731	14.8	-22.5		
2025-11-25T23:39	3120	706			190	9
2025-11-25T23:39	3156	703	13.5	-31.0		
2025-11-25T23:40	3474	677	11.4	-32.4	203	8
2025-11-25T23:41	3688	660	10.0	-33.4		
2025-11-25T23:41	3828	649			226	8
2025-11-25T23:42	4127	626			220	8
2025-11-25T23:43	4270	615	5.8	-26.0		
2025-11-25T23:43	4368	607			226	7
2025-11-25T23:43	4523	596	4.2	-23.7		
2025-11-25T23:43	4562	593			244	6
2025-11-25T23:44	4662	586	3.5	-26.5		
2025-11-25T23:44	4852	572	2.2	-25.3		
2025-11-25T23:44	4882	570			247	9
2025-11-25T23:45	5147	552	0.4	-30.1		
2025-11-25T23:45	5199	548			286	7
2025-11-25T23:46	5420	533	-1.8	-28.5		
2025-11-25T23:46	5528	526			281	8
2025-11-25T23:47	5850	505			268	9
2025-11-25T23:48	6021	494			261	11
2025-11-25T23:48	6255	479	-8.8	-34.0		
2025-11-25T23:49	6355	473			268	12
2025-11-25T23:49	6457	467	-10.2	-38.3		
2025-11-25T23:49	6552	461			268	12
2025-11-25T23:50	6794	447			266	12
2025-11-25T23:50	6845	444	-12.2	-44.3		
2025-11-25T23:50	6918	440	-11.4	-51.8		
2025-11-25T23:51	7045	432			269	12
2025-11-25T23:51	7074	431	-11.8	-57.8		
2025-11-25T23:51	7247	421	-12.8	-58.5		
2025-11-25T23:52	7408	412			269	11
2025-11-25T23:52	7641	400			274	12
2025-11-25T23:53	7853	388			278	11
2025-11-25T23:54	8179	372	-19.3	-62.7		
2025-11-25T23:54	8215	370			262	11
2025-11-25T23:55	8568	353	-22.4	-64.7		
2025-11-25T23:55	8574	353			274	11
2025-11-25T23:56	8929	336			277	13
2025-11-25T23:56	9038	331	-26.1	-56.5		
2025-11-25T23:57	9278	320	-27.7	-57.7		
2025-11-25T23:57	9296	319			274	16
2025-11-25T23:57	9410	314	-28.2	-58.1		
2025-11-25T23:58	9678	303			278	16
2025-11-25T23:59	10023	288	-33.6	-53.3		
2025-11-25T23:59	10069	286			281	16
2025-11-26T00:00	10470	270			293	19
2025-11-26T00:01	10829	256	-40.0	-61.7		
2025-11-26T00:01	10855	255			289	20
2025-11-26T00:02	11242	241			294	20
2025-11-26T00:02	11370	237	-43.8			
2025-11-26T00:03	11638	227			294	21
2025-11-26T00:04	12019	215			301	26
2025-11-26T00:05	12394	203			305	26
2025-11-26T00:06	12792	191			310	26
2025-11-26T00:07	13069	183	-54.6			
2025-11-26T00:07	13179	180			313	24
2025-11-26T00:08	13571	169			317	28
2025-11-26T00:09	13965	158			321	29
2025-11-26T00:09	14145	154	-63.8			
2025-11-26T00:10	14187	153			320	28
2025-11-26T00:10	14459	146	-65.0			
2025-11-26T00:11	14623	142			302	20
2025-11-26T00:11	14889	136			285	17
2025-11-26T00:12	15121	131			278	19
2025-11-26T00:13	15562	121	-75.4			
2025-11-26T00:13	15577	121			275	19
2025-11-26T00:14	16035	112			284	21
2025-11-26T00:14	16218	108	-80.8			
2025-11-26T00:14	16335	106			274	20
2025-11-26T00:15	16656	100	-81.2			
2025-11-26T00:15	16755	98			270	15
2025-11-26T00:16	17186	91			274	15
2025-11-26T00:16	17245	90	-83.1			
2025-11-26T00:17	17442	87	-83.4			
2025-11-26T00:17	17531	86			264	16
2025-11-26T00:17	17668	83	-82.6			
2025-11-26T00:18	17907	80			318	14
2025-11-26T00:18	18124	77			299	9
2025-11-26T00:19	18199	76	-81.8			
2025-11-26T00:19	18333	74	-79.9			
2025-11-26T00:19	18481	72			311	6
2025-11-26T00:19	18489	72	-79.5			
2025-11-26T00:19	18550	71			305	1
2025-11-26T00:20	18625	70			153	3
2025-11-26T00:20	18655	70	-77.5			
2025-11-26T00:20	18860	68			164	8
2025-11-26T00:20	18881	67	-78.5			
2025-11-26T00:20	18991	66	-77.3			
2025-11-26T00:21	19192	64			268	4
2025-11-26T00:21	19202	64	-77.3			
2025-11-26T00:22	19451	61			323	1
2025-11-26T00:22	19518	60	-75.4			
2025-11-26T00:22	19567	60			95	3
2025-11-26T00:22	19735	58	-73.9		85	7
2025-11-26T00:23	19985	56	-73.1			
2025-11-26T00:23	20004	55			123	6
2025-11-26T00:24	20200	54	-71.1			
2025-11-26T00:24	20392	52			171	8
2025-11-26T00:24	20493	51	-70.8			
2025-11-26T00:25	20606	50			202	3
2025-11-26T00:25	20707	49	-68.6			
2025-11-26T00:25	20718	49			19	1
2025-11-26T00:26	20944	47			59	6
2025-11-26T00:26	21255	45			90	9
2025-11-26T00:27	21418	44	-69.7			
2025-11-26T00:27	21531	43			75	4
2025-11-26T00:27	21700	42			17	4
2025-11-26T00:28	21815	41	-67.4			
2025-11-26T00:28	22103	39			55	7
2025-11-26T00:29	22276	38	-63.8			
2025-11-26T00:30	22508	37			82	6
2025-11-26T00:30	22713	35			63	8
2025-11-26T00:31	23135	33			90	8
2025-11-26T00:31	23304	32	-60.3			
2025-11-26T00:32	23364	32			95	7
2025-11-26T00:32	23544	31			113	10
2025-11-26T00:32	23625	31	-57.2			
2025-11-26T00:33	23898	29	-56.9			
2025-11-26T00:33	23990	29			184	13
2025-11-26T00:34	24235	28			206	9
2025-11-26T00:34	24493	27			213	4
2025-11-26T00:35	24688	26			204	8
2025-11-26T00:35	24813	25	-55.4			
2025-11-26T00:36	25120	24			231	8
2025-11-26T00:37	25584	22	-55.7		249	10
2025-11-26T00:37	25817	22			239	11
2025-11-26T00:38	26025	21	-54.6			
2025-11-26T00:38	26149	21			285	9
2025-11-26T00:39	26403	20			252	9
2025-11-26T00:39	26735	19			244	8
2025-11-26T00:40	27087	18			258	6
2025-11-26T00:41	27271	17	-55.3			
2025-11-26T00:41	27423	17			228	7
2025-11-26T00:42	27690	16			212	5
2025-11-26T00:42	27732	16	-54.5			
2025-11-26T00:42	27934	16			191	2
2025-11-26T00:42	28104	15			97	3
2025-11-26T00:43	28274	15			85	5
2025-11-26T00:44	28764	14			126	8
2025-11-26T00:44	28858	13	-57.4			
2025-11-26T00:45	29246	13			156	8
2025-11-26T00:45	29455	12			175	5
2025-11-26T00:46	29611	12			189	5
2025-11-26T00:46	29665	12	-54.4			
2025-11-26T00:46	29777	12			233	3
2025-11-26T00:47	30061	11			211	3
2025-11-26T00:47	30299	11			235	4
2025-11-26T00:47	30422	11	-51.2			
2025-11-26T00:48	30610	10			221	3
2025-11-26T00:48	30743	10			289	3
2025-11-26T00:49	31002	10			323	6
2025-11-26T00:49	31279	9	-50.6			
2025-11-26T00:50	31425	9			293	6
2025-11-26T00:50	31500	9	-46.9			
2025-11-26T00:50	31648	9			282	8
2025-11-26T00:51	31878	8			297	12
2025-11-26T00:51	31957	8	-45.5			
2025-11-26T00:51	32124	8			269	10
2025-11-26T00:52	32289	8	-44.5			
2025-11-26T00:52	32462	8			295	8
2025-11-26T00:52	32728	7	-44.0			
2025-11-26T00:53	32914	7	-41.9			
2025-11-26T00:53	33040	7	-42.7		277	13
2025-11-26T11:30	9	1014	25.2	23.6	200	3
2025-11-26T11:30	11	1013	25.7	23.6	158	1
2025-11-26T11:30	51	1009	26.9	22.5		
2025-11-26T11:30	95	1004			197	3
2025-11-26T11:31	364	974			201	3
2025-11-26T11:31	477	961	23.1	21.2		
2025-11-26T11:32	576	950	23.0	18.1		
2025-11-26T11:32	695	938			235	5
2025-11-26T11:33	908	915	20.7	16.3		
2025-11-26T11:33	930	913			240	5
2025-11-26T11:33	1107	894			246	4
2025-11-26T11:34	1246	880	18.2	13.9		
2025-11-26T11:34	1434	861			260	5
2025-11-26T11:34	1460	858	17.5	7.8		
2025-11-26T11:35	1547	849	17.7	6.3		
2025-11-26T11:35	1615	843	17.9	3.4	283	4
2025-11-26T11:35	1701	834	18.5	-3.0		
2025-11-26T11:36	1884	816	18.1	-8.9		
2025-11-26T11:36	1940	811			274	4
2025-11-26T11:36	2001	805	17.2	-9.7		
2025-11-26T11:37	2182	788			238	4
2025-11-26T11:37	2240	783	16.9	-14.9		
2025-11-26T11:38	2529	757			231	6
2025-11-26T11:38	2574	753	15.7	-18.5		
2025-11-26T11:39	2851	729			262	8
2025-11-26T11:39	2862	728	14.9	-27.0		
2025-11-26T11:39	3038	713			257	10
2025-11-26T11:40	3217	698	13.2	-14.7		
2025-11-26T11:40	3374	685			254	12
2025-11-26T11:41	3597	666			250	13
2025-11-26T11:42	3947	639			241	16
2025-11-26T11:42	4163	622	5.7	-21.6		
2025-11-26T11:43	4305	611			237	15
2025-11-26T11:43	4387	605	4.3	-27.2		
2025-11-26T11:44	4666	585			231	15
2025-11-26T11:44	4810	574	1.5	-28.0		
2025-11-26T11:45	5034	559			243	12
2025-11-26T11:45	5241	544	-1.0	-28.9		
2025-11-26T11:46	5332	538			243	11
2025-11-26T11:47	5653	517	-3.4	-26.4		
2025-11-26T11:47	5670	515			234	10
2025-11-26T11:48	6016	493			247	11
2025-11-26T11:48	6181	483	-7.9	-30.1		
2025-11-26T11:49	6358	472			256	10
2025-11-26T11:49	6375	471	-8.8	-28.3		
2025-11-26T11:49	6545	461			242	9
2025-11-26T11:50	6796	446	-12.7	-23.2		
2025-11-26T11:50	6898	440			265	9
2025-11-26T11:51	7076	430	-15.3	-24.6		
2025-11-26T11:51	7093	429			261	10
2025-11-26T11:51	7156	425	-14.4	-39.4		
2025-11-26T11:52	7391	412	-14.5	-41.6		
2025-11-26T11:52	7446	409			256	13
2025-11-26T11:53	7809	390			250	13
2025-11-26T11:53	7867	387	-16.4	-55.3		
2025-11-26T11:54	8143	373	-17.6	-52.7	263	14
2025-11-26T11:54	8358	362			265	15
2025-11-26T11:55	8724	345	-22.9	-43.1		
2025-11-26T11:55	8757	343			280	19
2025-11-26T11:56	9154	325			270	18
2025-11-26T11:57	9239	321	-26.6	-55.1		
2025-11-26T11:57	9532	308			278	20
2025-11-26T11:58	9824	296	-31.2	-52.9		
2025-11-26T11:58	9906	293			275	22
2025-11-26T11:59	10293	277			281	22
2025-11-26T12:00	10680	262			288	23
2025-11-26T12:01	10880	254	-38.8	-59.8		
2025-11-26T12:01	11005	250	-39.7	-55.5		
2025-11-26T12:01	11058	248	-40.0	-55.7		
2025-11-26T12:01	11078	247			293	25
2025-11-26T12:02	11466	233			302	29
2025-11-26T12:03	11718	225	-45.3			
2025-11-26T12:03	11847	221			303	30
2025-11-26T12:04	12192	209	-49.2			
2025-11-26T12:04	12231	208			303	28
2025-11-26T12:05	12621	196			300	22
2025-11-26T12:06	12815	190	-52.5			
2025-11-26T12:06	12988	185			304	22
2025-11-26T12:07	13368	174			304	20
2025-11-26T12:08	13763	164			308	20
2025-11-26T12:09	13956	159	-62.1			
2025-11-26T12:09	14126	154	-62.1			
2025-11-26T12:09	14179	153			286	21
2025-11-26T12:10	14648	142			275	21
2025-11-26T12:11	15059	132			272	21
2025-11-26T12:12	15474	123			274	21
2025-11-26T12:12	15529	122	-75.3			
2025-11-26T12:13	15796	117	-77.4		279	21
2025-11-26T23:30	9	1014	26.7	24.0	330	5
2025-11-26T23:30	11	1014	26.3	23.6	354	2
2025-11-26T23:30	35	1011	25.4	22.5		
2025-11-26T23:30	41	1011			321	5
2025-11-26T23:31	273	984			305	5
2025-11-26T23:31	349	976	23.3	21.6		
2025-11-26T23:31	434	966			305	3
2025-11-26T23:32	528	956	21.9	20.2		
2025-11-26T23:32	805	926			248	4
2025-11-26T23:32	814	925	20.4	17.6		
2025-11-26T23:33	1175	887	18.5	15.2		
2025-11-26T23:33	1187	886			235	3
2025-11-26T23:34	1330	871	17.6	15.4		
2025-11-26T23:34	1393	865	17.5	15.1		
2025-11-26T23:34	1476	856	17.5	15.0		
2025-11-26T23:34	1564	848			270	6
2025-11-26T23:35	1858	819	15.6	14.0		
2025-11-26T23:35	1940	811			291	7
2025-11-26T23:36	2162	790	14.7	10.5		
2025-11-26T23:36	2289	778	13.8	9.8		
2025-11-26T23:36	2321	775			289	9
2025-11-26T23:36	2372	771	13.5	9.0		
2025-11-26T23:37	2436	765	13.9	7.2		
2025-11-26T23:37	2580	752	13.6	5.0		
2025-11-26T23:37	2697	742	13.6	-0.4		
2025-11-26T23:37	2710	741			269	13
2025-11-26T23:37	2788	734	13.3	-2.2		
2025-11-26T23:38	2846	729	14.1	-9.9		
2025-11-26T23:38	2962	719	13.9	-10.0		
2025-11-26T23:38	3097	707			255	15
2025-11-26T23:39	3238	696	12.0	-16.6		
2025-11-26T23:39	3410	681	10.8	-15.7		
2025-11-26T23:39	3478	676			252	18
2025-11-26T23:40	3679	660	9.3	-22.0		
2025-11-26T23:40	3845	647			255	19
2025-11-26T23:41	3951	638	7.5	-20.1		
2025-11-26T23:41	4087	628	6.9	-26.7		
2025-11-26T23:41	4218	618			264	16
2025-11-26T23:42	4367	607	5.9	-31.0		
2025-11-26T23:42	4592	590	4.5	-34.3	268	16
2025-11-26T23:43	4950	564	2.1	-30.3		
2025-11-26T23:43	4976	563			263	17
2025-11-26T23:44	5357	536			273	14
2025-11-26T23:44	5442	531	-1.4	-23.3		
2025-11-26T23:45	5574	522	-2.5	-19.9		
2025-11-26T23:45	5686	515	-3.7	-16.0		
2025-11-26T23:45	5752	510			286	13
2025-11-26T23:46	5879	502	-5.6	-13.7		
2025-11-26T23:46	5953	497	-5.9	-18.9		
2025-11-26T23:46	6126	487			285	14
2025-11-26T23:47	6391	470	-9.2	-24.0		
2025-11-26T23:47	6504	463			283	14
2025-11-26T23:48	6880	441			285	15
2025-11-26T23:49	7113	428	-16.1	-26.1		
2025-11-26T23:49	7192	423	-16.6	-30.5		
2025-11-26T23:49	7249	420	-16.6	-36.6		
2025-11-26T23:49	7274	419			262	15
2025-11-26T23:49	7286	418	-15.9	-34.8		
2025-11-26T23:49	7334	415	-13.5	-49.8		
2025-11-26T23:50	7405	412			263	19
2025-11-26T23:50	7423	411	-13.4	-58.9		
2025-11-26T23:50	7590	402	-14.3	-59.4		
2025-11-26T23:51	7770	392			262	16
2025-11-26T23:52	8163	372			280	18
2025-11-26T23:52	8394	361	-20.6	-49.0		
2025-11-26T23:53	8548	353			288	23
2025-11-26T23:53	8713	346	-22.4	-51.9		
2025-11-26T23:53	8829	340			285	21
2025-11-26T23:54	9181	324			280	21
2025-11-26T23:54	9253	321	-26.5	-53.5		
2025-11-26T23:55	9560	307			278	22
2025-11-26T23:56	9942	291			285	24
2025-11-26T23:57	10312	276	-34.3	-57.2		
2025-11-26T23:57	10326	276			294	26
2025-11-26T23:58	10627	264			299	26
2025-11-26T23:59	10924	253			304	30
2025-11-26T23:59	10931	253	-40.0	-51.0		
2025-11-27T00:00	11313	239	-43.4			
2025-11-27T00:00	11320	239			306	29
2025-11-27T00:00	11427	235	-42.7			
2025-11-27T00:00	11625	228	-43.7			
2025-11-27T00:01	11688	226			302	25
2025-11-27T00:02	12108	212			292	23
2025-11-27T00:02	12212	209	-48.3			
2025-11-27T00:03	12497	200			295	26
2025-11-27T00:04	12875	189	-52.6			
2025-11-27T00:04	12882	188			289	23
2025-11-27T00:05	13298	176			290	23
2025-11-27T00:06	13706	165			280	22
2025-11-27T00:06	14016	157	-62.9			
2025-11-27T00:07	14089	155			276	26
2025-11-27T00:08	14433	147			280	27
2025-11-27T00:09	14773	139			285	27
2025-11-27T00:09	14828	138	-69.6			
2025-11-27T00:10	15135	131			287	27
2025-11-27T00:10	15461	124			287	25
2025-11-27T00:12	15883	115	-78.8		293	24
2025-11-27T11:30	9	1014	25.5	23.0	50	5
2025-11-27T11:30	13	1013	25.7	22.6	52	1
2025-11-27T11:30	79	1006			57	8
2025-11-27T11:30	90	1004	25.0	21.1		
2025-11-27T11:31	407	969			49	9
2025-11-27T11:32	594	948	20.2	18.9		
2025-11-27T11:32	665	940	20.4	17.8		
2025-11-27T11:32	718	935			36	6
2025-11-27T11:33	881	917	19.2	17.3		
2025-11-27T11:33	979	907			52	3
2025-11-27T11:33	1090	895	18.4	16.6		
2025-11-27T11:33	1130	891			74	2
2025-11-27T11:34	1479	855			65	3
2025-11-27T11:35	1714	832	15.1	14.0		
2025-11-27T11:35	1720	831			80	1
2025-11-27T11:36	1973	807			236	3
2025-11-27T11:36	2122	793	13.9	10.7		
2025-11-27T11:37	2190	786	14.1	9.1		
2025-11-27T11:37	2291	777			296	7
2025-11-27T11:37	2307	776	13.6	7.1		
2025-11-27T11:37	2390	768	14.3	1.9		
2025-11-27T11:38	2514	757	14.7	-7.4		
2025-11-27T11:38	2604	749	14.0	-3.8		
2025-11-27T11:38	2626	747			316	11
2025-11-27T11:38	2745	736	13.2	-0.1		
2025-11-27T11:38	2795	732	12.6	3.0		
2025-11-27T11:39	2839	728	12.3	3.3		
2025-11-27T11:39	2901	723	11.6	4.6		
2025-11-27T11:39	2957	718	11.6	1.3		
2025-11-27T11:39	2962	717			310	11
2025-11-27T11:39	2996	714	11.6	-5.0		
2025-11-27T11:39	3030	711	12.3	-19.7		
2025-11-27T11:40	3237	694	11.0	-13.9		
2025-11-27T11:40	3300	689			298	17
2025-11-27T11:40	3458	676	9.6	-17.5		
2025-11-27T11:41	3642	661			283	18
2025-11-27T11:41	3745	653	7.8	-16.5		
2025-11-27T11:42	3978	634			265	15
2025-11-27T11:42	4082	626	7.0	-30.2		
2025-11-27T11:43	4302	610			270	15
2025-11-27T11:43	4454	598	5.0	-26.6		
2025-11-27T11:44	4612	587	5.1	-29.7		
2025-11-27T11:44	4628	586			251	17
2025-11-27T11:45	4963	562			250	17
2025-11-27T11:46	5236	543			250	16
2025-11-27T11:47	5574	521			262	17
2025-11-27T11:47	5670	514	-3.4	-30.7		
2025-11-27T11:48	5929	498			262	16
2025-11-27T11:48	6043	490	-6.5	-28.2		
2025-11-27T11:49	6221	479			272	15
2025-11-27T11:49	6255	477	-7.7	-30.6		
2025-11-27T11:49	6384	469	-8.1	-28.3		
2025-11-27T11:49	6430	467			281	15
2025-11-27T11:49	6452	465	-8.7	-23.2		
2025-11-27T11:49	6504	462	-9.3	-17.3		
2025-11-27T11:50	6596	457	-9.8	-18.3		
2025-11-27T11:50	6650	454	-9.9	-21.6		
2025-11-27T11:50	6778	446	-10.8	-17.3	304	16
2025-11-27T11:51	7038	431	-13.0	-18.9		
2025-11-27T11:51	7119	427	-13.0	-25.3		
2025-11-27T11:51	7138	425			284	18
2025-11-27T11:51	7225	421	-13.1	-27.1		
2025-11-27T11:52	7359	413	-14.1	-30.3		
2025-11-27T11:52	7441	409	-14.4	-35.4		
2025-11-27T11:52	7501	406			272	17
2025-11-27T11:53	7732	393	-16.1	-41.8		
2025-11-27T11:53	7864	387			278	18
2025-11-27T11:54	7971	381	-17.3	-45.0		
2025-11-27T11:54	8149	372	-17.8	-50.4	284	21
2025-11-27T11:55	8421	359	-19.8	-51.9		
2025-11-27T11:55	8504	355			283	21
2025-11-27T11:56	8754	343	-21.9	-53.4		
2025-11-27T11:56	8836	339			283	23
2025-11-27T11:56	9000	332	-23.7	-54.7		
2025-11-27T11:57	9189	323			282	23
2025-11-27T11:57	9307	318	-26.0	-47.8		
2025-11-27T11:58	9488	310	-27.7	-46.4		
2025-11-27T11:58	9542	308			286	23
2025-11-27T11:58	9657	303	-29.2	-44.2		
2025-11-27T11:59	9892	293			291	21
2025-11-27T12:00	10103	284	-32.9	-47.8		
2025-11-27T12:00	10254	278			296	21
2025-11-27T12:01	10606	265			300	21
2025-11-27T12:02	10870	255			305	24
2025-11-27T12:02	10877	254	-40.0	-49.4		
2025-11-27T12:02	10883	254	-40.0	-49.4		
2025-11-27T12:02	11043	248			307	23
2025-11-27T12:02	11177	243	-40.4			
2025-11-27T12:03	11401	236			290	19
2025-11-27T12:03	11497	232	-41.6			
2025-11-27T12:04	11762	223			281	21
2025-11-27T12:05	12111	212			286	19
2025-11-27T12:06	12472	201			276	19
2025-11-27T12:07	12751	192	-52.2			
2025-11-27T12:07	12833	190			270	18
2025-11-27T12:08	13159	180			268	19
2025-11-27T12:09	13492	171			270	20
2025-11-27T12:10	13892	161			285	23
2025-11-27T12:11	14073	156	-63.2			
2025-11-27T12:11	14286	151			296	25
2025-11-27T12:12	14635	142			299	25
2025-11-27T12:13	15068	132	-72.5			
2025-11-27T12:13	15101	131			295	23
2025-11-27T12:13	15293	127	-73.8			
2025-11-27T12:14	15586	121			302	22
2025-11-27T12:14	15764	117	-76.8			
2025-11-27T12:15	15990	113			293	18
2025-11-27T12:16	16274	107			290	20
2025-11-27T12:16	16667	100	-80.6			
2025-11-27T12:17	16677	100			288	20
2025-11-27T12:17	16683	100	-80.7			
2025-11-27T12:18	17043	94			289	20
2025-11-27T12:18	17388	88			283	14
2025-11-27T12:19	17533	86	-84.1			
2025-11-27T12:19	17604	85			259	11
2025-11-27T12:19	17731	83	-83.4			
2025-11-27T12:20	17771	82			224	14
2025-11-27T12:21	18092	77			245	16
2025-11-27T12:21	18156	77	-84.0			
2025-11-27T12:21	18328	74			269	9
2025-11-27T12:21	18342	74	-82.4			
2025-11-27T12:22	18486	72			259	9
2025-11-27T12:22	18712	69			304	5
2025-11-27T12:23	18742	69	-80.9			
2025-11-27T12:23	18810	68			264	3
2025-11-27T12:23	18909	67			229	4
2025-11-27T12:23	18942	67	-79.6			
2025-11-27T12:24	19189	64			244	12
2025-11-27T12:24	19369	62	-77.4			
2025-11-27T12:25	19455	61			313	5
2025-11-27T12:25	19503	60	-75.6			
2025-11-27T12:25	19560	60			318	3
2025-11-27T12:25	19707	58			303	1
2025-11-27T12:25	19756	58	-74.3			
2025-11-27T12:26	20080	55	-72.8			
2025-11-27T12:26	20112	54			288	1
2025-11-27T12:27	20310	53			308	4
2025-11-27T12:27	20446	51	-69.4		287	3
2025-11-27T12:27	20648	50			3	3
2025-11-27T12:28	20810	48			46	4
2025-11-27T12:28	21009	47			112	5
2025-11-27T12:29	21389	44			165	5
2025-11-27T12:30	21497	43	-65.1			
2025-11-27T12:30	21612	42			222	7
2025-11-27T12:31	21959	40			205	8
2025-11-27T12:31	22171	39			216	8
2025-11-27T12:32	22332	38	-63.8			
2025-11-27T12:32	22516	37			313	5
2025-11-27T12:33	22585	36	-62.2			
2025-11-27T12:33	22740	35			318	5
2025-11-27T12:34	22992	34			352	6
2025-11-27T12:34	23069	33	-60.1			
2025-11-27T12:34	23086	33			360	5
2025-11-27T12:34	23102	33			1	5
2025-11-27T12:34	23199	33			350	2
2025-11-27T12:34	23316	32	-59.3			
2025-11-27T12:35	23432	32			285	3
2025-11-27T12:35	23496	31	-59.4			
2025-11-27T12:35	23615	31			333	2
2025-11-27T12:36	23824	30			215	2
2025-11-27T12:36	23975	29			214	4
2025-11-27T12:36	24017	29	-56.8			
2025-11-27T12:36	24128	28			248	7
2025-11-27T12:37	24405	27			268	8
2025-11-27T12:37	24523	27	-56.6			
2025-11-27T12:38	24741	26			247	4
2025-11-27T12:38	24920	25			275	2
2025-11-27T12:39	25051	24			300	3
2025-11-27T12:39	25180	24	-54.3			
2025-11-27T12:39	25235	24			253	5
2025-11-27T12:39	25338	23			273	2
2025-11-27T12:40	25650	22			238	4
2025-11-27T12:41	25828	22			191	6
2025-11-27T12:42	26191	20			217	9
2025-11-27T12:42	26448	20	-55.3			
2025-11-27T12:43	26642	19			204	13
2025-11-27T12:44	27095	18			204	14
2025-11-27T12:44	27388	17			212	13
2025-11-27T12:44	27423	17	-56.7			
2025-11-27T12:45	27656	16			222	11
2025-11-27T12:46	28105	15			227	14
2025-11-27T12:46	28316	15	-56.6			
2025-11-27T12:47	28538	14			239	16
2025-11-27T12:48	28815	14			241	15
2025-11-27T12:49	29295	13			241	17
2025-11-27T12:50	29763	12	-59.9		237	17
2025-11-27T12:50	30102	11	-59.8		262	17
2025-11-27T23:30	9	1014	26.4	22.3	70	4
2025-11-27T23:30	12	1014	26.5	22.1	70	1
2025-11-27T23:30	143	999			79	6
2025-11-27T23:31	196	993	24.7	20.2		
2025-11-27T23:31	504	959			87	7
2025-11-27T23:32	563	952	21.2	18.8		
2025-11-27T23:32	709	937	20.1	18.6		
2025-11-27T23:32	834	923	19.4	17.4		
2025-11-27T23:32	851	921			77	3
2025-11-27T23:33	1068	898			23	2
2025-11-27T23:33	1110	894	17.7	16.2		
2025-11-27T23:34	1347	870			212	1
2025-11-27T23:35	1641	840			248	3
2025-11-27T23:35	1759	828			212	3
2025-11-27T23:35	1770	827	14.2	12.8		
2025-11-27T23:36	1907	814			262	4
2025-11-27T23:36	1935	811	13.1	10.5		
2025-11-27T23:36	2095	796	12.9	7.8		
2025-11-27T23:37	2153	790	13.3	6.6		
2025-11-27T23:37	2182	788			262	4
2025-11-27T23:37	2188	787	14.5	6.8		
2025-11-27T23:37	2300	777	13.6	7.1		
2025-11-27T23:38	2510	757			249	6
2025-11-27T23:38	2539	755	12.1	6.4		
2025-11-27T23:38	2721	738	11.2	6.1		
2025-11-27T23:39	2865	726			280	6
2025-11-27T23:39	3066	709	9.5	2.8		
2025-11-27T23:39	3158	701	9.6	-2.4		
2025-11-27T23:40	3234	694			269	8
2025-11-27T23:40	3350	685	8.7	-3.8		
2025-11-27T23:40	3557	668	8.0	-11.4		
2025-11-27T23:41	3621	663			282	10
2025-11-27T23:41	3788	649	6.7	-15.3		
2025-11-27T23:42	3991	633	5.8	-20.6		
2025-11-27T23:42	4004	632			292	11
2025-11-27T23:42	4074	627	5.3	-12.2		
2025-11-27T23:42	4136	622	5.5	-19.1		
2025-11-27T23:42	4205	617	5.8	-31.1		
2025-11-27T23:43	4383	604			286	13
2025-11-27T23:43	4571	590	3.1	-24.6		
2025-11-27T23:43	4680	582	2.8	-28.3		
2025-11-27T23:44	4753	577			274	13
2025-11-27T23:44	4844	570	1.9	-27.7		
2025-11-27T23:44	5012	559	1.2	-29.5		
2025-11-27T23:45	5128	551			260	14
2025-11-27T23:45	5407	532	-1.9	-24.4		
2025-11-27T23:46	5503	525			251	13
2025-11-27T23:46	5692	513	-4.3	-19.7		
2025-11-27T23:47	5874	501			259	12
2025-11-27T23:47	6183	481			261	12
2025-11-27T23:48	6285	475	-9.9	-20.1		
2025-11-27T23:48	6333	472	-9.7	-23.0		
2025-11-27T23:48	6375	470	-9.3	-26.6		
2025-11-27T23:48	6518	461			253	13
2025-11-27T23:48	6549	459	-9.1	-34.3		
2025-11-27T23:49	6630	454	-8.6	-39.9		
2025-11-27T23:49	6717	449			264	15
2025-11-27T23:49	6820	443	-9.6	-42.4		
2025-11-27T23:49	6924	437	-9.3	-46.8		
2025-11-27T23:50	7082	429			255	15
2025-11-27T23:50	7143	425	-9.5	-50.5		
2025-11-27T23:51	7454	408			264	15
2025-11-27T23:51	7578	402	-13.4	-37.7		
2025-11-27T23:51	7644	398	-14.1	-30.3		
2025-11-27T23:52	7771	392			264	16
2025-11-27T23:52	7825	389	-15.3	-33.2		
2025-11-27T23:53	8123	374	-17.4	-50.1		
2025-11-27T23:53	8184	371			257	17
2025-11-27T23:54	8556	353	-20.5	-50.5		
2025-11-27T23:54	8588	351			265	18
2025-11-27T23:54	8704	346	-20.6	-44.4		
2025-11-27T23:55	8975	333			276	21
2025-11-27T23:56	9386	315			282	21
2025-11-27T23:56	9413	314	-27.2	-40.2		
2025-11-27T23:57	9777	298			281	20
2025-11-27T23:58	10118	284	-34.0	-39.6		
2025-11-27T23:58	10163	282			292	20
2025-11-27T23:58	10286	277	-35.2	-39.9		
2025-11-27T23:58	10408	272	-35.7	-43.0		
2025-11-27T23:59	10555	267			305	25
2025-11-27T23:59	10595	265	-36.8	-45.3		
2025-11-27T23:59	10662	263	-37.0	-49.2		
2025-11-27T23:59	10799	257			305	27
2025-11-27T23:59	10806	257	-37.8	-52.1		
2025-11-28T00:00	11144	245	-39.9	-57.8		
2025-11-28T00:00	11150	245	-40.0	-57.9		
2025-11-28T00:00	11188	243			303	27
2025-11-28T00:01	11504	232			309	32
2025-11-28T00:01	11582	230	-43.1			
2025-11-28T00:02	11774	223	-43.5			
2025-11-28T00:02	11868	220			300	26
2025-11-28T00:03	12271	207			291	20
2025-11-28T00:04	12675	195			275	21
2025-11-28T00:05	13001	185	-54.5			
2025-11-28T00:05	13061	183			278	22
2025-11-28T00:06	13448	173			283	24
2025-11-28T00:07	13794	163			284	25
2025-11-28T00:08	14127	155			284	25
2025-11-28T00:09	14453	147			282	23
2025-11-28T00:09	14529	145	-67.9			
2025-11-28T00:10	14806	138			293	24
2025-11-28T00:10	14971	134	-71.6			
2025-11-28T00:11	15200	129	-72.9		291	21
2025-11-28T11:30	9	1012	25.5	24.5	120	3
2025-11-28T11:30	12	1012	25.8	24.0	0	0
2025-11-28T11:30	39	1009			140	3
2025-11-28T11:30	68	1005	25.9	22.6		
2025-11-28T11:30	151	996			130	6
2025-11-28T11:31	426	965	22.9	21.0		
2025-11-28T11:31	474	960			149	7
2025-11-28T11:32	790	926			156	8
2025-11-28T11:33	882	916	19.8	18.8		
2025-11-28T11:33	979	906	19.6	18.1		
2025-11-28T11:33	1112	892			157	7
2025-11-28T11:34	1232	880	18.2	16.9		
2025-11-28T11:34	1301	873			178	5
2025-11-28T11:34	1438	859	17.5	16.4		
2025-11-28T11:34	1460	856			150	5
2025-11-28T11:35	1568	846	17.2	15.7		
2025-11-28T11:35	1780	825			155	4
2025-11-28T11:36	1918	812	15.3	13.7		
2025-11-28T11:36	1963	808			206	4
2025-11-28T11:37	2164	789	14.3	10.3		
2025-11-28T11:37	2227	783			216	6
2025-11-28T11:37	2278	778	14.3	6.2		
2025-11-28T11:37	2462	762	13.3	5.2		
2025-11-28T11:38	2570	752			231	8
2025-11-28T11:38	2608	748	12.6	4.1		
2025-11-28T11:38	2701	740	12.1	4.8		
2025-11-28T11:39	2863	726	11.4	1.6		
2025-11-28T11:39	2902	723			261	11
2025-11-28T11:39	3113	705	10.0	-0.8		
2025-11-28T11:39	3119	704			266	13
2025-11-28T11:40	3288	690	9.1	-3.5		
2025-11-28T11:40	3386	682	9.1	-4.5		
2025-11-28T11:40	3462	676			268	15
2025-11-28T11:40	3491	673	8.5	-3.4		
2025-11-28T11:41	3604	664	7.7	-3.5		
2025-11-28T11:41	3822	647			280	17
2025-11-28T11:41	3828	646	5.7	-3.9		
2025-11-28T11:42	3927	638	5.1	-4.5		
2025-11-28T11:42	3988	634	4.7	-5.1		
2025-11-28T11:42	4049	629	5.0	-10.7		
2025-11-28T11:42	4192	618			264	18
2025-11-28T11:42	4223	616	4.8	-20.5		
2025-11-28T11:43	4566	590			252	14
2025-11-28T11:44	4721	579	4.0	-37.5		
2025-11-28T11:44	4920	565			240	14
2025-11-28T11:45	5073	554	1.1	-29.6		
2025-11-28T11:45	5271	541			243	14
2025-11-28T11:46	5625	517	-3.5	-28.9	258	14
2025-11-28T11:47	5873	501	-4.7	-27.4		
2025-11-28T11:47	5962	495	-5.5	-24.4		
2025-11-28T11:47	5979	494			270	11
2025-11-28T11:48	6333	472	-8.6	-22.0		
2025-11-28T11:48	6345	472			273	13
2025-11-28T11:49	6419	467	-9.5	-19.2		
2025-11-28T11:49	6517	461	-10.0	-18.7		
2025-11-28T11:49	6586	457	-9.2	-22.5		
2025-11-28T11:49	6684	451	-7.6	-43.0		
2025-11-28T11:49	6690	451			273	16
2025-11-28T11:50	6936	437	-9.4	-56.3		
2025-11-28T11:50	7070	429			261	15
2025-11-28T11:50	7134	426	-11.1	-36.8		
2025-11-28T11:51	7336	415	-13.0	-35.0		
2025-11-28T11:51	7430	410	-13.5	-34.7		
2025-11-28T11:51	7463	408			259	16
2025-11-28T11:51	7515	405	-13.0	-49.4		
2025-11-28T11:52	7657	398	-13.4	-58.9		
2025-11-28T11:52	7847	388			271	20
2025-11-28T11:53	7996	380	-15.4	-60.2		
2025-11-28T11:53	8210	370	-16.8	-55.5		
2025-11-28T11:53	8217	369			266	22
2025-11-28T11:54	8590	351			261	23
2025-11-28T11:55	8731	345	-20.7	-58.2		
2025-11-28T11:55	8959	334			255	22
2025-11-28T11:56	9198	323	-24.9	-46.2		
2025-11-28T11:56	9336	317			257	23
2025-11-28T11:57	9700	302			265	23
2025-11-28T11:58	10089	285	-33.0	-48.4	273	24
2025-11-28T11:59	10346	275	-35.4	-50.4		
2025-11-28T11:59	10432	272			285	26
2025-11-28T12:00	10756	259	-38.6	-55.6		
2025-11-28T12:00	10779	258			285	25
2025-11-28T12:01	10942	252	-40.0	-54.8		
2025-11-28T12:01	11135	245			292	28
2025-11-28T12:02	11273	240	-42.4			
2025-11-28T12:02	11347	238			295	30
2025-11-28T12:02	11506	232	-43.2			
2025-11-28T12:03	11721	225			294	30
2025-11-28T12:04	12105	212			286	30
2025-11-28T12:05	12465	201			276	26
2025-11-28T12:05	12598	197	-51.9			
2025-11-28T12:06	12812	190			274	26
2025-11-28T12:07	13167	180			274	25
2025-11-28T12:08	13545	170			280	24
2025-11-28T12:09	13933	159			283	23
2025-11-28T12:10	14328	149			287	22
2025-11-28T12:10	14357	149	-65.8			
2025-11-28T12:11	14807	138			272	22
2025-11-28T12:11	14973	134	-71.1			
2025-11-28T12:12	15255	128			269	22
2025-11-28T12:13	15741	118			268	22
2025-11-28T12:13	15951	113	-78.3			
2025-11-28T12:14	16201	108			265	20
2025-11-28T12:15	16656	100	-82.8		261	20
2025-11-28T12:16	16963	95	-84.2			
2025-11-28T12:16	17043	93			254	19
2025-11-28T12:16	17250	90	-82.7			
2025-11-28T12:17	17381	88			253	21
2025-11-28T12:17	17400	87	-82.8			
2025-11-28T12:18	17686	83	-81.0			
2025-11-28T12:18	17776	82			306	20
2025-11-28T12:19	18075	78			306	20
2025-11-28T12:19	18082	77	-84.4		313	21
2025-11-28T23:30	9	1012	28.5	23.9	240	9
2025-11-28T23:30	12	1011	28.2	23.6	243	1
2025-11-28T23:30	35	1009			265	7
2025-11-28T23:30	81	1004			240	12
2025-11-28T23:31	198	990	26.3	21.7		
2025-11-28T23:31	420	966			238	12
2025-11-28T23:32	637	942	22.1	20.4		
2025-11-28T23:32	776	927			244	15
2025-11-28T23:32	821	922	22.1	13.5		
2025-11-28T23:33	947	909	20.7	15.9		
2025-11-28T23:33	1124	891			253	16
2025-11-28T23:33	1165	887	19.5	13.9		
2025-11-28T23:34	1289	874	19.5	10.5		
2025-11-28T23:34	1421	861	19.5	6.3		
2025-11-28T23:34	1472	856			269	15
2025-11-28T23:34	1501	853	19.3	4.3		
2025-11-28T23:35	1628	840	19.2	4.5		
2025-11-28T23:35	1687	834	18.5	9.0		
2025-11-28T23:35	1790	824	17.5	10.6		
2025-11-28T23:35	1827	821			278	14
2025-11-28T23:36	1949	809	17.1	7.2		
2025-11-28T23:36	2185	787			265	14
2025-11-28T23:36	2203	785	15.9	4.0		
2025-11-28T23:37	2286	778	15.1	6.9		
2025-11-28T23:37	2471	761	14.3	5.4		
2025-11-28T23:37	2531	756	13.9	6.7		
2025-11-28T23:37	2543	754			266	14
2025-11-28T23:38	2670	743	14.1	-8.5		
2025-11-28T23:38	2849	728	13.6	-23.4		
2025-11-28T23:38	2902	723			261	19
2025-11-28T23:39	3262	692			270	18
2025-11-28T23:39	3330	687	10.6	-30.0		
2025-11-28T23:40	3478	675	9.2	-18.8		
2025-11-28T23:40	3516	672	8.9	-8.6		
2025-11-28T23:40	3555	668	8.5	-0.8		
2025-11-28T23:40	3648	661			275	17
2025-11-28T23:41	3988	634	4.6	-1.0		
2025-11-28T23:41	4018	632			275	16
2025-11-28T23:41	4048	629	4.6	-6.0		
2025-11-28T23:42	4121	624	3.7	-3.1		
2025-11-28T23:42	4220	616	3.3	-3.7		
2025-11-28T23:42	4352	606	2.7	-3.4		
2025-11-28T23:42	4390	603			269	14
2025-11-28T23:42	4446	599	2.5	-8.8		
2025-11-28T23:43	4516	594	1.9	-4.8		
2025-11-28T23:43	4690	581	0.5	-5.7		
2025-11-28T23:43	4763	576			269	12
2025-11-28T23:43	4825	572	0.3	-12.0		
2025-11-28T23:44	4868	569	0.3	-16.1		
2025-11-28T23:44	4911	566	0.1	-15.4		
2025-11-28T23:44	4995	560	0.4	-21.9		
2025-11-28T23:44	5129	550			270	14
2025-11-28T23:45	5227	544	-0.6	-27.5		
2025-11-28T23:45	5496	526			261	15
2025-11-28T23:46	5596	519	-3.2	-29.6		
2025-11-28T23:46	5751	509	-4.2	-27.8	270	14
2025-11-28T23:46	5892	500	-5.0	-28.4		
2025-11-28T23:47	6105	487	-6.5	-25.3		
2025-11-28T23:47	6116	486			260	13
2025-11-28T23:47	6220	480	-7.5	-23.3		
2025-11-28T23:47	6275	476	-7.6	-22.2		
2025-11-28T23:48	6394	469	-7.8	-23.6		
2025-11-28T23:48	6427	467			263	13
2025-11-28T23:48	6459	465	-8.0	-26.5		
2025-11-28T23:48	6691	451	-8.8	-21.8		
2025-11-28T23:49	6818	444	-9.6	-17.6		
2025-11-28T23:49	6825	444			265	12
2025-11-28T23:49	6912	439	-10.5	-14.9		
2025-11-28T23:50	7212	422	-13.0	-14.8	274	16
2025-11-28T23:50	7277	418	-13.0	-17.2		
2025-11-28T23:50	7436	410	-14.1	-16.9		
2025-11-28T23:51	7510	406	-14.0	-19.3		
2025-11-28T23:51	7592	401			267	15
2025-11-28T23:51	7799	390	-16.5	-22.8		
2025-11-28T23:52	7895	386	-17.3	-27.4		
2025-11-28T23:52	7920	384			260	15
2025-11-28T23:52	7977	381	-17.6	-37.4		
2025-11-28T23:52	8115	374	-18.5	-43.7		
2025-11-28T23:53	8285	366			255	17
2025-11-28T23:53	8523	354	-20.8	-52.6		
2025-11-28T23:54	8647	348			260	20
2025-11-28T23:55	9032	331			258	23
2025-11-28T23:55	9302	318	-26.6	-55.1		
2025-11-28T23:56	9409	314			243	24
2025-11-28T23:56	9543	308	-28.6	-47.2		
2025-11-28T23:57	9790	297			243	23
2025-11-28T23:58	10153	283			253	25
2025-11-28T23:58	10330	276	-34.7	-52.9		
2025-11-28T23:59	10537	268			264	23
2025-11-29T00:00	10912	253			270	24
2025-11-29T00:00	10937	252	-39.9	-54.3		
2025-11-29T00:00	10950	252	-40.0	-54.4		
2025-11-29T00:01	11287	240			271	23
2025-11-29T00:01	11555	230	-45.3			
2025-11-29T00:02	11673	226			277	23
2025-11-29T00:02	11770	223	-45.7			
2025-11-29T00:03	12026	215			278	25
2025-11-29T00:04	12389	203			281	27
2025-11-29T00:05	12770	191			276	26
2025-11-29T00:05	12934	187	-54.5			
2025-11-29T00:06	13087	182			269	25
2025-11-29T00:07	13404	173			274	25
2025-11-29T00:07	13432	173	-57.9			
2025-11-29T00:08	13742	164			277	25
2025-11-29T00:09	14085	155			274	24
2025-11-29T00:10	14426	147			273	24
2025-11-29T00:11	14776	138			271	25
2025-11-29T00:11	14812	138	-70.0			
2025-11-29T00:12	15143	130			272	25
2025-11-29T00:12	15390	125	-74.2			
2025-11-29T00:13	15583	121			277	24
2025-11-29T00:13	15637	120	-75.3			
2025-11-29T00:14	15999	112			282	22
2025-11-29T00:15	16418	104			278	23
2025-11-29T00:15	16648	100	-83.6			
2025-11-29T00:15	16677	100	-83.7			
2025-11-29T00:16	16834	97	-83.4		264	22
2025-11-29T11:30	9	1013	25.5	22.0	20	5
2025-11-29T11:30	13	1013	25.3	22.0	20	1
2025-11-29T11:30	45	1009			4	2
2025-11-29T11:30	131	999			11	8
2025-11-29T11:31	345	975	22.3	20.0		
2025-11-29T11:31	374	972			25	5
2025-11-29T11:32	547	953	20.9	19.2		
2025-11-29T11:32	626	944			20	4
2025-11-29T11:32	730	933	19.8	17.8		
2025-11-29T11:33	894	915			305	6
2025-11-29T11:33	943	910	19.4	16.8		
2025-11-29T11:34	1235	880			298	7
2025-11-29T11:34	1277	875	16.7	15.7		
2025-11-29T11:34	1369	866	17.3	14.9		
2025-11-29T11:34	1435	859	17.8	14.7		
2025-11-29T11:35	1558	847	17.4	13.1		
2025-11-29T11:35	1602	843			286	10
2025-11-29T11:35	1771	826	17.1	9.8		
2025-11-29T11:35	1847	819			290	11
2025-11-29T11:35	1876	816	16.7	6.5		
2025-11-29T11:36	1938	810	16.7	3.4		
2025-11-29T11:36	2052	799	15.6	7.1		
2025-11-29T11:36	2149	790	15.0	6.3		
2025-11-29T11:36	2190	787			281	13
2025-11-29T11:37	2308	776	14.4	2.6		
2025-11-29T11:37	2415	766	13.2	5.1		
2025-11-29T11:37	2529	756	13.5	-3.3		
2025-11-29T11:37	2547	754			270	13
2025-11-29T11:37	2601	749	14.0	-13.1		
2025-11-29T11:38	2649	745	13.6	-5.5		
2025-11-29T11:38	2715	739	13.5	-17.6		
2025-11-29T11:38	2907	722			265	14
2025-11-29T11:39	2991	715	12.0	-20.0		
2025-11-29T11:39	3038	711	11.6	-4.1		
2025-11-29T11:39	3192	698	11.4	-27.0		
2025-11-29T11:39	3261	693			265	16
2025-11-29T11:40	3561	668	8.9	-21.1		
2025-11-29T11:40	3601	665			265	17
2025-11-29T11:41	3939	638			259	18
2025-11-29T11:41	3966	636	5.6	-21.6		
2025-11-29T11:42	4076	627	5.1	-20.3		
2025-11-29T11:42	4152	622	4.4	-8.4		
2025-11-29T11:42	4266	613			262	16
2025-11-29T11:43	4331	608	3.3	-3.3		
2025-11-29T11:43	4477	597	2.2	-4.1		
2025-11-29T11:43	4520	594			264	18
2025-11-29T11:43	4530	593	2.2	-8.2		
2025-11-29T11:43	4589	589	1.7	-2.4		
2025-11-29T11:44	4643	585	1.8	-2.2		
2025-11-29T11:44	4725	579			270	15
2025-11-29T11:44	4736	578	2.0	-3.9		
2025-11-29T11:44	4821	572	1.4	-2.4		
2025-11-29T11:45	5071	554			265	14
2025-11-29T11:45	5147	549	-1.1	-4.8		
2025-11-29T11:45	5257	542	-0.2	-25.4		
2025-11-29T11:46	5362	535			265	18
2025-11-29T11:46	5496	526	-1.9	-30.7		
2025-11-29T11:47	5713	511			258	19
2025-11-29T11:47	5730	510	-3.8	-26.7		
2025-11-29T11:48	6029	491	-6.4	-27.5		
2025-11-29T11:48	6058	489			261	19
2025-11-29T11:48	6195	481	-7.2	-29.5		
2025-11-29T11:49	6414	468	-8.8	-22.2		
2025-11-29T11:49	6420	467			274	18
2025-11-29T11:49	6524	461	-9.5	-22.8		
2025-11-29T11:49	6625	455	-10.4	-22.9		
2025-11-29T11:49	6730	449	-11.0	-19.4		
2025-11-29T11:50	6785	446			265	15
2025-11-29T11:50	6943	436	-12.5	-23.6		
2025-11-29T11:50	7073	429	-12.6	-28.6		
2025-11-29T11:51	7128	426	-11.7	-37.3		
2025-11-29T11:51	7147	425			245	15
2025-11-29T11:51	7242	420	-12.0	-39.7		
2025-11-29T11:51	7345	414	-12.4	-41.3		
2025-11-29T11:51	7445	409	-11.6	-52.0		
2025-11-29T11:52	7516	405			257	23
2025-11-29T11:52	7555	403	-11.7	-57.8		
2025-11-29T11:52	7843	388			248	26
2025-11-29T11:53	8220	369			243	29
2025-11-29T11:54	8263	367	-17.6	-50.3		
2025-11-29T11:54	8597	351			246	28
2025-11-29T11:55	8984	333			246	24
2025-11-29T11:56	9373	315	-26.9	-51.3	246	23
2025-11-29T11:57	9627	304	-28.8	-53.9		
2025-11-29T11:57	9784	298			251	21
2025-11-29T11:58	10197	281			245	22
2025-11-29T11:59	10623	264			237	26
2025-11-29T12:00	10711	261	-38.1	-56.3		
2025-11-29T12:00	10953	252	-40.0	-57.3		
2025-11-29T12:00	11027	249			245	25
2025-11-29T12:01	11429	235			264	23
2025-11-29T12:02	11483	233	-43.8			
2025-11-29T12:02	11827	221			253	24
2025-11-29T12:03	12228	208			252	26
2025-11-29T12:04	12547	198	-51.8			
2025-11-29T12:04	12627	196			264	25
2025-11-29T12:05	13042	183			268	24
2025-11-29T12:06	13472	171			264	25
2025-11-29T12:07	13793	163	-62.4			
2025-11-29T12:07	13957	158			267	24
2025-11-29T12:07	14002	157	-63.6			
2025-11-29T12:08	14409	147			266	24
2025-11-29T12:09	14511	145	-67.5			
2025-11-29T12:09	14858	137			274	26
2025-11-29T12:10	15122	131	-71.8			
2025-11-29T12:10	15315	126			280	26
2025-11-29T12:11	15766	117			279	26
2025-11-29T12:12	15871	115	-78.6			
2025-11-29T12:12	16228	108	-78.2		269	23
2025-11-29T12:13	16550	102	-79.8			
2025-11-29T12:13	16725	99			300	21
2025-11-29T12:14	17116	92			309	14
2025-11-29T12:15	17250	90	-82.6		292	12
2025-11-29T23:40	9	1016	26.2	22.7	40	5
2025-11-29T23:40	13	1015	25.7	22.0	30	1
2025-11-29T23:40	44	1012			24	4
2025-11-29T23:40	126	1002			34	9
2025-11-29T23:41	472	964			44	8
2025-11-29T23:42	603	949	19.9	18.9		
2025-11-29T23:42	827	925			39	6
2025-11-29T23:43	918	915	18.4	16.4		
2025-11-29T23:43	1032	903			7	5
2025-11-29T23:44	1304	875			334	4
2025-11-29T23:44	1315	874	16.1	13.8		
2025-11-29T23:45	1547	850	14.7	12.4		
2025-11-29T23:45	1640	841			330	5
2025-11-29T23:45	1674	837	13.7	12.9		
2025-11-29T23:45	1815	823			300	6
2025-11-29T23:45	1826	822	13.3	13.0		
2025-11-29T23:46	2165	790			296	9
2025-11-29T23:47	2300	777	11.7	10.9		
2025-11-29T23:47	2393	769			293	10
2025-11-29T23:47	2468	762	12.5	10.4		
2025-11-29T23:48	2731	738	11.4	8.4		
2025-11-29T23:48	2756	736			286	12
2025-11-29T23:48	2782	734	11.8	6.1		
2025-11-29T23:48	2832	729	11.4	4.1		
2025-11-29T23:48	2915	722	11.9	-6.0		
2025-11-29T23:49	2990	716			267	14
2025-11-29T23:49	3015	713	11.8	-15.8		
2025-11-29T23:49	3255	693	10.2	-21.3		
2025-11-29T23:50	3370	684			264	16
2025-11-29T23:50	3651	661	7.1	-25.0		
2025-11-29T23:51	3735	654			261	16
2025-11-29T23:52	4080	627			253	17
2025-11-29T23:52	4119	624	3.8	-25.1		
2025-11-29T23:52	4177	619	3.5	-19.3		
2025-11-29T23:52	4246	614	2.7	-2.2		
2025-11-29T23:52	4305	610	2.2	-0.7		
2025-11-29T23:53	4431	600			262	17
2025-11-29T23:53	4473	597	1.7	-10.5		
2025-11-29T23:53	4608	587	0.4	-6.9		
2025-11-29T23:53	4734	578	-0.6	-10.8		
2025-11-29T23:54	4779	575			253	17
2025-11-29T23:54	4796	574	-1.3	-7.4		
2025-11-29T23:54	4922	565	-2.5	-6.3		
2025-11-29T23:54	4950	563	-2.2	-9.4		
2025-11-29T23:54	4978	561			256	18
2025-11-29T23:54	4989	560	-0.5	-27.4		
2025-11-29T23:55	5166	548	-0.2	-29.4		
2025-11-29T23:55	5267	541	-0.8	-26.7		
2025-11-29T23:55	5298	539			261	20
2025-11-29T23:56	5514	524	-2.9	-37.4		
2025-11-29T23:56	5615	517			258	20
2025-11-29T23:57	5721	511	-4.6	-36.9		
2025-11-29T23:57	5869	501	-5.8	-27.0		
2025-11-29T23:57	5901	499			257	20
2025-11-29T23:58	6231	478			267	21
2025-11-29T23:58	6248	477	-9.0	-35.1		
2025-11-29T23:59	6366	470	-9.4	-36.5		
2025-11-29T23:59	6464	464			253	19
2025-11-29T23:59	6470	464	-10.3	-27.5		
2025-11-29T23:59	6504	462	-10.5	-26.8		
2025-11-29T23:59	6543	459	-10.5	-31.5		
2025-11-29T23:59	6605	456	-11.0	-26.4		
2025-11-29T23:59	6644	453	-11.3	-23.1		
2025-11-29T23:59	6695	450	-11.5	-23.9		
2025-11-30T00:00	6739	448	-10.8	-29.4		
2025-11-30T00:00	6794	444	-10.5	-27.7		
2025-11-30T00:00	6799	444			257	18
2025-11-30T00:00	6838	442	-11.0	-24.5		
2025-11-30T00:00	6952	435	-11.8	-24.5		
2025-11-30T00:00	7003	433	-11.9	-27.1		
2025-11-30T00:01	7055	430	-11.2	-40.4		
2025-11-30T00:01	7108	427			256	20
2025-11-30T00:01	7246	419	-12.4	-42.7		
2025-11-30T00:01	7355	413	-12.7	-37.1		
2025-11-30T00:02	7471	407			251	23
2025-11-30T00:02	7690	395	-15.0	-50.9		
2025-11-30T00:03	7781	391			248	24
2025-11-30T00:03	8080	375	-17.3	-55.9		
2025-11-30T00:04	8158	371			243	25
2025-11-30T00:05	8532	353			244	26
2025-11-30T00:05	8551	352	-21.5	-51.2		
2025-11-30T00:05	8873	337	-23.5	-54.6		
2025-11-30T00:06	8903	336			247	24
2025-11-30T00:07	9265	320			249	25
2025-11-30T00:08	9627	304			253	25
2025-11-30T00:08	9757	298	-30.9	-54.5		
2025-11-30T00:09	9990	289			267	25
2025-11-30T00:10	10364	274			262	24
2025-11-30T00:11	10734	259			258	24
2025-11-30T00:11	10987	250	-40.0	-62.7		
2025-11-30T00:12	11113	245			264	22
2025-11-30T00:12	11402	235	-43.2			
2025-11-30T00:13	11482	232			270	23
2025-11-30T00:13	11724	224			269	22
2025-11-30T00:14	12028	214			260	20
2025-11-30T00:15	12396	202			260	24
2025-11-30T00:16	12765	191			257	26
2025-11-30T00:17	12947	186	-55.0			
2025-11-30T00:17	13128	181			256	26
2025-11-30T00:18	13482	171			256	26
2025-11-30T00:19	13857	161			258	26
2025-11-30T00:19	13943	158	-62.7			
2025-11-30T00:20	14248	151			274	27
2025-11-30T00:21	14648	141			276	25
2025-11-30T00:21	14786	138	-69.3			
2025-11-30T00:22	15055	132			280	23
2025-11-30T00:23	15504	122			271	23
2025-11-30T00:24	15875	114	-78.1			
2025-11-30T00:24	15884	114			268	27
2025-11-30T00:24	16100	110	-78.4			
2025-11-30T00:25	16362	105			292	24
2025-11-30T00:25	16443	104	-79.8			
2025-11-30T00:26	16804	97			286	14
2025-11-30T00:26	17092	92	-82.5			
2025-11-30T00:27	17221	90			252	13
2025-11-30T00:27	17400	87	-81.7			
2025-11-30T00:28	17690	83			273	14
2025-11-30T00:28	18051	78	-83.0			
2025-11-30T00:29	18119	77			313	14
2025-11-30T00:29	18457	72	-81.2			
2025-11-30T00:30	18521	71			352	9
2025-11-30T00:30	18754	69	-80.6			
2025-11-30T00:30	18863	67			12	4
2025-11-30T00:31	18942	66	-77.3			
2025-11-30T00:31	19035	65			66	2
2025-11-30T00:31	19249	63	-78.3			
2025-11-30T00:32	19425	61			44	3
2025-11-30T00:32	19551	60	-75.3			
2025-11-30T00:32	19569	59			45	6
2025-11-30T00:32	19691	58			33	3
2025-11-30T00:33	19720	58	-74.4			
2025-11-30T00:33	19779	57			15	3
2025-11-30T00:33	19967	56	-70.6			
2025-11-30T00:33	20077	55			103	5
2025-11-30T00:34	20240	53	-70.4			
2025-11-30T00:34	20286	53			145	1
2025-11-30T00:35	20626	50			222	2
2025-11-30T00:35	20748	49			259	3
2025-11-30T00:36	20897	48			3	4
2025-11-30T00:36	20911	47	-66.8			
2025-11-30T00:36	21119	46			44	2
2025-11-30T00:36	21156	46	-66.4			
2025-11-30T00:37	21319	44			261	3
2025-11-30T00:37	21504	43	-63.7		311	3
2025-11-30T00:37	21633	42			338	5
2025-11-30T00:38	21899	40			329	4
2025-11-30T00:38	22037	39			10	3
2025-11-30T00:39	22194	38			349	4
2025-11-30T00:39	22341	38			24	2
2025-11-30T00:39	22390	37	-62.5			
2025-11-30T00:40	22716	35			355	2
2025-11-30T00:41	22985	34			352	7
2025-11-30T00:41	23041	34	-59.6			
2025-11-30T00:42	23388	32			12	7
2025-11-30T00:42	23448	31	-57.5			
2025-11-30T00:43	23801	30			33	7
2025-11-30T00:43	24042	29	-55.3			
2025-11-30T00:44	24064	29			61	5
2025-11-30T00:44	24339	27			62	9
2025-11-30T00:45	24620	26	-57.8			
2025-11-30T00:45	24720	26			77	8
2025-11-30T00:46	24971	25			23	4
2025-11-30T00:46	25177	24			66	3
2025-11-30T00:47	25505	23	-57.7			
2025-11-30T00:47	25560	23			38	10
2025-11-30T00:48	25965	21			73	2
2025-11-30T00:48	26023	21	-56.5			
2025-11-30T00:49	26370	20			18	2
2025-11-30T00:50	26599	19	-55.8			
2025-11-30T00:50	26801	19			197	3
2025-11-30T00:51	27049	18			174	4
2025-11-30T00:51	27231	17			194	5
2025-11-30T00:51	27380	17			164	3
2025-11-30T00:52	27573	16			212	4
2025-11-30T00:52	27772	16	-55.0		199	2
2025-11-30T00:52	27892	16			122	3
2025-11-30T00:53	28056	15			127	5
2025-11-30T00:53	28146	15	-55.9		141	5
2025-11-30T11:30	9	1017	24.9	21.0	60	7
2025-11-30T11:30	14	1016	25.0	20.3	34	4
2025-11-30T11:30	56	1011	24.8	18.7	51	12
2025-11-30T11:31	387	974			61	14
2025-11-30T11:32	728	936	18.9	16.7	64	12
2025-11-30T11:33	961	911	17.5	15.8		
2025-11-30T11:33	1099	897			71	12
2025-11-30T11:34	1474	858			88	8
2025-11-30T11:35	1695	836			111	6
2025-11-30T11:36	2002	806			166	2
2025-11-30T11:36	2190	788	11.9	10.8		
2025-11-30T11:36	2226	785			288	2
2025-11-30T11:37	2442	765			292	5
2025-11-30T11:37	2625	748			295	6
2025-11-30T11:37	2679	743	8.9	6.2		
2025-11-30T11:38	2880	725	8.1	3.2		
2025-11-30T11:38	2979	717			307	10
2025-11-30T11:38	3002	715	7.9	4.3		
2025-11-30T11:39	3243	694			285	11
2025-11-30T11:39	3370	683	5.6	4.1		
2025-11-30T11:40	3633	662			287	13
2025-11-30T11:41	3853	644	2.6	1.1		
2025-11-30T11:41	3935	637	2.0	-0.3		
2025-11-30T11:41	3985	634			278	17
2025-11-30T11:41	4153	621	0.9	-1.5		
2025-11-30T11:42	4203	617	0.6	-4.4		
2025-11-30T11:42	4297	609	0.4	-3.7		
2025-11-30T11:42	4322	608	0.5	-4.5		
2025-11-30T11:42	4359	605			273	16
2025-11-30T11:42	4365	604	0.4	-16.4		
2025-11-30T11:42	4377	603	0.9	-18.5		
2025-11-30T11:42	4402	602	2.0	-19.9		
2025-11-30T11:42	4452	598	3.5	-20.8		
2025-11-30T11:42	4489	595	3.8	-20.5		
2025-11-30T11:43	4722	578			282	18
2025-11-30T11:44	4971	561	-0.3	-23.1		
2025-11-30T11:44	5079	553	-0.6	-24.1	288	19
2025-11-30T11:44	5227	543	-1.5	-26.4		
2025-11-30T11:45	5440	529			294	21
2025-11-30T11:45	5623	516	-3.6	-28.1		
2025-11-30T11:46	5824	503			278	17
2025-11-30T11:46	5947	496	-6.7	-23.0		
2025-11-30T11:47	6163	482	-8.7	-16.3		
2025-11-30T11:47	6214	479	-9.2	-12.2	280	18
2025-11-30T11:47	6342	471	-9.7	-12.8		
2025-11-30T11:48	6449	465	-9.6	-13.2		
2025-11-30T11:48	6512	461	-10.1	-13.7		
2025-11-30T11:48	6556	458	-9.7	-15.8		
2025-11-30T11:48	6594	456			275	20
2025-11-30T11:48	6677	451	-10.7	-14.9		
2025-11-30T11:49	6982	433			270	18
2025-11-30T11:49	7021	431	-13.3	-15.9		
2025-11-30T11:50	7196	421	-13.7	-20.0		
2025-11-30T11:50	7278	417	-13.1	-32.5		
2025-11-30T11:50	7316	415			249	19
2025-11-30T11:50	7431	408	-14.3	-36.8		
2025-11-30T11:51	7575	401	-15.1	-32.1		
2025-11-30T11:51	7674	396			250	22
2025-11-30T11:51	7776	390	-16.1	-35.0		
2025-11-30T11:51	7932	382			249	22
2025-11-30T11:52	7987	379	-17.7	-39.5		
2025-11-30T11:52	8211	368	-17.9	-52.9		
2025-11-30T11:52	8312	363			246	25
2025-11-30T11:53	8684	346			255	24
2025-11-30T11:54	8902	335	-23.7	-52.9		
2025-11-30T11:54	9018	330			261	24
2025-11-30T11:55	9231	321	-26.1	-47.1		
2025-11-30T11:55	9312	317			272	19
2025-11-30T11:56	9557	306	-28.5	-46.5		
2025-11-30T11:56	9706	300			279	20
2025-11-30T11:57	10095	284			281	18
2025-11-30T11:57	10232	278	-34.9	-47.7		
2025-11-30T11:58	10327	275	-33.9	-55.9		
2025-11-30T11:58	10454	270			275	20
2025-11-30T11:59	10828	256			278	20
2025-11-30T11:59	10972	250	-40.0	-58.5		
2025-11-30T12:00	11210	242			273	19
2025-11-30T12:01	11596	228			259	21
2025-11-30T12:01	11725	224	-46.4			
2025-11-30T12:02	11952	216			260	24
2025-11-30T12:03	12300	205			259	24
2025-11-30T12:04	12636	195			265	25
2025-11-30T12:05	12976	185			267	26
2025-11-30T12:05	13062	182	-56.7			
2025-11-30T12:06	13323	175			269	25
2025-11-30T12:07	13665	166	-60.6		265	29
2025-11-30T23:30	9	1019	26.0	21.0	60	8
2025-11-30T23:30	12	1018	25.6	21.1	101	2
2025-11-30T23:30	35	1015			72	7
2025-11-30T23:30	77	1011			68	12
2025-11-30T23:30	89	1009	24.4	19.5		
2025-11-30T23:31	376	977	21.5	18.3		
2025-11-30T23:31	436	970			72	13
2025-11-30T23:32	800	930			84	11
2025-11-30T23:33	974	911	16.7	15.9		
2025-11-30T23:33	1183	889			101	9
2025-11-30T23:34	1307	876	15.2	14.6		
2025-11-30T23:34	1566	850			117	4
2025-11-30T23:34	1602	846	14.3	13.0		
2025-11-30T23:35	1739	833			115	2
2025-11-30T23:35	1840	823	13.8	11.0		
2025-11-30T23:35	1931	814			319	2
2025-11-30T23:35	1942	813	13.8	6.7		
2025-11-30T23:35	1993	808	13.6	6.7		
2025-11-30T23:36	2057	802	13.5	9.2		
2025-11-30T23:36	2214	787			298	7
2025-11-30T23:36	2249	784	13.0	7.2		
2025-11-30T23:37	2566	755			312	11
2025-11-30T23:37	2607	751	10.5	5.1		
2025-11-30T23:38	2819	732	9.4	6.3		
2025-11-30T23:38	2883	726			289	11
2025-11-30T23:39	3204	699	7.3	3.9		
2025-11-30T23:39	3227	697			261	11
2025-11-30T23:40	3453	678			269	13
2025-11-30T23:40	3508	673	5.8	2.6		
2025-11-30T23:40	3643	662	4.8	0.7		
2025-11-30T23:41	3817	648			284	17
2025-11-30T23:41	3847	646	3.4	-5.0		
2025-11-30T23:41	3936	639	2.6	-6.3		
2025-11-30T23:41	4008	633	2.3	-10.6		
2025-11-30T23:41	4062	629	2.9	-25.8		
2025-11-30T23:41	4115	625	3.0	-29.6		
2025-11-30T23:42	4174	620			298	19
2025-11-30T23:42	4250	615	3.3	-35.2		
2025-11-30T23:42	4408	603			292	17
2025-11-30T23:43	4687	582	1.7	-36.3		
2025-11-30T23:43	4755	577			293	16
2025-11-30T23:44	5102	553			285	15
2025-11-30T23:44	5119	551	-1.6	-38.7		
2025-11-30T23:45	5292	539	-2.5	-37.1		
2025-11-30T23:45	5441	529			284	18
2025-11-30T23:46	5798	506			281	17
2025-11-30T23:46	5845	503	-7.1	-32.7		
2025-11-30T23:47	6158	483			286	17
2025-11-30T23:48	6449	465	-11.5	-27.2		
2025-11-30T23:48	6516	461	-11.7	-21.5		
2025-11-30T23:48	6528	460			274	18
2025-11-30T23:49	6671	452	-12.9	-13.8		
2025-11-30T23:49	6877	440	-14.3	-15.6		
2025-11-30T23:49	6895	439			270	18
2025-11-30T23:49	6948	436	-13.7	-17.7		
2025-11-30T23:50	7038	430	-14.0	-17.2		
2025-11-30T23:50	7184	422	-14.9	-18.8		
2025-11-30T23:50	7227	420	-15.3	-18.1		
2025-11-30T23:50	7258	418			269	20
2025-11-30T23:50	7277	417	-15.5	-18.8		
2025-11-30T23:51	7358	413	-15.8	-19.1		
2025-11-30T23:51	7474	406	-15.9	-22.3		
2025-11-30T23:51	7577	401	-16.6	-22.4		
2025-11-30T23:51	7628	398	-17.1	-21.4		
2025-11-30T23:51	7641	397			269	21
2025-11-30T23:51	7697	395	-17.5	-23.8		
2025-11-30T23:52	7741	392	-17.2	-28.2		
2025-11-30T23:52	8005	379	-19.4	-32.3	265	22
2025-11-30T23:53	8091	374	-19.9	-38.2		
2025-11-30T23:53	8261	366	-20.6	-37.8		
2025-11-30T23:53	8346	362			269	25
2025-11-30T23:53	8363	361	-21.2	-31.2		
2025-11-30T23:54	8421	358	-20.6	-41.9		
2025-11-30T23:54	8584	350	-21.2	-49.4		
2025-11-30T23:54	8696	345			270	27
2025-11-30T23:55	8949	333	-24.0	-44.7		
2025-11-30T23:55	9060	328			273	29
2025-11-30T23:56	9429	312			272	30
2025-11-30T23:57	9587	305	-29.9	-41.3		
2025-11-30T23:57	9682	301	-30.6	-38.9		
2025-11-30T23:57	9747	298	-31.0	-41.5		
2025-11-30T23:57	9806	296			267	31
2025-11-30T23:58	9891	292	-32.1	-38.7		
2025-11-30T23:58	10135	282	-34.3	-40.9		
2025-11-30T23:58	10184	280			265	30
2025-11-30T23:59	10319	275	-35.6	-50.6		
2025-11-30T23:59	10556	266			267	25
